<?xml version='1.0' encoding='UTF-8'?><gpx version="1.1" creator="JPX - https://github.com/jenetics/jpx" xmlns="http://www.topografix.com/GPX/1/1"><trk><trkseg><trkpt lat="46.4834282" lon="12.8654309"><ele>534.0</ele><time>2026-04-22T07:35:06.685Z</time></trkpt><trkpt lat="46.4834455" lon="12.8653333"><ele>534.0</ele><time>2026-04-22T07:35:09.686Z</time></trkpt><trkpt lat="46.4833738" lon="12.8652556"><ele>534.0</ele><time>2026-04-22T07:35:41.686Z</time></trkpt><trkpt lat="46.4833062" lon="12.8652673"><ele>534.0</ele><time>2026-04-22T07:35:42.685Z</time></trkpt><trkpt lat="46.4832072" lon="12.8653048"><ele>534.0</ele><time>2026-04-22T07:35:43.685Z</time></trkpt><trkpt lat="46.4831058" lon="12.8653518"><ele>534.0</ele><time>2026-04-22T07:35:44.687Z</time></trkpt><trkpt lat="46.4829885" lon="12.8653912"><ele>533.2</ele><time>2026-04-22T07:35:45.685Z</time></trkpt><trkpt lat="46.4828822" lon="12.8654177"><ele>532.4</ele><time>2026-04-22T07:35:46.686Z</time></trkpt><trkpt lat="46.4827846" lon="12.865448"><ele>531.6</ele><time>2026-04-22T07:35:47.684Z</time></trkpt><trkpt lat="46.482691" lon="12.8654842"><ele>530.8</ele><time>2026-04-22T07:35:48.685Z</time></trkpt><trkpt lat="46.4825974" lon="12.8655316"><ele>530.0</ele><time>2026-04-22T07:35:49.684Z</time></trkpt><trkpt lat="46.4825001" lon="12.8655952"><ele>530.0</ele><time>2026-04-22T07:35:50.685Z</time></trkpt><trkpt lat="46.4824009" lon="12.8656844"><ele>530.0</ele><time>2026-04-22T07:35:51.685Z</time></trkpt><trkpt lat="46.4822976" lon="12.8658026"><ele>530.0</ele><time>2026-04-22T07:35:52.685Z</time></trkpt><trkpt lat="46.4822113" lon="12.8659042"><ele>530.0</ele><time>2026-04-22T07:35:53.684Z</time></trkpt><trkpt lat="46.4821266" lon="12.8660043"><ele>528.25</ele><time>2026-04-22T07:35:54.684Z</time></trkpt><trkpt lat="46.4820432" lon="12.8661023"><ele>526.5</ele><time>2026-04-22T07:35:55.684Z</time></trkpt><trkpt lat="46.4819617" lon="12.8662003"><ele>524.75</ele><time>2026-04-22T07:35:56.684Z</time></trkpt><trkpt lat="46.4818728" lon="12.8663179"><ele>523.0</ele><time>2026-04-22T07:35:57.684Z</time></trkpt><trkpt lat="46.4817585" lon="12.8664606"><ele>523.0</ele><time>2026-04-22T07:35:58.685Z</time></trkpt><trkpt lat="46.4816488" lon="12.8665977"><ele>523.0</ele><time>2026-04-22T07:35:59.685Z</time></trkpt><trkpt lat="46.4815287" lon="12.8667665"><ele>523.0</ele><time>2026-04-22T07:36:00.685Z</time></trkpt><trkpt lat="46.4814117" lon="12.8668986"><ele>524.5</ele><time>2026-04-22T07:36:01.684Z</time></trkpt><trkpt lat="46.4812912" lon="12.8670145"><ele>526.0</ele><time>2026-04-22T07:36:02.684Z</time></trkpt><trkpt lat="46.4811705" lon="12.8671037"><ele>527.5</ele><time>2026-04-22T07:36:03.684Z</time></trkpt><trkpt lat="46.4810359" lon="12.8671595"><ele>529.0</ele><time>2026-04-22T07:36:04.684Z</time></trkpt><trkpt lat="46.4808959" lon="12.8671771"><ele>529.0</ele><time>2026-04-22T07:36:05.684Z</time></trkpt><trkpt lat="46.4807516" lon="12.8671822"><ele>529.0</ele><time>2026-04-22T07:36:06.685Z</time></trkpt><trkpt lat="46.4806045" lon="12.8671837"><ele>529.0</ele><time>2026-04-22T07:36:07.684Z</time></trkpt><trkpt lat="46.4804576" lon="12.8671846"><ele>529.0</ele><time>2026-04-22T07:36:08.685Z</time></trkpt><trkpt lat="46.4803089" lon="12.8671929"><ele>527.0</ele><time>2026-04-22T07:36:09.684Z</time></trkpt><trkpt lat="46.4801634" lon="12.8672097"><ele>525.0</ele><time>2026-04-22T07:36:10.684Z</time></trkpt><trkpt lat="46.4800191" lon="12.8672389"><ele>523.0</ele><time>2026-04-22T07:36:11.684Z</time></trkpt><trkpt lat="46.4798761" lon="12.8672757"><ele>521.0</ele><time>2026-04-22T07:36:12.684Z</time></trkpt><trkpt lat="46.4797341" lon="12.8673217"><ele>519.75</ele><time>2026-04-22T07:36:13.684Z</time></trkpt><trkpt lat="46.4795954" lon="12.8673772"><ele>518.5</ele><time>2026-04-22T07:36:14.684Z</time></trkpt><trkpt lat="46.4794651" lon="12.8674379"><ele>517.25</ele><time>2026-04-22T07:36:15.684Z</time></trkpt><trkpt lat="46.4793361" lon="12.8675071"><ele>516.0</ele><time>2026-04-22T07:36:16.684Z</time></trkpt><trkpt lat="46.4792001" lon="12.8675885"><ele>517.0</ele><time>2026-04-22T07:36:17.684Z</time></trkpt><trkpt lat="46.4790511" lon="12.8676846"><ele>518.0</ele><time>2026-04-22T07:36:18.684Z</time></trkpt><trkpt lat="46.478913" lon="12.8677799"><ele>519.0</ele><time>2026-04-22T07:36:19.684Z</time></trkpt><trkpt lat="46.4787859" lon="12.8678764"><ele>516.5</ele><time>2026-04-22T07:36:20.685Z</time></trkpt><trkpt lat="46.4786652" lon="12.8679807"><ele>514.0</ele><time>2026-04-22T07:36:21.685Z</time></trkpt><trkpt lat="46.4785547" lon="12.8680903"><ele>511.5</ele><time>2026-04-22T07:36:22.684Z</time></trkpt><trkpt lat="46.4784537" lon="12.8682098"><ele>509.0</ele><time>2026-04-22T07:36:23.684Z</time></trkpt><trkpt lat="46.4783598" lon="12.8683327"><ele>509.0</ele><time>2026-04-22T07:36:24.685Z</time></trkpt><trkpt lat="46.4782694" lon="12.8684579"><ele>509.0</ele><time>2026-04-22T07:36:25.684Z</time></trkpt><trkpt lat="46.478182" lon="12.8685832"><ele>509.0</ele><time>2026-04-22T07:36:26.684Z</time></trkpt><trkpt lat="46.4780947" lon="12.8687092"><ele>509.0</ele><time>2026-04-22T07:36:27.684Z</time></trkpt><trkpt lat="46.4780068" lon="12.8688337"><ele>508.75</ele><time>2026-04-22T07:36:28.686Z</time></trkpt><trkpt lat="46.4779195" lon="12.8689561"><ele>508.5</ele><time>2026-04-22T07:36:29.685Z</time></trkpt><trkpt lat="46.4778336" lon="12.8690781"><ele>508.25</ele><time>2026-04-22T07:36:30.684Z</time></trkpt><trkpt lat="46.4777481" lon="12.8691998"><ele>508.0</ele><time>2026-04-22T07:36:31.685Z</time></trkpt><trkpt lat="46.4776623" lon="12.8693213"><ele>508.0</ele><time>2026-04-22T07:36:32.684Z</time></trkpt><trkpt lat="46.477579" lon="12.869443"><ele>508.0</ele><time>2026-04-22T07:36:33.684Z</time></trkpt><trkpt lat="46.4774956" lon="12.8695609"><ele>508.0</ele><time>2026-04-22T07:36:34.684Z</time></trkpt><trkpt lat="46.477415" lon="12.8696711"><ele>508.0</ele><time>2026-04-22T07:36:35.684Z</time></trkpt><trkpt lat="46.4773357" lon="12.8697769"><ele>508.0</ele><time>2026-04-22T07:36:36.684Z</time></trkpt><trkpt lat="46.4772572" lon="12.869884"><ele>507.99999999999994</ele><time>2026-04-22T07:36:37.685Z</time></trkpt><trkpt lat="46.4771747" lon="12.8699987"><ele>507.99999999999994</ele><time>2026-04-22T07:36:38.685Z</time></trkpt><trkpt lat="46.4771005" lon="12.8701025"><ele>508.0</ele><time>2026-04-22T07:36:39.685Z</time></trkpt><trkpt lat="46.4770285" lon="12.8701972"><ele>508.0</ele><time>2026-04-22T07:36:40.684Z</time></trkpt><trkpt lat="46.4769577" lon="12.8702834"><ele>508.00000000000006</ele><time>2026-04-22T07:36:41.684Z</time></trkpt><trkpt lat="46.476886" lon="12.8703606"><ele>508.0</ele><time>2026-04-22T07:36:42.684Z</time></trkpt><trkpt lat="46.4768101" lon="12.8704229"><ele>508.0</ele><time>2026-04-22T07:36:43.685Z</time></trkpt><trkpt lat="46.4767363" lon="12.8704743"><ele>508.0</ele><time>2026-04-22T07:36:44.684Z</time></trkpt><trkpt lat="46.4766636" lon="12.8705114"><ele>508.00000000000006</ele><time>2026-04-22T07:36:45.685Z</time></trkpt><trkpt lat="46.4765892" lon="12.8705187"><ele>508.0</ele><time>2026-04-22T07:36:46.684Z</time></trkpt><trkpt lat="46.4765163" lon="12.8704976"><ele>508.00000000000006</ele><time>2026-04-22T07:36:47.684Z</time></trkpt><trkpt lat="46.4764584" lon="12.8704463"><ele>508.0</ele><time>2026-04-22T07:36:48.684Z</time></trkpt><trkpt lat="46.4764058" lon="12.8703874"><ele>508.0</ele><time>2026-04-22T07:36:49.685Z</time></trkpt><trkpt lat="46.4763415" lon="12.8703507"><ele>508.0</ele><time>2026-04-22T07:36:50.685Z</time></trkpt><trkpt lat="46.4762748" lon="12.8703599"><ele>508.00000000000006</ele><time>2026-04-22T07:36:51.684Z</time></trkpt><trkpt lat="46.4761771" lon="12.8704565"><ele>508.0</ele><time>2026-04-22T07:36:53.684Z</time></trkpt><trkpt lat="46.4761276" lon="12.8705214"><ele>506.50000000000006</ele><time>2026-04-22T07:36:54.684Z</time></trkpt><trkpt lat="46.4760742" lon="12.8705874"><ele>505.0</ele><time>2026-04-22T07:36:55.684Z</time></trkpt><trkpt lat="46.4760097" lon="12.8706475"><ele>503.5</ele><time>2026-04-22T07:36:56.684Z</time></trkpt><trkpt lat="46.4759337" lon="12.8707002"><ele>502.0</ele><time>2026-04-22T07:36:57.684Z</time></trkpt><trkpt lat="46.4758617" lon="12.8707466"><ele>500.50000000000006</ele><time>2026-04-22T07:36:58.684Z</time></trkpt><trkpt lat="46.4757732" lon="12.8707893"><ele>499.0</ele><time>2026-04-22T07:36:59.684Z</time></trkpt><trkpt lat="46.4756578" lon="12.8708551"><ele>504.6666666666667</ele><time>2026-04-22T07:37:00.685Z</time></trkpt><trkpt lat="46.4755374" lon="12.8709554"><ele>510.33333333333337</ele><time>2026-04-22T07:37:01.684Z</time></trkpt><trkpt lat="46.4753799" lon="12.8711086"><ele>516.0</ele><time>2026-04-22T07:37:02.685Z</time></trkpt><trkpt lat="46.4751823" lon="12.8712977"><ele>516.0</ele><time>2026-04-22T07:37:03.684Z</time></trkpt><trkpt lat="46.4749942" lon="12.8714605"><ele>516.0</ele><time>2026-04-22T07:37:04.685Z</time></trkpt><trkpt lat="46.4747986" lon="12.871604"><ele>516.0</ele><time>2026-04-22T07:37:05.684Z</time></trkpt><trkpt lat="46.4746048" lon="12.8717269"><ele>518.0</ele><time>2026-04-22T07:37:06.684Z</time></trkpt><trkpt lat="46.4744155" lon="12.8718425"><ele>520.0</ele><time>2026-04-22T07:37:07.685Z</time></trkpt><trkpt lat="46.4742324" lon="12.8719583"><ele>522.0</ele><time>2026-04-22T07:37:08.684Z</time></trkpt><trkpt lat="46.4740554" lon="12.8720691"><ele>522.0</ele><time>2026-04-22T07:37:09.686Z</time></trkpt><trkpt lat="46.4738835" lon="12.8721826"><ele>522.0</ele><time>2026-04-22T07:37:10.684Z</time></trkpt><trkpt lat="46.4737156" lon="12.8722983"><ele>522.0</ele><time>2026-04-22T07:37:11.685Z</time></trkpt><trkpt lat="46.4735503" lon="12.8724202"><ele>528.0</ele><time>2026-04-22T07:37:12.684Z</time></trkpt><trkpt lat="46.4733875" lon="12.8725446"><ele>534.0</ele><time>2026-04-22T07:37:13.684Z</time></trkpt><trkpt lat="46.4732236" lon="12.8726679"><ele>540.0</ele><time>2026-04-22T07:37:14.684Z</time></trkpt><trkpt lat="46.4730633" lon="12.8727863"><ele>529.6666666666666</ele><time>2026-04-22T07:37:15.684Z</time></trkpt><trkpt lat="46.4729024" lon="12.8728981"><ele>519.3333333333333</ele><time>2026-04-22T07:37:16.684Z</time></trkpt><trkpt lat="46.4727434" lon="12.8730041"><ele>509.0</ele><time>2026-04-22T07:37:17.684Z</time></trkpt><trkpt lat="46.4725833" lon="12.873108"><ele>509.0</ele><time>2026-04-22T07:37:18.686Z</time></trkpt><trkpt lat="46.472425" lon="12.8732134"><ele>509.0</ele><time>2026-04-22T07:37:19.684Z</time></trkpt><trkpt lat="46.4722615" lon="12.8733174"><ele>509.0</ele><time>2026-04-22T07:37:20.684Z</time></trkpt><trkpt lat="46.4720972" lon="12.8734213"><ele>516.3333333333333</ele><time>2026-04-22T07:37:21.684Z</time></trkpt><trkpt lat="46.471932" lon="12.873528"><ele>523.6666666666666</ele><time>2026-04-22T07:37:22.684Z</time></trkpt><trkpt lat="46.4717675" lon="12.8736378"><ele>531.0</ele><time>2026-04-22T07:37:23.686Z</time></trkpt><trkpt lat="46.4715993" lon="12.8737453"><ele>531.0</ele><time>2026-04-22T07:37:24.684Z</time></trkpt><trkpt lat="46.4714332" lon="12.8738573"><ele>531.0</ele><time>2026-04-22T07:37:25.684Z</time></trkpt><trkpt lat="46.4712699" lon="12.8739591"><ele>531.0</ele><time>2026-04-22T07:37:26.684Z</time></trkpt><trkpt lat="46.4711033" lon="12.8740481"><ele>520.3333333333334</ele><time>2026-04-22T07:37:27.684Z</time></trkpt><trkpt lat="46.4709334" lon="12.8741186"><ele>509.6666666666667</ele><time>2026-04-22T07:37:28.684Z</time></trkpt><trkpt lat="46.4707652" lon="12.8741779"><ele>499.0</ele><time>2026-04-22T07:37:29.685Z</time></trkpt><trkpt lat="46.4705958" lon="12.874238"><ele>511.33333333333337</ele><time>2026-04-22T07:37:30.684Z</time></trkpt><trkpt lat="46.4704125" lon="12.8743037"><ele>523.6666666666666</ele><time>2026-04-22T07:37:31.684Z</time></trkpt><trkpt lat="46.4702305" lon="12.874368"><ele>536.0</ele><time>2026-04-22T07:37:32.684Z</time></trkpt><trkpt lat="46.470059" lon="12.8744293"><ele>536.0</ele><time>2026-04-22T07:37:33.686Z</time></trkpt><trkpt lat="46.4698966" lon="12.8744857"><ele>536.0</ele><time>2026-04-22T07:37:34.684Z</time></trkpt><trkpt lat="46.4697414" lon="12.8745395"><ele>536.0</ele><time>2026-04-22T07:37:35.684Z</time></trkpt><trkpt lat="46.4695938" lon="12.8745958"><ele>529.5</ele><time>2026-04-22T07:37:36.684Z</time></trkpt><trkpt lat="46.469457" lon="12.8746451"><ele>523.0</ele><time>2026-04-22T07:37:37.685Z</time></trkpt><trkpt lat="46.4693338" lon="12.8746779"><ele>516.5</ele><time>2026-04-22T07:37:38.685Z</time></trkpt><trkpt lat="46.4692104" lon="12.8746913"><ele>510.0</ele><time>2026-04-22T07:37:39.684Z</time></trkpt><trkpt lat="46.4690959" lon="12.8746754"><ele>510.0</ele><time>2026-04-22T07:37:40.684Z</time></trkpt><trkpt lat="46.4689934" lon="12.8746552"><ele>510.0</ele><time>2026-04-22T07:37:41.684Z</time></trkpt><trkpt lat="46.4688994" lon="12.8746583"><ele>510.0</ele><time>2026-04-22T07:37:42.684Z</time></trkpt><trkpt lat="46.4688208" lon="12.8746998"><ele>510.0</ele><time>2026-04-22T07:37:43.685Z</time></trkpt><trkpt lat="46.4687686" lon="12.8747752"><ele>510.0</ele><time>2026-04-22T07:37:44.684Z</time></trkpt><trkpt lat="46.468703" lon="12.8748368"><ele>510.0</ele><time>2026-04-22T07:37:45.684Z</time></trkpt><trkpt lat="46.4686191" lon="12.8748524"><ele>508.75</ele><time>2026-04-22T07:37:46.684Z</time></trkpt><trkpt lat="46.4685133" lon="12.8748361"><ele>507.5</ele><time>2026-04-22T07:37:47.685Z</time></trkpt><trkpt lat="46.4683701" lon="12.8748313"><ele>506.25</ele><time>2026-04-22T07:37:48.684Z</time></trkpt><trkpt lat="46.4682143" lon="12.8748309"><ele>505.0</ele><time>2026-04-22T07:37:49.684Z</time></trkpt><trkpt lat="46.4680747" lon="12.8748098"><ele>505.0</ele><time>2026-04-22T07:37:50.684Z</time></trkpt><trkpt lat="46.4679637" lon="12.8747851"><ele>505.0</ele><time>2026-04-22T07:37:51.685Z</time></trkpt><trkpt lat="46.4678723" lon="12.8747708"><ele>505.0</ele><time>2026-04-22T07:37:52.685Z</time></trkpt><trkpt lat="46.4678042" lon="12.8747977"><ele>505.0</ele><time>2026-04-22T07:37:53.684Z</time></trkpt><trkpt lat="46.4677727" lon="12.8749407"><ele>505.0</ele><time>2026-04-22T07:37:55.684Z</time></trkpt><trkpt lat="46.4678394" lon="12.8750028"><ele>505.33333333333337</ele><time>2026-04-22T07:37:57.684Z</time></trkpt><trkpt lat="46.4678279" lon="12.8751035"><ele>505.6666666666667</ele><time>2026-04-22T07:37:59.684Z</time></trkpt><trkpt lat="46.4677307" lon="12.8751662"><ele>506.0</ele><time>2026-04-22T07:38:01.684Z</time></trkpt><trkpt lat="46.4676431" lon="12.8752192"><ele>506.33333333333337</ele><time>2026-04-22T07:38:03.684Z</time></trkpt><trkpt lat="46.4675787" lon="12.8752592"><ele>506.6666666666667</ele><time>2026-04-22T07:38:07.684Z</time></trkpt><trkpt lat="46.4676481" lon="12.8752266"><ele>507.0</ele><time>2026-04-22T07:38:49.684Z</time></trkpt><trkpt lat="46.4677392" lon="12.8751453"><ele>507.0</ele><time>2026-04-22T07:38:51.684Z</time></trkpt><trkpt lat="46.4678373" lon="12.8750877"><ele>507.00000000000006</ele><time>2026-04-22T07:38:53.684Z</time></trkpt><trkpt lat="46.4679429" lon="12.8750679"><ele>507.00000000000006</ele><time>2026-04-22T07:38:55.684Z</time></trkpt><trkpt lat="46.4680563" lon="12.8751088"><ele>507.0</ele><time>2026-04-22T07:38:57.684Z</time></trkpt><trkpt lat="46.4681653" lon="12.8751555"><ele>507.0</ele><time>2026-04-22T07:38:59.685Z</time></trkpt><trkpt lat="46.468265" lon="12.8751668"><ele>508.6666666666667</ele><time>2026-04-22T07:39:01.685Z</time></trkpt><trkpt lat="46.4683472" lon="12.8751706"><ele>510.33333333333337</ele><time>2026-04-22T07:39:03.684Z</time></trkpt><trkpt lat="46.4684259" lon="12.8752076"><ele>512.0</ele><time>2026-04-22T07:39:05.684Z</time></trkpt><trkpt lat="46.4685515" lon="12.8752454"><ele>513.6666666666667</ele><time>2026-04-22T07:39:07.684Z</time></trkpt><trkpt lat="46.4686253" lon="12.8752524"><ele>515.3333333333334</ele><time>2026-04-22T07:39:08.685Z</time></trkpt><trkpt lat="46.4686983" lon="12.8752521"><ele>517.0</ele><time>2026-04-22T07:39:09.684Z</time></trkpt><trkpt lat="46.4687713" lon="12.8752449"><ele>515.8333333333334</ele><time>2026-04-22T07:39:10.684Z</time></trkpt><trkpt lat="46.4688423" lon="12.8752293"><ele>514.6666666666667</ele><time>2026-04-22T07:39:11.684Z</time></trkpt><trkpt lat="46.4689127" lon="12.8752078"><ele>513.5</ele><time>2026-04-22T07:39:12.684Z</time></trkpt><trkpt lat="46.4689881" lon="12.8751741"><ele>512.3333333333334</ele><time>2026-04-22T07:39:13.684Z</time></trkpt><trkpt lat="46.4690639" lon="12.8751366"><ele>511.1666666666667</ele><time>2026-04-22T07:39:14.684Z</time></trkpt><trkpt lat="46.4691413" lon="12.8750989"><ele>510.0</ele><time>2026-04-22T07:39:15.685Z</time></trkpt><trkpt lat="46.4692158" lon="12.8750688"><ele>510.0</ele><time>2026-04-22T07:39:16.684Z</time></trkpt><trkpt lat="46.4692922" lon="12.8750449"><ele>510.0</ele><time>2026-04-22T07:39:17.685Z</time></trkpt><trkpt lat="46.4693682" lon="12.8750255"><ele>510.0</ele><time>2026-04-22T07:39:18.684Z</time></trkpt><trkpt lat="46.469443" lon="12.8750082"><ele>510.0</ele><time>2026-04-22T07:39:19.685Z</time></trkpt><trkpt lat="46.469518" lon="12.8749924"><ele>510.0</ele><time>2026-04-22T07:39:20.684Z</time></trkpt><trkpt lat="46.4695958" lon="12.8749782"><ele>510.0</ele><time>2026-04-22T07:39:21.684Z</time></trkpt><trkpt lat="46.4696738" lon="12.8749631"><ele>514.3333333333334</ele><time>2026-04-22T07:39:22.684Z</time></trkpt><trkpt lat="46.4697493" lon="12.8749375"><ele>518.6666666666666</ele><time>2026-04-22T07:39:23.684Z</time></trkpt><trkpt lat="46.4698204" lon="12.874908"><ele>523.0</ele><time>2026-04-22T07:39:24.684Z</time></trkpt><trkpt lat="46.4698914" lon="12.8748677"><ele>527.3333333333333</ele><time>2026-04-22T07:39:25.685Z</time></trkpt><trkpt lat="46.4699571" lon="12.874819"><ele>531.6666666666666</ele><time>2026-04-22T07:39:26.684Z</time></trkpt><trkpt lat="46.4700261" lon="12.8747712"><ele>536.0</ele><time>2026-04-22T07:39:27.684Z</time></trkpt><trkpt lat="46.470096" lon="12.8747236"><ele>536.0</ele><time>2026-04-22T07:39:28.685Z</time></trkpt><trkpt lat="46.4701639" lon="12.8746792"><ele>536.0</ele><time>2026-04-22T07:39:29.685Z</time></trkpt><trkpt lat="46.4702323" lon="12.8746395"><ele>536.0</ele><time>2026-04-22T07:39:30.684Z</time></trkpt><trkpt lat="46.4703024" lon="12.8746049"><ele>536.0</ele><time>2026-04-22T07:39:31.684Z</time></trkpt><trkpt lat="46.4703717" lon="12.8745677"><ele>536.0</ele><time>2026-04-22T07:39:32.684Z</time></trkpt><trkpt lat="46.4704415" lon="12.8745328"><ele>536.0</ele><time>2026-04-22T07:39:33.685Z</time></trkpt><trkpt lat="46.4705122" lon="12.8745032"><ele>536.0</ele><time>2026-04-22T07:39:34.684Z</time></trkpt><trkpt lat="46.4705854" lon="12.8744891"><ele>539.4285714285714</ele><time>2026-04-22T07:39:35.684Z</time></trkpt><trkpt lat="46.4706595" lon="12.8744805"><ele>542.8571428571429</ele><time>2026-04-22T07:39:36.684Z</time></trkpt><trkpt lat="46.4707337" lon="12.8744745"><ele>546.2857142857142</ele><time>2026-04-22T07:39:37.684Z</time></trkpt><trkpt lat="46.4708106" lon="12.8744687"><ele>549.7142857142858</ele><time>2026-04-22T07:39:38.684Z</time></trkpt><trkpt lat="46.4708849" lon="12.8744599"><ele>553.1428571428571</ele><time>2026-04-22T07:39:39.684Z</time></trkpt><trkpt lat="46.470958" lon="12.8744462"><ele>556.5714285714286</ele><time>2026-04-22T07:39:40.684Z</time></trkpt><trkpt lat="46.4710272" lon="12.874417"><ele>560.0</ele><time>2026-04-22T07:39:41.684Z</time></trkpt><trkpt lat="46.4710991" lon="12.8743802"><ele>560.0</ele><time>2026-04-22T07:39:42.684Z</time></trkpt><trkpt lat="46.4711685" lon="12.8743316"><ele>560.0</ele><time>2026-04-22T07:39:43.684Z</time></trkpt><trkpt lat="46.4712408" lon="12.8742809"><ele>560.0</ele><time>2026-04-22T07:39:44.685Z</time></trkpt><trkpt lat="46.471312" lon="12.874224"><ele>560.0</ele><time>2026-04-22T07:39:45.684Z</time></trkpt><trkpt lat="46.4713856" lon="12.8741647"><ele>560.0</ele><time>2026-04-22T07:39:46.685Z</time></trkpt><trkpt lat="46.4714589" lon="12.8740999"><ele>560.0</ele><time>2026-04-22T07:39:47.686Z</time></trkpt><trkpt lat="46.4715323" lon="12.874041"><ele>555.1666666666666</ele><time>2026-04-22T07:39:48.684Z</time></trkpt><trkpt lat="46.4716081" lon="12.8739935"><ele>550.3333333333333</ele><time>2026-04-22T07:39:49.684Z</time></trkpt><trkpt lat="46.4716874" lon="12.8739517"><ele>545.5</ele><time>2026-04-22T07:39:50.684Z</time></trkpt><trkpt lat="46.4717711" lon="12.8739147"><ele>540.6666666666666</ele><time>2026-04-22T07:39:51.685Z</time></trkpt><trkpt lat="46.4718596" lon="12.8738916"><ele>535.8333333333334</ele><time>2026-04-22T07:39:52.684Z</time></trkpt><trkpt lat="46.4719502" lon="12.8738788"><ele>531.0</ele><time>2026-04-22T07:39:53.684Z</time></trkpt><trkpt lat="46.4720434" lon="12.8738707"><ele>536.2</ele><time>2026-04-22T07:39:54.684Z</time></trkpt><trkpt lat="46.4721339" lon="12.8738585"><ele>541.4000000000001</ele><time>2026-04-22T07:39:55.684Z</time></trkpt><trkpt lat="46.4722267" lon="12.8738321"><ele>546.6</ele><time>2026-04-22T07:39:56.684Z</time></trkpt><trkpt lat="46.4723179" lon="12.8738048"><ele>551.8000000000001</ele><time>2026-04-22T07:39:57.684Z</time></trkpt><trkpt lat="46.4724095" lon="12.8737754"><ele>557.0</ele><time>2026-04-22T07:39:58.684Z</time></trkpt><trkpt lat="46.4725009" lon="12.8737364"><ele>557.0</ele><time>2026-04-22T07:39:59.685Z</time></trkpt><trkpt lat="46.4725885" lon="12.8736946"><ele>557.0</ele><time>2026-04-22T07:40:00.684Z</time></trkpt><trkpt lat="46.4726716" lon="12.8736429"><ele>557.0</ele><time>2026-04-22T07:40:01.684Z</time></trkpt><trkpt lat="46.4727518" lon="12.8735865"><ele>557.0</ele><time>2026-04-22T07:40:02.684Z</time></trkpt><trkpt lat="46.4728301" lon="12.873525"><ele>557.0</ele><time>2026-04-22T07:40:03.684Z</time></trkpt><trkpt lat="46.4729067" lon="12.8734608"><ele>557.0</ele><time>2026-04-22T07:40:04.685Z</time></trkpt><trkpt lat="46.4729838" lon="12.873397"><ele>554.1666666666666</ele><time>2026-04-22T07:40:05.684Z</time></trkpt><trkpt lat="46.4730604" lon="12.8733353"><ele>551.3333333333333</ele><time>2026-04-22T07:40:06.685Z</time></trkpt><trkpt lat="46.4731356" lon="12.873276"><ele>548.5</ele><time>2026-04-22T07:40:07.685Z</time></trkpt><trkpt lat="46.4732119" lon="12.8732233"><ele>545.6666666666666</ele><time>2026-04-22T07:40:08.685Z</time></trkpt><trkpt lat="46.4732869" lon="12.8731757"><ele>542.8333333333334</ele><time>2026-04-22T07:40:09.684Z</time></trkpt><trkpt lat="46.4733584" lon="12.8731245"><ele>540.0</ele><time>2026-04-22T07:40:10.684Z</time></trkpt><trkpt lat="46.4734273" lon="12.8730677"><ele>540.0</ele><time>2026-04-22T07:40:11.685Z</time></trkpt><trkpt lat="46.473496" lon="12.8730084"><ele>540.0</ele><time>2026-04-22T07:40:12.684Z</time></trkpt><trkpt lat="46.4735665" lon="12.8729516"><ele>540.0</ele><time>2026-04-22T07:40:13.684Z</time></trkpt><trkpt lat="46.4736405" lon="12.8729049"><ele>540.0</ele><time>2026-04-22T07:40:14.685Z</time></trkpt><trkpt lat="46.4737171" lon="12.8728622"><ele>540.0</ele><time>2026-04-22T07:40:15.684Z</time></trkpt><trkpt lat="46.4737948" lon="12.8728193"><ele>540.0</ele><time>2026-04-22T07:40:16.685Z</time></trkpt><trkpt lat="46.4738758" lon="12.8727842"><ele>542.6666666666666</ele><time>2026-04-22T07:40:17.684Z</time></trkpt><trkpt lat="46.4739578" lon="12.8727543"><ele>545.3333333333334</ele><time>2026-04-22T07:40:18.684Z</time></trkpt><trkpt lat="46.4740406" lon="12.872733"><ele>548.0</ele><time>2026-04-22T07:40:19.684Z</time></trkpt><trkpt lat="46.4741186" lon="12.872706"><ele>550.6666666666667</ele><time>2026-04-22T07:40:20.684Z</time></trkpt><trkpt lat="46.474195" lon="12.8726759"><ele>553.3333333333334</ele><time>2026-04-22T07:40:21.684Z</time></trkpt><trkpt lat="46.4742708" lon="12.8726466"><ele>556.0</ele><time>2026-04-22T07:40:22.685Z</time></trkpt><trkpt lat="46.4743452" lon="12.8726203"><ele>554.6666666666667</ele><time>2026-04-22T07:40:23.685Z</time></trkpt><trkpt lat="46.4744187" lon="12.8725875"><ele>553.3333333333334</ele><time>2026-04-22T07:40:24.685Z</time></trkpt><trkpt lat="46.4744928" lon="12.8725526"><ele>552.0</ele><time>2026-04-22T07:40:25.684Z</time></trkpt><trkpt lat="46.4745655" lon="12.8725098"><ele>550.6666666666666</ele><time>2026-04-22T07:40:26.685Z</time></trkpt><trkpt lat="46.4746359" lon="12.8724529"><ele>549.3333333333333</ele><time>2026-04-22T07:40:27.684Z</time></trkpt><trkpt lat="46.4746996" lon="12.8723795"><ele>548.0</ele><time>2026-04-22T07:40:28.684Z</time></trkpt><trkpt lat="46.4747617" lon="12.8722996"><ele>548.0</ele><time>2026-04-22T07:40:29.684Z</time></trkpt><trkpt lat="46.4748173" lon="12.8722119"><ele>548.0</ele><time>2026-04-22T07:40:30.685Z</time></trkpt><trkpt lat="46.47487" lon="12.8721234"><ele>548.0</ele><time>2026-04-22T07:40:31.684Z</time></trkpt><trkpt lat="46.47492" lon="12.8720367"><ele>548.0</ele><time>2026-04-22T07:40:32.684Z</time></trkpt><trkpt lat="46.474969" lon="12.8719514"><ele>548.0</ele><time>2026-04-22T07:40:33.684Z</time></trkpt><trkpt lat="46.4750192" lon="12.871869"><ele>548.0</ele><time>2026-04-22T07:40:34.684Z</time></trkpt><trkpt lat="46.4750754" lon="12.8717882"><ele>542.6666666666666</ele><time>2026-04-22T07:40:35.684Z</time></trkpt><trkpt lat="46.4751334" lon="12.8717081"><ele>537.3333333333333</ele><time>2026-04-22T07:40:36.684Z</time></trkpt><trkpt lat="46.4751947" lon="12.8716289"><ele>532.0</ele><time>2026-04-22T07:40:37.685Z</time></trkpt><trkpt lat="46.475253" lon="12.8715493"><ele>526.6666666666666</ele><time>2026-04-22T07:40:38.685Z</time></trkpt><trkpt lat="46.4753096" lon="12.8714676"><ele>521.3333333333334</ele><time>2026-04-22T07:40:39.685Z</time></trkpt><trkpt lat="46.4753703" lon="12.8713918"><ele>516.0</ele><time>2026-04-22T07:40:40.684Z</time></trkpt><trkpt lat="46.4754343" lon="12.871327"><ele>520.1666666666666</ele><time>2026-04-22T07:40:41.685Z</time></trkpt><trkpt lat="46.4755025" lon="12.8712725"><ele>524.3333333333334</ele><time>2026-04-22T07:40:42.684Z</time></trkpt><trkpt lat="46.4755729" lon="12.8712284"><ele>528.5</ele><time>2026-04-22T07:40:43.685Z</time></trkpt><trkpt lat="46.4756464" lon="12.8711916"><ele>532.6666666666667</ele><time>2026-04-22T07:40:44.684Z</time></trkpt><trkpt lat="46.4757214" lon="12.8711582"><ele>536.8333333333334</ele><time>2026-04-22T07:40:45.684Z</time></trkpt><trkpt lat="46.4757955" lon="12.8711243"><ele>541.0</ele><time>2026-04-22T07:40:46.685Z</time></trkpt><trkpt lat="46.475871" lon="12.8711073"><ele>541.0</ele><time>2026-04-22T07:40:47.684Z</time></trkpt><trkpt lat="46.4759493" lon="12.8711114"><ele>541.0</ele><time>2026-04-22T07:40:48.684Z</time></trkpt><trkpt lat="46.4760249" lon="12.8711118"><ele>541.0</ele><time>2026-04-22T07:40:49.685Z</time></trkpt><trkpt lat="46.4760991" lon="12.8711241"><ele>541.0</ele><time>2026-04-22T07:40:50.684Z</time></trkpt><trkpt lat="46.476165" lon="12.8711561"><ele>541.0</ele><time>2026-04-22T07:40:51.684Z</time></trkpt><trkpt lat="46.4762764" lon="12.8712283"><ele>541.0</ele><time>2026-04-22T07:40:53.684Z</time></trkpt><trkpt lat="46.4763344" lon="12.8712665"><ele>539.2</ele><time>2026-04-22T07:40:54.684Z</time></trkpt><trkpt lat="46.4764565" lon="12.8713553"><ele>537.4000000000001</ele><time>2026-04-22T07:40:56.684Z</time></trkpt><trkpt lat="46.4765229" lon="12.8713903"><ele>535.6</ele><time>2026-04-22T07:40:57.684Z</time></trkpt><trkpt lat="46.4765853" lon="12.871422"><ele>533.8000000000001</ele><time>2026-04-22T07:40:58.684Z</time></trkpt><trkpt lat="46.476705" lon="12.8714591"><ele>532.0</ele><time>2026-04-22T07:41:00.685Z</time></trkpt><trkpt lat="46.4768308" lon="12.8714836"><ele>532.0</ele><time>2026-04-22T07:41:02.684Z</time></trkpt><trkpt lat="46.4769341" lon="12.8715021"><ele>532.0</ele><time>2026-04-22T07:41:03.684Z</time></trkpt><trkpt lat="46.4770438" lon="12.8715305"><ele>532.0</ele><time>2026-04-22T07:41:04.685Z</time></trkpt><trkpt lat="46.4771705" lon="12.8715436"><ele>532.0</ele><time>2026-04-22T07:41:05.685Z</time></trkpt><trkpt lat="46.4772932" lon="12.8715388"><ele>533.25</ele><time>2026-04-22T07:41:06.684Z</time></trkpt><trkpt lat="46.4774155" lon="12.8715323"><ele>534.5</ele><time>2026-04-22T07:41:07.685Z</time></trkpt><trkpt lat="46.4775338" lon="12.8715179"><ele>535.75</ele><time>2026-04-22T07:41:08.684Z</time></trkpt><trkpt lat="46.4776454" lon="12.8715089"><ele>537.0</ele><time>2026-04-22T07:41:09.684Z</time></trkpt><trkpt lat="46.4777447" lon="12.8715012"><ele>537.0</ele><time>2026-04-22T07:41:10.684Z</time></trkpt><trkpt lat="46.477834" lon="12.871473"><ele>537.0</ele><time>2026-04-22T07:41:11.684Z</time></trkpt><trkpt lat="46.4779268" lon="12.8714295"><ele>537.0</ele><time>2026-04-22T07:41:12.685Z</time></trkpt><trkpt lat="46.4780147" lon="12.8713451"><ele>537.0</ele><time>2026-04-22T07:41:13.684Z</time></trkpt><trkpt lat="46.4781078" lon="12.871248"><ele>537.0</ele><time>2026-04-22T07:41:14.685Z</time></trkpt><trkpt lat="46.4782085" lon="12.8711483"><ele>537.4</ele><time>2026-04-22T07:41:15.685Z</time></trkpt><trkpt lat="46.4783015" lon="12.8710466"><ele>537.8000000000001</ele><time>2026-04-22T07:41:16.684Z</time></trkpt><trkpt lat="46.478388" lon="12.8709533"><ele>538.2</ele><time>2026-04-22T07:41:17.684Z</time></trkpt><trkpt lat="46.4784702" lon="12.8708666"><ele>538.6</ele><time>2026-04-22T07:41:18.685Z</time></trkpt><trkpt lat="46.4785525" lon="12.8707873"><ele>539.0</ele><time>2026-04-22T07:41:19.684Z</time></trkpt><trkpt lat="46.478636" lon="12.8707151"><ele>537.6</ele><time>2026-04-22T07:41:20.685Z</time></trkpt><trkpt lat="46.4787218" lon="12.870655"><ele>536.2</ele><time>2026-04-22T07:41:21.684Z</time></trkpt><trkpt lat="46.4788095" lon="12.8706226"><ele>534.8000000000001</ele><time>2026-04-22T07:41:22.684Z</time></trkpt><trkpt lat="46.478897" lon="12.8706012"><ele>533.4</ele><time>2026-04-22T07:41:23.685Z</time></trkpt><trkpt lat="46.478988" lon="12.8705969"><ele>532.0</ele><time>2026-04-22T07:41:24.684Z</time></trkpt><trkpt lat="46.4790799" lon="12.8706136"><ele>532.0</ele><time>2026-04-22T07:41:25.684Z</time></trkpt><trkpt lat="46.4791763" lon="12.8706284"><ele>532.0</ele><time>2026-04-22T07:41:26.685Z</time></trkpt><trkpt lat="46.4792818" lon="12.8706124"><ele>532.0</ele><time>2026-04-22T07:41:27.684Z</time></trkpt><trkpt lat="46.479387" lon="12.8705678"><ele>532.0</ele><time>2026-04-22T07:41:28.684Z</time></trkpt><trkpt lat="46.4794811" lon="12.8704961"><ele>532.0</ele><time>2026-04-22T07:41:29.684Z</time></trkpt><trkpt lat="46.4795604" lon="12.8704055"><ele>531.8000000000001</ele><time>2026-04-22T07:41:30.685Z</time></trkpt><trkpt lat="46.4796251" lon="12.870293"><ele>531.6</ele><time>2026-04-22T07:41:31.684Z</time></trkpt><trkpt lat="46.4796728" lon="12.8701622"><ele>531.4000000000001</ele><time>2026-04-22T07:41:32.684Z</time></trkpt><trkpt lat="46.4797054" lon="12.8700095"><ele>531.2</ele><time>2026-04-22T07:41:33.684Z</time></trkpt><trkpt lat="46.479725" lon="12.8698546"><ele>531.0</ele><time>2026-04-22T07:41:34.684Z</time></trkpt><trkpt lat="46.4797378" lon="12.8697007"><ele>531.0</ele><time>2026-04-22T07:41:35.685Z</time></trkpt><trkpt lat="46.4797492" lon="12.8695479"><ele>531.0</ele><time>2026-04-22T07:41:36.684Z</time></trkpt><trkpt lat="46.4797607" lon="12.869405"><ele>531.0</ele><time>2026-04-22T07:41:37.684Z</time></trkpt><trkpt lat="46.4797772" lon="12.8692721"><ele>531.0</ele><time>2026-04-22T07:41:38.684Z</time></trkpt><trkpt lat="46.4798047" lon="12.869146"><ele>531.0</ele><time>2026-04-22T07:41:39.684Z</time></trkpt><trkpt lat="46.4798469" lon="12.8690242"><ele>530.25</ele><time>2026-04-22T07:41:40.684Z</time></trkpt><trkpt lat="46.4799109" lon="12.8688923"><ele>529.5</ele><time>2026-04-22T07:41:41.685Z</time></trkpt><trkpt lat="46.479989" lon="12.8687525"><ele>528.75</ele><time>2026-04-22T07:41:42.684Z</time></trkpt><trkpt lat="46.4800648" lon="12.8686224"><ele>528.0</ele><time>2026-04-22T07:41:43.685Z</time></trkpt><trkpt lat="46.480137" lon="12.8684919"><ele>527.4</ele><time>2026-04-22T07:41:44.685Z</time></trkpt><trkpt lat="46.4802078" lon="12.8683733"><ele>526.8</ele><time>2026-04-22T07:41:45.684Z</time></trkpt><trkpt lat="46.4802749" lon="12.86826"><ele>526.2</ele><time>2026-04-22T07:41:46.685Z</time></trkpt><trkpt lat="46.4803412" lon="12.8681548"><ele>525.6</ele><time>2026-04-22T07:41:47.685Z</time></trkpt><trkpt lat="46.4804196" lon="12.8680707"><ele>525.0</ele><time>2026-04-22T07:41:48.684Z</time></trkpt><trkpt lat="46.4805084" lon="12.8680099"><ele>526.6</ele><time>2026-04-22T07:41:49.684Z</time></trkpt><trkpt lat="46.4806064" lon="12.8679702"><ele>528.2</ele><time>2026-04-22T07:41:50.684Z</time></trkpt><trkpt lat="46.4807107" lon="12.8679639"><ele>529.8</ele><time>2026-04-22T07:41:51.684Z</time></trkpt><trkpt lat="46.480814" lon="12.8679723"><ele>531.4</ele><time>2026-04-22T07:41:52.684Z</time></trkpt><trkpt lat="46.4809045" lon="12.8679827"><ele>533.0</ele><time>2026-04-22T07:41:53.684Z</time></trkpt><trkpt lat="46.4809891" lon="12.8679926"><ele>533.0</ele><time>2026-04-22T07:41:54.685Z</time></trkpt><trkpt lat="46.4810587" lon="12.8679973"><ele>533.0</ele><time>2026-04-22T07:41:55.684Z</time></trkpt><trkpt lat="46.4811541" lon="12.8680071"><ele>533.0</ele><time>2026-04-22T07:41:57.684Z</time></trkpt><trkpt lat="46.4812696" lon="12.8680263"><ele>533.0</ele><time>2026-04-22T07:42:00.684Z</time></trkpt><trkpt lat="46.4813429" lon="12.868024"><ele>533.0</ele><time>2026-04-22T07:42:01.684Z</time></trkpt><trkpt lat="46.4814259" lon="12.8680006"><ele>533.0</ele><time>2026-04-22T07:42:02.685Z</time></trkpt><trkpt lat="46.4815227" lon="12.8679573"><ele>532.6</ele><time>2026-04-22T07:42:03.684Z</time></trkpt><trkpt lat="46.4816061" lon="12.8678894"><ele>532.1999999999999</ele><time>2026-04-22T07:42:04.685Z</time></trkpt><trkpt lat="46.4816851" lon="12.8677867"><ele>531.8</ele><time>2026-04-22T07:42:05.684Z</time></trkpt><trkpt lat="46.4817595" lon="12.8676605"><ele>531.4</ele><time>2026-04-22T07:42:06.684Z</time></trkpt><trkpt lat="46.4818273" lon="12.867549"><ele>531.0</ele><time>2026-04-22T07:42:07.684Z</time></trkpt><trkpt lat="46.4818914" lon="12.8674314"><ele>531.0</ele><time>2026-04-22T07:42:08.685Z</time></trkpt><trkpt lat="46.4819568" lon="12.867315"><ele>531.0</ele><time>2026-04-22T07:42:09.685Z</time></trkpt><trkpt lat="46.4820308" lon="12.8672145"><ele>531.0</ele><time>2026-04-22T07:42:10.684Z</time></trkpt><trkpt lat="46.4821122" lon="12.867128"><ele>531.0</ele><time>2026-04-22T07:42:11.684Z</time></trkpt><trkpt lat="46.4821983" lon="12.8670509"><ele>531.0</ele><time>2026-04-22T07:42:12.684Z</time></trkpt><trkpt lat="46.4822908" lon="12.8669838"><ele>531.2</ele><time>2026-04-22T07:42:13.683Z</time></trkpt><trkpt lat="46.4823846" lon="12.8669214"><ele>531.4000000000001</ele><time>2026-04-22T07:42:14.685Z</time></trkpt><trkpt lat="46.4824743" lon="12.8668636"><ele>531.6</ele><time>2026-04-22T07:42:15.683Z</time></trkpt><trkpt lat="46.4825592" lon="12.8668068"><ele>531.8000000000001</ele><time>2026-04-22T07:42:16.683Z</time></trkpt><trkpt lat="46.4826323" lon="12.8667548"><ele>532.0</ele><time>2026-04-22T07:42:17.683Z</time></trkpt><trkpt lat="46.482735" lon="12.8666923"><ele>532.0</ele><time>2026-04-22T07:42:19.683Z</time></trkpt><trkpt lat="46.4828064" lon="12.8666424"><ele>532.0</ele><time>2026-04-22T07:42:21.683Z</time></trkpt><trkpt lat="46.4828606" lon="12.8665935"><ele>532.0</ele><time>2026-04-22T07:42:23.683Z</time></trkpt><trkpt lat="46.4829184" lon="12.8665325"><ele>532.0</ele><time>2026-04-22T07:42:24.683Z</time></trkpt><trkpt lat="46.4829828" lon="12.8664421"><ele>532.0</ele><time>2026-04-22T07:42:25.683Z</time></trkpt><trkpt lat="46.4830431" lon="12.8663618"><ele>532.0</ele><time>2026-04-22T07:42:26.683Z</time></trkpt><trkpt lat="46.4831363" lon="12.8662629"><ele>533.2</ele><time>2026-04-22T07:42:28.683Z</time></trkpt><trkpt lat="46.4831962" lon="12.8661967"><ele>534.4000000000001</ele><time>2026-04-22T07:42:29.683Z</time></trkpt><trkpt lat="46.4832698" lon="12.86612"><ele>535.5999999999999</ele><time>2026-04-22T07:42:30.684Z</time></trkpt><trkpt lat="46.4833534" lon="12.8660528"><ele>536.8</ele><time>2026-04-22T07:42:31.683Z</time></trkpt><trkpt lat="46.4834446" lon="12.8659957"><ele>538.0</ele><time>2026-04-22T07:42:32.683Z</time></trkpt><trkpt lat="46.4835484" lon="12.8659666"><ele>538.0</ele><time>2026-04-22T07:42:33.683Z</time></trkpt><trkpt lat="46.4836625" lon="12.8659425"><ele>538.0</ele><time>2026-04-22T07:42:34.683Z</time></trkpt><trkpt lat="46.483783" lon="12.8658784"><ele>538.0</ele><time>2026-04-22T07:42:35.683Z</time></trkpt><trkpt lat="46.4838851" lon="12.8658012"><ele>538.0</ele><time>2026-04-22T07:42:36.683Z</time></trkpt><trkpt lat="46.4839783" lon="12.8657226"><ele>538.0</ele><time>2026-04-22T07:42:37.683Z</time></trkpt><trkpt lat="46.4840654" lon="12.8656467"><ele>538.0</ele><time>2026-04-22T07:42:38.683Z</time></trkpt><trkpt lat="46.4841365" lon="12.8655856"><ele>538.0</ele><time>2026-04-22T07:42:39.683Z</time></trkpt><trkpt lat="46.4841929" lon="12.8655339"><ele>538.0</ele><time>2026-04-22T07:42:40.683Z</time></trkpt><trkpt lat="46.4842338" lon="12.8654572"><ele>538.0</ele><time>2026-04-22T07:42:41.684Z</time></trkpt><trkpt lat="46.4842502" lon="12.8653617"><ele>538.0</ele><time>2026-04-22T07:42:42.684Z</time></trkpt><trkpt lat="46.4842332" lon="12.865241"><ele>538.0</ele><time>2026-04-22T07:42:44.683Z</time></trkpt><trkpt lat="46.4841738" lon="12.8651502"><ele>538.0</ele><time>2026-04-22T07:42:47.683Z</time></trkpt><trkpt lat="46.4841098" lon="12.8651428"><ele>538.0</ele><time>2026-04-22T07:42:48.683Z</time></trkpt><trkpt lat="46.4840104" lon="12.865163"><ele>538.0</ele><time>2026-04-22T07:42:49.683Z</time></trkpt><trkpt lat="46.4838852" lon="12.8651853"><ele>538.0</ele><time>2026-04-22T07:42:50.684Z</time></trkpt><trkpt lat="46.4837918" lon="12.8651994"><ele>537.3333333333334</ele><time>2026-04-22T07:42:51.683Z</time></trkpt><trkpt lat="46.4836975" lon="12.8652153"><ele>536.6666666666667</ele><time>2026-04-22T07:42:52.683Z</time></trkpt><trkpt lat="46.4836079" lon="12.8652304"><ele>536.0</ele><time>2026-04-22T07:42:53.683Z</time></trkpt><trkpt lat="46.4835328" lon="12.8652481"><ele>535.3333333333334</ele><time>2026-04-22T07:42:54.683Z</time></trkpt><trkpt lat="46.483432" lon="12.8653283"><ele>534.6666666666666</ele><time>2026-04-22T07:42:56.684Z</time></trkpt><trkpt lat="46.4834577" lon="12.8654173"><ele>534.0</ele><time>2026-04-22T07:42:57.684Z</time></trkpt><trkpt lat="46.483514" lon="12.8655049"><ele>534.0</ele><time>2026-04-22T07:42:59.683Z</time></trkpt><trkpt lat="46.4835977" lon="12.8654983"><ele>534.0</ele><time>2026-04-22T07:43:02.683Z</time></trkpt><trkpt lat="46.4835204" lon="12.8655197"><ele>534.0</ele><time>2026-04-22T07:47:23.683Z</time></trkpt><trkpt lat="46.4834479" lon="12.8654882"><ele>534.0</ele><time>2026-04-22T07:47:27.683Z</time></trkpt><trkpt lat="46.4834412" lon="12.8653772"><ele>534.0</ele><time>2026-04-22T07:47:30.684Z</time></trkpt><trkpt lat="46.4834161" lon="12.8652905"><ele>534.0</ele><time>2026-04-22T07:47:34.683Z</time></trkpt><trkpt lat="46.4833258" lon="12.8652974"><ele>534.0</ele><time>2026-04-22T07:47:35.683Z</time></trkpt><trkpt lat="46.483242" lon="12.8653137"><ele>534.0</ele><time>2026-04-22T07:47:36.683Z</time></trkpt><trkpt lat="46.483121" lon="12.8653358"><ele>534.0</ele><time>2026-04-22T07:47:37.684Z</time></trkpt><trkpt lat="46.4830022" lon="12.8653692"><ele>534.0</ele><time>2026-04-22T07:47:38.683Z</time></trkpt><trkpt lat="46.4828802" lon="12.8654086"><ele>533.0</ele><time>2026-04-22T07:47:39.683Z</time></trkpt><trkpt lat="46.4827556" lon="12.8654563"><ele>532.0</ele><time>2026-04-22T07:47:40.683Z</time></trkpt><trkpt lat="46.4826386" lon="12.8655154"><ele>531.0</ele><time>2026-04-22T07:47:41.683Z</time></trkpt><trkpt lat="46.4825317" lon="12.8655731"><ele>530.0</ele><time>2026-04-22T07:47:42.683Z</time></trkpt><trkpt lat="46.482436" lon="12.8656341"><ele>530.0</ele><time>2026-04-22T07:47:43.683Z</time></trkpt><trkpt lat="46.4823453" lon="12.8657572"><ele>530.0</ele><time>2026-04-22T07:47:44.683Z</time></trkpt><trkpt lat="46.4822608" lon="12.8658576"><ele>530.0</ele><time>2026-04-22T07:47:45.683Z</time></trkpt><trkpt lat="46.4821788" lon="12.8659609"><ele>530.0</ele><time>2026-04-22T07:47:46.684Z</time></trkpt><trkpt lat="46.4820968" lon="12.8660656"><ele>528.6</ele><time>2026-04-22T07:47:47.683Z</time></trkpt><trkpt lat="46.4820149" lon="12.8661667"><ele>527.2</ele><time>2026-04-22T07:47:48.683Z</time></trkpt><trkpt lat="46.4819324" lon="12.8662656"><ele>525.8</ele><time>2026-04-22T07:47:49.683Z</time></trkpt><trkpt lat="46.4818537" lon="12.8663611"><ele>524.4</ele><time>2026-04-22T07:47:50.684Z</time></trkpt><trkpt lat="46.4817799" lon="12.8664619"><ele>523.0</ele><time>2026-04-22T07:47:51.683Z</time></trkpt><trkpt lat="46.4817032" lon="12.8665549"><ele>523.0</ele><time>2026-04-22T07:47:52.684Z</time></trkpt><trkpt lat="46.4816304" lon="12.866646"><ele>523.0</ele><time>2026-04-22T07:47:53.682Z</time></trkpt><trkpt lat="46.4815627" lon="12.8667377"><ele>523.0</ele><time>2026-04-22T07:47:54.682Z</time></trkpt><trkpt lat="46.4814964" lon="12.8668249"><ele>523.0</ele><time>2026-04-22T07:47:55.682Z</time></trkpt><trkpt lat="46.4814277" lon="12.8669002"><ele>523.0</ele><time>2026-04-22T07:47:56.683Z</time></trkpt><trkpt lat="46.4813574" lon="12.8669712"><ele>524.1999999999999</ele><time>2026-04-22T07:47:57.683Z</time></trkpt><trkpt lat="46.4812849" lon="12.8670365"><ele>525.4</ele><time>2026-04-22T07:47:58.683Z</time></trkpt><trkpt lat="46.4812035" lon="12.867089"><ele>526.5999999999999</ele><time>2026-04-22T07:47:59.682Z</time></trkpt><trkpt lat="46.4811179" lon="12.867137"><ele>527.8</ele><time>2026-04-22T07:48:00.682Z</time></trkpt><trkpt lat="46.4810246" lon="12.8671748"><ele>529.0</ele><time>2026-04-22T07:48:01.682Z</time></trkpt><trkpt lat="46.4809048" lon="12.8671889"><ele>529.0</ele><time>2026-04-22T07:48:02.682Z</time></trkpt><trkpt lat="46.4807624" lon="12.8671952"><ele>529.0</ele><time>2026-04-22T07:48:03.683Z</time></trkpt><trkpt lat="46.4806263" lon="12.8671952"><ele>529.0</ele><time>2026-04-22T07:48:04.682Z</time></trkpt><trkpt lat="46.4804797" lon="12.8671934"><ele>529.0</ele><time>2026-04-22T07:48:05.682Z</time></trkpt><trkpt lat="46.4803328" lon="12.8672012"><ele>527.0</ele><time>2026-04-22T07:48:06.682Z</time></trkpt><trkpt lat="46.4801867" lon="12.8672146"><ele>525.0</ele><time>2026-04-22T07:48:07.683Z</time></trkpt><trkpt lat="46.4800436" lon="12.867237"><ele>523.0</ele><time>2026-04-22T07:48:08.682Z</time></trkpt><trkpt lat="46.4799033" lon="12.867269"><ele>521.0</ele><time>2026-04-22T07:48:09.682Z</time></trkpt><trkpt lat="46.4797663" lon="12.8673104"><ele>521.0</ele><time>2026-04-22T07:48:10.682Z</time></trkpt><trkpt lat="46.4796398" lon="12.8673613"><ele>521.0</ele><time>2026-04-22T07:48:11.682Z</time></trkpt><trkpt lat="46.4795173" lon="12.8674161"><ele>521.0</ele><time>2026-04-22T07:48:12.682Z</time></trkpt><trkpt lat="46.479403" lon="12.8674744"><ele>521.0</ele><time>2026-04-22T07:48:13.682Z</time></trkpt><trkpt lat="46.4792968" lon="12.867531"><ele>520.6</ele><time>2026-04-22T07:48:14.682Z</time></trkpt><trkpt lat="46.4791986" lon="12.8675892"><ele>520.2</ele><time>2026-04-22T07:48:15.682Z</time></trkpt><trkpt lat="46.479106" lon="12.8676524"><ele>519.8</ele><time>2026-04-22T07:48:16.684Z</time></trkpt><trkpt lat="46.4790206" lon="12.867711"><ele>519.4</ele><time>2026-04-22T07:48:17.682Z</time></trkpt><trkpt lat="46.4789496" lon="12.867756"><ele>519.0</ele><time>2026-04-22T07:48:18.683Z</time></trkpt><trkpt lat="46.4788477" lon="12.8678212"><ele>519.0</ele><time>2026-04-22T07:48:20.682Z</time></trkpt><trkpt lat="46.4787776" lon="12.8678709"><ele>519.0</ele><time>2026-04-22T07:48:22.682Z</time></trkpt><trkpt lat="46.4787152" lon="12.8679363"><ele>519.0</ele><time>2026-04-22T07:49:07.682Z</time></trkpt><trkpt lat="46.4786474" lon="12.8680184"><ele>519.0</ele><time>2026-04-22T07:49:10.683Z</time></trkpt><trkpt lat="46.4785864" lon="12.8680777"><ele>519.0</ele><time>2026-04-22T07:49:13.683Z</time></trkpt><trkpt lat="46.4785295" lon="12.8681453"><ele>519.0</ele><time>2026-04-22T07:49:34.683Z</time></trkpt><trkpt lat="46.4784698" lon="12.8682265"><ele>516.5</ele><time>2026-04-22T07:49:38.683Z</time></trkpt><trkpt lat="46.4783518" lon="12.8683534"><ele>514.0</ele><time>2026-04-22T07:50:20.682Z</time></trkpt><trkpt lat="46.4782713" lon="12.8684699"><ele>511.5</ele><time>2026-04-22T07:50:21.682Z</time></trkpt><trkpt lat="46.4781728" lon="12.8686094"><ele>509.0</ele><time>2026-04-22T07:50:22.682Z</time></trkpt><trkpt lat="46.4780571" lon="12.8687686"><ele>509.0</ele><time>2026-04-22T07:50:23.682Z</time></trkpt><trkpt lat="46.477937" lon="12.8689392"><ele>509.0</ele><time>2026-04-22T07:50:24.682Z</time></trkpt><trkpt lat="46.4778187" lon="12.8691098"><ele>509.0</ele><time>2026-04-22T07:50:25.683Z</time></trkpt><trkpt lat="46.4777012" lon="12.8692758"><ele>508.66666666666663</ele><time>2026-04-22T07:50:26.682Z</time></trkpt><trkpt lat="46.4775872" lon="12.8694358"><ele>508.33333333333337</ele><time>2026-04-22T07:50:27.682Z</time></trkpt><trkpt lat="46.4774788" lon="12.8695886"><ele>508.0</ele><time>2026-04-22T07:50:28.683Z</time></trkpt><trkpt lat="46.4773719" lon="12.8697366"><ele>508.0</ele><time>2026-04-22T07:50:29.682Z</time></trkpt><trkpt lat="46.4772706" lon="12.8698816"><ele>508.0</ele><time>2026-04-22T07:50:30.682Z</time></trkpt><trkpt lat="46.4771763" lon="12.8700166"><ele>508.0</ele><time>2026-04-22T07:50:31.682Z</time></trkpt><trkpt lat="46.4770819" lon="12.8701493"><ele>508.0</ele><time>2026-04-22T07:50:32.683Z</time></trkpt><trkpt lat="46.4769879" lon="12.8702714"><ele>508.0</ele><time>2026-04-22T07:50:33.682Z</time></trkpt><trkpt lat="46.4768926" lon="12.870375"><ele>507.99999999999994</ele><time>2026-04-22T07:50:34.682Z</time></trkpt><trkpt lat="46.4767904" lon="12.870453"><ele>507.99999999999994</ele><time>2026-04-22T07:50:35.682Z</time></trkpt><trkpt lat="46.476692" lon="12.8705032"><ele>508.0</ele><time>2026-04-22T07:50:36.682Z</time></trkpt><trkpt lat="46.4765931" lon="12.8705154"><ele>508.0</ele><time>2026-04-22T07:50:37.682Z</time></trkpt><trkpt lat="46.4765037" lon="12.8704784"><ele>508.0</ele><time>2026-04-22T07:50:38.683Z</time></trkpt><trkpt lat="46.4764262" lon="12.8704128"><ele>507.99999999999994</ele><time>2026-04-22T07:50:39.683Z</time></trkpt><trkpt lat="46.4763511" lon="12.8703626"><ele>507.99999999999994</ele><time>2026-04-22T07:50:40.682Z</time></trkpt><trkpt lat="46.4762717" lon="12.8703754"><ele>508.0</ele><time>2026-04-22T07:50:41.683Z</time></trkpt><trkpt lat="46.476192" lon="12.8704434"><ele>508.0</ele><time>2026-04-22T07:50:42.682Z</time></trkpt><trkpt lat="46.4760913" lon="12.8705624"><ele>505.0</ele><time>2026-04-22T07:50:43.682Z</time></trkpt><trkpt lat="46.475955" lon="12.8706649"><ele>502.0</ele><time>2026-04-22T07:50:44.682Z</time></trkpt><trkpt lat="46.4758048" lon="12.8707513"><ele>499.0</ele><time>2026-04-22T07:50:45.683Z</time></trkpt><trkpt lat="46.4756469" lon="12.870857"><ele>504.6666666666667</ele><time>2026-04-22T07:50:46.682Z</time></trkpt><trkpt lat="46.475474" lon="12.8710017"><ele>510.33333333333337</ele><time>2026-04-22T07:50:47.682Z</time></trkpt><trkpt lat="46.4753071" lon="12.8711503"><ele>516.0</ele><time>2026-04-22T07:50:48.682Z</time></trkpt><trkpt lat="46.4751355" lon="12.8713014"><ele>516.0</ele><time>2026-04-22T07:50:49.682Z</time></trkpt><trkpt lat="46.4749658" lon="12.8714437"><ele>516.0</ele><time>2026-04-22T07:50:50.683Z</time></trkpt><trkpt lat="46.4747964" lon="12.8715808"><ele>516.0</ele><time>2026-04-22T07:50:51.682Z</time></trkpt><trkpt lat="46.4746275" lon="12.8717054"><ele>518.0</ele><time>2026-04-22T07:50:52.682Z</time></trkpt><trkpt lat="46.4744602" lon="12.8718153"><ele>520.0</ele><time>2026-04-22T07:50:53.682Z</time></trkpt><trkpt lat="46.4742953" lon="12.8719194"><ele>522.0</ele><time>2026-04-22T07:50:54.683Z</time></trkpt><trkpt lat="46.4741281" lon="12.8720209"><ele>522.0</ele><time>2026-04-22T07:50:55.682Z</time></trkpt><trkpt lat="46.4739531" lon="12.8721372"><ele>522.0</ele><time>2026-04-22T07:50:56.682Z</time></trkpt><trkpt lat="46.4737615" lon="12.8722813"><ele>522.0</ele><time>2026-04-22T07:50:57.683Z</time></trkpt><trkpt lat="46.4735798" lon="12.8724244"><ele>528.0</ele><time>2026-04-22T07:50:58.682Z</time></trkpt><trkpt lat="46.4733954" lon="12.8725706"><ele>534.0</ele><time>2026-04-22T07:50:59.682Z</time></trkpt><trkpt lat="46.4732086" lon="12.872711"><ele>540.0</ele><time>2026-04-22T07:51:00.683Z</time></trkpt><trkpt lat="46.4730196" lon="12.8728436"><ele>529.6666666666666</ele><time>2026-04-22T07:51:01.682Z</time></trkpt><trkpt lat="46.4728294" lon="12.8729668"><ele>519.3333333333333</ele><time>2026-04-22T07:51:02.683Z</time></trkpt><trkpt lat="46.4726386" lon="12.8730834"><ele>509.0</ele><time>2026-04-22T07:51:03.683Z</time></trkpt><trkpt lat="46.4724479" lon="12.8732058"><ele>509.0</ele><time>2026-04-22T07:51:04.683Z</time></trkpt><trkpt lat="46.4722564" lon="12.8733264"><ele>509.0</ele><time>2026-04-22T07:51:05.682Z</time></trkpt><trkpt lat="46.4720601" lon="12.8734523"><ele>509.0</ele><time>2026-04-22T07:51:06.683Z</time></trkpt><trkpt lat="46.4718621" lon="12.8735796"><ele>505.66666666666663</ele><time>2026-04-22T07:51:07.682Z</time></trkpt><trkpt lat="46.4716647" lon="12.8737087"><ele>502.33333333333337</ele><time>2026-04-22T07:51:08.682Z</time></trkpt><trkpt lat="46.4714661" lon="12.8738398"><ele>499.0</ele><time>2026-04-22T07:51:09.682Z</time></trkpt><trkpt lat="46.4712684" lon="12.8739666"><ele>499.0</ele><time>2026-04-22T07:51:10.682Z</time></trkpt><trkpt lat="46.4710644" lon="12.8740676"><ele>499.0</ele><time>2026-04-22T07:51:11.683Z</time></trkpt><trkpt lat="46.4708617" lon="12.8741498"><ele>499.0</ele><time>2026-04-22T07:51:12.682Z</time></trkpt><trkpt lat="46.4706534" lon="12.8742226"><ele>511.33333333333337</ele><time>2026-04-22T07:51:13.683Z</time></trkpt><trkpt lat="46.4704348" lon="12.8743024"><ele>523.6666666666666</ele><time>2026-04-22T07:51:14.682Z</time></trkpt><trkpt lat="46.4702248" lon="12.8743819"><ele>536.0</ele><time>2026-04-22T07:51:15.682Z</time></trkpt><trkpt lat="46.4700242" lon="12.8744529"><ele>536.0</ele><time>2026-04-22T07:51:16.683Z</time></trkpt><trkpt lat="46.4698292" lon="12.8745233"><ele>536.0</ele><time>2026-04-22T07:51:17.682Z</time></trkpt><trkpt lat="46.4696371" lon="12.874595"><ele>536.0</ele><time>2026-04-22T07:51:18.682Z</time></trkpt><trkpt lat="46.4694507" lon="12.8746583"><ele>527.3333333333333</ele><time>2026-04-22T07:51:19.683Z</time></trkpt><trkpt lat="46.4692586" lon="12.8746861"><ele>518.6666666666666</ele><time>2026-04-22T07:51:20.683Z</time></trkpt><trkpt lat="46.4690635" lon="12.8746702"><ele>510.0</ele><time>2026-04-22T07:51:21.683Z</time></trkpt><trkpt lat="46.4688661" lon="12.874635"><ele>508.33333333333337</ele><time>2026-04-22T07:51:22.683Z</time></trkpt><trkpt lat="46.4686577" lon="12.8746004"><ele>506.6666666666667</ele><time>2026-04-22T07:51:23.682Z</time></trkpt><trkpt lat="46.4684531" lon="12.8745682"><ele>505.0</ele><time>2026-04-22T07:51:24.682Z</time></trkpt><trkpt lat="46.4682538" lon="12.874531"><ele>505.0</ele><time>2026-04-22T07:51:25.683Z</time></trkpt><trkpt lat="46.4680548" lon="12.8744824"><ele>505.0</ele><time>2026-04-22T07:51:26.683Z</time></trkpt><trkpt lat="46.4678526" lon="12.8744148"><ele>505.0</ele><time>2026-04-22T07:51:27.683Z</time></trkpt><trkpt lat="46.467655" lon="12.8743228"><ele>499.0</ele><time>2026-04-22T07:51:28.683Z</time></trkpt><trkpt lat="46.4674643" lon="12.8742206"><ele>493.0</ele><time>2026-04-22T07:51:29.682Z</time></trkpt><trkpt lat="46.4672808" lon="12.8741258"><ele>487.0</ele><time>2026-04-22T07:51:30.682Z</time></trkpt><trkpt lat="46.4670969" lon="12.8740536"><ele>487.0</ele><time>2026-04-22T07:51:31.682Z</time></trkpt><trkpt lat="46.4669106" lon="12.8740177"><ele>487.0</ele><time>2026-04-22T07:51:32.683Z</time></trkpt><trkpt lat="46.46672" lon="12.8740181"><ele>487.0</ele><time>2026-04-22T07:51:33.682Z</time></trkpt><trkpt lat="46.4665321" lon="12.8740431"><ele>487.0</ele><time>2026-04-22T07:51:34.682Z</time></trkpt><trkpt lat="46.4663466" lon="12.874086"><ele>487.0</ele><time>2026-04-22T07:51:35.684Z</time></trkpt><trkpt lat="46.4661647" lon="12.8741343"><ele>487.0</ele><time>2026-04-22T07:51:36.682Z</time></trkpt><trkpt lat="46.4659835" lon="12.8741784"><ele>484.6666666666667</ele><time>2026-04-22T07:51:37.682Z</time></trkpt><trkpt lat="46.4657943" lon="12.8742125"><ele>482.33333333333337</ele><time>2026-04-22T07:51:38.683Z</time></trkpt><trkpt lat="46.4656107" lon="12.8742207"><ele>480.0</ele><time>2026-04-22T07:51:39.682Z</time></trkpt><trkpt lat="46.4654315" lon="12.8741911"><ele>480.0</ele><time>2026-04-22T07:51:40.682Z</time></trkpt><trkpt lat="46.4652603" lon="12.874118"><ele>480.0</ele><time>2026-04-22T07:51:41.682Z</time></trkpt><trkpt lat="46.4650986" lon="12.874013"><ele>480.0</ele><time>2026-04-22T07:51:42.682Z</time></trkpt><trkpt lat="46.4649293" lon="12.8738933"><ele>480.0</ele><time>2026-04-22T07:51:43.682Z</time></trkpt><trkpt lat="46.4647672" lon="12.8737792"><ele>480.0</ele><time>2026-04-22T07:51:44.683Z</time></trkpt><trkpt lat="46.464616" lon="12.8736469"><ele>480.0</ele><time>2026-04-22T07:51:45.682Z</time></trkpt><trkpt lat="46.4644844" lon="12.8734846"><ele>482.0</ele><time>2026-04-22T07:51:46.682Z</time></trkpt><trkpt lat="46.4643746" lon="12.8732885"><ele>484.0</ele><time>2026-04-22T07:51:47.683Z</time></trkpt><trkpt lat="46.4642852" lon="12.873067"><ele>486.0</ele><time>2026-04-22T07:51:48.682Z</time></trkpt><trkpt lat="46.4642071" lon="12.8728408"><ele>486.0</ele><time>2026-04-22T07:51:49.682Z</time></trkpt><trkpt lat="46.4641315" lon="12.872619"><ele>486.0</ele><time>2026-04-22T07:51:50.682Z</time></trkpt><trkpt lat="46.4640602" lon="12.8724044"><ele>486.0</ele><time>2026-04-22T07:51:51.682Z</time></trkpt><trkpt lat="46.4639947" lon="12.8722048"><ele>482.5</ele><time>2026-04-22T07:51:52.682Z</time></trkpt><trkpt lat="46.4639379" lon="12.8720271"><ele>479.0</ele><time>2026-04-22T07:51:53.682Z</time></trkpt><trkpt lat="46.4638682" lon="12.871865"><ele>475.5</ele><time>2026-04-22T07:51:54.682Z</time></trkpt><trkpt lat="46.463783" lon="12.8717342"><ele>472.0</ele><time>2026-04-22T07:51:55.683Z</time></trkpt><trkpt lat="46.4636689" lon="12.8716433"><ele>469.25</ele><time>2026-04-22T07:51:56.683Z</time></trkpt><trkpt lat="46.4635378" lon="12.8715997"><ele>466.5</ele><time>2026-04-22T07:51:57.682Z</time></trkpt><trkpt lat="46.4633952" lon="12.8716203"><ele>463.75</ele><time>2026-04-22T07:51:58.682Z</time></trkpt><trkpt lat="46.4632484" lon="12.8716895"><ele>461.0</ele><time>2026-04-22T07:51:59.682Z</time></trkpt><trkpt lat="46.4630831" lon="12.8717932"><ele>470.66666666666663</ele><time>2026-04-22T07:52:00.682Z</time></trkpt><trkpt lat="46.4629192" lon="12.8719051"><ele>480.33333333333337</ele><time>2026-04-22T07:52:01.683Z</time></trkpt><trkpt lat="46.4627548" lon="12.8720115"><ele>490.0</ele><time>2026-04-22T07:52:02.683Z</time></trkpt><trkpt lat="46.4625852" lon="12.8721095"><ele>490.0</ele><time>2026-04-22T07:52:03.682Z</time></trkpt><trkpt lat="46.4624056" lon="12.8721873"><ele>490.0</ele><time>2026-04-22T07:52:04.682Z</time></trkpt><trkpt lat="46.462208" lon="12.8722514"><ele>490.0</ele><time>2026-04-22T07:52:05.684Z</time></trkpt><trkpt lat="46.4620105" lon="12.8722988"><ele>485.0</ele><time>2026-04-22T07:52:06.683Z</time></trkpt><trkpt lat="46.4618159" lon="12.8723352"><ele>480.0</ele><time>2026-04-22T07:52:07.682Z</time></trkpt><trkpt lat="46.4616251" lon="12.8723674"><ele>475.0</ele><time>2026-04-22T07:52:08.682Z</time></trkpt><trkpt lat="46.4614387" lon="12.8724059"><ele>475.0</ele><time>2026-04-22T07:52:09.682Z</time></trkpt><trkpt lat="46.4612536" lon="12.8724421"><ele>475.0</ele><time>2026-04-22T07:52:10.683Z</time></trkpt><trkpt lat="46.4610722" lon="12.8724758"><ele>475.0</ele><time>2026-04-22T07:52:11.683Z</time></trkpt><trkpt lat="46.4608958" lon="12.8725013"><ele>475.0</ele><time>2026-04-22T07:52:12.683Z</time></trkpt><trkpt lat="46.460723" lon="12.8725173"><ele>475.0</ele><time>2026-04-22T07:52:13.684Z</time></trkpt><trkpt lat="46.4605592" lon="12.8725174"><ele>475.0</ele><time>2026-04-22T07:52:14.682Z</time></trkpt><trkpt lat="46.4604104" lon="12.8724992"><ele>474.4</ele><time>2026-04-22T07:52:15.683Z</time></trkpt><trkpt lat="46.4602772" lon="12.8724749"><ele>473.8</ele><time>2026-04-22T07:52:16.682Z</time></trkpt><trkpt lat="46.4601603" lon="12.8724546"><ele>473.20000000000005</ele><time>2026-04-22T07:52:17.683Z</time></trkpt><trkpt lat="46.4600544" lon="12.8724456"><ele>472.6</ele><time>2026-04-22T07:52:18.682Z</time></trkpt><trkpt lat="46.4599735" lon="12.8724324"><ele>472.0</ele><time>2026-04-22T07:52:19.682Z</time></trkpt><trkpt lat="46.4598902" lon="12.872319"><ele>472.0</ele><time>2026-04-22T07:52:21.682Z</time></trkpt><trkpt lat="46.4598832" lon="12.8722021"><ele>472.0</ele><time>2026-04-22T07:52:22.682Z</time></trkpt><trkpt lat="46.4598826" lon="12.8720285"><ele>472.0</ele><time>2026-04-22T07:52:23.683Z</time></trkpt><trkpt lat="46.4598814" lon="12.8718341"><ele>472.0</ele><time>2026-04-22T07:52:24.683Z</time></trkpt><trkpt lat="46.4598792" lon="12.8716556"><ele>469.8</ele><time>2026-04-22T07:52:25.683Z</time></trkpt><trkpt lat="46.4598752" lon="12.8714923"><ele>467.6</ele><time>2026-04-22T07:52:26.682Z</time></trkpt><trkpt lat="46.4598638" lon="12.8713538"><ele>465.40000000000003</ele><time>2026-04-22T07:52:27.682Z</time></trkpt><trkpt lat="46.4598319" lon="12.8712394"><ele>463.20000000000005</ele><time>2026-04-22T07:52:28.682Z</time></trkpt><trkpt lat="46.4597744" lon="12.8711518"><ele>461.0</ele><time>2026-04-22T07:52:29.682Z</time></trkpt><trkpt lat="46.4596913" lon="12.8710827"><ele>459.6</ele><time>2026-04-22T07:52:30.683Z</time></trkpt><trkpt lat="46.4595978" lon="12.8710515"><ele>458.20000000000005</ele><time>2026-04-22T07:52:31.682Z</time></trkpt><trkpt lat="46.4594939" lon="12.871066"><ele>456.79999999999995</ele><time>2026-04-22T07:52:32.683Z</time></trkpt><trkpt lat="46.4593847" lon="12.8711207"><ele>455.4</ele><time>2026-04-22T07:52:33.682Z</time></trkpt><trkpt lat="46.4592766" lon="12.8711399"><ele>454.0</ele><time>2026-04-22T07:52:34.683Z</time></trkpt><trkpt lat="46.4591706" lon="12.8711022"><ele>454.0</ele><time>2026-04-22T07:52:35.682Z</time></trkpt><trkpt lat="46.4590661" lon="12.8710199"><ele>454.0</ele><time>2026-04-22T07:52:36.682Z</time></trkpt><trkpt lat="46.4589534" lon="12.8709095"><ele>454.0</ele><time>2026-04-22T07:52:37.682Z</time></trkpt><trkpt lat="46.4588439" lon="12.870798"><ele>454.0</ele><time>2026-04-22T07:52:38.682Z</time></trkpt><trkpt lat="46.4587199" lon="12.8706888"><ele>453.0</ele><time>2026-04-22T07:52:39.682Z</time></trkpt><trkpt lat="46.4585848" lon="12.87059"><ele>452.0</ele><time>2026-04-22T07:52:40.682Z</time></trkpt><trkpt lat="46.4584525" lon="12.8705211"><ele>451.0</ele><time>2026-04-22T07:52:41.683Z</time></trkpt><trkpt lat="46.4583157" lon="12.870488"><ele>450.0</ele><time>2026-04-22T07:52:42.683Z</time></trkpt><trkpt lat="46.4581685" lon="12.8704839"><ele>450.0</ele><time>2026-04-22T07:52:43.683Z</time></trkpt><trkpt lat="46.4580084" lon="12.8704997"><ele>450.0</ele><time>2026-04-22T07:52:44.683Z</time></trkpt><trkpt lat="46.4578446" lon="12.870526"><ele>450.0</ele><time>2026-04-22T07:52:45.682Z</time></trkpt><trkpt lat="46.4576881" lon="12.8705612"><ele>451.0</ele><time>2026-04-22T07:52:46.682Z</time></trkpt><trkpt lat="46.4575375" lon="12.8705975"><ele>452.0</ele><time>2026-04-22T07:52:47.682Z</time></trkpt><trkpt lat="46.4573885" lon="12.8706276"><ele>453.0</ele><time>2026-04-22T07:52:48.682Z</time></trkpt><trkpt lat="46.4572395" lon="12.8706544"><ele>452.33333333333337</ele><time>2026-04-22T07:52:49.682Z</time></trkpt><trkpt lat="46.4570896" lon="12.8706838"><ele>451.6666666666667</ele><time>2026-04-22T07:52:50.683Z</time></trkpt><trkpt lat="46.4569397" lon="12.8707205"><ele>451.0</ele><time>2026-04-22T07:52:51.683Z</time></trkpt><trkpt lat="46.456789" lon="12.8707668"><ele>451.0</ele><time>2026-04-22T07:52:52.682Z</time></trkpt><trkpt lat="46.4566387" lon="12.8708218"><ele>451.0</ele><time>2026-04-22T07:52:53.682Z</time></trkpt><trkpt lat="46.4564901" lon="12.8708853"><ele>451.0</ele><time>2026-04-22T07:52:54.682Z</time></trkpt><trkpt lat="46.4563417" lon="12.8709515"><ele>448.0</ele><time>2026-04-22T07:52:55.683Z</time></trkpt><trkpt lat="46.4561835" lon="12.8710087"><ele>445.0</ele><time>2026-04-22T07:52:56.682Z</time></trkpt><trkpt lat="46.4560161" lon="12.8710444"><ele>442.0</ele><time>2026-04-22T07:52:57.682Z</time></trkpt><trkpt lat="46.4558473" lon="12.8710571"><ele>442.0</ele><time>2026-04-22T07:52:58.683Z</time></trkpt><trkpt lat="46.4556757" lon="12.8710454"><ele>442.0</ele><time>2026-04-22T07:52:59.682Z</time></trkpt><trkpt lat="46.4555027" lon="12.8710188"><ele>442.0</ele><time>2026-04-22T07:53:00.682Z</time></trkpt><trkpt lat="46.4553176" lon="12.8709853"><ele>441.6666666666667</ele><time>2026-04-22T07:53:01.683Z</time></trkpt><trkpt lat="46.4551393" lon="12.8709498"><ele>441.33333333333337</ele><time>2026-04-22T07:53:02.684Z</time></trkpt><trkpt lat="46.4549704" lon="12.8709156"><ele>441.0</ele><time>2026-04-22T07:53:03.682Z</time></trkpt><trkpt lat="46.4548081" lon="12.8708872"><ele>448.0</ele><time>2026-04-22T07:53:04.682Z</time></trkpt><trkpt lat="46.4546459" lon="12.8708723"><ele>455.0</ele><time>2026-04-22T07:53:05.682Z</time></trkpt><trkpt lat="46.4544822" lon="12.8708848"><ele>462.0</ele><time>2026-04-22T07:53:06.682Z</time></trkpt><trkpt lat="46.4543171" lon="12.8709312"><ele>454.66666666666663</ele><time>2026-04-22T07:53:07.682Z</time></trkpt><trkpt lat="46.4541492" lon="12.8710104"><ele>447.3333333333333</ele><time>2026-04-22T07:53:08.682Z</time></trkpt><trkpt lat="46.4539917" lon="12.8710698"><ele>440.0</ele><time>2026-04-22T07:53:09.683Z</time></trkpt><trkpt lat="46.4538346" lon="12.871095"><ele>439.66666666666663</ele><time>2026-04-22T07:53:10.683Z</time></trkpt><trkpt lat="46.4536739" lon="12.8710856"><ele>439.33333333333337</ele><time>2026-04-22T07:53:11.682Z</time></trkpt><trkpt lat="46.4535035" lon="12.8710572"><ele>439.0</ele><time>2026-04-22T07:53:12.682Z</time></trkpt><trkpt lat="46.4533198" lon="12.8710265"><ele>439.0</ele><time>2026-04-22T07:53:13.682Z</time></trkpt><trkpt lat="46.4531493" lon="12.8709944"><ele>439.0</ele><time>2026-04-22T07:53:14.683Z</time></trkpt><trkpt lat="46.4529848" lon="12.8709679"><ele>439.0</ele><time>2026-04-22T07:53:15.682Z</time></trkpt><trkpt lat="46.4528248" lon="12.8709462"><ele>443.33333333333337</ele><time>2026-04-22T07:53:16.682Z</time></trkpt><trkpt lat="46.452664" lon="12.8709272"><ele>447.66666666666663</ele><time>2026-04-22T07:53:17.683Z</time></trkpt><trkpt lat="46.4525096" lon="12.8709053"><ele>452.0</ele><time>2026-04-22T07:53:18.682Z</time></trkpt><trkpt lat="46.4523536" lon="12.8708865"><ele>452.0</ele><time>2026-04-22T07:53:19.682Z</time></trkpt><trkpt lat="46.4522081" lon="12.870874"><ele>452.0</ele><time>2026-04-22T07:53:20.683Z</time></trkpt><trkpt lat="46.4520446" lon="12.8709316"><ele>452.0</ele><time>2026-04-22T07:53:21.682Z</time></trkpt><trkpt lat="46.4518852" lon="12.8710073"><ele>448.3333333333333</ele><time>2026-04-22T07:53:22.682Z</time></trkpt><trkpt lat="46.4517217" lon="12.8711064"><ele>444.66666666666663</ele><time>2026-04-22T07:53:23.684Z</time></trkpt><trkpt lat="46.4515549" lon="12.8712209"><ele>441.0</ele><time>2026-04-22T07:53:24.683Z</time></trkpt><trkpt lat="46.4513788" lon="12.8713629"><ele>440.0</ele><time>2026-04-22T07:53:25.683Z</time></trkpt><trkpt lat="46.4512131" lon="12.871505"><ele>439.0</ele><time>2026-04-22T07:53:26.682Z</time></trkpt><trkpt lat="46.4510497" lon="12.8716426"><ele>438.0</ele><time>2026-04-22T07:53:27.682Z</time></trkpt><trkpt lat="46.450891" lon="12.871776"><ele>438.0</ele><time>2026-04-22T07:53:28.682Z</time></trkpt><trkpt lat="46.4507377" lon="12.8718985"><ele>438.0</ele><time>2026-04-22T07:53:29.682Z</time></trkpt><trkpt lat="46.4505826" lon="12.8720116"><ele>438.0</ele><time>2026-04-22T07:53:30.682Z</time></trkpt><trkpt lat="46.4504302" lon="12.8721004"><ele>439.33333333333337</ele><time>2026-04-22T07:53:31.683Z</time></trkpt><trkpt lat="46.4502763" lon="12.8721509"><ele>440.6666666666667</ele><time>2026-04-22T07:53:32.682Z</time></trkpt><trkpt lat="46.4501161" lon="12.8721687"><ele>442.0</ele><time>2026-04-22T07:53:33.682Z</time></trkpt><trkpt lat="46.4499542" lon="12.8721603"><ele>442.0</ele><time>2026-04-22T07:53:34.683Z</time></trkpt><trkpt lat="46.4497955" lon="12.8721365"><ele>442.0</ele><time>2026-04-22T07:53:35.682Z</time></trkpt><trkpt lat="46.4496461" lon="12.8721022"><ele>442.0</ele><time>2026-04-22T07:53:36.682Z</time></trkpt><trkpt lat="46.4495035" lon="12.8720631"><ele>441.5</ele><time>2026-04-22T07:53:37.683Z</time></trkpt><trkpt lat="46.4493704" lon="12.8720231"><ele>441.0</ele><time>2026-04-22T07:53:38.682Z</time></trkpt><trkpt lat="46.4492465" lon="12.8719759"><ele>440.5</ele><time>2026-04-22T07:53:39.683Z</time></trkpt><trkpt lat="46.4491221" lon="12.87192"><ele>440.0</ele><time>2026-04-22T07:53:40.682Z</time></trkpt><trkpt lat="46.4490071" lon="12.8718649"><ele>439.99999999999994</ele><time>2026-04-22T07:53:41.682Z</time></trkpt><trkpt lat="46.4489116" lon="12.8717981"><ele>440.0</ele><time>2026-04-22T07:53:42.682Z</time></trkpt><trkpt lat="46.4488427" lon="12.8717074"><ele>440.0</ele><time>2026-04-22T07:53:43.682Z</time></trkpt><trkpt lat="46.4487775" lon="12.8716318"><ele>440.0</ele><time>2026-04-22T07:53:44.683Z</time></trkpt><trkpt lat="46.4487062" lon="12.8716016"><ele>439.99999999999994</ele><time>2026-04-22T07:53:45.682Z</time></trkpt><trkpt lat="46.4486256" lon="12.8716293"><ele>440.0</ele><time>2026-04-22T07:53:46.682Z</time></trkpt><trkpt lat="46.4485268" lon="12.871708"><ele>440.25</ele><time>2026-04-22T07:53:47.683Z</time></trkpt><trkpt lat="46.448424" lon="12.8718159"><ele>440.5</ele><time>2026-04-22T07:53:48.682Z</time></trkpt><trkpt lat="46.4483151" lon="12.871931"><ele>440.75</ele><time>2026-04-22T07:53:49.683Z</time></trkpt><trkpt lat="46.4481913" lon="12.8720699"><ele>441.0</ele><time>2026-04-22T07:53:50.684Z</time></trkpt><trkpt lat="46.4480634" lon="12.8722178"><ele>439.33333333333337</ele><time>2026-04-22T07:53:51.682Z</time></trkpt><trkpt lat="46.4479334" lon="12.8723697"><ele>437.6666666666667</ele><time>2026-04-22T07:53:52.682Z</time></trkpt><trkpt lat="46.4477998" lon="12.8725229"><ele>436.0</ele><time>2026-04-22T07:53:53.682Z</time></trkpt><trkpt lat="46.4476639" lon="12.8726815"><ele>436.0</ele><time>2026-04-22T07:53:54.683Z</time></trkpt><trkpt lat="46.4475277" lon="12.8728377"><ele>436.0</ele><time>2026-04-22T07:53:55.682Z</time></trkpt><trkpt lat="46.4473872" lon="12.8729902"><ele>436.0</ele><time>2026-04-22T07:53:56.683Z</time></trkpt><trkpt lat="46.4472458" lon="12.8731412"><ele>435.33333333333337</ele><time>2026-04-22T07:53:57.683Z</time></trkpt><trkpt lat="46.4471019" lon="12.8732899"><ele>434.66666666666663</ele><time>2026-04-22T07:53:58.683Z</time></trkpt><trkpt lat="46.4469581" lon="12.8734421"><ele>434.0</ele><time>2026-04-22T07:53:59.683Z</time></trkpt><trkpt lat="46.446814" lon="12.8735971"><ele>434.0</ele><time>2026-04-22T07:54:00.682Z</time></trkpt><trkpt lat="46.4466699" lon="12.8737428"><ele>434.0</ele><time>2026-04-22T07:54:01.682Z</time></trkpt><trkpt lat="46.4465202" lon="12.8738708"><ele>434.0</ele><time>2026-04-22T07:54:02.682Z</time></trkpt><trkpt lat="46.4463735" lon="12.8739766"><ele>434.3333333333333</ele><time>2026-04-22T07:54:03.684Z</time></trkpt><trkpt lat="46.4462384" lon="12.8741012"><ele>434.66666666666663</ele><time>2026-04-22T07:54:04.682Z</time></trkpt><trkpt lat="46.446121" lon="12.8742498"><ele>435.0</ele><time>2026-04-22T07:54:05.683Z</time></trkpt><trkpt lat="46.4460086" lon="12.8744207"><ele>435.0</ele><time>2026-04-22T07:54:06.682Z</time></trkpt><trkpt lat="46.4458861" lon="12.8745965"><ele>435.0</ele><time>2026-04-22T07:54:07.683Z</time></trkpt><trkpt lat="46.4457549" lon="12.8747706"><ele>435.0</ele><time>2026-04-22T07:54:08.682Z</time></trkpt><trkpt lat="46.4456132" lon="12.8749339"><ele>435.0</ele><time>2026-04-22T07:54:09.682Z</time></trkpt><trkpt lat="46.4454783" lon="12.8750814"><ele>435.0</ele><time>2026-04-22T07:54:10.682Z</time></trkpt><trkpt lat="46.4453485" lon="12.8752234"><ele>435.0</ele><time>2026-04-22T07:54:11.682Z</time></trkpt><trkpt lat="46.4452194" lon="12.8753582"><ele>435.0</ele><time>2026-04-22T07:54:12.681Z</time></trkpt><trkpt lat="46.4450865" lon="12.8754818"><ele>435.0</ele><time>2026-04-22T07:54:13.681Z</time></trkpt><trkpt lat="46.4449663" lon="12.875581"><ele>435.0</ele><time>2026-04-22T07:54:14.681Z</time></trkpt><trkpt lat="46.4448477" lon="12.8756746"><ele>435.0</ele><time>2026-04-22T07:54:15.681Z</time></trkpt><trkpt lat="46.4447293" lon="12.8757391"><ele>437.5</ele><time>2026-04-22T07:54:16.681Z</time></trkpt><trkpt lat="46.4445884" lon="12.8757801"><ele>440.0</ele><time>2026-04-22T07:54:17.681Z</time></trkpt><trkpt lat="46.4444434" lon="12.8758111"><ele>442.5</ele><time>2026-04-22T07:54:18.681Z</time></trkpt><trkpt lat="46.4443011" lon="12.8758093"><ele>445.0</ele><time>2026-04-22T07:54:19.681Z</time></trkpt><trkpt lat="46.4441555" lon="12.875782"><ele>445.0</ele><time>2026-04-22T07:54:20.682Z</time></trkpt><trkpt lat="46.443999" lon="12.8757326"><ele>445.0</ele><time>2026-04-22T07:54:21.681Z</time></trkpt><trkpt lat="46.4438266" lon="12.8756671"><ele>445.0</ele><time>2026-04-22T07:54:22.681Z</time></trkpt><trkpt lat="46.4436758" lon="12.8756086"><ele>446.5</ele><time>2026-04-22T07:54:23.681Z</time></trkpt><trkpt lat="46.4435424" lon="12.8755581"><ele>448.0</ele><time>2026-04-22T07:54:24.681Z</time></trkpt><trkpt lat="46.4434248" lon="12.8755074"><ele>449.5</ele><time>2026-04-22T07:54:25.681Z</time></trkpt><trkpt lat="46.4433189" lon="12.8754695"><ele>451.0</ele><time>2026-04-22T07:54:26.681Z</time></trkpt><trkpt lat="46.4432177" lon="12.8754644"><ele>451.00000000000006</ele><time>2026-04-22T07:54:27.683Z</time></trkpt><trkpt lat="46.4431142" lon="12.875509"><ele>451.0</ele><time>2026-04-22T07:54:28.682Z</time></trkpt><trkpt lat="46.4430295" lon="12.8755826"><ele>451.0</ele><time>2026-04-22T07:54:29.681Z</time></trkpt><trkpt lat="46.4429603" lon="12.875645"><ele>451.0</ele><time>2026-04-22T07:54:30.681Z</time></trkpt><trkpt lat="46.4428941" lon="12.8756553"><ele>451.00000000000006</ele><time>2026-04-22T07:54:31.682Z</time></trkpt><trkpt lat="46.4428321" lon="12.8756259"><ele>451.0</ele><time>2026-04-22T07:54:32.681Z</time></trkpt><trkpt lat="46.4427711" lon="12.8754379"><ele>452.25</ele><time>2026-04-22T07:54:34.681Z</time></trkpt><trkpt lat="46.4427465" lon="12.875304"><ele>453.5</ele><time>2026-04-22T07:54:35.681Z</time></trkpt><trkpt lat="46.442698" lon="12.8751705"><ele>454.75</ele><time>2026-04-22T07:54:36.681Z</time></trkpt><trkpt lat="46.4426128" lon="12.8750405"><ele>456.0</ele><time>2026-04-22T07:54:37.681Z</time></trkpt><trkpt lat="46.4425079" lon="12.8749172"><ele>460.6</ele><time>2026-04-22T07:54:38.683Z</time></trkpt><trkpt lat="46.4423834" lon="12.8748732"><ele>465.20000000000005</ele><time>2026-04-22T07:54:39.682Z</time></trkpt><trkpt lat="46.4423076" lon="12.8747723"><ele>469.79999999999995</ele><time>2026-04-22T07:54:40.683Z</time></trkpt><trkpt lat="46.4422449" lon="12.8746794"><ele>474.4</ele><time>2026-04-22T07:54:41.682Z</time></trkpt><trkpt lat="46.4421872" lon="12.8746055"><ele>479.0</ele><time>2026-04-22T07:54:42.681Z</time></trkpt><trkpt lat="46.4421282" lon="12.8745592"><ele>482.4</ele><time>2026-04-22T07:54:43.682Z</time></trkpt><trkpt lat="46.4420629" lon="12.8745436"><ele>485.79999999999995</ele><time>2026-04-22T07:54:44.682Z</time></trkpt><trkpt lat="46.4420092" lon="12.8745939"><ele>489.20000000000005</ele><time>2026-04-22T07:54:45.681Z</time></trkpt><trkpt lat="46.4419306" lon="12.8747703"><ele>492.6</ele><time>2026-04-22T07:54:47.681Z</time></trkpt><trkpt lat="46.4419481" lon="12.8749384"><ele>496.0</ele><time>2026-04-22T07:54:48.682Z</time></trkpt><trkpt lat="46.4419763" lon="12.8750358"><ele>493.8</ele><time>2026-04-22T07:54:49.682Z</time></trkpt><trkpt lat="46.4419638" lon="12.8751653"><ele>491.6</ele><time>2026-04-22T07:54:50.681Z</time></trkpt><trkpt lat="46.4419011" lon="12.8752541"><ele>489.4</ele><time>2026-04-22T07:54:51.682Z</time></trkpt><trkpt lat="46.4418504" lon="12.8753862"><ele>487.2</ele><time>2026-04-22T07:54:52.682Z</time></trkpt><trkpt lat="46.4417626" lon="12.8754861"><ele>485.0</ele><time>2026-04-22T07:54:53.681Z</time></trkpt><trkpt lat="46.4416755" lon="12.875614"><ele>485.0</ele><time>2026-04-22T07:54:54.681Z</time></trkpt><trkpt lat="46.4415678" lon="12.8756999"><ele>485.0</ele><time>2026-04-22T07:54:55.681Z</time></trkpt><trkpt lat="46.4414701" lon="12.8757916"><ele>485.0</ele><time>2026-04-22T07:54:56.682Z</time></trkpt><trkpt lat="46.4413831" lon="12.875879"><ele>485.0</ele><time>2026-04-22T07:54:57.681Z</time></trkpt><trkpt lat="46.4413206" lon="12.8759464"><ele>485.0</ele><time>2026-04-22T07:54:58.681Z</time></trkpt><trkpt lat="46.4412343" lon="12.875982"><ele>486.4</ele><time>2026-04-22T07:54:59.682Z</time></trkpt><trkpt lat="46.441145" lon="12.8760172"><ele>487.8</ele><time>2026-04-22T07:55:00.681Z</time></trkpt><trkpt lat="46.4410393" lon="12.8760423"><ele>489.20000000000005</ele><time>2026-04-22T07:55:01.682Z</time></trkpt><trkpt lat="46.4409325" lon="12.8760628"><ele>490.6</ele><time>2026-04-22T07:55:02.681Z</time></trkpt><trkpt lat="46.4408323" lon="12.8761097"><ele>492.0</ele><time>2026-04-22T07:55:03.681Z</time></trkpt><trkpt lat="46.4407505" lon="12.8761504"><ele>492.0</ele><time>2026-04-22T07:55:04.682Z</time></trkpt><trkpt lat="46.4406925" lon="12.8762699"><ele>492.00000000000006</ele><time>2026-04-22T07:55:05.681Z</time></trkpt><trkpt lat="46.440641" lon="12.8763968"><ele>492.00000000000006</ele><time>2026-04-22T07:55:06.682Z</time></trkpt><trkpt lat="46.4406423" lon="12.8765316"><ele>492.0</ele><time>2026-04-22T07:55:07.681Z</time></trkpt><trkpt lat="46.4406294" lon="12.8766628"><ele>492.0</ele><time>2026-04-22T07:55:08.682Z</time></trkpt><trkpt lat="46.4406006" lon="12.8767724"><ele>487.6</ele><time>2026-04-22T07:55:09.681Z</time></trkpt><trkpt lat="46.4405536" lon="12.8768677"><ele>483.20000000000005</ele><time>2026-04-22T07:55:10.682Z</time></trkpt><trkpt lat="46.4404768" lon="12.8769423"><ele>478.8</ele><time>2026-04-22T07:55:11.681Z</time></trkpt><trkpt lat="46.4403822" lon="12.8770252"><ele>474.4</ele><time>2026-04-22T07:55:12.681Z</time></trkpt><trkpt lat="46.4402924" lon="12.877108"><ele>470.0</ele><time>2026-04-22T07:55:13.681Z</time></trkpt><trkpt lat="46.4402117" lon="12.8771906"><ele>470.0</ele><time>2026-04-22T07:55:14.682Z</time></trkpt><trkpt lat="46.4401456" lon="12.8772421"><ele>470.0</ele><time>2026-04-22T07:55:15.683Z</time></trkpt><trkpt lat="46.440031" lon="12.8771992"><ele>470.0</ele><time>2026-04-22T07:55:17.681Z</time></trkpt><trkpt lat="46.4399764" lon="12.8771145"><ele>470.0</ele><time>2026-04-22T07:55:18.681Z</time></trkpt><trkpt lat="46.4399015" lon="12.8770147"><ele>470.0</ele><time>2026-04-22T07:55:19.681Z</time></trkpt><trkpt lat="46.4398081" lon="12.8768982"><ele>470.5</ele><time>2026-04-22T07:55:20.681Z</time></trkpt><trkpt lat="46.4397186" lon="12.876767"><ele>471.0</ele><time>2026-04-22T07:55:21.681Z</time></trkpt><trkpt lat="46.439622" lon="12.8766062"><ele>471.5</ele><time>2026-04-22T07:55:22.681Z</time></trkpt><trkpt lat="46.439522" lon="12.8764396"><ele>472.0</ele><time>2026-04-22T07:55:23.682Z</time></trkpt><trkpt lat="46.4394199" lon="12.8762754"><ele>472.0</ele><time>2026-04-22T07:55:24.683Z</time></trkpt><trkpt lat="46.4393171" lon="12.8761133"><ele>472.0</ele><time>2026-04-22T07:55:25.681Z</time></trkpt><trkpt lat="46.4392134" lon="12.8759545"><ele>472.0</ele><time>2026-04-22T07:55:26.681Z</time></trkpt><trkpt lat="46.439112" lon="12.8757999"><ele>468.75</ele><time>2026-04-22T07:55:27.681Z</time></trkpt><trkpt lat="46.4390121" lon="12.875659"><ele>465.5</ele><time>2026-04-22T07:55:28.681Z</time></trkpt><trkpt lat="46.4389199" lon="12.8755089"><ele>462.25</ele><time>2026-04-22T07:55:29.682Z</time></trkpt><trkpt lat="46.4388316" lon="12.875345"><ele>459.0</ele><time>2026-04-22T07:55:30.681Z</time></trkpt><trkpt lat="46.438741" lon="12.8751626"><ele>467.33333333333337</ele><time>2026-04-22T07:55:31.681Z</time></trkpt><trkpt lat="46.4386508" lon="12.8749795"><ele>475.6666666666667</ele><time>2026-04-22T07:55:32.681Z</time></trkpt><trkpt lat="46.438557" lon="12.8747901"><ele>484.0</ele><time>2026-04-22T07:55:33.681Z</time></trkpt><trkpt lat="46.4384768" lon="12.8746272"><ele>484.0</ele><time>2026-04-22T07:55:34.682Z</time></trkpt><trkpt lat="46.4384009" lon="12.8744842"><ele>484.0</ele><time>2026-04-22T07:55:35.681Z</time></trkpt><trkpt lat="46.4383334" lon="12.8743447"><ele>484.0</ele><time>2026-04-22T07:55:36.682Z</time></trkpt><trkpt lat="46.438273" lon="12.8742111"><ele>484.0</ele><time>2026-04-22T07:55:37.682Z</time></trkpt><trkpt lat="46.4382157" lon="12.8740859"><ele>486.0</ele><time>2026-04-22T07:55:38.681Z</time></trkpt><trkpt lat="46.4381612" lon="12.8739771"><ele>488.0</ele><time>2026-04-22T07:55:39.681Z</time></trkpt><trkpt lat="46.4380964" lon="12.8738868"><ele>490.0</ele><time>2026-04-22T07:55:40.682Z</time></trkpt><trkpt lat="46.4380126" lon="12.8738343"><ele>492.0</ele><time>2026-04-22T07:55:41.682Z</time></trkpt><trkpt lat="46.4379111" lon="12.8738288"><ele>494.0</ele><time>2026-04-22T07:55:42.681Z</time></trkpt><trkpt lat="46.4377917" lon="12.8738666"><ele>494.0</ele><time>2026-04-22T07:55:43.682Z</time></trkpt><trkpt lat="46.4376714" lon="12.8739218"><ele>494.0</ele><time>2026-04-22T07:55:44.681Z</time></trkpt><trkpt lat="46.4375506" lon="12.8739869"><ele>494.0</ele><time>2026-04-22T07:55:45.682Z</time></trkpt><trkpt lat="46.4374302" lon="12.8740483"><ele>494.0</ele><time>2026-04-22T07:55:46.682Z</time></trkpt><trkpt lat="46.4373022" lon="12.8741093"><ele>494.0</ele><time>2026-04-22T07:55:47.681Z</time></trkpt><trkpt lat="46.4371777" lon="12.8741556"><ele>494.0</ele><time>2026-04-22T07:55:48.682Z</time></trkpt><trkpt lat="46.437063" lon="12.874197"><ele>494.0</ele><time>2026-04-22T07:55:49.681Z</time></trkpt><trkpt lat="46.4369528" lon="12.8742291"><ele>494.0</ele><time>2026-04-22T07:55:50.683Z</time></trkpt><trkpt lat="46.4368551" lon="12.8742627"><ele>493.79999999999995</ele><time>2026-04-22T07:55:51.681Z</time></trkpt><trkpt lat="46.4367634" lon="12.8742846"><ele>493.59999999999997</ele><time>2026-04-22T07:55:52.682Z</time></trkpt><trkpt lat="46.4366755" lon="12.8742687"><ele>493.4</ele><time>2026-04-22T07:55:53.681Z</time></trkpt><trkpt lat="46.4366019" lon="12.8742073"><ele>493.2</ele><time>2026-04-22T07:55:54.681Z</time></trkpt><trkpt lat="46.4365305" lon="12.8741316"><ele>493.0</ele><time>2026-04-22T07:55:55.681Z</time></trkpt><trkpt lat="46.4364386" lon="12.8740921"><ele>493.0</ele><time>2026-04-22T07:55:56.681Z</time></trkpt><trkpt lat="46.4363293" lon="12.8740981"><ele>492.99999999999994</ele><time>2026-04-22T07:55:57.681Z</time></trkpt><trkpt lat="46.4362279" lon="12.8741327"><ele>492.99999999999994</ele><time>2026-04-22T07:55:58.681Z</time></trkpt><trkpt lat="46.4361355" lon="12.8741499"><ele>493.0</ele><time>2026-04-22T07:55:59.681Z</time></trkpt><trkpt lat="46.4360418" lon="12.8741464"><ele>493.0</ele><time>2026-04-22T07:56:00.682Z</time></trkpt><trkpt lat="46.435939" lon="12.8741127"><ele>493.79999999999995</ele><time>2026-04-22T07:56:01.681Z</time></trkpt><trkpt lat="46.4358415" lon="12.87406"><ele>494.59999999999997</ele><time>2026-04-22T07:56:02.681Z</time></trkpt><trkpt lat="46.4357475" lon="12.8739963"><ele>495.40000000000003</ele><time>2026-04-22T07:56:03.682Z</time></trkpt><trkpt lat="46.435656" lon="12.8739276"><ele>496.20000000000005</ele><time>2026-04-22T07:56:04.683Z</time></trkpt><trkpt lat="46.4355692" lon="12.8738525"><ele>497.0</ele><time>2026-04-22T07:56:05.681Z</time></trkpt><trkpt lat="46.4354967" lon="12.8737723"><ele>497.40000000000003</ele><time>2026-04-22T07:56:06.681Z</time></trkpt><trkpt lat="46.435423" lon="12.8736806"><ele>497.80000000000007</ele><time>2026-04-22T07:56:07.681Z</time></trkpt><trkpt lat="46.4353575" lon="12.8735961"><ele>498.2</ele><time>2026-04-22T07:56:08.681Z</time></trkpt><trkpt lat="46.4352794" lon="12.8734951"><ele>498.6</ele><time>2026-04-22T07:56:09.682Z</time></trkpt><trkpt lat="46.4352008" lon="12.8734006"><ele>499.0</ele><time>2026-04-22T07:56:10.681Z</time></trkpt><trkpt lat="46.4351406" lon="12.8733263"><ele>499.50000000000006</ele><time>2026-04-22T07:56:11.682Z</time></trkpt><trkpt lat="46.4350807" lon="12.8732591"><ele>500.0</ele><time>2026-04-22T07:56:12.682Z</time></trkpt><trkpt lat="46.4349935" lon="12.8731738"><ele>500.5</ele><time>2026-04-22T07:56:14.681Z</time></trkpt><trkpt lat="46.4348997" lon="12.8731273"><ele>501.0</ele><time>2026-04-22T07:56:16.681Z</time></trkpt><trkpt lat="46.4348329" lon="12.8731634"><ele>501.50000000000006</ele><time>2026-04-22T07:56:17.682Z</time></trkpt><trkpt lat="46.4347536" lon="12.8732143"><ele>502.0</ele><time>2026-04-22T07:56:18.681Z</time></trkpt><trkpt lat="46.4346683" lon="12.8732258"><ele>501.6</ele><time>2026-04-22T07:56:19.682Z</time></trkpt><trkpt lat="46.4345722" lon="12.8731907"><ele>501.20000000000005</ele><time>2026-04-22T07:56:20.681Z</time></trkpt><trkpt lat="46.4344758" lon="12.8731265"><ele>500.8</ele><time>2026-04-22T07:56:21.683Z</time></trkpt><trkpt lat="46.4343876" lon="12.8730394"><ele>500.4</ele><time>2026-04-22T07:56:22.681Z</time></trkpt><trkpt lat="46.434307" lon="12.8729495"><ele>500.0</ele><time>2026-04-22T07:56:23.682Z</time></trkpt><trkpt lat="46.4342273" lon="12.8728596"><ele>500.0</ele><time>2026-04-22T07:56:24.682Z</time></trkpt><trkpt lat="46.4341525" lon="12.8727761"><ele>500.0</ele><time>2026-04-22T07:56:25.683Z</time></trkpt><trkpt lat="46.4340811" lon="12.8726983"><ele>500.0</ele><time>2026-04-22T07:56:26.681Z</time></trkpt><trkpt lat="46.4340241" lon="12.8726307"><ele>500.0</ele><time>2026-04-22T07:56:27.682Z</time></trkpt><trkpt lat="46.4339443" lon="12.8725123"><ele>500.0</ele><time>2026-04-22T07:56:29.681Z</time></trkpt><trkpt lat="46.4338433" lon="12.8724726"><ele>498.8</ele><time>2026-04-22T07:56:31.681Z</time></trkpt><trkpt lat="46.4337801" lon="12.8725127"><ele>497.6</ele><time>2026-04-22T07:56:32.682Z</time></trkpt><trkpt lat="46.4336986" lon="12.8725637"><ele>496.4</ele><time>2026-04-22T07:56:33.681Z</time></trkpt><trkpt lat="46.4335936" lon="12.8726165"><ele>495.2</ele><time>2026-04-22T07:56:34.681Z</time></trkpt><trkpt lat="46.4334741" lon="12.8726648"><ele>494.0</ele><time>2026-04-22T07:56:35.683Z</time></trkpt><trkpt lat="46.4333428" lon="12.8727144"><ele>493.3333333333333</ele><time>2026-04-22T07:56:36.681Z</time></trkpt><trkpt lat="46.4331869" lon="12.8727752"><ele>492.66666666666663</ele><time>2026-04-22T07:56:37.682Z</time></trkpt><trkpt lat="46.4330295" lon="12.8728343"><ele>492.0</ele><time>2026-04-22T07:56:38.681Z</time></trkpt><trkpt lat="46.4328699" lon="12.8728947"><ele>489.66666666666663</ele><time>2026-04-22T07:56:39.682Z</time></trkpt><trkpt lat="46.4327095" lon="12.872959"><ele>487.3333333333333</ele><time>2026-04-22T07:56:40.681Z</time></trkpt><trkpt lat="46.43255" lon="12.8730322"><ele>485.0</ele><time>2026-04-22T07:56:41.681Z</time></trkpt><trkpt lat="46.4323903" lon="12.8731068"><ele>485.0</ele><time>2026-04-22T07:56:42.681Z</time></trkpt><trkpt lat="46.4322293" lon="12.8731835"><ele>485.0</ele><time>2026-04-22T07:56:43.681Z</time></trkpt><trkpt lat="46.4320686" lon="12.8732643"><ele>485.0</ele><time>2026-04-22T07:56:44.681Z</time></trkpt><trkpt lat="46.4319072" lon="12.8733444"><ele>482.66666666666663</ele><time>2026-04-22T07:56:45.681Z</time></trkpt><trkpt lat="46.4317456" lon="12.8734239"><ele>480.33333333333337</ele><time>2026-04-22T07:56:46.682Z</time></trkpt><trkpt lat="46.431582" lon="12.873496"><ele>478.0</ele><time>2026-04-22T07:56:47.681Z</time></trkpt><trkpt lat="46.4314186" lon="12.8735488"><ele>476.0</ele><time>2026-04-22T07:56:48.682Z</time></trkpt><trkpt lat="46.431256" lon="12.8735751"><ele>474.0</ele><time>2026-04-22T07:56:49.681Z</time></trkpt><trkpt lat="46.4310972" lon="12.873577"><ele>472.0</ele><time>2026-04-22T07:56:50.681Z</time></trkpt><trkpt lat="46.4309439" lon="12.8735589"><ele>472.0</ele><time>2026-04-22T07:56:51.681Z</time></trkpt><trkpt lat="46.430798" lon="12.8735262"><ele>472.0</ele><time>2026-04-22T07:56:52.681Z</time></trkpt><trkpt lat="46.430658" lon="12.8734864"><ele>472.0</ele><time>2026-04-22T07:56:53.681Z</time></trkpt><trkpt lat="46.4305214" lon="12.8734424"><ele>472.0</ele><time>2026-04-22T07:56:54.681Z</time></trkpt><trkpt lat="46.4303849" lon="12.8733964"><ele>471.5</ele><time>2026-04-22T07:56:55.681Z</time></trkpt><trkpt lat="46.430251" lon="12.8733528"><ele>471.0</ele><time>2026-04-22T07:56:56.681Z</time></trkpt><trkpt lat="46.4301181" lon="12.87331"><ele>470.5</ele><time>2026-04-22T07:56:57.681Z</time></trkpt><trkpt lat="46.429989" lon="12.8732683"><ele>470.0</ele><time>2026-04-22T07:56:58.681Z</time></trkpt><trkpt lat="46.429866" lon="12.8732523"><ele>470.0</ele><time>2026-04-22T07:56:59.681Z</time></trkpt><trkpt lat="46.4297481" lon="12.8732842"><ele>470.0</ele><time>2026-04-22T07:57:00.681Z</time></trkpt><trkpt lat="46.4296384" lon="12.8733716"><ele>470.0</ele><time>2026-04-22T07:57:01.681Z</time></trkpt><trkpt lat="46.4295328" lon="12.873508"><ele>470.0</ele><time>2026-04-22T07:57:02.682Z</time></trkpt><trkpt lat="46.4294226" lon="12.8736787"><ele>468.3333333333333</ele><time>2026-04-22T07:57:03.681Z</time></trkpt><trkpt lat="46.4293011" lon="12.8738626"><ele>466.66666666666663</ele><time>2026-04-22T07:57:04.682Z</time></trkpt><trkpt lat="46.4291648" lon="12.8740641"><ele>465.0</ele><time>2026-04-22T07:57:05.681Z</time></trkpt><trkpt lat="46.4290306" lon="12.8742622"><ele>465.0</ele><time>2026-04-22T07:57:06.683Z</time></trkpt><trkpt lat="46.4288948" lon="12.8744638"><ele>465.0</ele><time>2026-04-22T07:57:07.681Z</time></trkpt><trkpt lat="46.4287581" lon="12.8746658"><ele>465.0</ele><time>2026-04-22T07:57:08.682Z</time></trkpt><trkpt lat="46.4286147" lon="12.8748741"><ele>464.66666666666663</ele><time>2026-04-22T07:57:09.681Z</time></trkpt><trkpt lat="46.4284658" lon="12.8750951"><ele>464.3333333333333</ele><time>2026-04-22T07:57:10.681Z</time></trkpt><trkpt lat="46.4283196" lon="12.8753139"><ele>464.0</ele><time>2026-04-22T07:57:11.681Z</time></trkpt><trkpt lat="46.4281738" lon="12.875532"><ele>463.3333333333333</ele><time>2026-04-22T07:57:12.682Z</time></trkpt><trkpt lat="46.4280294" lon="12.8757513"><ele>462.66666666666663</ele><time>2026-04-22T07:57:13.681Z</time></trkpt><trkpt lat="46.4278828" lon="12.8759661"><ele>462.0</ele><time>2026-04-22T07:57:14.682Z</time></trkpt><trkpt lat="46.4277375" lon="12.8761809"><ele>460.66666666666663</ele><time>2026-04-22T07:57:15.681Z</time></trkpt><trkpt lat="46.4275952" lon="12.8763981"><ele>459.3333333333333</ele><time>2026-04-22T07:57:16.681Z</time></trkpt><trkpt lat="46.4274531" lon="12.8766109"><ele>458.0</ele><time>2026-04-22T07:57:17.681Z</time></trkpt><trkpt lat="46.4273126" lon="12.876825"><ele>457.0</ele><time>2026-04-22T07:57:18.682Z</time></trkpt><trkpt lat="46.4271739" lon="12.8770389"><ele>456.0</ele><time>2026-04-22T07:57:19.681Z</time></trkpt><trkpt lat="46.4270361" lon="12.8772532"><ele>455.0</ele><time>2026-04-22T07:57:20.682Z</time></trkpt><trkpt lat="46.4268998" lon="12.877467"><ele>458.0</ele><time>2026-04-22T07:57:21.681Z</time></trkpt><trkpt lat="46.4267631" lon="12.8776781"><ele>461.0</ele><time>2026-04-22T07:57:22.681Z</time></trkpt><trkpt lat="46.4266271" lon="12.8778882"><ele>464.0</ele><time>2026-04-22T07:57:23.681Z</time></trkpt><trkpt lat="46.4264934" lon="12.8780963"><ele>464.0</ele><time>2026-04-22T07:57:24.681Z</time></trkpt><trkpt lat="46.4263575" lon="12.8782998"><ele>464.0</ele><time>2026-04-22T07:57:25.681Z</time></trkpt><trkpt lat="46.4262234" lon="12.8785033"><ele>464.0</ele><time>2026-04-22T07:57:26.681Z</time></trkpt><trkpt lat="46.4260886" lon="12.8787081"><ele>463.3333333333333</ele><time>2026-04-22T07:57:27.682Z</time></trkpt><trkpt lat="46.4259649" lon="12.8789052"><ele>462.66666666666663</ele><time>2026-04-22T07:57:28.681Z</time></trkpt><trkpt lat="46.425853" lon="12.8791277"><ele>462.0</ele><time>2026-04-22T07:57:29.681Z</time></trkpt><trkpt lat="46.4257547" lon="12.8793758"><ele>462.0</ele><time>2026-04-22T07:57:30.681Z</time></trkpt><trkpt lat="46.4256572" lon="12.8796452"><ele>462.0</ele><time>2026-04-22T07:57:31.681Z</time></trkpt><trkpt lat="46.4255614" lon="12.8799109"><ele>462.0</ele><time>2026-04-22T07:57:32.681Z</time></trkpt><trkpt lat="46.4254656" lon="12.880174"><ele>457.66666666666663</ele><time>2026-04-22T07:57:33.681Z</time></trkpt><trkpt lat="46.4253724" lon="12.880437"><ele>453.3333333333333</ele><time>2026-04-22T07:57:34.682Z</time></trkpt><trkpt lat="46.4252831" lon="12.8806983"><ele>449.0</ele><time>2026-04-22T07:57:35.681Z</time></trkpt><trkpt lat="46.4252023" lon="12.8809686"><ele>449.0</ele><time>2026-04-22T07:57:36.681Z</time></trkpt><trkpt lat="46.4251307" lon="12.8812492"><ele>449.0</ele><time>2026-04-22T07:57:37.681Z</time></trkpt><trkpt lat="46.4250668" lon="12.8815332"><ele>449.0</ele><time>2026-04-22T07:57:38.681Z</time></trkpt><trkpt lat="46.4250101" lon="12.881814"><ele>451.0</ele><time>2026-04-22T07:57:39.681Z</time></trkpt><trkpt lat="46.4249485" lon="12.8820884"><ele>453.0</ele><time>2026-04-22T07:57:40.682Z</time></trkpt><trkpt lat="46.424881" lon="12.8823567"><ele>455.0</ele><time>2026-04-22T07:57:41.681Z</time></trkpt><trkpt lat="46.4248088" lon="12.8826203"><ele>458.0</ele><time>2026-04-22T07:57:42.683Z</time></trkpt><trkpt lat="46.4247323" lon="12.8828795"><ele>461.0</ele><time>2026-04-22T07:57:43.681Z</time></trkpt><trkpt lat="46.4246532" lon="12.8831368"><ele>464.0</ele><time>2026-04-22T07:57:44.681Z</time></trkpt><trkpt lat="46.4245666" lon="12.8833895"><ele>457.3333333333333</ele><time>2026-04-22T07:57:45.682Z</time></trkpt><trkpt lat="46.4244815" lon="12.883644"><ele>450.66666666666663</ele><time>2026-04-22T07:57:46.681Z</time></trkpt><trkpt lat="46.4243896" lon="12.8838971"><ele>444.0</ele><time>2026-04-22T07:57:47.681Z</time></trkpt><trkpt lat="46.424281" lon="12.8841398"><ele>446.0</ele><time>2026-04-22T07:57:48.681Z</time></trkpt><trkpt lat="46.4241601" lon="12.8843704"><ele>448.0</ele><time>2026-04-22T07:57:49.682Z</time></trkpt><trkpt lat="46.4240384" lon="12.8845848"><ele>450.0</ele><time>2026-04-22T07:57:50.681Z</time></trkpt><trkpt lat="46.4239201" lon="12.8847976"><ele>446.0</ele><time>2026-04-22T07:57:51.682Z</time></trkpt><trkpt lat="46.4238007" lon="12.8850051"><ele>442.0</ele><time>2026-04-22T07:57:52.682Z</time></trkpt><trkpt lat="46.423678" lon="12.8852086"><ele>438.0</ele><time>2026-04-22T07:57:53.681Z</time></trkpt><trkpt lat="46.4235689" lon="12.8854352"><ele>438.0</ele><time>2026-04-22T07:57:54.682Z</time></trkpt><trkpt lat="46.4234775" lon="12.8856903"><ele>438.0</ele><time>2026-04-22T07:57:55.681Z</time></trkpt><trkpt lat="46.4234031" lon="12.8859809"><ele>438.0</ele><time>2026-04-22T07:57:56.681Z</time></trkpt><trkpt lat="46.4233389" lon="12.886284"><ele>438.0</ele><time>2026-04-22T07:57:57.681Z</time></trkpt><trkpt lat="46.4232771" lon="12.8865806"><ele>438.0</ele><time>2026-04-22T07:57:58.681Z</time></trkpt><trkpt lat="46.4232133" lon="12.8868726"><ele>438.0</ele><time>2026-04-22T07:57:59.681Z</time></trkpt><trkpt lat="46.4231514" lon="12.887164"><ele>438.66666666666663</ele><time>2026-04-22T07:58:00.681Z</time></trkpt><trkpt lat="46.4230893" lon="12.8874524"><ele>439.3333333333333</ele><time>2026-04-22T07:58:01.682Z</time></trkpt><trkpt lat="46.4230255" lon="12.8877392"><ele>440.0</ele><time>2026-04-22T07:58:02.681Z</time></trkpt><trkpt lat="46.4229622" lon="12.8880258"><ele>434.0</ele><time>2026-04-22T07:58:03.682Z</time></trkpt><trkpt lat="46.4228992" lon="12.8883139"><ele>428.0</ele><time>2026-04-22T07:58:04.681Z</time></trkpt><trkpt lat="46.4228367" lon="12.888599"><ele>422.0</ele><time>2026-04-22T07:58:05.681Z</time></trkpt><trkpt lat="46.4227794" lon="12.8888804"><ele>422.0</ele><time>2026-04-22T07:58:06.681Z</time></trkpt><trkpt lat="46.4227186" lon="12.8891493"><ele>422.0</ele><time>2026-04-22T07:58:07.681Z</time></trkpt><trkpt lat="46.4226632" lon="12.8894131"><ele>422.0</ele><time>2026-04-22T07:58:08.682Z</time></trkpt><trkpt lat="46.4226265" lon="12.8896804"><ele>421.66666666666663</ele><time>2026-04-22T07:58:09.681Z</time></trkpt><trkpt lat="46.4226101" lon="12.8899573"><ele>421.33333333333337</ele><time>2026-04-22T07:58:10.681Z</time></trkpt><trkpt lat="46.4226084" lon="12.8902435"><ele>421.0</ele><time>2026-04-22T07:58:11.681Z</time></trkpt><trkpt lat="46.4226234" lon="12.890537"><ele>421.0</ele><time>2026-04-22T07:58:12.682Z</time></trkpt><trkpt lat="46.4226622" lon="12.8908338"><ele>421.0</ele><time>2026-04-22T07:58:13.681Z</time></trkpt><trkpt lat="46.4227114" lon="12.8911268"><ele>421.0</ele><time>2026-04-22T07:58:14.682Z</time></trkpt><trkpt lat="46.4227559" lon="12.8914251"><ele>419.6666666666667</ele><time>2026-04-22T07:58:15.681Z</time></trkpt><trkpt lat="46.422785" lon="12.8917352"><ele>418.33333333333337</ele><time>2026-04-22T07:58:16.681Z</time></trkpt><trkpt lat="46.4227947" lon="12.8920392"><ele>417.0</ele><time>2026-04-22T07:58:17.682Z</time></trkpt><trkpt lat="46.4227939" lon="12.8923264"><ele>415.66666666666663</ele><time>2026-04-22T07:58:18.681Z</time></trkpt><trkpt lat="46.4227911" lon="12.8925987"><ele>414.3333333333333</ele><time>2026-04-22T07:58:19.681Z</time></trkpt><trkpt lat="46.4227912" lon="12.8928593"><ele>413.0</ele><time>2026-04-22T07:58:20.681Z</time></trkpt><trkpt lat="46.4227898" lon="12.8931076"><ele>413.0</ele><time>2026-04-22T07:58:21.681Z</time></trkpt><trkpt lat="46.4227863" lon="12.8933286"><ele>413.0</ele><time>2026-04-22T07:58:22.682Z</time></trkpt><trkpt lat="46.4227823" lon="12.893524"><ele>413.0</ele><time>2026-04-22T07:58:23.681Z</time></trkpt><trkpt lat="46.4227735" lon="12.8936912"><ele>413.0</ele><time>2026-04-22T07:58:24.681Z</time></trkpt><trkpt lat="46.4227332" lon="12.8938365"><ele>411.25</ele><time>2026-04-22T07:58:25.682Z</time></trkpt><trkpt lat="46.4226503" lon="12.8939664"><ele>409.5</ele><time>2026-04-22T07:58:26.682Z</time></trkpt><trkpt lat="46.4225332" lon="12.8940772"><ele>407.75</ele><time>2026-04-22T07:58:27.682Z</time></trkpt><trkpt lat="46.42241" lon="12.8941803"><ele>406.0</ele><time>2026-04-22T07:58:28.682Z</time></trkpt><trkpt lat="46.4222957" lon="12.8942837"><ele>406.0</ele><time>2026-04-22T07:58:29.682Z</time></trkpt><trkpt lat="46.422195" lon="12.8944234"><ele>406.0</ele><time>2026-04-22T07:58:30.681Z</time></trkpt><trkpt lat="46.4221197" lon="12.8946087"><ele>406.0</ele><time>2026-04-22T07:58:31.681Z</time></trkpt><trkpt lat="46.4220673" lon="12.8948326"><ele>405.6666666666667</ele><time>2026-04-22T07:58:32.681Z</time></trkpt><trkpt lat="46.42202" lon="12.8950874"><ele>405.33333333333337</ele><time>2026-04-22T07:58:33.681Z</time></trkpt><trkpt lat="46.4219731" lon="12.8953403"><ele>405.0</ele><time>2026-04-22T07:58:34.681Z</time></trkpt><trkpt lat="46.4219232" lon="12.8955977"><ele>404.0</ele><time>2026-04-22T07:58:35.681Z</time></trkpt><trkpt lat="46.4218714" lon="12.8958595"><ele>403.0</ele><time>2026-04-22T07:58:36.681Z</time></trkpt><trkpt lat="46.4218212" lon="12.8961215"><ele>402.0</ele><time>2026-04-22T07:58:37.682Z</time></trkpt><trkpt lat="46.4217714" lon="12.8963825"><ele>401.66666666666663</ele><time>2026-04-22T07:58:38.681Z</time></trkpt><trkpt lat="46.4217207" lon="12.8966424"><ele>401.3333333333333</ele><time>2026-04-22T07:58:39.682Z</time></trkpt><trkpt lat="46.4216689" lon="12.8969"><ele>401.0</ele><time>2026-04-22T07:58:40.681Z</time></trkpt><trkpt lat="46.4216095" lon="12.8971533"><ele>400.3333333333333</ele><time>2026-04-22T07:58:41.681Z</time></trkpt><trkpt lat="46.4215402" lon="12.8973967"><ele>399.66666666666663</ele><time>2026-04-22T07:58:42.682Z</time></trkpt><trkpt lat="46.4214613" lon="12.8976333"><ele>399.0</ele><time>2026-04-22T07:58:43.681Z</time></trkpt><trkpt lat="46.4213722" lon="12.8978652"><ele>398.33333333333337</ele><time>2026-04-22T07:58:44.682Z</time></trkpt><trkpt lat="46.4212732" lon="12.8980875"><ele>397.6666666666667</ele><time>2026-04-22T07:58:45.681Z</time></trkpt><trkpt lat="46.4211664" lon="12.8983024"><ele>397.0</ele><time>2026-04-22T07:58:46.681Z</time></trkpt><trkpt lat="46.4210573" lon="12.8985142"><ele>396.0</ele><time>2026-04-22T07:58:47.681Z</time></trkpt><trkpt lat="46.4209455" lon="12.8987207"><ele>395.0</ele><time>2026-04-22T07:58:48.682Z</time></trkpt><trkpt lat="46.420836" lon="12.898928"><ele>394.0</ele><time>2026-04-22T07:58:49.681Z</time></trkpt><trkpt lat="46.4207286" lon="12.8991344"><ele>394.0</ele><time>2026-04-22T07:58:50.683Z</time></trkpt><trkpt lat="46.420622" lon="12.8993368"><ele>394.0</ele><time>2026-04-22T07:58:51.681Z</time></trkpt><trkpt lat="46.420517" lon="12.8995384"><ele>394.0</ele><time>2026-04-22T07:58:52.681Z</time></trkpt><trkpt lat="46.4204117" lon="12.8997354"><ele>393.6666666666667</ele><time>2026-04-22T07:58:53.681Z</time></trkpt><trkpt lat="46.4203071" lon="12.8999288"><ele>393.33333333333337</ele><time>2026-04-22T07:58:54.682Z</time></trkpt><trkpt lat="46.4202045" lon="12.9001211"><ele>393.0</ele><time>2026-04-22T07:58:55.681Z</time></trkpt><trkpt lat="46.4201014" lon="12.9003098"><ele>392.0</ele><time>2026-04-22T07:58:56.681Z</time></trkpt><trkpt lat="46.4200012" lon="12.9004985"><ele>391.0</ele><time>2026-04-22T07:58:57.681Z</time></trkpt><trkpt lat="46.4198995" lon="12.9006826"><ele>390.0</ele><time>2026-04-22T07:58:58.681Z</time></trkpt><trkpt lat="46.4198008" lon="12.9008692"><ele>390.0</ele><time>2026-04-22T07:58:59.681Z</time></trkpt><trkpt lat="46.4197102" lon="12.9010715"><ele>390.0</ele><time>2026-04-22T07:59:00.682Z</time></trkpt><trkpt lat="46.4196341" lon="12.9012911"><ele>390.0</ele><time>2026-04-22T07:59:01.682Z</time></trkpt><trkpt lat="46.4195761" lon="12.9015187"><ele>388.66666666666663</ele><time>2026-04-22T07:59:02.681Z</time></trkpt><trkpt lat="46.4195357" lon="12.9017496"><ele>387.3333333333333</ele><time>2026-04-22T07:59:03.681Z</time></trkpt><trkpt lat="46.4195186" lon="12.9019849"><ele>386.0</ele><time>2026-04-22T07:59:04.682Z</time></trkpt><trkpt lat="46.4195225" lon="12.9022236"><ele>386.0</ele><time>2026-04-22T07:59:05.681Z</time></trkpt><trkpt lat="46.4195471" lon="12.9024679"><ele>386.0</ele><time>2026-04-22T07:59:06.682Z</time></trkpt><trkpt lat="46.4195849" lon="12.9027323"><ele>386.0</ele><time>2026-04-22T07:59:07.682Z</time></trkpt><trkpt lat="46.4196258" lon="12.9030079"><ele>386.0</ele><time>2026-04-22T07:59:08.681Z</time></trkpt><trkpt lat="46.4196636" lon="12.9032756"><ele>386.0</ele><time>2026-04-22T07:59:09.681Z</time></trkpt><trkpt lat="46.4197006" lon="12.9035348"><ele>386.0</ele><time>2026-04-22T07:59:10.681Z</time></trkpt><trkpt lat="46.4197378" lon="12.9037863"><ele>386.0</ele><time>2026-04-22T07:59:11.681Z</time></trkpt><trkpt lat="46.4197726" lon="12.9040302"><ele>386.0</ele><time>2026-04-22T07:59:12.681Z</time></trkpt><trkpt lat="46.4198056" lon="12.9042728"><ele>386.0</ele><time>2026-04-22T07:59:13.681Z</time></trkpt><trkpt lat="46.4198396" lon="12.9045149"><ele>384.66666666666663</ele><time>2026-04-22T07:59:14.681Z</time></trkpt><trkpt lat="46.419875" lon="12.904756"><ele>383.3333333333333</ele><time>2026-04-22T07:59:15.681Z</time></trkpt><trkpt lat="46.4199109" lon="12.9049965"><ele>382.0</ele><time>2026-04-22T07:59:16.681Z</time></trkpt><trkpt lat="46.4199471" lon="12.9052374"><ele>380.66666666666663</ele><time>2026-04-22T07:59:17.681Z</time></trkpt><trkpt lat="46.4199821" lon="12.9054791"><ele>379.3333333333333</ele><time>2026-04-22T07:59:18.681Z</time></trkpt><trkpt lat="46.4200155" lon="12.9057204"><ele>378.0</ele><time>2026-04-22T07:59:19.682Z</time></trkpt><trkpt lat="46.420049" lon="12.9059624"><ele>377.6666666666667</ele><time>2026-04-22T07:59:20.681Z</time></trkpt><trkpt lat="46.4200833" lon="12.9062029"><ele>377.33333333333337</ele><time>2026-04-22T07:59:21.681Z</time></trkpt><trkpt lat="46.4201183" lon="12.906444"><ele>377.0</ele><time>2026-04-22T07:59:22.682Z</time></trkpt><trkpt lat="46.420153" lon="12.9066849"><ele>377.33333333333337</ele><time>2026-04-22T07:59:23.682Z</time></trkpt><trkpt lat="46.4201876" lon="12.9069288"><ele>377.6666666666667</ele><time>2026-04-22T07:59:24.681Z</time></trkpt><trkpt lat="46.4202224" lon="12.907172"><ele>378.0</ele><time>2026-04-22T07:59:25.682Z</time></trkpt><trkpt lat="46.4202588" lon="12.9074159"><ele>377.3333333333333</ele><time>2026-04-22T07:59:26.681Z</time></trkpt><trkpt lat="46.4202927" lon="12.9076565"><ele>376.66666666666663</ele><time>2026-04-22T07:59:27.681Z</time></trkpt><trkpt lat="46.4203275" lon="12.9078936"><ele>376.0</ele><time>2026-04-22T07:59:28.681Z</time></trkpt><trkpt lat="46.4203622" lon="12.9081279"><ele>376.0</ele><time>2026-04-22T07:59:29.682Z</time></trkpt><trkpt lat="46.4203948" lon="12.9083591"><ele>376.0</ele><time>2026-04-22T07:59:30.681Z</time></trkpt><trkpt lat="46.4204322" lon="12.908585"><ele>376.0</ele><time>2026-04-22T07:59:31.681Z</time></trkpt><trkpt lat="46.4204699" lon="12.9088061"><ele>377.0</ele><time>2026-04-22T07:59:32.682Z</time></trkpt><trkpt lat="46.4205012" lon="12.9090131"><ele>378.0</ele><time>2026-04-22T07:59:33.681Z</time></trkpt><trkpt lat="46.4205298" lon="12.9092197"><ele>379.0</ele><time>2026-04-22T07:59:34.682Z</time></trkpt><trkpt lat="46.4205592" lon="12.909426"><ele>380.0</ele><time>2026-04-22T07:59:35.681Z</time></trkpt><trkpt lat="46.4205883" lon="12.9096166"><ele>380.5</ele><time>2026-04-22T07:59:36.681Z</time></trkpt><trkpt lat="46.4206147" lon="12.9097905"><ele>381.0</ele><time>2026-04-22T07:59:37.681Z</time></trkpt><trkpt lat="46.42063" lon="12.909949"><ele>381.5</ele><time>2026-04-22T07:59:38.681Z</time></trkpt><trkpt lat="46.4206317" lon="12.9101"><ele>382.0</ele><time>2026-04-22T07:59:39.682Z</time></trkpt><trkpt lat="46.4206084" lon="12.9102637"><ele>383.25</ele><time>2026-04-22T07:59:40.682Z</time></trkpt><trkpt lat="46.4205545" lon="12.9104179"><ele>384.5</ele><time>2026-04-22T07:59:41.681Z</time></trkpt><trkpt lat="46.4204693" lon="12.9105708"><ele>385.75</ele><time>2026-04-22T07:59:42.681Z</time></trkpt><trkpt lat="46.4203443" lon="12.9107146"><ele>387.0</ele><time>2026-04-22T07:59:43.681Z</time></trkpt><trkpt lat="46.4201928" lon="12.9108412"><ele>387.33333333333337</ele><time>2026-04-22T07:59:44.682Z</time></trkpt><trkpt lat="46.4200335" lon="12.9109749"><ele>387.6666666666667</ele><time>2026-04-22T07:59:45.681Z</time></trkpt><trkpt lat="46.4198811" lon="12.9111084"><ele>388.0</ele><time>2026-04-22T07:59:46.681Z</time></trkpt><trkpt lat="46.4197399" lon="12.9112389"><ele>386.6666666666667</ele><time>2026-04-22T07:59:47.681Z</time></trkpt><trkpt lat="46.4196152" lon="12.9113799"><ele>385.33333333333337</ele><time>2026-04-22T07:59:48.681Z</time></trkpt><trkpt lat="46.4195046" lon="12.9115365"><ele>384.0</ele><time>2026-04-22T07:59:49.681Z</time></trkpt><trkpt lat="46.4193993" lon="12.911708"><ele>383.5</ele><time>2026-04-22T07:59:50.681Z</time></trkpt><trkpt lat="46.419299" lon="12.9118877"><ele>383.0</ele><time>2026-04-22T07:59:51.682Z</time></trkpt><trkpt lat="46.4192048" lon="12.9120425"><ele>382.5</ele><time>2026-04-22T07:59:52.681Z</time></trkpt><trkpt lat="46.4191139" lon="12.9121861"><ele>382.0</ele><time>2026-04-22T07:59:53.681Z</time></trkpt><trkpt lat="46.4190276" lon="12.9123202"><ele>382.0</ele><time>2026-04-22T07:59:54.681Z</time></trkpt><trkpt lat="46.4189408" lon="12.9124504"><ele>382.0</ele><time>2026-04-22T07:59:55.682Z</time></trkpt><trkpt lat="46.4188547" lon="12.9125873"><ele>382.0</ele><time>2026-04-22T07:59:56.681Z</time></trkpt><trkpt lat="46.4187715" lon="12.9127188"><ele>382.0</ele><time>2026-04-22T07:59:57.681Z</time></trkpt><trkpt lat="46.4186883" lon="12.9128475"><ele>381.0</ele><time>2026-04-22T07:59:58.682Z</time></trkpt><trkpt lat="46.4186053" lon="12.9129775"><ele>380.0</ele><time>2026-04-22T07:59:59.681Z</time></trkpt><trkpt lat="46.4185295" lon="12.9131125"><ele>379.0</ele><time>2026-04-22T08:00:00.681Z</time></trkpt><trkpt lat="46.4184576" lon="12.9132544"><ele>378.0</ele><time>2026-04-22T08:00:01.682Z</time></trkpt><trkpt lat="46.4183926" lon="12.9134057"><ele>377.75</ele><time>2026-04-22T08:00:02.682Z</time></trkpt><trkpt lat="46.4183369" lon="12.9135612"><ele>377.5</ele><time>2026-04-22T08:00:03.681Z</time></trkpt><trkpt lat="46.4182962" lon="12.9137132"><ele>377.25</ele><time>2026-04-22T08:00:04.681Z</time></trkpt><trkpt lat="46.4182608" lon="12.9138662"><ele>377.0</ele><time>2026-04-22T08:00:05.681Z</time></trkpt><trkpt lat="46.4182283" lon="12.91402"><ele>377.0</ele><time>2026-04-22T08:00:06.681Z</time></trkpt><trkpt lat="46.4181983" lon="12.9141755"><ele>377.0</ele><time>2026-04-22T08:00:07.681Z</time></trkpt><trkpt lat="46.4181683" lon="12.9143304"><ele>377.0</ele><time>2026-04-22T08:00:08.682Z</time></trkpt><trkpt lat="46.4181353" lon="12.9144812"><ele>377.0</ele><time>2026-04-22T08:00:09.681Z</time></trkpt><trkpt lat="46.4181062" lon="12.9146359"><ele>377.0</ele><time>2026-04-22T08:00:10.681Z</time></trkpt><trkpt lat="46.4180773" lon="12.914785"><ele>376.8</ele><time>2026-04-22T08:00:11.681Z</time></trkpt><trkpt lat="46.418048" lon="12.9149303"><ele>376.6</ele><time>2026-04-22T08:00:12.682Z</time></trkpt><trkpt lat="46.4180235" lon="12.9150755"><ele>376.40000000000003</ele><time>2026-04-22T08:00:13.682Z</time></trkpt><trkpt lat="46.4179986" lon="12.915229"><ele>376.20000000000005</ele><time>2026-04-22T08:00:14.681Z</time></trkpt><trkpt lat="46.4179584" lon="12.915393"><ele>376.0</ele><time>2026-04-22T08:00:15.682Z</time></trkpt><trkpt lat="46.4179179" lon="12.9155722"><ele>375.5</ele><time>2026-04-22T08:00:16.681Z</time></trkpt><trkpt lat="46.4178793" lon="12.9157721"><ele>375.0</ele><time>2026-04-22T08:00:17.682Z</time></trkpt><trkpt lat="46.4178374" lon="12.9159723"><ele>374.5</ele><time>2026-04-22T08:00:18.681Z</time></trkpt><trkpt lat="46.4177966" lon="12.9161706"><ele>374.0</ele><time>2026-04-22T08:00:19.681Z</time></trkpt><trkpt lat="46.4177564" lon="12.9163684"><ele>373.5</ele><time>2026-04-22T08:00:20.681Z</time></trkpt><trkpt lat="46.4177171" lon="12.9165663"><ele>373.0</ele><time>2026-04-22T08:00:21.682Z</time></trkpt><trkpt lat="46.4176769" lon="12.9167628"><ele>372.5</ele><time>2026-04-22T08:00:22.681Z</time></trkpt><trkpt lat="46.4176348" lon="12.9169569"><ele>372.0</ele><time>2026-04-22T08:00:23.681Z</time></trkpt><trkpt lat="46.4175971" lon="12.9171494"><ele>372.0</ele><time>2026-04-22T08:00:24.682Z</time></trkpt><trkpt lat="46.4175589" lon="12.9173379"><ele>372.0</ele><time>2026-04-22T08:00:25.681Z</time></trkpt><trkpt lat="46.4175205" lon="12.9175265"><ele>372.0</ele><time>2026-04-22T08:00:26.681Z</time></trkpt><trkpt lat="46.4174856" lon="12.9177109"><ele>372.0</ele><time>2026-04-22T08:00:27.68Z</time></trkpt><trkpt lat="46.4174484" lon="12.9178936"><ele>372.0</ele><time>2026-04-22T08:00:28.68Z</time></trkpt><trkpt lat="46.4174143" lon="12.9180719"><ele>372.0</ele><time>2026-04-22T08:00:29.681Z</time></trkpt><trkpt lat="46.417381" lon="12.9182449"><ele>372.0</ele><time>2026-04-22T08:00:30.68Z</time></trkpt><trkpt lat="46.4173452" lon="12.9184182"><ele>372.0</ele><time>2026-04-22T08:00:31.68Z</time></trkpt><trkpt lat="46.4173124" lon="12.9185871"><ele>372.0</ele><time>2026-04-22T08:00:32.68Z</time></trkpt><trkpt lat="46.4172775" lon="12.9187584"><ele>372.0</ele><time>2026-04-22T08:00:33.68Z</time></trkpt><trkpt lat="46.4172406" lon="12.9189289"><ele>372.0</ele><time>2026-04-22T08:00:34.68Z</time></trkpt><trkpt lat="46.4172078" lon="12.9190946"><ele>372.0</ele><time>2026-04-22T08:00:35.681Z</time></trkpt><trkpt lat="46.4171817" lon="12.9192377"><ele>371.6666666666667</ele><time>2026-04-22T08:00:36.68Z</time></trkpt><trkpt lat="46.4171557" lon="12.9193579"><ele>371.3333333333333</ele><time>2026-04-22T08:00:37.681Z</time></trkpt><trkpt lat="46.4171331" lon="12.9194671"><ele>371.0</ele><time>2026-04-22T08:00:38.68Z</time></trkpt><trkpt lat="46.4171044" lon="12.9195704"><ele>370.66666666666663</ele><time>2026-04-22T08:00:39.68Z</time></trkpt><trkpt lat="46.4170528" lon="12.9196531"><ele>370.3333333333333</ele><time>2026-04-22T08:00:40.68Z</time></trkpt><trkpt lat="46.4169799" lon="12.9197154"><ele>370.0</ele><time>2026-04-22T08:00:41.68Z</time></trkpt><trkpt lat="46.416897" lon="12.9197392"><ele>369.5</ele><time>2026-04-22T08:00:42.682Z</time></trkpt><trkpt lat="46.4168056" lon="12.9197095"><ele>369.0</ele><time>2026-04-22T08:00:43.68Z</time></trkpt><trkpt lat="46.4167307" lon="12.9196464"><ele>368.5</ele><time>2026-04-22T08:00:44.681Z</time></trkpt><trkpt lat="46.4166663" lon="12.9195652"><ele>368.0</ele><time>2026-04-22T08:00:45.68Z</time></trkpt><trkpt lat="46.416605" lon="12.9194773"><ele>367.5</ele><time>2026-04-22T08:00:46.68Z</time></trkpt><trkpt lat="46.4165534" lon="12.9194043"><ele>367.0</ele><time>2026-04-22T08:00:47.68Z</time></trkpt><trkpt lat="46.4165025" lon="12.919331"><ele>367.0</ele><time>2026-04-22T08:00:48.681Z</time></trkpt><trkpt lat="46.4164448" lon="12.9192519"><ele>367.0</ele><time>2026-04-22T08:00:49.68Z</time></trkpt><trkpt lat="46.4163844" lon="12.9191633"><ele>367.0</ele><time>2026-04-22T08:00:50.68Z</time></trkpt><trkpt lat="46.4163158" lon="12.9190651"><ele>367.0</ele><time>2026-04-22T08:00:51.681Z</time></trkpt><trkpt lat="46.4162443" lon="12.9189602"><ele>367.0</ele><time>2026-04-22T08:00:52.681Z</time></trkpt><trkpt lat="46.4161758" lon="12.9188607"><ele>367.20000000000005</ele><time>2026-04-22T08:00:53.681Z</time></trkpt><trkpt lat="46.4160976" lon="12.9187524"><ele>367.4</ele><time>2026-04-22T08:00:54.68Z</time></trkpt><trkpt lat="46.4160228" lon="12.9186487"><ele>367.6</ele><time>2026-04-22T08:00:55.682Z</time></trkpt><trkpt lat="46.415957" lon="12.9185555"><ele>367.79999999999995</ele><time>2026-04-22T08:00:56.68Z</time></trkpt><trkpt lat="46.4159003" lon="12.9184754"><ele>368.0</ele><time>2026-04-22T08:00:57.681Z</time></trkpt><trkpt lat="46.41585" lon="12.9184025"><ele>368.0</ele><time>2026-04-22T08:00:58.681Z</time></trkpt><trkpt lat="46.4157838" lon="12.9183078"><ele>368.0</ele><time>2026-04-22T08:01:00.681Z</time></trkpt><trkpt lat="46.4157355" lon="12.9182354"><ele>368.0</ele><time>2026-04-22T08:01:04.681Z</time></trkpt><trkpt lat="46.4156739" lon="12.9182555"><ele>368.0</ele><time>2026-04-22T08:01:06.681Z</time></trkpt><trkpt lat="46.4156193" lon="12.9184608"><ele>368.0</ele><time>2026-04-22T08:01:08.681Z</time></trkpt><trkpt lat="46.415574" lon="12.9185865"><ele>368.0</ele><time>2026-04-22T08:01:09.681Z</time></trkpt><trkpt lat="46.4155229" lon="12.9187267"><ele>368.0</ele><time>2026-04-22T08:01:10.681Z</time></trkpt><trkpt lat="46.4154755" lon="12.9188714"><ele>368.0</ele><time>2026-04-22T08:01:11.68Z</time></trkpt><trkpt lat="46.415434" lon="12.9190108"><ele>368.0</ele><time>2026-04-22T08:01:12.68Z</time></trkpt><trkpt lat="46.4153873" lon="12.9191524"><ele>368.0</ele><time>2026-04-22T08:01:13.68Z</time></trkpt><trkpt lat="46.4153341" lon="12.9193001"><ele>367.25</ele><time>2026-04-22T08:01:14.68Z</time></trkpt><trkpt lat="46.4152832" lon="12.9194628"><ele>366.5</ele><time>2026-04-22T08:01:15.68Z</time></trkpt><trkpt lat="46.415228" lon="12.9196244"><ele>365.75</ele><time>2026-04-22T08:01:16.681Z</time></trkpt><trkpt lat="46.4151723" lon="12.9197865"><ele>365.0</ele><time>2026-04-22T08:01:17.681Z</time></trkpt><trkpt lat="46.4151172" lon="12.9199478"><ele>365.0</ele><time>2026-04-22T08:01:18.68Z</time></trkpt><trkpt lat="46.4150628" lon="12.9201089"><ele>365.0</ele><time>2026-04-22T08:01:19.68Z</time></trkpt><trkpt lat="46.4150092" lon="12.9202678"><ele>365.0</ele><time>2026-04-22T08:01:20.68Z</time></trkpt><trkpt lat="46.4149574" lon="12.9204172"><ele>365.0</ele><time>2026-04-22T08:01:21.68Z</time></trkpt><trkpt lat="46.4149053" lon="12.9205658"><ele>365.0</ele><time>2026-04-22T08:01:22.681Z</time></trkpt><trkpt lat="46.4148555" lon="12.920713"><ele>365.0</ele><time>2026-04-22T08:01:23.68Z</time></trkpt><trkpt lat="46.4148092" lon="12.9208594"><ele>365.0</ele><time>2026-04-22T08:01:24.68Z</time></trkpt><trkpt lat="46.4147631" lon="12.9210033"><ele>365.0</ele><time>2026-04-22T08:01:25.68Z</time></trkpt><trkpt lat="46.4147172" lon="12.9211456"><ele>365.0</ele><time>2026-04-22T08:01:26.68Z</time></trkpt><trkpt lat="46.4146727" lon="12.9212826"><ele>364.6</ele><time>2026-04-22T08:01:27.68Z</time></trkpt><trkpt lat="46.4146276" lon="12.9214142"><ele>364.2</ele><time>2026-04-22T08:01:28.682Z</time></trkpt><trkpt lat="46.4145799" lon="12.9215391"><ele>363.79999999999995</ele><time>2026-04-22T08:01:29.68Z</time></trkpt><trkpt lat="46.4145351" lon="12.9216742"><ele>363.4</ele><time>2026-04-22T08:01:30.68Z</time></trkpt><trkpt lat="46.4144854" lon="12.9218234"><ele>363.0</ele><time>2026-04-22T08:01:31.681Z</time></trkpt><trkpt lat="46.4144332" lon="12.9219765"><ele>363.0</ele><time>2026-04-22T08:01:32.68Z</time></trkpt><trkpt lat="46.4143857" lon="12.9221275"><ele>363.0</ele><time>2026-04-22T08:01:33.68Z</time></trkpt><trkpt lat="46.4143425" lon="12.9222935"><ele>363.0</ele><time>2026-04-22T08:01:34.681Z</time></trkpt><trkpt lat="46.4143026" lon="12.922458"><ele>363.0</ele><time>2026-04-22T08:01:35.682Z</time></trkpt><trkpt lat="46.4142587" lon="12.9226174"><ele>363.5</ele><time>2026-04-22T08:01:36.68Z</time></trkpt><trkpt lat="46.4142163" lon="12.922778"><ele>364.0</ele><time>2026-04-22T08:01:37.68Z</time></trkpt><trkpt lat="46.4141754" lon="12.9229439"><ele>364.5</ele><time>2026-04-22T08:01:38.681Z</time></trkpt><trkpt lat="46.4141294" lon="12.9231137"><ele>365.0</ele><time>2026-04-22T08:01:39.68Z</time></trkpt><trkpt lat="46.4140819" lon="12.9232844"><ele>364.75</ele><time>2026-04-22T08:01:40.681Z</time></trkpt><trkpt lat="46.4140356" lon="12.9234494"><ele>364.5</ele><time>2026-04-22T08:01:41.68Z</time></trkpt><trkpt lat="46.4139899" lon="12.923613"><ele>364.25</ele><time>2026-04-22T08:01:42.68Z</time></trkpt><trkpt lat="46.4139456" lon="12.9237755"><ele>364.0</ele><time>2026-04-22T08:01:43.681Z</time></trkpt><trkpt lat="46.4139022" lon="12.9239316"><ele>364.0</ele><time>2026-04-22T08:01:44.68Z</time></trkpt><trkpt lat="46.4138583" lon="12.924084"><ele>364.0</ele><time>2026-04-22T08:01:45.68Z</time></trkpt><trkpt lat="46.41382" lon="12.9242231"><ele>364.0</ele><time>2026-04-22T08:01:46.68Z</time></trkpt><trkpt lat="46.4137867" lon="12.9243478"><ele>364.0</ele><time>2026-04-22T08:01:47.68Z</time></trkpt><trkpt lat="46.4137577" lon="12.924464"><ele>364.0</ele><time>2026-04-22T08:01:48.681Z</time></trkpt><trkpt lat="46.4137258" lon="12.9245697"><ele>363.66666666666663</ele><time>2026-04-22T08:01:49.681Z</time></trkpt><trkpt lat="46.4137089" lon="12.9246662"><ele>363.3333333333333</ele><time>2026-04-22T08:01:50.681Z</time></trkpt><trkpt lat="46.4137228" lon="12.9247561"><ele>363.0</ele><time>2026-04-22T08:01:51.68Z</time></trkpt><trkpt lat="46.4137632" lon="12.9248315"><ele>362.6666666666667</ele><time>2026-04-22T08:01:52.681Z</time></trkpt><trkpt lat="46.4138299" lon="12.924912"><ele>362.33333333333337</ele><time>2026-04-22T08:01:53.68Z</time></trkpt><trkpt lat="46.4139099" lon="12.9249952"><ele>362.0</ele><time>2026-04-22T08:01:54.68Z</time></trkpt><trkpt lat="46.4139802" lon="12.9250812"><ele>362.0</ele><time>2026-04-22T08:01:55.68Z</time></trkpt><trkpt lat="46.4140398" lon="12.9251572"><ele>362.0</ele><time>2026-04-22T08:01:56.681Z</time></trkpt><trkpt lat="46.4140953" lon="12.925223"><ele>362.0</ele><time>2026-04-22T08:01:57.68Z</time></trkpt><trkpt lat="46.4141468" lon="12.925282"><ele>362.0</ele><time>2026-04-22T08:01:58.68Z</time></trkpt><trkpt lat="46.4142506" lon="12.9252757"><ele>362.0</ele><time>2026-04-22T08:02:00.68Z</time></trkpt><trkpt lat="46.414319" lon="12.9251296"><ele>362.0</ele><time>2026-04-22T08:02:02.68Z</time></trkpt><trkpt lat="46.4143533" lon="12.9250295"><ele>362.0</ele><time>2026-04-22T08:02:03.68Z</time></trkpt><trkpt lat="46.4143854" lon="12.9249255"><ele>362.0</ele><time>2026-04-22T08:02:04.681Z</time></trkpt><trkpt lat="46.414416" lon="12.9248259"><ele>362.0</ele><time>2026-04-22T08:02:05.68Z</time></trkpt><trkpt lat="46.4144423" lon="12.9247278"><ele>362.0</ele><time>2026-04-22T08:02:06.68Z</time></trkpt><trkpt lat="46.4144706" lon="12.9246386"><ele>362.0</ele><time>2026-04-22T08:02:07.681Z</time></trkpt><trkpt lat="46.4145082" lon="12.9245584"><ele>362.0</ele><time>2026-04-22T08:02:08.68Z</time></trkpt><trkpt lat="46.4145625" lon="12.9244921"><ele>362.0</ele><time>2026-04-22T08:02:09.68Z</time></trkpt><trkpt lat="46.4146266" lon="12.9244402"><ele>361.85714285714283</ele><time>2026-04-22T08:02:10.68Z</time></trkpt><trkpt lat="46.4147019" lon="12.9243918"><ele>361.71428571428567</ele><time>2026-04-22T08:02:11.68Z</time></trkpt><trkpt lat="46.4147721" lon="12.9243506"><ele>361.57142857142856</ele><time>2026-04-22T08:02:12.68Z</time></trkpt><trkpt lat="46.4148426" lon="12.9243134"><ele>361.42857142857144</ele><time>2026-04-22T08:02:13.68Z</time></trkpt><trkpt lat="46.4149098" lon="12.9242733"><ele>361.2857142857143</ele><time>2026-04-22T08:02:14.681Z</time></trkpt><trkpt lat="46.4149751" lon="12.9242394"><ele>361.14285714285717</ele><time>2026-04-22T08:02:15.68Z</time></trkpt><trkpt lat="46.4150406" lon="12.9242211"><ele>361.0</ele><time>2026-04-22T08:02:16.68Z</time></trkpt><trkpt lat="46.415158" lon="12.9241879"><ele>361.3333333333333</ele><time>2026-04-22T08:02:18.68Z</time></trkpt><trkpt lat="46.4152501" lon="12.9241334"><ele>361.66666666666663</ele><time>2026-04-22T08:02:20.681Z</time></trkpt><trkpt lat="46.4153093" lon="12.9240681"><ele>362.0</ele><time>2026-04-22T08:02:22.68Z</time></trkpt><trkpt lat="46.4153645" lon="12.9240168"><ele>362.3333333333333</ele><time>2026-04-22T08:02:24.68Z</time></trkpt><trkpt lat="46.4154575" lon="12.9240372"><ele>362.6666666666667</ele><time>2026-04-22T08:02:27.681Z</time></trkpt><trkpt lat="46.4155304" lon="12.9241172"><ele>363.0</ele><time>2026-04-22T08:02:29.68Z</time></trkpt><trkpt lat="46.4156099" lon="12.9241699"><ele>363.0</ele><time>2026-04-22T08:02:31.68Z</time></trkpt><trkpt lat="46.4156775" lon="12.924157"><ele>363.0</ele><time>2026-04-22T08:02:33.68Z</time></trkpt><trkpt lat="46.4157243" lon="12.9242322"><ele>363.0</ele><time>2026-04-22T08:06:40.681Z</time></trkpt><trkpt lat="46.4157843" lon="12.9242889"><ele>363.0</ele><time>2026-04-22T08:06:44.68Z</time></trkpt><trkpt lat="46.4158262" lon="12.9243632"><ele>363.0</ele><time>2026-04-22T08:06:47.68Z</time></trkpt><trkpt lat="46.4159066" lon="12.9243802"><ele>363.0</ele><time>2026-04-22T08:07:19.68Z</time></trkpt><trkpt lat="46.415963" lon="12.9244976"><ele>363.0</ele><time>2026-04-22T08:07:22.68Z</time></trkpt><trkpt lat="46.4159467" lon="12.9246024"><ele>363.0</ele><time>2026-04-22T08:07:23.68Z</time></trkpt><trkpt lat="46.4159282" lon="12.9247338"><ele>363.0</ele><time>2026-04-22T08:07:24.68Z</time></trkpt><trkpt lat="46.4159149" lon="12.9248966"><ele>363.0</ele><time>2026-04-22T08:07:25.681Z</time></trkpt><trkpt lat="46.4158968" lon="12.9250777"><ele>363.0</ele><time>2026-04-22T08:07:26.681Z</time></trkpt><trkpt lat="46.4158724" lon="12.925261"><ele>362.75</ele><time>2026-04-22T08:07:27.68Z</time></trkpt><trkpt lat="46.4158351" lon="12.9254463"><ele>362.5</ele><time>2026-04-22T08:07:28.68Z</time></trkpt><trkpt lat="46.4157995" lon="12.925634"><ele>362.25</ele><time>2026-04-22T08:07:29.68Z</time></trkpt><trkpt lat="46.4157699" lon="12.9258319"><ele>362.0</ele><time>2026-04-22T08:07:30.68Z</time></trkpt><trkpt lat="46.4157437" lon="12.9260338"><ele>362.0</ele><time>2026-04-22T08:07:31.68Z</time></trkpt><trkpt lat="46.4157295" lon="12.926245"><ele>362.0</ele><time>2026-04-22T08:07:32.68Z</time></trkpt><trkpt lat="46.4157121" lon="12.9264838"><ele>362.0</ele><time>2026-04-22T08:07:33.68Z</time></trkpt><trkpt lat="46.4156981" lon="12.9267081"><ele>362.0</ele><time>2026-04-22T08:07:34.68Z</time></trkpt><trkpt lat="46.4156847" lon="12.9269317"><ele>362.0</ele><time>2026-04-22T08:07:35.68Z</time></trkpt><trkpt lat="46.4156697" lon="12.927148"><ele>362.0</ele><time>2026-04-22T08:07:36.68Z</time></trkpt><trkpt lat="46.4156561" lon="12.9273655"><ele>364.6666666666667</ele><time>2026-04-22T08:07:37.681Z</time></trkpt><trkpt lat="46.4156449" lon="12.9275832"><ele>367.3333333333333</ele><time>2026-04-22T08:07:38.681Z</time></trkpt><trkpt lat="46.4156325" lon="12.9278017"><ele>370.0</ele><time>2026-04-22T08:07:39.68Z</time></trkpt><trkpt lat="46.415618" lon="12.9280195"><ele>370.0</ele><time>2026-04-22T08:07:40.681Z</time></trkpt><trkpt lat="46.4156016" lon="12.9282376"><ele>370.0</ele><time>2026-04-22T08:07:41.68Z</time></trkpt><trkpt lat="46.4155782" lon="12.928455"><ele>370.0</ele><time>2026-04-22T08:07:42.68Z</time></trkpt><trkpt lat="46.4155473" lon="12.9286706"><ele>368.3333333333333</ele><time>2026-04-22T08:07:43.68Z</time></trkpt><trkpt lat="46.4155125" lon="12.9288872"><ele>366.6666666666667</ele><time>2026-04-22T08:07:44.68Z</time></trkpt><trkpt lat="46.4154727" lon="12.9291023"><ele>365.0</ele><time>2026-04-22T08:07:45.681Z</time></trkpt><trkpt lat="46.415436" lon="12.9293158"><ele>365.0</ele><time>2026-04-22T08:07:46.681Z</time></trkpt><trkpt lat="46.4153978" lon="12.9295284"><ele>365.0</ele><time>2026-04-22T08:07:47.68Z</time></trkpt><trkpt lat="46.4153559" lon="12.929736"><ele>365.0</ele><time>2026-04-22T08:07:48.681Z</time></trkpt><trkpt lat="46.4153077" lon="12.9299484"><ele>365.6666666666667</ele><time>2026-04-22T08:07:49.68Z</time></trkpt><trkpt lat="46.4152357" lon="12.9301712"><ele>366.3333333333333</ele><time>2026-04-22T08:07:50.68Z</time></trkpt><trkpt lat="46.4151357" lon="12.9304057"><ele>367.0</ele><time>2026-04-22T08:07:51.68Z</time></trkpt><trkpt lat="46.4150296" lon="12.9306258"><ele>367.0</ele><time>2026-04-22T08:07:52.682Z</time></trkpt><trkpt lat="46.4149185" lon="12.9308484"><ele>367.0</ele><time>2026-04-22T08:07:53.68Z</time></trkpt><trkpt lat="46.4148104" lon="12.9310669"><ele>367.0</ele><time>2026-04-22T08:07:54.681Z</time></trkpt><trkpt lat="46.414699" lon="12.9312841"><ele>364.3333333333333</ele><time>2026-04-22T08:07:55.681Z</time></trkpt><trkpt lat="46.4145922" lon="12.9314988"><ele>361.6666666666667</ele><time>2026-04-22T08:07:56.68Z</time></trkpt><trkpt lat="46.414486" lon="12.9317074"><ele>359.0</ele><time>2026-04-22T08:07:57.681Z</time></trkpt><trkpt lat="46.4143797" lon="12.9319087"><ele>359.0</ele><time>2026-04-22T08:07:58.68Z</time></trkpt><trkpt lat="46.4142679" lon="12.9321001"><ele>359.0</ele><time>2026-04-22T08:07:59.681Z</time></trkpt><trkpt lat="46.4140398" lon="12.9324702"><ele>358.6666666666667</ele><time>2026-04-22T08:08:01.68Z</time></trkpt><trkpt lat="46.4139222" lon="12.9326482"><ele>358.3333333333333</ele><time>2026-04-22T08:08:02.68Z</time></trkpt><trkpt lat="46.4138075" lon="12.9328233"><ele>358.0</ele><time>2026-04-22T08:08:03.68Z</time></trkpt><trkpt lat="46.4136947" lon="12.9330026"><ele>358.0</ele><time>2026-04-22T08:08:04.68Z</time></trkpt><trkpt lat="46.4135914" lon="12.9331875"><ele>358.0</ele><time>2026-04-22T08:08:05.681Z</time></trkpt><trkpt lat="46.4134999" lon="12.9333862"><ele>358.0</ele><time>2026-04-22T08:08:06.68Z</time></trkpt><trkpt lat="46.4134212" lon="12.9335925"><ele>358.0</ele><time>2026-04-22T08:08:07.68Z</time></trkpt><trkpt lat="46.4133524" lon="12.9338096"><ele>358.0</ele><time>2026-04-22T08:08:08.68Z</time></trkpt><trkpt lat="46.4132852" lon="12.9340314"><ele>358.0</ele><time>2026-04-22T08:08:09.68Z</time></trkpt><trkpt lat="46.4132202" lon="12.9342499"><ele>357.3333333333333</ele><time>2026-04-22T08:08:10.68Z</time></trkpt><trkpt lat="46.4131568" lon="12.9344678"><ele>356.6666666666667</ele><time>2026-04-22T08:08:11.681Z</time></trkpt><trkpt lat="46.4130929" lon="12.9346842"><ele>356.0</ele><time>2026-04-22T08:08:12.68Z</time></trkpt><trkpt lat="46.4130309" lon="12.934898"><ele>355.6666666666667</ele><time>2026-04-22T08:08:13.68Z</time></trkpt><trkpt lat="46.4129698" lon="12.93511"><ele>355.3333333333333</ele><time>2026-04-22T08:08:14.681Z</time></trkpt><trkpt lat="46.4129097" lon="12.9353199"><ele>355.0</ele><time>2026-04-22T08:08:15.68Z</time></trkpt><trkpt lat="46.4128497" lon="12.9355254"><ele>355.0</ele><time>2026-04-22T08:08:16.68Z</time></trkpt><trkpt lat="46.412791" lon="12.935729"><ele>355.0</ele><time>2026-04-22T08:08:17.68Z</time></trkpt><trkpt lat="46.4127326" lon="12.9359268"><ele>355.0</ele><time>2026-04-22T08:08:18.681Z</time></trkpt><trkpt lat="46.412678" lon="12.9361171"><ele>355.0</ele><time>2026-04-22T08:08:19.68Z</time></trkpt><trkpt lat="46.4126228" lon="12.9363004"><ele>355.25</ele><time>2026-04-22T08:08:20.68Z</time></trkpt><trkpt lat="46.4125685" lon="12.936474"><ele>355.5</ele><time>2026-04-22T08:08:21.68Z</time></trkpt><trkpt lat="46.412513" lon="12.9366363"><ele>355.75</ele><time>2026-04-22T08:08:22.68Z</time></trkpt><trkpt lat="46.4124562" lon="12.9367828"><ele>356.0</ele><time>2026-04-22T08:08:23.68Z</time></trkpt><trkpt lat="46.412396" lon="12.936915"><ele>356.6</ele><time>2026-04-22T08:08:24.679Z</time></trkpt><trkpt lat="46.4123338" lon="12.9370335"><ele>357.20000000000005</ele><time>2026-04-22T08:08:25.679Z</time></trkpt><trkpt lat="46.4122601" lon="12.9371308"><ele>357.79999999999995</ele><time>2026-04-22T08:08:26.679Z</time></trkpt><trkpt lat="46.4121782" lon="12.9372068"><ele>358.4</ele><time>2026-04-22T08:08:27.68Z</time></trkpt><trkpt lat="46.4120917" lon="12.9372552"><ele>359.0</ele><time>2026-04-22T08:08:28.679Z</time></trkpt><trkpt lat="46.4120166" lon="12.9373275"><ele>357.25</ele><time>2026-04-22T08:08:29.68Z</time></trkpt><trkpt lat="46.4119711" lon="12.9374478"><ele>355.5</ele><time>2026-04-22T08:08:30.679Z</time></trkpt><trkpt lat="46.4119618" lon="12.9376047"><ele>353.75</ele><time>2026-04-22T08:08:31.679Z</time></trkpt><trkpt lat="46.4119818" lon="12.9378105"><ele>352.0</ele><time>2026-04-22T08:08:32.679Z</time></trkpt><trkpt lat="46.4120104" lon="12.9380288"><ele>352.0</ele><time>2026-04-22T08:08:33.679Z</time></trkpt><trkpt lat="46.4120304" lon="12.9382497"><ele>352.0</ele><time>2026-04-22T08:08:34.679Z</time></trkpt><trkpt lat="46.4120464" lon="12.938491"><ele>352.0</ele><time>2026-04-22T08:08:35.679Z</time></trkpt><trkpt lat="46.4120614" lon="12.9387226"><ele>351.0</ele><time>2026-04-22T08:08:36.679Z</time></trkpt><trkpt lat="46.41208" lon="12.9389521"><ele>350.0</ele><time>2026-04-22T08:08:37.68Z</time></trkpt><trkpt lat="46.4120976" lon="12.9391775"><ele>349.0</ele><time>2026-04-22T08:08:38.68Z</time></trkpt><trkpt lat="46.4121141" lon="12.9393997"><ele>348.3333333333333</ele><time>2026-04-22T08:08:39.68Z</time></trkpt><trkpt lat="46.4121294" lon="12.9396196"><ele>347.6666666666667</ele><time>2026-04-22T08:08:40.68Z</time></trkpt><trkpt lat="46.4121428" lon="12.9398373"><ele>347.0</ele><time>2026-04-22T08:08:41.679Z</time></trkpt><trkpt lat="46.4121561" lon="12.9400546"><ele>349.5</ele><time>2026-04-22T08:08:42.679Z</time></trkpt><trkpt lat="46.4121698" lon="12.9402727"><ele>352.0</ele><time>2026-04-22T08:08:43.679Z</time></trkpt><trkpt lat="46.4121828" lon="12.9404892"><ele>354.5</ele><time>2026-04-22T08:08:44.679Z</time></trkpt><trkpt lat="46.4121975" lon="12.9407032"><ele>357.0</ele><time>2026-04-22T08:08:45.68Z</time></trkpt><trkpt lat="46.4122126" lon="12.9409128"><ele>357.25</ele><time>2026-04-22T08:08:46.679Z</time></trkpt><trkpt lat="46.4122277" lon="12.9411186"><ele>357.5</ele><time>2026-04-22T08:08:47.68Z</time></trkpt><trkpt lat="46.4122421" lon="12.9413229"><ele>357.75</ele><time>2026-04-22T08:08:48.68Z</time></trkpt><trkpt lat="46.4122556" lon="12.9415261"><ele>358.0</ele><time>2026-04-22T08:08:49.679Z</time></trkpt><trkpt lat="46.4122705" lon="12.9417283"><ele>358.25</ele><time>2026-04-22T08:08:50.679Z</time></trkpt><trkpt lat="46.4122872" lon="12.9419342"><ele>358.5</ele><time>2026-04-22T08:08:51.679Z</time></trkpt><trkpt lat="46.412301" lon="12.94215"><ele>358.75</ele><time>2026-04-22T08:08:52.679Z</time></trkpt><trkpt lat="46.4123114" lon="12.9423706"><ele>359.0</ele><time>2026-04-22T08:08:53.679Z</time></trkpt><trkpt lat="46.4123121" lon="12.9425941"><ele>361.33333333333337</ele><time>2026-04-22T08:08:54.68Z</time></trkpt><trkpt lat="46.4122997" lon="12.9428209"><ele>363.6666666666667</ele><time>2026-04-22T08:08:55.679Z</time></trkpt><trkpt lat="46.4122745" lon="12.9430462"><ele>366.0</ele><time>2026-04-22T08:08:56.681Z</time></trkpt><trkpt lat="46.4122383" lon="12.9432705"><ele>367.6666666666667</ele><time>2026-04-22T08:08:57.679Z</time></trkpt><trkpt lat="46.4121962" lon="12.9434913"><ele>369.33333333333337</ele><time>2026-04-22T08:08:58.679Z</time></trkpt><trkpt lat="46.4121523" lon="12.9437103"><ele>371.0</ele><time>2026-04-22T08:08:59.68Z</time></trkpt><trkpt lat="46.4121041" lon="12.9439249"><ele>363.33333333333337</ele><time>2026-04-22T08:09:00.679Z</time></trkpt><trkpt lat="46.4120515" lon="12.9441356"><ele>355.6666666666667</ele><time>2026-04-22T08:09:01.68Z</time></trkpt><trkpt lat="46.411992" lon="12.9443508"><ele>348.0</ele><time>2026-04-22T08:09:02.679Z</time></trkpt><trkpt lat="46.4119306" lon="12.9445549"><ele>348.0</ele><time>2026-04-22T08:09:03.68Z</time></trkpt><trkpt lat="46.4118695" lon="12.9447515"><ele>348.0</ele><time>2026-04-22T08:09:04.679Z</time></trkpt><trkpt lat="46.4118074" lon="12.9449429"><ele>348.0</ele><time>2026-04-22T08:09:05.679Z</time></trkpt><trkpt lat="46.4117331" lon="12.9451195"><ele>348.0</ele><time>2026-04-22T08:09:06.679Z</time></trkpt><trkpt lat="46.4116468" lon="12.94528"><ele>350.0</ele><time>2026-04-22T08:09:07.679Z</time></trkpt><trkpt lat="46.41156" lon="12.9454389"><ele>352.0</ele><time>2026-04-22T08:09:08.68Z</time></trkpt><trkpt lat="46.4114812" lon="12.94561"><ele>354.0</ele><time>2026-04-22T08:09:09.681Z</time></trkpt><trkpt lat="46.4114131" lon="12.945792"><ele>356.0</ele><time>2026-04-22T08:09:10.679Z</time></trkpt><trkpt lat="46.4113596" lon="12.9459891"><ele>352.33333333333337</ele><time>2026-04-22T08:09:11.679Z</time></trkpt><trkpt lat="46.4113211" lon="12.9462025"><ele>348.6666666666667</ele><time>2026-04-22T08:09:12.68Z</time></trkpt><trkpt lat="46.4112853" lon="12.9464159"><ele>345.0</ele><time>2026-04-22T08:09:13.679Z</time></trkpt><trkpt lat="46.4112459" lon="12.9466287"><ele>346.0</ele><time>2026-04-22T08:09:14.68Z</time></trkpt><trkpt lat="46.4112042" lon="12.9468382"><ele>347.0</ele><time>2026-04-22T08:09:15.679Z</time></trkpt><trkpt lat="46.4111529" lon="12.9470422"><ele>348.0</ele><time>2026-04-22T08:09:16.679Z</time></trkpt><trkpt lat="46.4110918" lon="12.947231"><ele>349.0</ele><time>2026-04-22T08:09:17.679Z</time></trkpt><trkpt lat="46.4110153" lon="12.9474101"><ele>351.5</ele><time>2026-04-22T08:09:18.68Z</time></trkpt><trkpt lat="46.4109307" lon="12.9475797"><ele>354.0</ele><time>2026-04-22T08:09:19.679Z</time></trkpt><trkpt lat="46.4108469" lon="12.9477456"><ele>356.5</ele><time>2026-04-22T08:09:20.68Z</time></trkpt><trkpt lat="46.4107686" lon="12.9479032"><ele>359.0</ele><time>2026-04-22T08:09:21.679Z</time></trkpt><trkpt lat="46.4106952" lon="12.9480427"><ele>359.0</ele><time>2026-04-22T08:09:22.679Z</time></trkpt><trkpt lat="46.4106313" lon="12.9481685"><ele>359.0</ele><time>2026-04-22T08:09:23.679Z</time></trkpt><trkpt lat="46.4105772" lon="12.9482746"><ele>359.0</ele><time>2026-04-22T08:09:24.679Z</time></trkpt><trkpt lat="46.410527" lon="12.9483514"><ele>359.0</ele><time>2026-04-22T08:09:25.68Z</time></trkpt><trkpt lat="46.4104817" lon="12.9484267"><ele>359.0</ele><time>2026-04-22T08:09:26.679Z</time></trkpt><trkpt lat="46.4104412" lon="12.9485112"><ele>359.0</ele><time>2026-04-22T08:09:27.679Z</time></trkpt><trkpt lat="46.4103991" lon="12.9486112"><ele>355.4</ele><time>2026-04-22T08:09:29.68Z</time></trkpt><trkpt lat="46.4103853" lon="12.9487255"><ele>351.79999999999995</ele><time>2026-04-22T08:10:00.679Z</time></trkpt><trkpt lat="46.4103829" lon="12.9488646"><ele>348.20000000000005</ele><time>2026-04-22T08:10:02.679Z</time></trkpt><trkpt lat="46.4103801" lon="12.9490001"><ele>344.6</ele><time>2026-04-22T08:10:03.68Z</time></trkpt><trkpt lat="46.4103799" lon="12.9491705"><ele>341.0</ele><time>2026-04-22T08:10:04.679Z</time></trkpt><trkpt lat="46.4103806" lon="12.9493923"><ele>340.6666666666667</ele><time>2026-04-22T08:10:05.679Z</time></trkpt><trkpt lat="46.4103752" lon="12.9496093"><ele>340.3333333333333</ele><time>2026-04-22T08:10:06.681Z</time></trkpt><trkpt lat="46.4103726" lon="12.9498288"><ele>340.0</ele><time>2026-04-22T08:10:07.679Z</time></trkpt><trkpt lat="46.4103727" lon="12.950067"><ele>340.0</ele><time>2026-04-22T08:10:08.679Z</time></trkpt><trkpt lat="46.4103721" lon="12.9502951"><ele>340.0</ele><time>2026-04-22T08:10:09.681Z</time></trkpt><trkpt lat="46.4103699" lon="12.9505371"><ele>340.0</ele><time>2026-04-22T08:10:10.68Z</time></trkpt><trkpt lat="46.4103667" lon="12.9507734"><ele>341.0</ele><time>2026-04-22T08:10:11.679Z</time></trkpt><trkpt lat="46.4103676" lon="12.9510051"><ele>342.0</ele><time>2026-04-22T08:10:12.68Z</time></trkpt><trkpt lat="46.4103782" lon="12.9512374"><ele>343.0</ele><time>2026-04-22T08:10:13.679Z</time></trkpt><trkpt lat="46.4104033" lon="12.9514708"><ele>343.0</ele><time>2026-04-22T08:10:14.679Z</time></trkpt><trkpt lat="46.4104506" lon="12.9517054"><ele>343.0</ele><time>2026-04-22T08:10:15.68Z</time></trkpt><trkpt lat="46.4105006" lon="12.9519262"><ele>343.0</ele><time>2026-04-22T08:10:16.679Z</time></trkpt><trkpt lat="46.4105497" lon="12.9521424"><ele>344.3333333333333</ele><time>2026-04-22T08:10:17.68Z</time></trkpt><trkpt lat="46.4105968" lon="12.9523557"><ele>345.6666666666667</ele><time>2026-04-22T08:10:18.679Z</time></trkpt><trkpt lat="46.410644" lon="12.9525625"><ele>347.0</ele><time>2026-04-22T08:10:19.679Z</time></trkpt><trkpt lat="46.4106903" lon="12.9527657"><ele>347.0</ele><time>2026-04-22T08:10:20.68Z</time></trkpt><trkpt lat="46.4107377" lon="12.9529694"><ele>347.0</ele><time>2026-04-22T08:10:21.68Z</time></trkpt><trkpt lat="46.4107783" lon="12.9531795"><ele>347.0</ele><time>2026-04-22T08:10:22.679Z</time></trkpt><trkpt lat="46.4108099" lon="12.9533988"><ele>346.6666666666667</ele><time>2026-04-22T08:10:23.68Z</time></trkpt><trkpt lat="46.410834" lon="12.9536236"><ele>346.3333333333333</ele><time>2026-04-22T08:10:24.679Z</time></trkpt><trkpt lat="46.4108465" lon="12.9538507"><ele>346.0</ele><time>2026-04-22T08:10:25.679Z</time></trkpt><trkpt lat="46.4108505" lon="12.9540767"><ele>346.0</ele><time>2026-04-22T08:10:26.679Z</time></trkpt><trkpt lat="46.4108509" lon="12.9543051"><ele>346.0</ele><time>2026-04-22T08:10:27.68Z</time></trkpt><trkpt lat="46.4108534" lon="12.9545325"><ele>346.0</ele><time>2026-04-22T08:10:28.679Z</time></trkpt><trkpt lat="46.4108551" lon="12.9547601"><ele>346.0</ele><time>2026-04-22T08:10:29.679Z</time></trkpt><trkpt lat="46.4108572" lon="12.9549858"><ele>346.0</ele><time>2026-04-22T08:10:30.679Z</time></trkpt><trkpt lat="46.4108596" lon="12.9552111"><ele>346.0</ele><time>2026-04-22T08:10:31.681Z</time></trkpt><trkpt lat="46.4108592" lon="12.9554372"><ele>346.0</ele><time>2026-04-22T08:10:32.679Z</time></trkpt><trkpt lat="46.4108582" lon="12.9556652"><ele>346.0</ele><time>2026-04-22T08:10:33.679Z</time></trkpt><trkpt lat="46.4108551" lon="12.9558968"><ele>346.0</ele><time>2026-04-22T08:10:34.679Z</time></trkpt><trkpt lat="46.4108565" lon="12.9561272"><ele>343.66666666666663</ele><time>2026-04-22T08:10:35.679Z</time></trkpt><trkpt lat="46.4108603" lon="12.9563577"><ele>341.3333333333333</ele><time>2026-04-22T08:10:36.679Z</time></trkpt><trkpt lat="46.4108662" lon="12.9565898"><ele>339.0</ele><time>2026-04-22T08:10:37.679Z</time></trkpt><trkpt lat="46.4108725" lon="12.9568175"><ele>338.6666666666667</ele><time>2026-04-22T08:10:38.68Z</time></trkpt><trkpt lat="46.4108792" lon="12.9570426"><ele>338.33333333333337</ele><time>2026-04-22T08:10:39.679Z</time></trkpt><trkpt lat="46.4108866" lon="12.9572616"><ele>338.0</ele><time>2026-04-22T08:10:40.679Z</time></trkpt><trkpt lat="46.4108953" lon="12.9574762"><ele>337.6666666666667</ele><time>2026-04-22T08:10:41.68Z</time></trkpt><trkpt lat="46.4109034" lon="12.9576935"><ele>337.3333333333333</ele><time>2026-04-22T08:10:42.679Z</time></trkpt><trkpt lat="46.4109105" lon="12.9579155"><ele>337.0</ele><time>2026-04-22T08:10:43.679Z</time></trkpt><trkpt lat="46.4109209" lon="12.9581374"><ele>337.0</ele><time>2026-04-22T08:10:44.679Z</time></trkpt><trkpt lat="46.4109326" lon="12.9583605"><ele>337.0</ele><time>2026-04-22T08:10:45.68Z</time></trkpt><trkpt lat="46.4109389" lon="12.9585839"><ele>337.0</ele><time>2026-04-22T08:10:46.68Z</time></trkpt><trkpt lat="46.4109386" lon="12.9588147"><ele>336.66666666666663</ele><time>2026-04-22T08:10:47.679Z</time></trkpt><trkpt lat="46.410927" lon="12.9590526"><ele>336.3333333333333</ele><time>2026-04-22T08:10:48.679Z</time></trkpt><trkpt lat="46.410906" lon="12.9592777"><ele>336.0</ele><time>2026-04-22T08:10:49.68Z</time></trkpt><trkpt lat="46.4108756" lon="12.959497"><ele>335.6666666666667</ele><time>2026-04-22T08:10:50.679Z</time></trkpt><trkpt lat="46.4108305" lon="12.9597071"><ele>335.33333333333337</ele><time>2026-04-22T08:10:51.68Z</time></trkpt><trkpt lat="46.4107751" lon="12.9599172"><ele>335.0</ele><time>2026-04-22T08:10:52.679Z</time></trkpt><trkpt lat="46.4107152" lon="12.9601258"><ele>336.33333333333337</ele><time>2026-04-22T08:10:53.679Z</time></trkpt><trkpt lat="46.4106515" lon="12.960335"><ele>337.6666666666667</ele><time>2026-04-22T08:10:54.679Z</time></trkpt><trkpt lat="46.410591" lon="12.9605432"><ele>339.0</ele><time>2026-04-22T08:10:55.679Z</time></trkpt><trkpt lat="46.4105349" lon="12.9607532"><ele>338.6666666666667</ele><time>2026-04-22T08:10:56.68Z</time></trkpt><trkpt lat="46.4104792" lon="12.9609608"><ele>338.33333333333337</ele><time>2026-04-22T08:10:57.679Z</time></trkpt><trkpt lat="46.4104292" lon="12.9611678"><ele>338.0</ele><time>2026-04-22T08:10:58.679Z</time></trkpt><trkpt lat="46.41039" lon="12.9613831"><ele>338.0</ele><time>2026-04-22T08:10:59.68Z</time></trkpt><trkpt lat="46.4103602" lon="12.9616061"><ele>338.0</ele><time>2026-04-22T08:11:00.68Z</time></trkpt><trkpt lat="46.4103434" lon="12.961836"><ele>338.0</ele><time>2026-04-22T08:11:01.679Z</time></trkpt><trkpt lat="46.4103368" lon="12.9620767"><ele>338.0</ele><time>2026-04-22T08:11:02.681Z</time></trkpt><trkpt lat="46.4103388" lon="12.9623336"><ele>338.0</ele><time>2026-04-22T08:11:03.679Z</time></trkpt><trkpt lat="46.4103481" lon="12.9626032"><ele>338.0</ele><time>2026-04-22T08:11:04.679Z</time></trkpt><trkpt lat="46.4103646" lon="12.962882"><ele>337.6666666666667</ele><time>2026-04-22T08:11:05.679Z</time></trkpt><trkpt lat="46.4103808" lon="12.9631674"><ele>337.3333333333333</ele><time>2026-04-22T08:11:06.679Z</time></trkpt><trkpt lat="46.4103916" lon="12.9634403"><ele>337.0</ele><time>2026-04-22T08:11:07.679Z</time></trkpt><trkpt lat="46.410396" lon="12.9637104"><ele>337.0</ele><time>2026-04-22T08:11:08.679Z</time></trkpt><trkpt lat="46.4103932" lon="12.9639803"><ele>337.0</ele><time>2026-04-22T08:11:09.68Z</time></trkpt><trkpt lat="46.4103865" lon="12.9642437"><ele>337.0</ele><time>2026-04-22T08:11:10.679Z</time></trkpt><trkpt lat="46.410376" lon="12.9645049"><ele>337.0</ele><time>2026-04-22T08:11:11.679Z</time></trkpt><trkpt lat="46.4103587" lon="12.9647742"><ele>337.0</ele><time>2026-04-22T08:11:12.679Z</time></trkpt><trkpt lat="46.4103359" lon="12.9650481"><ele>337.0</ele><time>2026-04-22T08:11:13.679Z</time></trkpt><trkpt lat="46.4103067" lon="12.9653214"><ele>336.3333333333333</ele><time>2026-04-22T08:11:14.679Z</time></trkpt><trkpt lat="46.4102781" lon="12.965592"><ele>335.6666666666667</ele><time>2026-04-22T08:11:15.679Z</time></trkpt><trkpt lat="46.4102499" lon="12.9658609"><ele>335.0</ele><time>2026-04-22T08:11:16.679Z</time></trkpt><trkpt lat="46.4102178" lon="12.9661292"><ele>335.33333333333337</ele><time>2026-04-22T08:11:17.681Z</time></trkpt><trkpt lat="46.4101768" lon="12.966394"><ele>335.6666666666667</ele><time>2026-04-22T08:11:18.679Z</time></trkpt><trkpt lat="46.4101177" lon="12.9666601"><ele>336.0</ele><time>2026-04-22T08:11:19.68Z</time></trkpt><trkpt lat="46.4100552" lon="12.966917"><ele>336.0</ele><time>2026-04-22T08:11:20.679Z</time></trkpt><trkpt lat="46.4099876" lon="12.9671728"><ele>336.0</ele><time>2026-04-22T08:11:21.679Z</time></trkpt><trkpt lat="46.4099156" lon="12.9674257"><ele>336.0</ele><time>2026-04-22T08:11:22.68Z</time></trkpt><trkpt lat="46.4098402" lon="12.9676804"><ele>334.6666666666667</ele><time>2026-04-22T08:11:23.68Z</time></trkpt><trkpt lat="46.4097595" lon="12.967951"><ele>333.33333333333337</ele><time>2026-04-22T08:11:24.68Z</time></trkpt><trkpt lat="46.4096744" lon="12.9682592"><ele>332.0</ele><time>2026-04-22T08:11:25.679Z</time></trkpt><trkpt lat="46.4095764" lon="12.9685816"><ele>332.0</ele><time>2026-04-22T08:11:26.679Z</time></trkpt><trkpt lat="46.4094728" lon="12.9688978"><ele>332.0</ele><time>2026-04-22T08:11:27.679Z</time></trkpt><trkpt lat="46.4093701" lon="12.9692095"><ele>333.5</ele><time>2026-04-22T08:11:28.68Z</time></trkpt><trkpt lat="46.4092735" lon="12.9695254"><ele>335.0</ele><time>2026-04-22T08:11:29.679Z</time></trkpt><trkpt lat="46.409177" lon="12.9698393"><ele>339.0</ele><time>2026-04-22T08:11:30.679Z</time></trkpt><trkpt lat="46.409079" lon="12.9701494"><ele>343.0</ele><time>2026-04-22T08:11:31.679Z</time></trkpt><trkpt lat="46.408985" lon="12.970459"><ele>343.0</ele><time>2026-04-22T08:11:32.679Z</time></trkpt><trkpt lat="46.4088926" lon="12.9707621"><ele>343.0</ele><time>2026-04-22T08:11:33.679Z</time></trkpt><trkpt lat="46.4088015" lon="12.9710535"><ele>343.0</ele><time>2026-04-22T08:11:34.679Z</time></trkpt><trkpt lat="46.4087128" lon="12.9713425"><ele>339.3333333333333</ele><time>2026-04-22T08:11:35.679Z</time></trkpt><trkpt lat="46.4086248" lon="12.9716289"><ele>335.6666666666667</ele><time>2026-04-22T08:11:36.679Z</time></trkpt><trkpt lat="46.4085388" lon="12.9719184"><ele>332.0</ele><time>2026-04-22T08:11:37.68Z</time></trkpt><trkpt lat="46.4084524" lon="12.9722127"><ele>332.0</ele><time>2026-04-22T08:11:38.68Z</time></trkpt><trkpt lat="46.4083668" lon="12.9725103"><ele>332.0</ele><time>2026-04-22T08:11:39.679Z</time></trkpt><trkpt lat="46.4082828" lon="12.9728124"><ele>332.0</ele><time>2026-04-22T08:11:40.679Z</time></trkpt><trkpt lat="46.4081993" lon="12.9731164"><ele>337.5</ele><time>2026-04-22T08:11:41.679Z</time></trkpt><trkpt lat="46.408117" lon="12.973422"><ele>343.0</ele><time>2026-04-22T08:11:42.679Z</time></trkpt><trkpt lat="46.4080401" lon="12.9737285"><ele>335.0</ele><time>2026-04-22T08:11:43.679Z</time></trkpt><trkpt lat="46.4079625" lon="12.9740409"><ele>327.0</ele><time>2026-04-22T08:11:44.679Z</time></trkpt><trkpt lat="46.4078894" lon="12.9743616"><ele>327.0</ele><time>2026-04-22T08:11:45.68Z</time></trkpt><trkpt lat="46.4078215" lon="12.9746718"><ele>327.0</ele><time>2026-04-22T08:11:46.679Z</time></trkpt><trkpt lat="46.4077549" lon="12.9749792"><ele>327.0</ele><time>2026-04-22T08:11:47.679Z</time></trkpt><trkpt lat="46.4076904" lon="12.9752804"><ele>327.0</ele><time>2026-04-22T08:11:48.679Z</time></trkpt><trkpt lat="46.4076278" lon="12.9755817"><ele>327.0</ele><time>2026-04-22T08:11:49.679Z</time></trkpt><trkpt lat="46.4075702" lon="12.9758886"><ele>327.0</ele><time>2026-04-22T08:11:50.68Z</time></trkpt><trkpt lat="46.4075146" lon="12.9761976"><ele>328.0</ele><time>2026-04-22T08:11:51.68Z</time></trkpt><trkpt lat="46.4074619" lon="12.9765022"><ele>329.0</ele><time>2026-04-22T08:11:52.679Z</time></trkpt><trkpt lat="46.4074144" lon="12.9768123"><ele>330.0</ele><time>2026-04-22T08:11:53.679Z</time></trkpt><trkpt lat="46.4073684" lon="12.9771216"><ele>330.3333333333333</ele><time>2026-04-22T08:11:54.679Z</time></trkpt><trkpt lat="46.4073259" lon="12.9774315"><ele>330.66666666666663</ele><time>2026-04-22T08:11:55.679Z</time></trkpt><trkpt lat="46.4072865" lon="12.9777576"><ele>331.0</ele><time>2026-04-22T08:11:56.679Z</time></trkpt><trkpt lat="46.4072548" lon="12.9780966"><ele>333.0</ele><time>2026-04-22T08:11:57.68Z</time></trkpt><trkpt lat="46.4072231" lon="12.9784599"><ele>335.0</ele><time>2026-04-22T08:11:58.679Z</time></trkpt><trkpt lat="46.4071872" lon="12.9788302"><ele>331.5</ele><time>2026-04-22T08:11:59.679Z</time></trkpt><trkpt lat="46.4071445" lon="12.9791973"><ele>328.0</ele><time>2026-04-22T08:12:00.679Z</time></trkpt><trkpt lat="46.4071008" lon="12.9795557"><ele>328.0</ele><time>2026-04-22T08:12:01.68Z</time></trkpt><trkpt lat="46.407057" lon="12.9799159"><ele>328.0</ele><time>2026-04-22T08:12:02.679Z</time></trkpt><trkpt lat="46.4070206" lon="12.9802672"><ele>327.0</ele><time>2026-04-22T08:12:03.68Z</time></trkpt><trkpt lat="46.4069872" lon="12.9806073"><ele>326.0</ele><time>2026-04-22T08:12:04.679Z</time></trkpt><trkpt lat="46.4069532" lon="12.9809369"><ele>326.33333333333337</ele><time>2026-04-22T08:12:05.679Z</time></trkpt><trkpt lat="46.4069234" lon="12.9812586"><ele>326.6666666666667</ele><time>2026-04-22T08:12:06.679Z</time></trkpt><trkpt lat="46.4068948" lon="12.9815688"><ele>327.0</ele><time>2026-04-22T08:12:07.679Z</time></trkpt><trkpt lat="46.406867" lon="12.9818736"><ele>327.0</ele><time>2026-04-22T08:12:08.679Z</time></trkpt><trkpt lat="46.4068384" lon="12.9821747"><ele>327.0</ele><time>2026-04-22T08:12:09.68Z</time></trkpt><trkpt lat="46.4068114" lon="12.982474"><ele>327.0</ele><time>2026-04-22T08:12:10.679Z</time></trkpt><trkpt lat="46.4067869" lon="12.9827796"><ele>327.5</ele><time>2026-04-22T08:12:11.68Z</time></trkpt><trkpt lat="46.4067615" lon="12.9830938"><ele>328.0</ele><time>2026-04-22T08:12:12.68Z</time></trkpt><trkpt lat="46.4067368" lon="12.9834319"><ele>328.0</ele><time>2026-04-22T08:12:13.68Z</time></trkpt><trkpt lat="46.4067104" lon="12.9837843"><ele>328.0</ele><time>2026-04-22T08:12:14.679Z</time></trkpt><trkpt lat="46.4066704" lon="12.9841505"><ele>329.0</ele><time>2026-04-22T08:12:15.679Z</time></trkpt><trkpt lat="46.406623" lon="12.9845122"><ele>330.0</ele><time>2026-04-22T08:12:16.68Z</time></trkpt><trkpt lat="46.4065779" lon="12.984881"><ele>332.0</ele><time>2026-04-22T08:12:17.679Z</time></trkpt><trkpt lat="46.4065343" lon="12.985246"><ele>334.0</ele><time>2026-04-22T08:12:18.68Z</time></trkpt><trkpt lat="46.40649" lon="12.9856108"><ele>334.0</ele><time>2026-04-22T08:12:19.679Z</time></trkpt><trkpt lat="46.40644" lon="12.9859711"><ele>334.0</ele><time>2026-04-22T08:12:20.68Z</time></trkpt><trkpt lat="46.4063885" lon="12.986333"><ele>332.5</ele><time>2026-04-22T08:12:21.68Z</time></trkpt><trkpt lat="46.4063356" lon="12.9866896"><ele>331.0</ele><time>2026-04-22T08:12:22.679Z</time></trkpt><trkpt lat="46.4062768" lon="12.987043"><ele>327.0</ele><time>2026-04-22T08:12:23.679Z</time></trkpt><trkpt lat="46.4062163" lon="12.9873981"><ele>323.0</ele><time>2026-04-22T08:12:24.68Z</time></trkpt><trkpt lat="46.4061527" lon="12.9877505"><ele>323.0</ele><time>2026-04-22T08:12:25.679Z</time></trkpt><trkpt lat="46.4060815" lon="12.9881027"><ele>323.0</ele><time>2026-04-22T08:12:26.68Z</time></trkpt><trkpt lat="46.406007" lon="12.9884535"><ele>322.0</ele><time>2026-04-22T08:12:27.679Z</time></trkpt><trkpt lat="46.4059291" lon="12.9888023"><ele>321.0</ele><time>2026-04-22T08:12:28.679Z</time></trkpt><trkpt lat="46.4058485" lon="12.9891514"><ele>320.0</ele><time>2026-04-22T08:12:29.68Z</time></trkpt><trkpt lat="46.4057673" lon="12.9894991"><ele>319.0</ele><time>2026-04-22T08:12:30.68Z</time></trkpt><trkpt lat="46.4056851" lon="12.9898376"><ele>318.5</ele><time>2026-04-22T08:12:31.679Z</time></trkpt><trkpt lat="46.4055981" lon="12.9901676"><ele>318.0</ele><time>2026-04-22T08:12:32.679Z</time></trkpt><trkpt lat="46.4055079" lon="12.9904897"><ele>318.0</ele><time>2026-04-22T08:12:33.68Z</time></trkpt><trkpt lat="46.4054174" lon="12.9908069"><ele>318.0</ele><time>2026-04-22T08:12:34.679Z</time></trkpt><trkpt lat="46.4053248" lon="12.9911178"><ele>318.0</ele><time>2026-04-22T08:12:35.679Z</time></trkpt><trkpt lat="46.4052288" lon="12.9914224"><ele>318.0</ele><time>2026-04-22T08:12:36.68Z</time></trkpt><trkpt lat="46.4051326" lon="12.9917228"><ele>318.0</ele><time>2026-04-22T08:12:37.679Z</time></trkpt><trkpt lat="46.4050332" lon="12.9920175"><ele>318.0</ele><time>2026-04-22T08:12:38.679Z</time></trkpt><trkpt lat="46.4049308" lon="12.9923091"><ele>317.5</ele><time>2026-04-22T08:12:39.68Z</time></trkpt><trkpt lat="46.4048275" lon="12.9926028"><ele>317.0</ele><time>2026-04-22T08:12:40.679Z</time></trkpt><trkpt lat="46.4047212" lon="12.9928971"><ele>317.5</ele><time>2026-04-22T08:12:41.679Z</time></trkpt><trkpt lat="46.404612" lon="12.9931921"><ele>318.0</ele><time>2026-04-22T08:12:42.679Z</time></trkpt><trkpt lat="46.4045007" lon="12.9934881"><ele>318.5</ele><time>2026-04-22T08:12:43.679Z</time></trkpt><trkpt lat="46.4043828" lon="12.9937794"><ele>319.0</ele><time>2026-04-22T08:12:44.679Z</time></trkpt><trkpt lat="46.404259" lon="12.9940667"><ele>319.0</ele><time>2026-04-22T08:12:45.68Z</time></trkpt><trkpt lat="46.4041354" lon="12.9943548"><ele>319.0</ele><time>2026-04-22T08:12:46.679Z</time></trkpt><trkpt lat="46.4040097" lon="12.994641"><ele>319.0</ele><time>2026-04-22T08:12:47.679Z</time></trkpt><trkpt lat="46.4038793" lon="12.9949226"><ele>319.0</ele><time>2026-04-22T08:12:48.681Z</time></trkpt><trkpt lat="46.4037479" lon="12.9952016"><ele>319.0</ele><time>2026-04-22T08:12:49.679Z</time></trkpt><trkpt lat="46.4036166" lon="12.9954804"><ele>319.0</ele><time>2026-04-22T08:12:50.679Z</time></trkpt><trkpt lat="46.4034809" lon="12.9957544"><ele>319.5</ele><time>2026-04-22T08:12:51.68Z</time></trkpt><trkpt lat="46.403343" lon="12.9960286"><ele>320.0</ele><time>2026-04-22T08:12:52.68Z</time></trkpt><trkpt lat="46.4032013" lon="12.9963011"><ele>320.0</ele><time>2026-04-22T08:12:53.679Z</time></trkpt><trkpt lat="46.4030609" lon="12.9965743"><ele>320.0</ele><time>2026-04-22T08:12:54.679Z</time></trkpt><trkpt lat="46.4029223" lon="12.9968477"><ele>320.5</ele><time>2026-04-22T08:12:55.679Z</time></trkpt><trkpt lat="46.4027881" lon="12.9971225"><ele>321.0</ele><time>2026-04-22T08:12:56.68Z</time></trkpt><trkpt lat="46.4026571" lon="12.9973954"><ele>321.6666666666667</ele><time>2026-04-22T08:12:57.68Z</time></trkpt><trkpt lat="46.402536" lon="12.9976737"><ele>322.33333333333337</ele><time>2026-04-22T08:12:58.68Z</time></trkpt><trkpt lat="46.4024306" lon="12.9979574"><ele>323.0</ele><time>2026-04-22T08:12:59.68Z</time></trkpt><trkpt lat="46.4023346" lon="12.998248"><ele>322.0</ele><time>2026-04-22T08:13:00.679Z</time></trkpt><trkpt lat="46.4022456" lon="12.9985379"><ele>321.0</ele><time>2026-04-22T08:13:01.679Z</time></trkpt><trkpt lat="46.4021662" lon="12.9988307"><ele>320.0</ele><time>2026-04-22T08:13:02.679Z</time></trkpt><trkpt lat="46.4020941" lon="12.9991225"><ele>319.0</ele><time>2026-04-22T08:13:03.679Z</time></trkpt><trkpt lat="46.4020244" lon="12.99941"><ele>318.0</ele><time>2026-04-22T08:13:04.679Z</time></trkpt><trkpt lat="46.4019621" lon="12.9996849"><ele>317.0</ele><time>2026-04-22T08:13:05.68Z</time></trkpt><trkpt lat="46.4019034" lon="12.9999492"><ele>317.0</ele><time>2026-04-22T08:13:06.679Z</time></trkpt><trkpt lat="46.4018443" lon="13.000202"><ele>317.0</ele><time>2026-04-22T08:13:07.679Z</time></trkpt><trkpt lat="46.4017879" lon="13.0004462"><ele>317.0</ele><time>2026-04-22T08:13:08.679Z</time></trkpt><trkpt lat="46.4017326" lon="13.0006829"><ele>317.0</ele><time>2026-04-22T08:13:09.679Z</time></trkpt><trkpt lat="46.4016806" lon="13.000909"><ele>317.0</ele><time>2026-04-22T08:13:10.679Z</time></trkpt><trkpt lat="46.4016309" lon="13.0011234"><ele>317.0</ele><time>2026-04-22T08:13:11.679Z</time></trkpt><trkpt lat="46.4015822" lon="13.0013387"><ele>317.0</ele><time>2026-04-22T08:13:12.679Z</time></trkpt><trkpt lat="46.4015361" lon="13.0015538"><ele>317.0</ele><time>2026-04-22T08:13:13.679Z</time></trkpt><trkpt lat="46.4014907" lon="13.0017602"><ele>317.0</ele><time>2026-04-22T08:13:14.679Z</time></trkpt><trkpt lat="46.4014457" lon="13.0019577"><ele>317.0</ele><time>2026-04-22T08:13:15.679Z</time></trkpt><trkpt lat="46.4013942" lon="13.0021397"><ele>317.0</ele><time>2026-04-22T08:13:16.68Z</time></trkpt><trkpt lat="46.401333" lon="13.0023033"><ele>317.0</ele><time>2026-04-22T08:13:17.679Z</time></trkpt><trkpt lat="46.4012683" lon="13.0024465"><ele>317.0</ele><time>2026-04-22T08:13:18.679Z</time></trkpt><trkpt lat="46.4011953" lon="13.0025661"><ele>317.0</ele><time>2026-04-22T08:13:19.679Z</time></trkpt><trkpt lat="46.4011057" lon="13.0026555"><ele>317.5</ele><time>2026-04-22T08:13:20.68Z</time></trkpt><trkpt lat="46.4009927" lon="13.0027006"><ele>318.0</ele><time>2026-04-22T08:13:21.679Z</time></trkpt><trkpt lat="46.4008606" lon="13.0026916"><ele>318.5</ele><time>2026-04-22T08:13:22.679Z</time></trkpt><trkpt lat="46.4007382" lon="13.0026734"><ele>319.0</ele><time>2026-04-22T08:13:23.679Z</time></trkpt><trkpt lat="46.4006023" lon="13.0026703"><ele>318.5</ele><time>2026-04-22T08:13:24.679Z</time></trkpt><trkpt lat="46.4004509" lon="13.0026963"><ele>318.0</ele><time>2026-04-22T08:13:25.679Z</time></trkpt><trkpt lat="46.4002986" lon="13.0027258"><ele>317.5</ele><time>2026-04-22T08:13:26.68Z</time></trkpt><trkpt lat="46.4001665" lon="13.0027765"><ele>317.0</ele><time>2026-04-22T08:13:27.679Z</time></trkpt><trkpt lat="46.4000519" lon="13.0028806"><ele>317.0</ele><time>2026-04-22T08:13:28.68Z</time></trkpt><trkpt lat="46.3999692" lon="13.00303"><ele>317.0</ele><time>2026-04-22T08:13:29.68Z</time></trkpt><trkpt lat="46.399926" lon="13.0032151"><ele>317.0</ele><time>2026-04-22T08:13:30.679Z</time></trkpt><trkpt lat="46.3999309" lon="13.0034126"><ele>317.0</ele><time>2026-04-22T08:13:31.679Z</time></trkpt><trkpt lat="46.3999895" lon="13.0035954"><ele>317.6666666666667</ele><time>2026-04-22T08:13:32.679Z</time></trkpt><trkpt lat="46.4000958" lon="13.0037516"><ele>318.3333333333333</ele><time>2026-04-22T08:13:33.68Z</time></trkpt><trkpt lat="46.4002279" lon="13.0038708"><ele>319.0</ele><time>2026-04-22T08:13:34.679Z</time></trkpt><trkpt lat="46.4003765" lon="13.0039623"><ele>319.25</ele><time>2026-04-22T08:13:35.679Z</time></trkpt><trkpt lat="46.4005201" lon="13.0040431"><ele>319.5</ele><time>2026-04-22T08:13:36.681Z</time></trkpt><trkpt lat="46.4006596" lon="13.0041033"><ele>319.75</ele><time>2026-04-22T08:13:37.679Z</time></trkpt><trkpt lat="46.400789" lon="13.0041399"><ele>320.0</ele><time>2026-04-22T08:13:38.679Z</time></trkpt><trkpt lat="46.4009014" lon="13.0041743"><ele>319.4</ele><time>2026-04-22T08:13:39.679Z</time></trkpt><trkpt lat="46.4010004" lon="13.0042366"><ele>318.8</ele><time>2026-04-22T08:13:40.679Z</time></trkpt><trkpt lat="46.4010742" lon="13.0043402"><ele>318.2</ele><time>2026-04-22T08:13:41.679Z</time></trkpt><trkpt lat="46.4011275" lon="13.0044826"><ele>317.6</ele><time>2026-04-22T08:13:42.679Z</time></trkpt><trkpt lat="46.4011599" lon="13.0046428"><ele>317.0</ele><time>2026-04-22T08:13:43.68Z</time></trkpt><trkpt lat="46.40118" lon="13.0047942"><ele>317.0</ele><time>2026-04-22T08:13:44.68Z</time></trkpt><trkpt lat="46.4011998" lon="13.0049487"><ele>317.0</ele><time>2026-04-22T08:13:45.679Z</time></trkpt><trkpt lat="46.4012188" lon="13.0050968"><ele>317.0</ele><time>2026-04-22T08:13:46.681Z</time></trkpt><trkpt lat="46.4012325" lon="13.005232"><ele>317.0</ele><time>2026-04-22T08:13:47.679Z</time></trkpt><trkpt lat="46.4012387" lon="13.0053446"><ele>317.0</ele><time>2026-04-22T08:13:48.679Z</time></trkpt><trkpt lat="46.4012317" lon="13.0054615"><ele>316.6</ele><time>2026-04-22T08:13:49.68Z</time></trkpt><trkpt lat="46.4011954" lon="13.0055665"><ele>316.2</ele><time>2026-04-22T08:13:50.68Z</time></trkpt><trkpt lat="46.401124" lon="13.0056516"><ele>315.8</ele><time>2026-04-22T08:13:51.679Z</time></trkpt><trkpt lat="46.4010198" lon="13.0057089"><ele>315.4</ele><time>2026-04-22T08:13:52.68Z</time></trkpt><trkpt lat="46.4009093" lon="13.0057587"><ele>315.0</ele><time>2026-04-22T08:13:53.679Z</time></trkpt><trkpt lat="46.4007794" lon="13.0058394"><ele>315.0</ele><time>2026-04-22T08:13:54.679Z</time></trkpt><trkpt lat="46.4006606" lon="13.0059255"><ele>315.0</ele><time>2026-04-22T08:13:55.679Z</time></trkpt><trkpt lat="46.4005496" lon="13.0060176"><ele>315.0</ele><time>2026-04-22T08:13:56.68Z</time></trkpt><trkpt lat="46.4004434" lon="13.0061127"><ele>315.0</ele><time>2026-04-22T08:13:57.679Z</time></trkpt><trkpt lat="46.40034" lon="13.006206"><ele>314.5</ele><time>2026-04-22T08:13:58.681Z</time></trkpt><trkpt lat="46.4002369" lon="13.0063012"><ele>314.0</ele><time>2026-04-22T08:13:59.679Z</time></trkpt><trkpt lat="46.4001344" lon="13.0063955"><ele>313.5</ele><time>2026-04-22T08:14:00.679Z</time></trkpt><trkpt lat="46.400032" lon="13.0064884"><ele>313.0</ele><time>2026-04-22T08:14:01.68Z</time></trkpt><trkpt lat="46.3999309" lon="13.0065824"><ele>313.0</ele><time>2026-04-22T08:14:02.679Z</time></trkpt><trkpt lat="46.3998291" lon="13.0066736"><ele>313.0</ele><time>2026-04-22T08:14:03.679Z</time></trkpt><trkpt lat="46.3997256" lon="13.0067641"><ele>313.0</ele><time>2026-04-22T08:14:04.679Z</time></trkpt><trkpt lat="46.3996218" lon="13.0068578"><ele>313.0</ele><time>2026-04-22T08:14:05.68Z</time></trkpt><trkpt lat="46.3995189" lon="13.0069551"><ele>313.0</ele><time>2026-04-22T08:14:06.68Z</time></trkpt><trkpt lat="46.399414" lon="13.0070523"><ele>313.0</ele><time>2026-04-22T08:14:07.679Z</time></trkpt><trkpt lat="46.3993079" lon="13.0071491"><ele>313.0</ele><time>2026-04-22T08:14:08.679Z</time></trkpt><trkpt lat="46.3992008" lon="13.0072467"><ele>313.0</ele><time>2026-04-22T08:14:09.681Z</time></trkpt><trkpt lat="46.3990925" lon="13.0073455"><ele>313.0</ele><time>2026-04-22T08:14:10.679Z</time></trkpt><trkpt lat="46.3989834" lon="13.007446"><ele>313.0</ele><time>2026-04-22T08:14:11.679Z</time></trkpt><trkpt lat="46.3988745" lon="13.0075466"><ele>313.0</ele><time>2026-04-22T08:14:12.68Z</time></trkpt><trkpt lat="46.3987667" lon="13.0076441"><ele>313.0</ele><time>2026-04-22T08:14:13.68Z</time></trkpt><trkpt lat="46.3986623" lon="13.0077355"><ele>312.75</ele><time>2026-04-22T08:14:14.678Z</time></trkpt><trkpt lat="46.3985606" lon="13.007827"><ele>312.5</ele><time>2026-04-22T08:14:15.679Z</time></trkpt><trkpt lat="46.3984531" lon="13.0079207"><ele>312.25</ele><time>2026-04-22T08:14:16.678Z</time></trkpt><trkpt lat="46.3983446" lon="13.0080154"><ele>312.0</ele><time>2026-04-22T08:14:17.678Z</time></trkpt><trkpt lat="46.3982366" lon="13.0081107"><ele>312.0</ele><time>2026-04-22T08:14:18.678Z</time></trkpt><trkpt lat="46.3981298" lon="13.0082046"><ele>312.0</ele><time>2026-04-22T08:14:19.678Z</time></trkpt><trkpt lat="46.398023" lon="13.0082984"><ele>312.0</ele><time>2026-04-22T08:14:20.678Z</time></trkpt><trkpt lat="46.3979169" lon="13.0083922"><ele>312.0</ele><time>2026-04-22T08:14:21.678Z</time></trkpt><trkpt lat="46.3978139" lon="13.008485"><ele>311.5</ele><time>2026-04-22T08:14:22.679Z</time></trkpt><trkpt lat="46.3977063" lon="13.0085743"><ele>311.0</ele><time>2026-04-22T08:14:23.68Z</time></trkpt><trkpt lat="46.397598" lon="13.0086615"><ele>310.5</ele><time>2026-04-22T08:14:24.679Z</time></trkpt><trkpt lat="46.3974866" lon="13.0087589"><ele>310.0</ele><time>2026-04-22T08:14:25.679Z</time></trkpt><trkpt lat="46.3973743" lon="13.008858"><ele>310.0</ele><time>2026-04-22T08:14:26.679Z</time></trkpt><trkpt lat="46.3972605" lon="13.0089597"><ele>310.0</ele><time>2026-04-22T08:14:27.678Z</time></trkpt><trkpt lat="46.3971409" lon="13.0090649"><ele>310.0</ele><time>2026-04-22T08:14:28.678Z</time></trkpt><trkpt lat="46.3970087" lon="13.0091798"><ele>310.0</ele><time>2026-04-22T08:14:29.679Z</time></trkpt><trkpt lat="46.3968812" lon="13.0092905"><ele>309.5</ele><time>2026-04-22T08:14:30.678Z</time></trkpt><trkpt lat="46.3967567" lon="13.009399"><ele>309.0</ele><time>2026-04-22T08:14:31.678Z</time></trkpt><trkpt lat="46.3966354" lon="13.0095068"><ele>308.5</ele><time>2026-04-22T08:14:32.678Z</time></trkpt><trkpt lat="46.3965136" lon="13.0096105"><ele>308.0</ele><time>2026-04-22T08:14:33.678Z</time></trkpt><trkpt lat="46.3963937" lon="13.009711"><ele>308.0</ele><time>2026-04-22T08:14:34.678Z</time></trkpt><trkpt lat="46.3962785" lon="13.0098126"><ele>308.0</ele><time>2026-04-22T08:14:35.678Z</time></trkpt><trkpt lat="46.3961634" lon="13.009912"><ele>308.0</ele><time>2026-04-22T08:14:36.679Z</time></trkpt><trkpt lat="46.3960457" lon="13.0100173"><ele>308.0</ele><time>2026-04-22T08:14:37.678Z</time></trkpt><trkpt lat="46.3959254" lon="13.0101275"><ele>308.0</ele><time>2026-04-22T08:14:38.678Z</time></trkpt><trkpt lat="46.3958066" lon="13.0102492"><ele>308.0</ele><time>2026-04-22T08:14:39.679Z</time></trkpt><trkpt lat="46.3956864" lon="13.0103926"><ele>308.0</ele><time>2026-04-22T08:14:40.679Z</time></trkpt><trkpt lat="46.3955539" lon="13.0105618"><ele>308.0</ele><time>2026-04-22T08:14:41.678Z</time></trkpt><trkpt lat="46.3954286" lon="13.0107427"><ele>308.0</ele><time>2026-04-22T08:14:42.678Z</time></trkpt><trkpt lat="46.3953129" lon="13.0109248"><ele>308.0</ele><time>2026-04-22T08:14:43.678Z</time></trkpt><trkpt lat="46.3951991" lon="13.0111158"><ele>308.0</ele><time>2026-04-22T08:14:44.678Z</time></trkpt><trkpt lat="46.3950885" lon="13.01132"><ele>308.0</ele><time>2026-04-22T08:14:45.678Z</time></trkpt><trkpt lat="46.3949718" lon="13.0115395"><ele>308.0</ele><time>2026-04-22T08:14:46.678Z</time></trkpt><trkpt lat="46.3948576" lon="13.0117523"><ele>307.33333333333337</ele><time>2026-04-22T08:14:47.678Z</time></trkpt><trkpt lat="46.3947445" lon="13.0119681"><ele>306.6666666666667</ele><time>2026-04-22T08:14:48.68Z</time></trkpt><trkpt lat="46.3946346" lon="13.0121814"><ele>306.0</ele><time>2026-04-22T08:14:49.678Z</time></trkpt><trkpt lat="46.3945261" lon="13.0123894"><ele>305.6666666666667</ele><time>2026-04-22T08:14:50.678Z</time></trkpt><trkpt lat="46.3944189" lon="13.0125939"><ele>305.33333333333337</ele><time>2026-04-22T08:14:51.678Z</time></trkpt><trkpt lat="46.3943126" lon="13.0127949"><ele>305.0</ele><time>2026-04-22T08:14:52.678Z</time></trkpt><trkpt lat="46.3942059" lon="13.0129942"><ele>305.0</ele><time>2026-04-22T08:14:53.679Z</time></trkpt><trkpt lat="46.3941022" lon="13.0131862"><ele>305.0</ele><time>2026-04-22T08:14:54.678Z</time></trkpt><trkpt lat="46.3940008" lon="13.0133812"><ele>305.0</ele><time>2026-04-22T08:14:55.678Z</time></trkpt><trkpt lat="46.393903" lon="13.0135739"><ele>305.6666666666667</ele><time>2026-04-22T08:14:56.679Z</time></trkpt><trkpt lat="46.3938065" lon="13.0137615"><ele>306.3333333333333</ele><time>2026-04-22T08:14:57.679Z</time></trkpt><trkpt lat="46.3937111" lon="13.0139387"><ele>307.0</ele><time>2026-04-22T08:14:58.679Z</time></trkpt><trkpt lat="46.3936131" lon="13.014108"><ele>307.0</ele><time>2026-04-22T08:14:59.678Z</time></trkpt><trkpt lat="46.3934974" lon="13.0142757"><ele>307.0</ele><time>2026-04-22T08:15:00.678Z</time></trkpt><trkpt lat="46.3933637" lon="13.0144173"><ele>307.0</ele><time>2026-04-22T08:15:01.678Z</time></trkpt><trkpt lat="46.3932131" lon="13.0145129"><ele>307.0</ele><time>2026-04-22T08:15:02.678Z</time></trkpt><trkpt lat="46.3930489" lon="13.0145708"><ele>307.0</ele><time>2026-04-22T08:15:03.679Z</time></trkpt><trkpt lat="46.3928791" lon="13.0145822"><ele>307.0</ele><time>2026-04-22T08:15:04.678Z</time></trkpt><trkpt lat="46.3927069" lon="13.014561"><ele>306.0</ele><time>2026-04-22T08:15:05.678Z</time></trkpt><trkpt lat="46.3925407" lon="13.0145066"><ele>305.0</ele><time>2026-04-22T08:15:06.678Z</time></trkpt><trkpt lat="46.3923764" lon="13.0144415"><ele>304.0</ele><time>2026-04-22T08:15:07.678Z</time></trkpt><trkpt lat="46.3922163" lon="13.0143734"><ele>303.0</ele><time>2026-04-22T08:15:08.678Z</time></trkpt><trkpt lat="46.3920616" lon="13.0142815"><ele>302.0</ele><time>2026-04-22T08:15:09.679Z</time></trkpt><trkpt lat="46.3919136" lon="13.0141734"><ele>301.0</ele><time>2026-04-22T08:15:10.679Z</time></trkpt><trkpt lat="46.3917664" lon="13.0140579"><ele>300.3333333333333</ele><time>2026-04-22T08:15:11.678Z</time></trkpt><trkpt lat="46.3916197" lon="13.0139404"><ele>299.6666666666667</ele><time>2026-04-22T08:15:12.679Z</time></trkpt><trkpt lat="46.3914787" lon="13.0138134"><ele>299.0</ele><time>2026-04-22T08:15:13.68Z</time></trkpt><trkpt lat="46.391338" lon="13.0136831"><ele>299.0</ele><time>2026-04-22T08:15:14.678Z</time></trkpt><trkpt lat="46.3911971" lon="13.0135521"><ele>299.0</ele><time>2026-04-22T08:15:15.678Z</time></trkpt><trkpt lat="46.3910519" lon="13.0134207"><ele>299.0</ele><time>2026-04-22T08:15:16.678Z</time></trkpt><trkpt lat="46.3909062" lon="13.0132897"><ele>298.6666666666667</ele><time>2026-04-22T08:15:17.678Z</time></trkpt><trkpt lat="46.3907596" lon="13.0131578"><ele>298.3333333333333</ele><time>2026-04-22T08:15:18.678Z</time></trkpt><trkpt lat="46.3906114" lon="13.0130241"><ele>298.0</ele><time>2026-04-22T08:15:19.678Z</time></trkpt><trkpt lat="46.3904594" lon="13.0128913"><ele>299.0</ele><time>2026-04-22T08:15:20.678Z</time></trkpt><trkpt lat="46.3903072" lon="13.01276"><ele>300.0</ele><time>2026-04-22T08:15:21.68Z</time></trkpt><trkpt lat="46.3901549" lon="13.0126265"><ele>301.0</ele><time>2026-04-22T08:15:22.678Z</time></trkpt><trkpt lat="46.3900067" lon="13.0124945"><ele>301.0</ele><time>2026-04-22T08:15:23.678Z</time></trkpt><trkpt lat="46.3898648" lon="13.0123639"><ele>301.0</ele><time>2026-04-22T08:15:24.679Z</time></trkpt><trkpt lat="46.3897269" lon="13.0122407"><ele>301.0</ele><time>2026-04-22T08:15:25.678Z</time></trkpt><trkpt lat="46.389596" lon="13.0121216"><ele>300.25</ele><time>2026-04-22T08:15:26.679Z</time></trkpt><trkpt lat="46.3894682" lon="13.012005"><ele>299.5</ele><time>2026-04-22T08:15:27.678Z</time></trkpt><trkpt lat="46.3893428" lon="13.0118961"><ele>298.75</ele><time>2026-04-22T08:15:28.678Z</time></trkpt><trkpt lat="46.3892232" lon="13.0117929"><ele>298.0</ele><time>2026-04-22T08:15:29.679Z</time></trkpt><trkpt lat="46.3891094" lon="13.0116919"><ele>299.2</ele><time>2026-04-22T08:15:30.678Z</time></trkpt><trkpt lat="46.3890039" lon="13.0115984"><ele>300.4</ele><time>2026-04-22T08:15:31.678Z</time></trkpt><trkpt lat="46.3889067" lon="13.011511"><ele>301.59999999999997</ele><time>2026-04-22T08:15:32.678Z</time></trkpt><trkpt lat="46.3888218" lon="13.0114345"><ele>302.8</ele><time>2026-04-22T08:15:33.678Z</time></trkpt><trkpt lat="46.3887479" lon="13.0113647"><ele>304.0</ele><time>2026-04-22T08:15:34.679Z</time></trkpt><trkpt lat="46.3886836" lon="13.0112895"><ele>304.16666666666663</ele><time>2026-04-22T08:15:35.678Z</time></trkpt><trkpt lat="46.3886319" lon="13.0111848"><ele>304.3333333333333</ele><time>2026-04-22T08:15:36.678Z</time></trkpt><trkpt lat="46.388622" lon="13.0110549"><ele>304.5</ele><time>2026-04-22T08:15:37.678Z</time></trkpt><trkpt lat="46.388608" lon="13.0109443"><ele>304.6666666666667</ele><time>2026-04-22T08:15:38.678Z</time></trkpt><trkpt lat="46.3885669" lon="13.0108495"><ele>304.83333333333337</ele><time>2026-04-22T08:15:39.679Z</time></trkpt><trkpt lat="46.3885054" lon="13.0107829"><ele>305.0</ele><time>2026-04-22T08:15:40.679Z</time></trkpt><trkpt lat="46.3884328" lon="13.0107595"><ele>305.0</ele><time>2026-04-22T08:15:41.678Z</time></trkpt><trkpt lat="46.3883597" lon="13.0107963"><ele>305.0</ele><time>2026-04-22T08:15:42.678Z</time></trkpt><trkpt lat="46.3883062" lon="13.0108868"><ele>305.0</ele><time>2026-04-22T08:15:43.678Z</time></trkpt><trkpt lat="46.388263" lon="13.0110083"><ele>305.0</ele><time>2026-04-22T08:15:44.678Z</time></trkpt><trkpt lat="46.3881921" lon="13.0111271"><ele>305.0</ele><time>2026-04-22T08:15:45.678Z</time></trkpt><trkpt lat="46.3880854" lon="13.0112266"><ele>305.75</ele><time>2026-04-22T08:15:46.678Z</time></trkpt><trkpt lat="46.3879667" lon="13.0113012"><ele>306.5</ele><time>2026-04-22T08:15:47.678Z</time></trkpt><trkpt lat="46.3878343" lon="13.0113644"><ele>307.25</ele><time>2026-04-22T08:15:48.678Z</time></trkpt><trkpt lat="46.3876903" lon="13.0114115"><ele>308.0</ele><time>2026-04-22T08:15:49.678Z</time></trkpt><trkpt lat="46.3875325" lon="13.0114522"><ele>308.0</ele><time>2026-04-22T08:15:50.679Z</time></trkpt><trkpt lat="46.3873782" lon="13.0114956"><ele>308.0</ele><time>2026-04-22T08:15:51.679Z</time></trkpt><trkpt lat="46.3872235" lon="13.0115396"><ele>308.0</ele><time>2026-04-22T08:15:52.678Z</time></trkpt><trkpt lat="46.3870673" lon="13.0115775"><ele>311.6666666666667</ele><time>2026-04-22T08:15:53.678Z</time></trkpt><trkpt lat="46.3869091" lon="13.0116084"><ele>315.3333333333333</ele><time>2026-04-22T08:15:54.678Z</time></trkpt><trkpt lat="46.3867504" lon="13.0116209"><ele>319.0</ele><time>2026-04-22T08:15:55.679Z</time></trkpt><trkpt lat="46.3865924" lon="13.0116037"><ele>319.0</ele><time>2026-04-22T08:15:56.678Z</time></trkpt><trkpt lat="46.386434" lon="13.0115639"><ele>319.0</ele><time>2026-04-22T08:15:57.679Z</time></trkpt><trkpt lat="46.3862737" lon="13.0115175"><ele>319.0</ele><time>2026-04-22T08:15:58.678Z</time></trkpt><trkpt lat="46.3861159" lon="13.0114669"><ele>315.3333333333333</ele><time>2026-04-22T08:15:59.679Z</time></trkpt><trkpt lat="46.3859613" lon="13.0114114"><ele>311.6666666666667</ele><time>2026-04-22T08:16:00.679Z</time></trkpt><trkpt lat="46.3858109" lon="13.0113615"><ele>308.0</ele><time>2026-04-22T08:16:01.678Z</time></trkpt><trkpt lat="46.3856668" lon="13.0113242"><ele>308.0</ele><time>2026-04-22T08:16:02.678Z</time></trkpt><trkpt lat="46.3855208" lon="13.0113228"><ele>308.0</ele><time>2026-04-22T08:16:03.678Z</time></trkpt><trkpt lat="46.3853709" lon="13.0113597"><ele>308.0</ele><time>2026-04-22T08:16:04.678Z</time></trkpt><trkpt lat="46.3852233" lon="13.011444"><ele>308.6666666666667</ele><time>2026-04-22T08:16:05.678Z</time></trkpt><trkpt lat="46.3850864" lon="13.0115729"><ele>309.3333333333333</ele><time>2026-04-22T08:16:06.679Z</time></trkpt><trkpt lat="46.3849633" lon="13.0117514"><ele>310.0</ele><time>2026-04-22T08:16:07.678Z</time></trkpt><trkpt lat="46.3848466" lon="13.0119622"><ele>308.3333333333333</ele><time>2026-04-22T08:16:08.678Z</time></trkpt><trkpt lat="46.3847282" lon="13.0122013"><ele>306.6666666666667</ele><time>2026-04-22T08:16:09.679Z</time></trkpt><trkpt lat="46.3846178" lon="13.0124258"><ele>305.0</ele><time>2026-04-22T08:16:10.678Z</time></trkpt><trkpt lat="46.3845117" lon="13.0126454"><ele>311.6666666666667</ele><time>2026-04-22T08:16:11.678Z</time></trkpt><trkpt lat="46.3844189" lon="13.0128596"><ele>318.3333333333333</ele><time>2026-04-22T08:16:12.679Z</time></trkpt><trkpt lat="46.3843423" lon="13.0130801"><ele>325.0</ele><time>2026-04-22T08:16:13.679Z</time></trkpt><trkpt lat="46.3843028" lon="13.0133227"><ele>325.0</ele><time>2026-04-22T08:16:14.678Z</time></trkpt><trkpt lat="46.3842903" lon="13.0135832"><ele>325.0</ele><time>2026-04-22T08:16:15.679Z</time></trkpt><trkpt lat="46.3842825" lon="13.0138674"><ele>325.0</ele><time>2026-04-22T08:16:16.678Z</time></trkpt><trkpt lat="46.3842592" lon="13.0141457"><ele>323.3333333333333</ele><time>2026-04-22T08:16:17.678Z</time></trkpt><trkpt lat="46.384223" lon="13.0144217"><ele>321.6666666666667</ele><time>2026-04-22T08:16:18.678Z</time></trkpt><trkpt lat="46.3841715" lon="13.0146887"><ele>320.0</ele><time>2026-04-22T08:16:19.678Z</time></trkpt><trkpt lat="46.3841044" lon="13.0149473"><ele>316.33333333333337</ele><time>2026-04-22T08:16:20.678Z</time></trkpt><trkpt lat="46.3840235" lon="13.015194"><ele>312.6666666666667</ele><time>2026-04-22T08:16:21.678Z</time></trkpt><trkpt lat="46.3839288" lon="13.01543"><ele>309.0</ele><time>2026-04-22T08:16:22.679Z</time></trkpt><trkpt lat="46.3838217" lon="13.0156578"><ele>313.0</ele><time>2026-04-22T08:16:23.678Z</time></trkpt><trkpt lat="46.383704" lon="13.0158702"><ele>317.0</ele><time>2026-04-22T08:16:24.679Z</time></trkpt><trkpt lat="46.3835791" lon="13.0160737"><ele>321.0</ele><time>2026-04-22T08:16:25.678Z</time></trkpt><trkpt lat="46.3834502" lon="13.0162691"><ele>321.0</ele><time>2026-04-22T08:16:26.678Z</time></trkpt><trkpt lat="46.3833123" lon="13.0164474"><ele>321.0</ele><time>2026-04-22T08:16:27.678Z</time></trkpt><trkpt lat="46.3831615" lon="13.0165999"><ele>321.0</ele><time>2026-04-22T08:16:28.678Z</time></trkpt><trkpt lat="46.3829964" lon="13.0167319"><ele>316.0</ele><time>2026-04-22T08:16:29.678Z</time></trkpt><trkpt lat="46.3828255" lon="13.0168507"><ele>311.0</ele><time>2026-04-22T08:16:30.678Z</time></trkpt><trkpt lat="46.3826569" lon="13.0169607"><ele>306.0</ele><time>2026-04-22T08:16:31.678Z</time></trkpt><trkpt lat="46.3824914" lon="13.0170987"><ele>306.0</ele><time>2026-04-22T08:16:32.679Z</time></trkpt><trkpt lat="46.3823256" lon="13.0172662"><ele>306.0</ele><time>2026-04-22T08:16:33.679Z</time></trkpt><trkpt lat="46.3821589" lon="13.0174442"><ele>306.0</ele><time>2026-04-22T08:16:34.679Z</time></trkpt><trkpt lat="46.3819951" lon="13.0176153"><ele>305.6666666666667</ele><time>2026-04-22T08:16:35.678Z</time></trkpt><trkpt lat="46.3818348" lon="13.0177863"><ele>305.33333333333337</ele><time>2026-04-22T08:16:36.678Z</time></trkpt><trkpt lat="46.3816799" lon="13.0179531"><ele>305.0</ele><time>2026-04-22T08:16:37.678Z</time></trkpt><trkpt lat="46.381532" lon="13.018114"><ele>305.0</ele><time>2026-04-22T08:16:38.678Z</time></trkpt><trkpt lat="46.3813911" lon="13.0182634"><ele>305.0</ele><time>2026-04-22T08:16:39.678Z</time></trkpt><trkpt lat="46.3812604" lon="13.0184069"><ele>305.0</ele><time>2026-04-22T08:16:40.678Z</time></trkpt><trkpt lat="46.3811484" lon="13.0185742"><ele>309.33333333333337</ele><time>2026-04-22T08:16:41.679Z</time></trkpt><trkpt lat="46.3810605" lon="13.0187753"><ele>313.6666666666667</ele><time>2026-04-22T08:16:42.678Z</time></trkpt><trkpt lat="46.3809873" lon="13.0190032"><ele>318.0</ele><time>2026-04-22T08:16:43.678Z</time></trkpt><trkpt lat="46.3809228" lon="13.0192104"><ele>319.25</ele><time>2026-04-22T08:16:44.679Z</time></trkpt><trkpt lat="46.3808614" lon="13.0194054"><ele>320.5</ele><time>2026-04-22T08:16:45.678Z</time></trkpt><trkpt lat="46.3808113" lon="13.0195817"><ele>321.75</ele><time>2026-04-22T08:16:46.678Z</time></trkpt><trkpt lat="46.3807742" lon="13.0197574"><ele>323.0</ele><time>2026-04-22T08:16:47.678Z</time></trkpt><trkpt lat="46.3807736" lon="13.0199437"><ele>323.0</ele><time>2026-04-22T08:16:48.678Z</time></trkpt><trkpt lat="46.38081" lon="13.0201279"><ele>323.0</ele><time>2026-04-22T08:16:49.678Z</time></trkpt><trkpt lat="46.3808873" lon="13.0203053"><ele>323.0</ele><time>2026-04-22T08:16:50.679Z</time></trkpt><trkpt lat="46.3809989" lon="13.0204655"><ele>323.0</ele><time>2026-04-22T08:16:51.678Z</time></trkpt><trkpt lat="46.3811116" lon="13.0205913"><ele>323.0</ele><time>2026-04-22T08:16:52.678Z</time></trkpt><trkpt lat="46.381214" lon="13.0207134"><ele>323.0</ele><time>2026-04-22T08:16:53.679Z</time></trkpt><trkpt lat="46.3813009" lon="13.020848"><ele>323.0</ele><time>2026-04-22T08:16:54.678Z</time></trkpt><trkpt lat="46.3813503" lon="13.021004"><ele>323.0</ele><time>2026-04-22T08:16:55.678Z</time></trkpt><trkpt lat="46.3813593" lon="13.0211818"><ele>326.33333333333337</ele><time>2026-04-22T08:16:56.678Z</time></trkpt><trkpt lat="46.3813215" lon="13.0213632"><ele>329.6666666666667</ele><time>2026-04-22T08:16:57.679Z</time></trkpt><trkpt lat="46.3812358" lon="13.0215447"><ele>333.0</ele><time>2026-04-22T08:16:58.678Z</time></trkpt><trkpt lat="46.3811223" lon="13.0217342"><ele>333.6666666666667</ele><time>2026-04-22T08:16:59.678Z</time></trkpt><trkpt lat="46.3810072" lon="13.0219318"><ele>334.33333333333337</ele><time>2026-04-22T08:17:00.678Z</time></trkpt><trkpt lat="46.3808915" lon="13.0221158"><ele>335.0</ele><time>2026-04-22T08:17:01.678Z</time></trkpt><trkpt lat="46.3807555" lon="13.0222875"><ele>335.0</ele><time>2026-04-22T08:17:02.679Z</time></trkpt><trkpt lat="46.3806049" lon="13.0224262"><ele>335.0</ele><time>2026-04-22T08:17:03.678Z</time></trkpt><trkpt lat="46.3804613" lon="13.0225559"><ele>335.0</ele><time>2026-04-22T08:17:04.678Z</time></trkpt><trkpt lat="46.380333" lon="13.0226731"><ele>337.6666666666667</ele><time>2026-04-22T08:17:05.679Z</time></trkpt><trkpt lat="46.380218" lon="13.0228343"><ele>340.3333333333333</ele><time>2026-04-22T08:17:06.678Z</time></trkpt><trkpt lat="46.3801295" lon="13.0230278"><ele>343.0</ele><time>2026-04-22T08:17:07.679Z</time></trkpt><trkpt lat="46.3800258" lon="13.023239"><ele>338.3333333333333</ele><time>2026-04-22T08:17:08.678Z</time></trkpt><trkpt lat="46.379972" lon="13.0235253"><ele>333.6666666666667</ele><time>2026-04-22T08:17:09.679Z</time></trkpt><trkpt lat="46.3798986" lon="13.0237844"><ele>329.0</ele><time>2026-04-22T08:17:10.679Z</time></trkpt><trkpt lat="46.3798318" lon="13.0240274"><ele>326.5</ele><time>2026-04-22T08:17:11.678Z</time></trkpt><trkpt lat="46.3797732" lon="13.0242431"><ele>324.0</ele><time>2026-04-22T08:17:12.678Z</time></trkpt><trkpt lat="46.379721" lon="13.0244358"><ele>321.5</ele><time>2026-04-22T08:17:13.678Z</time></trkpt><trkpt lat="46.37968" lon="13.0245951"><ele>319.0</ele><time>2026-04-22T08:17:14.679Z</time></trkpt><trkpt lat="46.3796445" lon="13.0247226"><ele>319.2</ele><time>2026-04-22T08:17:15.678Z</time></trkpt><trkpt lat="46.3796278" lon="13.0248361"><ele>319.4</ele><time>2026-04-22T08:17:16.678Z</time></trkpt><trkpt lat="46.3796117" lon="13.0249568"><ele>319.6</ele><time>2026-04-22T08:17:17.679Z</time></trkpt><trkpt lat="46.3795969" lon="13.0250907"><ele>319.8</ele><time>2026-04-22T08:17:18.678Z</time></trkpt><trkpt lat="46.3795955" lon="13.0252319"><ele>320.0</ele><time>2026-04-22T08:17:19.679Z</time></trkpt><trkpt lat="46.379609" lon="13.0254016"><ele>320.0</ele><time>2026-04-22T08:17:20.679Z</time></trkpt><trkpt lat="46.3796183" lon="13.0255873"><ele>320.0</ele><time>2026-04-22T08:17:21.678Z</time></trkpt><trkpt lat="46.379629" lon="13.0257512"><ele>320.0</ele><time>2026-04-22T08:17:22.678Z</time></trkpt><trkpt lat="46.3796226" lon="13.0259051"><ele>320.0</ele><time>2026-04-22T08:17:23.679Z</time></trkpt><trkpt lat="46.3795915" lon="13.0260443"><ele>320.0</ele><time>2026-04-22T08:17:24.679Z</time></trkpt><trkpt lat="46.3795375" lon="13.0261621"><ele>318.0</ele><time>2026-04-22T08:17:25.678Z</time></trkpt><trkpt lat="46.3794611" lon="13.0262538"><ele>316.0</ele><time>2026-04-22T08:17:26.678Z</time></trkpt><trkpt lat="46.3793713" lon="13.0263266"><ele>314.0</ele><time>2026-04-22T08:17:27.678Z</time></trkpt><trkpt lat="46.3792794" lon="13.0264151"><ele>312.0</ele><time>2026-04-22T08:17:28.678Z</time></trkpt><trkpt lat="46.3791865" lon="13.0265392"><ele>310.0</ele><time>2026-04-22T08:17:29.678Z</time></trkpt><trkpt lat="46.3790978" lon="13.0266782"><ele>310.0</ele><time>2026-04-22T08:17:30.678Z</time></trkpt><trkpt lat="46.3790096" lon="13.0268191"><ele>310.0</ele><time>2026-04-22T08:17:31.678Z</time></trkpt><trkpt lat="46.3789211" lon="13.0269472"><ele>310.0</ele><time>2026-04-22T08:17:32.68Z</time></trkpt><trkpt lat="46.3788346" lon="13.0270724"><ele>310.0</ele><time>2026-04-22T08:17:33.679Z</time></trkpt><trkpt lat="46.3787579" lon="13.0272154"><ele>307.75</ele><time>2026-04-22T08:17:34.678Z</time></trkpt><trkpt lat="46.3786968" lon="13.027391"><ele>305.5</ele><time>2026-04-22T08:17:35.678Z</time></trkpt><trkpt lat="46.3786528" lon="13.0275985"><ele>303.25</ele><time>2026-04-22T08:17:36.678Z</time></trkpt><trkpt lat="46.3786171" lon="13.0277928"><ele>301.0</ele><time>2026-04-22T08:17:37.678Z</time></trkpt><trkpt lat="46.3785764" lon="13.027979"><ele>300.0</ele><time>2026-04-22T08:17:38.678Z</time></trkpt><trkpt lat="46.3785421" lon="13.0281624"><ele>299.0</ele><time>2026-04-22T08:17:39.678Z</time></trkpt><trkpt lat="46.3785036" lon="13.0283399"><ele>298.0</ele><time>2026-04-22T08:17:40.678Z</time></trkpt><trkpt lat="46.378454" lon="13.0285074"><ele>297.0</ele><time>2026-04-22T08:17:41.678Z</time></trkpt><trkpt lat="46.3783805" lon="13.0286592"><ele>297.0</ele><time>2026-04-22T08:17:42.678Z</time></trkpt><trkpt lat="46.3782944" lon="13.0287982"><ele>297.0</ele><time>2026-04-22T08:17:43.678Z</time></trkpt><trkpt lat="46.3781861" lon="13.0289106"><ele>297.0</ele><time>2026-04-22T08:17:44.679Z</time></trkpt><trkpt lat="46.3780668" lon="13.029006"><ele>297.0</ele><time>2026-04-22T08:17:45.68Z</time></trkpt><trkpt lat="46.3779403" lon="13.0290928"><ele>297.0</ele><time>2026-04-22T08:17:46.678Z</time></trkpt><trkpt lat="46.3778068" lon="13.0291785"><ele>297.0</ele><time>2026-04-22T08:17:47.678Z</time></trkpt><trkpt lat="46.377667" lon="13.0292657"><ele>297.0</ele><time>2026-04-22T08:17:48.678Z</time></trkpt><trkpt lat="46.3775308" lon="13.0293505"><ele>297.0</ele><time>2026-04-22T08:17:49.679Z</time></trkpt><trkpt lat="46.3773999" lon="13.0294364"><ele>297.0</ele><time>2026-04-22T08:17:50.679Z</time></trkpt><trkpt lat="46.3772725" lon="13.0295191"><ele>297.0</ele><time>2026-04-22T08:17:51.678Z</time></trkpt><trkpt lat="46.3771401" lon="13.0295923"><ele>297.0</ele><time>2026-04-22T08:17:52.679Z</time></trkpt><trkpt lat="46.3769965" lon="13.0296459"><ele>297.0</ele><time>2026-04-22T08:17:53.678Z</time></trkpt><trkpt lat="46.3768509" lon="13.0296865"><ele>296.25</ele><time>2026-04-22T08:17:54.679Z</time></trkpt><trkpt lat="46.3767076" lon="13.0297106"><ele>295.5</ele><time>2026-04-22T08:17:55.678Z</time></trkpt><trkpt lat="46.3765607" lon="13.0297232"><ele>294.75</ele><time>2026-04-22T08:17:56.679Z</time></trkpt><trkpt lat="46.3764152" lon="13.0297292"><ele>294.0</ele><time>2026-04-22T08:17:57.678Z</time></trkpt><trkpt lat="46.3762696" lon="13.0297377"><ele>294.0</ele><time>2026-04-22T08:17:58.679Z</time></trkpt><trkpt lat="46.3761246" lon="13.0297431"><ele>294.0</ele><time>2026-04-22T08:17:59.678Z</time></trkpt><trkpt lat="46.3759795" lon="13.0297512"><ele>294.0</ele><time>2026-04-22T08:18:00.679Z</time></trkpt><trkpt lat="46.375834" lon="13.0297588"><ele>294.0</ele><time>2026-04-22T08:18:01.678Z</time></trkpt><trkpt lat="46.3756866" lon="13.0297659"><ele>294.0</ele><time>2026-04-22T08:18:02.678Z</time></trkpt><trkpt lat="46.3755341" lon="13.0297762"><ele>294.0</ele><time>2026-04-22T08:18:03.68Z</time></trkpt><trkpt lat="46.3753755" lon="13.029789"><ele>294.0</ele><time>2026-04-22T08:18:04.678Z</time></trkpt><trkpt lat="46.3751968" lon="13.029803"><ele>294.3333333333333</ele><time>2026-04-22T08:18:05.678Z</time></trkpt><trkpt lat="46.3750228" lon="13.0298224"><ele>294.66666666666663</ele><time>2026-04-22T08:18:06.679Z</time></trkpt><trkpt lat="46.3748467" lon="13.029846"><ele>295.0</ele><time>2026-04-22T08:18:07.678Z</time></trkpt><trkpt lat="46.3746747" lon="13.0298726"><ele>294.0</ele><time>2026-04-22T08:18:08.679Z</time></trkpt><trkpt lat="46.3745008" lon="13.0298979"><ele>293.0</ele><time>2026-04-22T08:18:09.678Z</time></trkpt><trkpt lat="46.3743289" lon="13.0299251"><ele>292.0</ele><time>2026-04-22T08:18:10.679Z</time></trkpt><trkpt lat="46.3741589" lon="13.0299469"><ele>292.0</ele><time>2026-04-22T08:18:11.678Z</time></trkpt><trkpt lat="46.373991" lon="13.0299715"><ele>292.0</ele><time>2026-04-22T08:18:12.679Z</time></trkpt><trkpt lat="46.373824" lon="13.0299972"><ele>292.0</ele><time>2026-04-22T08:18:13.678Z</time></trkpt><trkpt lat="46.3736588" lon="13.0300358"><ele>291.66666666666663</ele><time>2026-04-22T08:18:14.679Z</time></trkpt><trkpt lat="46.3734943" lon="13.0300953"><ele>291.3333333333333</ele><time>2026-04-22T08:18:15.679Z</time></trkpt><trkpt lat="46.3733296" lon="13.0301732"><ele>291.0</ele><time>2026-04-22T08:18:16.678Z</time></trkpt><trkpt lat="46.3731659" lon="13.0302612"><ele>289.3333333333333</ele><time>2026-04-22T08:18:17.678Z</time></trkpt><trkpt lat="46.3729998" lon="13.0303514"><ele>287.66666666666663</ele><time>2026-04-22T08:18:18.678Z</time></trkpt><trkpt lat="46.3728343" lon="13.0304428"><ele>286.0</ele><time>2026-04-22T08:18:19.679Z</time></trkpt><trkpt lat="46.3726696" lon="13.0305342"><ele>286.0</ele><time>2026-04-22T08:18:20.679Z</time></trkpt><trkpt lat="46.3725064" lon="13.0306245"><ele>286.0</ele><time>2026-04-22T08:18:21.679Z</time></trkpt><trkpt lat="46.3723483" lon="13.0307148"><ele>286.0</ele><time>2026-04-22T08:18:22.678Z</time></trkpt><trkpt lat="46.3721927" lon="13.0308018"><ele>285.66666666666663</ele><time>2026-04-22T08:18:23.68Z</time></trkpt><trkpt lat="46.3720385" lon="13.030887"><ele>285.3333333333333</ele><time>2026-04-22T08:18:24.678Z</time></trkpt><trkpt lat="46.3718876" lon="13.0309698"><ele>285.0</ele><time>2026-04-22T08:18:25.678Z</time></trkpt><trkpt lat="46.3717391" lon="13.0310535"><ele>285.0</ele><time>2026-04-22T08:18:26.679Z</time></trkpt><trkpt lat="46.3715946" lon="13.031139"><ele>285.0</ele><time>2026-04-22T08:18:27.678Z</time></trkpt><trkpt lat="46.3714495" lon="13.031224"><ele>285.0</ele><time>2026-04-22T08:18:28.678Z</time></trkpt><trkpt lat="46.3713015" lon="13.031309"><ele>285.0</ele><time>2026-04-22T08:18:29.678Z</time></trkpt><trkpt lat="46.3711505" lon="13.0313935"><ele>285.0</ele><time>2026-04-22T08:18:30.678Z</time></trkpt><trkpt lat="46.3709822" lon="13.0314856"><ele>285.0</ele><time>2026-04-22T08:18:31.679Z</time></trkpt><trkpt lat="46.3708299" lon="13.0315636"><ele>286.3333333333333</ele><time>2026-04-22T08:18:32.679Z</time></trkpt><trkpt lat="46.370683" lon="13.0316423"><ele>287.66666666666663</ele><time>2026-04-22T08:18:33.679Z</time></trkpt><trkpt lat="46.3705413" lon="13.031724"><ele>289.0</ele><time>2026-04-22T08:18:34.678Z</time></trkpt><trkpt lat="46.3704083" lon="13.031837"><ele>289.0</ele><time>2026-04-22T08:18:35.679Z</time></trkpt><trkpt lat="46.3702971" lon="13.0319661"><ele>289.0</ele><time>2026-04-22T08:18:36.678Z</time></trkpt><trkpt lat="46.3701984" lon="13.0321027"><ele>289.0</ele><time>2026-04-22T08:18:37.678Z</time></trkpt><trkpt lat="46.3701004" lon="13.0322384"><ele>289.0</ele><time>2026-04-22T08:18:38.678Z</time></trkpt><trkpt lat="46.3699908" lon="13.0323653"><ele>288.75</ele><time>2026-04-22T08:18:39.678Z</time></trkpt><trkpt lat="46.369866" lon="13.032477"><ele>288.5</ele><time>2026-04-22T08:18:40.678Z</time></trkpt><trkpt lat="46.3697412" lon="13.0325603"><ele>288.25</ele><time>2026-04-22T08:18:41.678Z</time></trkpt><trkpt lat="46.3696163" lon="13.0326211"><ele>288.0</ele><time>2026-04-22T08:18:42.678Z</time></trkpt><trkpt lat="46.3694915" lon="13.0326698"><ele>288.0</ele><time>2026-04-22T08:18:43.678Z</time></trkpt><trkpt lat="46.3693727" lon="13.0327132"><ele>288.0</ele><time>2026-04-22T08:18:44.678Z</time></trkpt><trkpt lat="46.36926" lon="13.032752"><ele>288.0</ele><time>2026-04-22T08:18:45.678Z</time></trkpt><trkpt lat="46.3691477" lon="13.0327932"><ele>288.0</ele><time>2026-04-22T08:18:46.678Z</time></trkpt><trkpt lat="46.3690409" lon="13.0328322"><ele>288.0</ele><time>2026-04-22T08:18:47.678Z</time></trkpt><trkpt lat="46.368936" lon="13.0328675"><ele>288.0</ele><time>2026-04-22T08:18:48.678Z</time></trkpt><trkpt lat="46.3688296" lon="13.0329034"><ele>288.0</ele><time>2026-04-22T08:18:49.678Z</time></trkpt><trkpt lat="46.368734" lon="13.032942"><ele>288.0</ele><time>2026-04-22T08:18:50.678Z</time></trkpt><trkpt lat="46.3686512" lon="13.0329756"><ele>288.0</ele><time>2026-04-22T08:18:51.678Z</time></trkpt><trkpt lat="46.3685881" lon="13.0330007"><ele>287.5</ele><time>2026-04-22T08:18:52.678Z</time></trkpt><trkpt lat="46.3685106" lon="13.0329724"><ele>287.0</ele><time>2026-04-22T08:18:54.678Z</time></trkpt><trkpt lat="46.3684863" lon="13.0328537"><ele>286.5</ele><time>2026-04-22T08:18:56.678Z</time></trkpt><trkpt lat="46.368506" lon="13.0327069"><ele>286.0</ele><time>2026-04-22T08:18:58.68Z</time></trkpt><trkpt lat="46.3685221" lon="13.0325638"><ele>285.5</ele><time>2026-04-22T08:19:00.679Z</time></trkpt><trkpt lat="46.3685331" lon="13.0324688"><ele>285.0</ele><time>2026-04-22T08:19:01.678Z</time></trkpt><trkpt lat="46.3685389" lon="13.0323686"><ele>285.0</ele><time>2026-04-22T08:19:02.679Z</time></trkpt><trkpt lat="46.3685374" lon="13.0322656"><ele>285.0</ele><time>2026-04-22T08:19:03.679Z</time></trkpt><trkpt lat="46.3685328" lon="13.0321618"><ele>285.0</ele><time>2026-04-22T08:19:04.678Z</time></trkpt><trkpt lat="46.3685172" lon="13.0320477"><ele>285.0</ele><time>2026-04-22T08:19:05.679Z</time></trkpt><trkpt lat="46.3684967" lon="13.0319438"><ele>285.0</ele><time>2026-04-22T08:19:06.678Z</time></trkpt><trkpt lat="46.3684824" lon="13.0318356"><ele>285.0</ele><time>2026-04-22T08:19:07.679Z</time></trkpt><trkpt lat="46.3684559" lon="13.0317328"><ele>285.0</ele><time>2026-04-22T08:19:08.678Z</time></trkpt><trkpt lat="46.3684247" lon="13.0316388"><ele>285.0</ele><time>2026-04-22T08:19:09.678Z</time></trkpt><trkpt lat="46.3684072" lon="13.0315223"><ele>285.0</ele><time>2026-04-22T08:19:10.679Z</time></trkpt><trkpt lat="46.3684016" lon="13.0313992"><ele>285.0</ele><time>2026-04-22T08:19:11.678Z</time></trkpt><trkpt lat="46.3684" lon="13.0312764"><ele>285.0</ele><time>2026-04-22T08:19:12.678Z</time></trkpt><trkpt lat="46.3684009" lon="13.0311545"><ele>285.0</ele><time>2026-04-22T08:19:13.678Z</time></trkpt><trkpt lat="46.3684028" lon="13.0310307"><ele>285.0</ele><time>2026-04-22T08:19:14.679Z</time></trkpt><trkpt lat="46.3684127" lon="13.0309041"><ele>284.6</ele><time>2026-04-22T08:19:15.678Z</time></trkpt><trkpt lat="46.3684272" lon="13.0307825"><ele>284.2</ele><time>2026-04-22T08:19:16.678Z</time></trkpt><trkpt lat="46.3684385" lon="13.0306638"><ele>283.8</ele><time>2026-04-22T08:19:17.679Z</time></trkpt><trkpt lat="46.3684471" lon="13.0305473"><ele>283.4</ele><time>2026-04-22T08:19:18.678Z</time></trkpt><trkpt lat="46.3684567" lon="13.0303248"><ele>283.0</ele><time>2026-04-22T08:19:20.678Z</time></trkpt><trkpt lat="46.3684596" lon="13.030224"><ele>283.0</ele><time>2026-04-22T08:19:21.678Z</time></trkpt><trkpt lat="46.3684593" lon="13.030129"><ele>283.0</ele><time>2026-04-22T08:19:22.679Z</time></trkpt><trkpt lat="46.368482" lon="13.0299532"><ele>283.0</ele><time>2026-04-22T08:19:24.679Z</time></trkpt><trkpt lat="46.3685271" lon="13.0298807"><ele>283.0</ele><time>2026-04-22T08:19:25.679Z</time></trkpt><trkpt lat="46.368597" lon="13.0298346"><ele>283.0</ele><time>2026-04-22T08:19:26.678Z</time></trkpt><trkpt lat="46.3686826" lon="13.0298055"><ele>283.0</ele><time>2026-04-22T08:19:27.679Z</time></trkpt><trkpt lat="46.3687693" lon="13.0297635"><ele>282.8333333333333</ele><time>2026-04-22T08:19:28.678Z</time></trkpt><trkpt lat="46.368857" lon="13.0297191"><ele>282.66666666666663</ele><time>2026-04-22T08:19:29.678Z</time></trkpt><trkpt lat="46.3689364" lon="13.0296867"><ele>282.5</ele><time>2026-04-22T08:19:30.678Z</time></trkpt><trkpt lat="46.3690145" lon="13.0296498"><ele>282.3333333333333</ele><time>2026-04-22T08:19:31.678Z</time></trkpt><trkpt lat="46.3691008" lon="13.0296188"><ele>282.1666666666667</ele><time>2026-04-22T08:19:32.678Z</time></trkpt><trkpt lat="46.369189" lon="13.0295937"><ele>282.0</ele><time>2026-04-22T08:19:33.678Z</time></trkpt><trkpt lat="46.3692712" lon="13.0295716"><ele>282.0</ele><time>2026-04-22T08:19:34.678Z</time></trkpt><trkpt lat="46.3693627" lon="13.0295363"><ele>282.0</ele><time>2026-04-22T08:19:35.678Z</time></trkpt><trkpt lat="46.3694457" lon="13.0295015"><ele>282.0</ele><time>2026-04-22T08:19:36.679Z</time></trkpt><trkpt lat="46.3695297" lon="13.0294792"><ele>282.0</ele><time>2026-04-22T08:19:37.678Z</time></trkpt><trkpt lat="46.3696155" lon="13.0294519"><ele>282.0</ele><time>2026-04-22T08:19:38.678Z</time></trkpt><trkpt lat="46.369697" lon="13.0294321"><ele>282.0</ele><time>2026-04-22T08:19:39.68Z</time></trkpt><trkpt lat="46.3697798" lon="13.0294142"><ele>283.1666666666667</ele><time>2026-04-22T08:19:40.679Z</time></trkpt><trkpt lat="46.3698558" lon="13.0293841"><ele>284.3333333333333</ele><time>2026-04-22T08:19:41.678Z</time></trkpt><trkpt lat="46.3699387" lon="13.0293568"><ele>285.5</ele><time>2026-04-22T08:19:42.68Z</time></trkpt><trkpt lat="46.3700202" lon="13.0293333"><ele>286.66666666666663</ele><time>2026-04-22T08:19:43.678Z</time></trkpt><trkpt lat="46.3701064" lon="13.0293062"><ele>287.8333333333333</ele><time>2026-04-22T08:19:44.679Z</time></trkpt><trkpt lat="46.370195" lon="13.0292614"><ele>289.0</ele><time>2026-04-22T08:19:45.678Z</time></trkpt><trkpt lat="46.3702801" lon="13.0292182"><ele>289.0</ele><time>2026-04-22T08:19:46.679Z</time></trkpt><trkpt lat="46.3703631" lon="13.0291745"><ele>289.0</ele><time>2026-04-22T08:19:47.678Z</time></trkpt><trkpt lat="46.3704414" lon="13.0291325"><ele>289.0</ele><time>2026-04-22T08:19:48.678Z</time></trkpt><trkpt lat="46.3705178" lon="13.0290955"><ele>289.0</ele><time>2026-04-22T08:19:49.679Z</time></trkpt><trkpt lat="46.3705912" lon="13.0290602"><ele>289.0</ele><time>2026-04-22T08:19:50.678Z</time></trkpt><trkpt lat="46.3706659" lon="13.0290199"><ele>289.0</ele><time>2026-04-22T08:19:51.678Z</time></trkpt><trkpt lat="46.3707502" lon="13.0289673"><ele>290.0</ele><time>2026-04-22T08:19:52.678Z</time></trkpt><trkpt lat="46.3708282" lon="13.0289217"><ele>291.0</ele><time>2026-04-22T08:19:53.678Z</time></trkpt><trkpt lat="46.3709002" lon="13.0288749"><ele>292.0</ele><time>2026-04-22T08:19:54.679Z</time></trkpt><trkpt lat="46.3709721" lon="13.0288365"><ele>293.0</ele><time>2026-04-22T08:19:55.678Z</time></trkpt><trkpt lat="46.371045" lon="13.0288047"><ele>294.0</ele><time>2026-04-22T08:19:56.678Z</time></trkpt><trkpt lat="46.3711203" lon="13.0287796"><ele>295.0</ele><time>2026-04-22T08:19:57.678Z</time></trkpt><trkpt lat="46.3711835" lon="13.0287604"><ele>295.0</ele><time>2026-04-22T08:19:58.678Z</time></trkpt><trkpt lat="46.3712677" lon="13.0287355"><ele>295.0</ele><time>2026-04-22T08:20:00.679Z</time></trkpt><trkpt lat="46.3713537" lon="13.0287071"><ele>295.0</ele><time>2026-04-22T08:20:03.678Z</time></trkpt><trkpt lat="46.3714242" lon="13.0286592"><ele>295.0</ele><time>2026-04-22T08:20:05.679Z</time></trkpt><trkpt lat="46.3714824" lon="13.0286066"><ele>295.0</ele><time>2026-04-22T08:20:08.679Z</time></trkpt><trkpt lat="46.3715841" lon="13.0286102"><ele>295.0</ele><time>2026-04-22T08:20:11.678Z</time></trkpt><trkpt lat="46.371657" lon="13.0286156"><ele>294.66666666666663</ele><time>2026-04-22T08:20:13.679Z</time></trkpt><trkpt lat="46.3717271" lon="13.0286317"><ele>294.3333333333333</ele><time>2026-04-22T08:20:16.679Z</time></trkpt><trkpt lat="46.3718163" lon="13.0286324"><ele>294.0</ele><time>2026-04-22T08:20:19.679Z</time></trkpt><trkpt lat="46.3719006" lon="13.028658"><ele>293.6666666666667</ele><time>2026-04-22T08:20:22.678Z</time></trkpt><trkpt lat="46.3719886" lon="13.0286666"><ele>293.33333333333337</ele><time>2026-04-22T08:20:25.678Z</time></trkpt><trkpt lat="46.3720809" lon="13.0286961"><ele>293.0</ele><time>2026-04-22T08:20:27.678Z</time></trkpt><trkpt lat="46.3721696" lon="13.028714"><ele>292.6666666666667</ele><time>2026-04-22T08:20:29.679Z</time></trkpt><trkpt lat="46.3722561" lon="13.0287231"><ele>292.33333333333337</ele><time>2026-04-22T08:20:31.678Z</time></trkpt><trkpt lat="46.3723383" lon="13.0287388"><ele>292.0</ele><time>2026-04-22T08:20:33.678Z</time></trkpt><trkpt lat="46.3724219" lon="13.0287419"><ele>291.6666666666667</ele><time>2026-04-22T08:20:35.678Z</time></trkpt><trkpt lat="46.3725418" lon="13.0287206"><ele>291.3333333333333</ele><time>2026-04-22T08:20:37.678Z</time></trkpt><trkpt lat="46.3726082" lon="13.028701"><ele>291.0</ele><time>2026-04-22T08:20:38.679Z</time></trkpt><trkpt lat="46.3727191" lon="13.0286642"><ele>291.0</ele><time>2026-04-22T08:20:40.678Z</time></trkpt><trkpt lat="46.3728089" lon="13.0286327"><ele>291.0</ele><time>2026-04-22T08:20:42.678Z</time></trkpt><trkpt lat="46.3728923" lon="13.0286024"><ele>291.0</ele><time>2026-04-22T08:20:44.678Z</time></trkpt><trkpt lat="46.3729642" lon="13.0285787"><ele>291.0</ele><time>2026-04-22T08:20:46.679Z</time></trkpt><trkpt lat="46.3730362" lon="13.0285271"><ele>291.0</ele><time>2026-04-22T08:20:49.678Z</time></trkpt><trkpt lat="46.3729314" lon="13.0285726"><ele>291.0</ele><time>2026-04-22T08:21:01.678Z</time></trkpt><trkpt lat="46.3728723" lon="13.0286072"><ele>291.0</ele><time>2026-04-22T08:21:02.678Z</time></trkpt><trkpt lat="46.3727905" lon="13.0286501"><ele>291.0</ele><time>2026-04-22T08:21:03.677Z</time></trkpt><trkpt lat="46.3727127" lon="13.028674"><ele>291.0</ele><time>2026-04-22T08:21:04.677Z</time></trkpt><trkpt lat="46.3726298" lon="13.0287058"><ele>291.0</ele><time>2026-04-22T08:21:05.678Z</time></trkpt><trkpt lat="46.372545" lon="13.0287265"><ele>291.0</ele><time>2026-04-22T08:21:06.677Z</time></trkpt><trkpt lat="46.3724561" lon="13.0287398"><ele>291.0</ele><time>2026-04-22T08:21:07.677Z</time></trkpt><trkpt lat="46.3723759" lon="13.0287473"><ele>291.0</ele><time>2026-04-22T08:21:08.677Z</time></trkpt><trkpt lat="46.372291" lon="13.0287368"><ele>291.0</ele><time>2026-04-22T08:21:09.679Z</time></trkpt><trkpt lat="46.3721963" lon="13.0287152"><ele>291.0</ele><time>2026-04-22T08:21:10.677Z</time></trkpt><trkpt lat="46.372123" lon="13.0287003"><ele>291.0</ele><time>2026-04-22T08:21:11.677Z</time></trkpt><trkpt lat="46.3720471" lon="13.0286851"><ele>291.0</ele><time>2026-04-22T08:21:12.677Z</time></trkpt><trkpt lat="46.3719674" lon="13.0286637"><ele>291.0</ele><time>2026-04-22T08:21:13.677Z</time></trkpt><trkpt lat="46.3719029" lon="13.0286441"><ele>291.40000000000003</ele><time>2026-04-22T08:21:14.677Z</time></trkpt><trkpt lat="46.3718133" lon="13.0286125"><ele>291.8</ele><time>2026-04-22T08:21:16.677Z</time></trkpt><trkpt lat="46.3716876" lon="13.0286256"><ele>292.20000000000005</ele><time>2026-04-22T08:21:18.677Z</time></trkpt><trkpt lat="46.371607" lon="13.0286171"><ele>292.6</ele><time>2026-04-22T08:21:19.678Z</time></trkpt><trkpt lat="46.3715426" lon="13.0286108"><ele>293.0</ele><time>2026-04-22T08:21:20.677Z</time></trkpt><trkpt lat="46.3714171" lon="13.0286664"><ele>293.4</ele><time>2026-04-22T08:21:22.678Z</time></trkpt><trkpt lat="46.3713567" lon="13.0286989"><ele>293.8</ele><time>2026-04-22T08:21:23.677Z</time></trkpt><trkpt lat="46.3712887" lon="13.0287315"><ele>294.2</ele><time>2026-04-22T08:21:24.677Z</time></trkpt><trkpt lat="46.3711733" lon="13.0287521"><ele>294.6</ele><time>2026-04-22T08:21:25.677Z</time></trkpt><trkpt lat="46.3710739" lon="13.0287838"><ele>295.0</ele><time>2026-04-22T08:21:26.678Z</time></trkpt><trkpt lat="46.3709652" lon="13.028836"><ele>295.0</ele><time>2026-04-22T08:21:27.677Z</time></trkpt><trkpt lat="46.3708648" lon="13.0288921"><ele>295.0</ele><time>2026-04-22T08:21:28.677Z</time></trkpt><trkpt lat="46.3707612" lon="13.0289492"><ele>295.0</ele><time>2026-04-22T08:21:29.678Z</time></trkpt><trkpt lat="46.370652" lon="13.0290078"><ele>295.0</ele><time>2026-04-22T08:21:30.677Z</time></trkpt><trkpt lat="46.3705501" lon="13.0290578"><ele>295.0</ele><time>2026-04-22T08:21:31.677Z</time></trkpt><trkpt lat="46.3704446" lon="13.0291103"><ele>293.8</ele><time>2026-04-22T08:21:32.677Z</time></trkpt><trkpt lat="46.3703474" lon="13.0291601"><ele>292.6</ele><time>2026-04-22T08:21:33.677Z</time></trkpt><trkpt lat="46.3702445" lon="13.0292176"><ele>291.4</ele><time>2026-04-22T08:21:34.677Z</time></trkpt><trkpt lat="46.3701532" lon="13.0292642"><ele>290.2</ele><time>2026-04-22T08:21:35.678Z</time></trkpt><trkpt lat="46.3700385" lon="13.029317"><ele>289.0</ele><time>2026-04-22T08:21:36.677Z</time></trkpt><trkpt lat="46.3699359" lon="13.0293544"><ele>289.0</ele><time>2026-04-22T08:21:37.679Z</time></trkpt><trkpt lat="46.3698248" lon="13.0293852"><ele>289.0</ele><time>2026-04-22T08:21:38.677Z</time></trkpt><trkpt lat="46.3696984" lon="13.0294194"><ele>289.0</ele><time>2026-04-22T08:21:39.677Z</time></trkpt><trkpt lat="46.3695906" lon="13.0294415"><ele>289.0</ele><time>2026-04-22T08:21:40.678Z</time></trkpt><trkpt lat="46.3694886" lon="13.02947"><ele>287.25</ele><time>2026-04-22T08:21:41.678Z</time></trkpt><trkpt lat="46.369383" lon="13.0295201"><ele>285.5</ele><time>2026-04-22T08:21:42.678Z</time></trkpt><trkpt lat="46.3692778" lon="13.0295646"><ele>283.75</ele><time>2026-04-22T08:21:43.678Z</time></trkpt><trkpt lat="46.3691668" lon="13.0296152"><ele>282.0</ele><time>2026-04-22T08:21:44.678Z</time></trkpt><trkpt lat="46.3690354" lon="13.0296581"><ele>282.0</ele><time>2026-04-22T08:21:45.677Z</time></trkpt><trkpt lat="46.368916" lon="13.0297139"><ele>282.0</ele><time>2026-04-22T08:21:46.678Z</time></trkpt><trkpt lat="46.3687998" lon="13.0297638"><ele>282.0</ele><time>2026-04-22T08:21:47.677Z</time></trkpt><trkpt lat="46.3687001" lon="13.0298032"><ele>282.0</ele><time>2026-04-22T08:21:48.677Z</time></trkpt><trkpt lat="46.3686091" lon="13.0298343"><ele>282.0</ele><time>2026-04-22T08:21:49.678Z</time></trkpt><trkpt lat="46.3685439" lon="13.0298787"><ele>282.2</ele><time>2026-04-22T08:21:50.677Z</time></trkpt><trkpt lat="46.3684703" lon="13.0300337"><ele>282.4</ele><time>2026-04-22T08:21:52.677Z</time></trkpt><trkpt lat="46.3684647" lon="13.0301622"><ele>282.6</ele><time>2026-04-22T08:21:53.678Z</time></trkpt><trkpt lat="46.3684603" lon="13.0303099"><ele>282.8</ele><time>2026-04-22T08:21:54.677Z</time></trkpt><trkpt lat="46.3684494" lon="13.0304631"><ele>283.0</ele><time>2026-04-22T08:21:55.677Z</time></trkpt><trkpt lat="46.3684345" lon="13.0306486"><ele>283.5</ele><time>2026-04-22T08:21:56.678Z</time></trkpt><trkpt lat="46.368422" lon="13.030808"><ele>284.0</ele><time>2026-04-22T08:21:57.677Z</time></trkpt><trkpt lat="46.3684091" lon="13.0309713"><ele>284.5</ele><time>2026-04-22T08:21:58.678Z</time></trkpt><trkpt lat="46.3683991" lon="13.0311474"><ele>285.0</ele><time>2026-04-22T08:21:59.678Z</time></trkpt><trkpt lat="46.3683969" lon="13.0313097"><ele>285.0</ele><time>2026-04-22T08:22:00.677Z</time></trkpt><trkpt lat="46.368399" lon="13.0314608"><ele>285.0</ele><time>2026-04-22T08:22:01.677Z</time></trkpt><trkpt lat="46.368423" lon="13.0316103"><ele>285.0</ele><time>2026-04-22T08:22:02.679Z</time></trkpt><trkpt lat="46.3684636" lon="13.0317619"><ele>285.0</ele><time>2026-04-22T08:22:03.677Z</time></trkpt><trkpt lat="46.3684873" lon="13.0319038"><ele>285.0</ele><time>2026-04-22T08:22:04.677Z</time></trkpt><trkpt lat="46.3685118" lon="13.0320457"><ele>285.0</ele><time>2026-04-22T08:22:05.678Z</time></trkpt><trkpt lat="46.3685297" lon="13.0321949"><ele>285.0</ele><time>2026-04-22T08:22:06.677Z</time></trkpt><trkpt lat="46.3685334" lon="13.032349"><ele>285.0</ele><time>2026-04-22T08:22:07.677Z</time></trkpt><trkpt lat="46.3685243" lon="13.0325073"><ele>285.0</ele><time>2026-04-22T08:22:08.678Z</time></trkpt><trkpt lat="46.3685132" lon="13.032637"><ele>285.0</ele><time>2026-04-22T08:22:09.677Z</time></trkpt><trkpt lat="46.3685009" lon="13.0327549"><ele>284.8333333333333</ele><time>2026-04-22T08:22:10.677Z</time></trkpt><trkpt lat="46.3684882" lon="13.0329064"><ele>284.6666666666667</ele><time>2026-04-22T08:22:12.677Z</time></trkpt><trkpt lat="46.3684607" lon="13.0330021"><ele>284.5</ele><time>2026-04-22T08:22:45.677Z</time></trkpt><trkpt lat="46.3683809" lon="13.0330597"><ele>284.33333333333337</ele><time>2026-04-22T08:22:47.678Z</time></trkpt><trkpt lat="46.3683028" lon="13.0330867"><ele>284.1666666666667</ele><time>2026-04-22T08:22:48.677Z</time></trkpt><trkpt lat="46.3682069" lon="13.0331262"><ele>284.0</ele><time>2026-04-22T08:22:49.678Z</time></trkpt><trkpt lat="46.3680958" lon="13.0331702"><ele>284.2</ele><time>2026-04-22T08:22:50.678Z</time></trkpt><trkpt lat="46.3679992" lon="13.0332093"><ele>284.4</ele><time>2026-04-22T08:22:51.678Z</time></trkpt><trkpt lat="46.3679076" lon="13.033244"><ele>284.6</ele><time>2026-04-22T08:22:52.678Z</time></trkpt><trkpt lat="46.3678248" lon="13.0332797"><ele>284.8</ele><time>2026-04-22T08:22:53.677Z</time></trkpt><trkpt lat="46.367744" lon="13.0333213"><ele>285.0</ele><time>2026-04-22T08:22:54.677Z</time></trkpt><trkpt lat="46.3676598" lon="13.0333628"><ele>285.2</ele><time>2026-04-22T08:22:55.678Z</time></trkpt><trkpt lat="46.3675699" lon="13.0334123"><ele>285.4</ele><time>2026-04-22T08:22:56.677Z</time></trkpt><trkpt lat="46.3674706" lon="13.0334687"><ele>285.6</ele><time>2026-04-22T08:22:57.677Z</time></trkpt><trkpt lat="46.3673747" lon="13.0335245"><ele>285.8</ele><time>2026-04-22T08:22:58.677Z</time></trkpt><trkpt lat="46.3672769" lon="13.0335928"><ele>286.0</ele><time>2026-04-22T08:22:59.678Z</time></trkpt><trkpt lat="46.367179" lon="13.03367"><ele>285.25</ele><time>2026-04-22T08:23:00.677Z</time></trkpt><trkpt lat="46.3670783" lon="13.0337568"><ele>284.5</ele><time>2026-04-22T08:23:01.678Z</time></trkpt><trkpt lat="46.3669743" lon="13.0338484"><ele>283.75</ele><time>2026-04-22T08:23:02.678Z</time></trkpt><trkpt lat="46.3668695" lon="13.0339466"><ele>283.0</ele><time>2026-04-22T08:23:03.677Z</time></trkpt><trkpt lat="46.366764" lon="13.0340559"><ele>283.25</ele><time>2026-04-22T08:23:04.677Z</time></trkpt><trkpt lat="46.3666604" lon="13.034176"><ele>283.5</ele><time>2026-04-22T08:23:05.678Z</time></trkpt><trkpt lat="46.3665578" lon="13.0343069"><ele>283.75</ele><time>2026-04-22T08:23:06.677Z</time></trkpt><trkpt lat="46.3664573" lon="13.0344501"><ele>284.0</ele><time>2026-04-22T08:23:07.678Z</time></trkpt><trkpt lat="46.3663596" lon="13.0346034"><ele>285.0</ele><time>2026-04-22T08:23:08.679Z</time></trkpt><trkpt lat="46.3662609" lon="13.0347652"><ele>286.0</ele><time>2026-04-22T08:23:09.677Z</time></trkpt><trkpt lat="46.3661605" lon="13.0349338"><ele>287.0</ele><time>2026-04-22T08:23:10.677Z</time></trkpt><trkpt lat="46.3660658" lon="13.0351028"><ele>287.33333333333337</ele><time>2026-04-22T08:23:11.677Z</time></trkpt><trkpt lat="46.3659739" lon="13.0352797"><ele>287.6666666666667</ele><time>2026-04-22T08:23:12.678Z</time></trkpt><trkpt lat="46.3658831" lon="13.035484"><ele>288.0</ele><time>2026-04-22T08:23:13.678Z</time></trkpt><trkpt lat="46.3657935" lon="13.0357092"><ele>288.3333333333333</ele><time>2026-04-22T08:23:14.677Z</time></trkpt><trkpt lat="46.3657144" lon="13.0359242"><ele>288.66666666666663</ele><time>2026-04-22T08:23:15.677Z</time></trkpt><trkpt lat="46.3656415" lon="13.0361459"><ele>289.0</ele><time>2026-04-22T08:23:16.677Z</time></trkpt><trkpt lat="46.3655736" lon="13.0363693"><ele>288.66666666666663</ele><time>2026-04-22T08:23:17.678Z</time></trkpt><trkpt lat="46.3655121" lon="13.0365912"><ele>288.3333333333333</ele><time>2026-04-22T08:23:18.677Z</time></trkpt><trkpt lat="46.3654498" lon="13.0368145"><ele>288.0</ele><time>2026-04-22T08:23:19.677Z</time></trkpt><trkpt lat="46.3653882" lon="13.0370375"><ele>288.0</ele><time>2026-04-22T08:23:20.677Z</time></trkpt><trkpt lat="46.3653263" lon="13.0372602"><ele>288.0</ele><time>2026-04-22T08:23:21.677Z</time></trkpt><trkpt lat="46.3652627" lon="13.0374815"><ele>288.0</ele><time>2026-04-22T08:23:22.677Z</time></trkpt><trkpt lat="46.3652008" lon="13.0377028"><ele>287.6666666666667</ele><time>2026-04-22T08:23:23.677Z</time></trkpt><trkpt lat="46.3651396" lon="13.0379215"><ele>287.33333333333337</ele><time>2026-04-22T08:23:24.678Z</time></trkpt><trkpt lat="46.3650789" lon="13.0381399"><ele>287.0</ele><time>2026-04-22T08:23:25.677Z</time></trkpt><trkpt lat="46.3650186" lon="13.0383567"><ele>286.6666666666667</ele><time>2026-04-22T08:23:26.677Z</time></trkpt><trkpt lat="46.3649582" lon="13.0385749"><ele>286.3333333333333</ele><time>2026-04-22T08:23:27.677Z</time></trkpt><trkpt lat="46.3648964" lon="13.0387935"><ele>286.0</ele><time>2026-04-22T08:23:28.677Z</time></trkpt><trkpt lat="46.3648336" lon="13.0390104"><ele>285.0</ele><time>2026-04-22T08:23:29.678Z</time></trkpt><trkpt lat="46.3647713" lon="13.0392285"><ele>284.0</ele><time>2026-04-22T08:23:30.677Z</time></trkpt><trkpt lat="46.3647111" lon="13.0394442"><ele>283.0</ele><time>2026-04-22T08:23:31.677Z</time></trkpt><trkpt lat="46.3646496" lon="13.0396563"><ele>288.0</ele><time>2026-04-22T08:23:32.677Z</time></trkpt><trkpt lat="46.364589" lon="13.0398657"><ele>293.0</ele><time>2026-04-22T08:23:33.677Z</time></trkpt><trkpt lat="46.3645318" lon="13.0400728"><ele>298.0</ele><time>2026-04-22T08:23:34.677Z</time></trkpt><trkpt lat="46.3644763" lon="13.0402784"><ele>298.0</ele><time>2026-04-22T08:23:35.677Z</time></trkpt><trkpt lat="46.3644188" lon="13.0404785"><ele>298.0</ele><time>2026-04-22T08:23:36.677Z</time></trkpt><trkpt lat="46.3643597" lon="13.0406754"><ele>298.0</ele><time>2026-04-22T08:23:37.677Z</time></trkpt><trkpt lat="46.3642955" lon="13.0408674"><ele>298.0</ele><time>2026-04-22T08:23:38.678Z</time></trkpt><trkpt lat="46.3642254" lon="13.0410548"><ele>295.66666666666663</ele><time>2026-04-22T08:23:39.677Z</time></trkpt><trkpt lat="46.3641498" lon="13.0412472"><ele>293.3333333333333</ele><time>2026-04-22T08:23:40.677Z</time></trkpt><trkpt lat="46.3640612" lon="13.0414688"><ele>291.0</ele><time>2026-04-22T08:23:41.677Z</time></trkpt><trkpt lat="46.3639761" lon="13.0416864"><ele>290.3333333333333</ele><time>2026-04-22T08:23:42.677Z</time></trkpt><trkpt lat="46.3638906" lon="13.0419042"><ele>289.66666666666663</ele><time>2026-04-22T08:23:43.678Z</time></trkpt><trkpt lat="46.363805" lon="13.0421191"><ele>289.0</ele><time>2026-04-22T08:23:44.677Z</time></trkpt><trkpt lat="46.3637198" lon="13.0423321"><ele>296.0</ele><time>2026-04-22T08:23:45.678Z</time></trkpt><trkpt lat="46.3636377" lon="13.0425493"><ele>303.0</ele><time>2026-04-22T08:23:46.678Z</time></trkpt><trkpt lat="46.3635513" lon="13.0427681"><ele>310.0</ele><time>2026-04-22T08:23:47.677Z</time></trkpt><trkpt lat="46.3634552" lon="13.0429833"><ele>310.0</ele><time>2026-04-22T08:23:48.677Z</time></trkpt><trkpt lat="46.3633477" lon="13.0431927"><ele>310.0</ele><time>2026-04-22T08:23:49.677Z</time></trkpt><trkpt lat="46.3632257" lon="13.0433994"><ele>310.0</ele><time>2026-04-22T08:23:50.677Z</time></trkpt><trkpt lat="46.3630932" lon="13.0435973"><ele>311.3333333333333</ele><time>2026-04-22T08:23:51.677Z</time></trkpt><trkpt lat="46.3629625" lon="13.0437939"><ele>312.6666666666667</ele><time>2026-04-22T08:23:52.678Z</time></trkpt><trkpt lat="46.3628239" lon="13.0439738"><ele>314.0</ele><time>2026-04-22T08:23:53.677Z</time></trkpt><trkpt lat="46.3626889" lon="13.044159"><ele>310.33333333333337</ele><time>2026-04-22T08:23:54.677Z</time></trkpt><trkpt lat="46.3625544" lon="13.0443392"><ele>306.6666666666667</ele><time>2026-04-22T08:23:55.678Z</time></trkpt><trkpt lat="46.3624211" lon="13.0445194"><ele>303.0</ele><time>2026-04-22T08:23:56.678Z</time></trkpt><trkpt lat="46.3622829" lon="13.0447001"><ele>305.6666666666667</ele><time>2026-04-22T08:23:57.677Z</time></trkpt><trkpt lat="46.3621322" lon="13.0448679"><ele>308.33333333333337</ele><time>2026-04-22T08:23:58.678Z</time></trkpt><trkpt lat="46.3619705" lon="13.0450123"><ele>311.0</ele><time>2026-04-22T08:23:59.677Z</time></trkpt><trkpt lat="46.3618062" lon="13.0451187"><ele>311.0</ele><time>2026-04-22T08:24:00.677Z</time></trkpt><trkpt lat="46.3616419" lon="13.0452128"><ele>311.0</ele><time>2026-04-22T08:24:01.678Z</time></trkpt><trkpt lat="46.361479" lon="13.0452944"><ele>311.0</ele><time>2026-04-22T08:24:02.677Z</time></trkpt><trkpt lat="46.3613291" lon="13.0453643"><ele>309.0</ele><time>2026-04-22T08:24:03.677Z</time></trkpt><trkpt lat="46.3611924" lon="13.0454293"><ele>307.0</ele><time>2026-04-22T08:24:04.678Z</time></trkpt><trkpt lat="46.3610683" lon="13.0454922"><ele>305.0</ele><time>2026-04-22T08:24:05.677Z</time></trkpt><trkpt lat="46.3609506" lon="13.0455472"><ele>303.0</ele><time>2026-04-22T08:24:06.677Z</time></trkpt><trkpt lat="46.3608485" lon="13.0456269"><ele>303.0</ele><time>2026-04-22T08:24:07.678Z</time></trkpt><trkpt lat="46.3607682" lon="13.0457619"><ele>303.0</ele><time>2026-04-22T08:24:08.677Z</time></trkpt><trkpt lat="46.3607135" lon="13.0459547"><ele>303.0</ele><time>2026-04-22T08:24:09.677Z</time></trkpt><trkpt lat="46.360678" lon="13.0461859"><ele>303.0</ele><time>2026-04-22T08:24:10.677Z</time></trkpt><trkpt lat="46.3606427" lon="13.0464379"><ele>303.0</ele><time>2026-04-22T08:24:11.678Z</time></trkpt><trkpt lat="46.3606039" lon="13.0466808"><ele>303.0</ele><time>2026-04-22T08:24:12.678Z</time></trkpt><trkpt lat="46.3605581" lon="13.0469232"><ele>303.0</ele><time>2026-04-22T08:24:13.678Z</time></trkpt><trkpt lat="46.3605046" lon="13.0471594"><ele>295.6666666666667</ele><time>2026-04-22T08:24:14.678Z</time></trkpt><trkpt lat="46.3604435" lon="13.0473883"><ele>288.33333333333337</ele><time>2026-04-22T08:24:15.677Z</time></trkpt><trkpt lat="46.3603856" lon="13.0476135"><ele>281.0</ele><time>2026-04-22T08:24:16.677Z</time></trkpt><trkpt lat="46.3603279" lon="13.047837"><ele>281.0</ele><time>2026-04-22T08:24:17.677Z</time></trkpt><trkpt lat="46.3602884" lon="13.0480718"><ele>281.0</ele><time>2026-04-22T08:24:18.677Z</time></trkpt><trkpt lat="46.3602592" lon="13.0483244"><ele>281.0</ele><time>2026-04-22T08:24:19.678Z</time></trkpt><trkpt lat="46.3602254" lon="13.0485696"><ele>283.0</ele><time>2026-04-22T08:24:20.677Z</time></trkpt><trkpt lat="46.3601877" lon="13.0488097"><ele>285.0</ele><time>2026-04-22T08:24:21.677Z</time></trkpt><trkpt lat="46.3601484" lon="13.0490465"><ele>287.0</ele><time>2026-04-22T08:24:22.678Z</time></trkpt><trkpt lat="46.3601105" lon="13.0492818"><ele>287.6666666666667</ele><time>2026-04-22T08:24:23.677Z</time></trkpt><trkpt lat="46.3600685" lon="13.0495182"><ele>288.3333333333333</ele><time>2026-04-22T08:24:24.678Z</time></trkpt><trkpt lat="46.3600269" lon="13.049755"><ele>289.0</ele><time>2026-04-22T08:24:25.678Z</time></trkpt><trkpt lat="46.3599851" lon="13.0499909"><ele>291.3333333333333</ele><time>2026-04-22T08:24:26.679Z</time></trkpt><trkpt lat="46.3599425" lon="13.0502232"><ele>293.6666666666667</ele><time>2026-04-22T08:24:27.677Z</time></trkpt><trkpt lat="46.3599007" lon="13.0504539"><ele>296.0</ele><time>2026-04-22T08:24:28.678Z</time></trkpt><trkpt lat="46.3598604" lon="13.0506794"><ele>296.6666666666667</ele><time>2026-04-22T08:24:29.677Z</time></trkpt><trkpt lat="46.3598108" lon="13.0508993"><ele>297.3333333333333</ele><time>2026-04-22T08:24:30.678Z</time></trkpt><trkpt lat="46.3597469" lon="13.051109"><ele>298.0</ele><time>2026-04-22T08:24:31.677Z</time></trkpt><trkpt lat="46.359664" lon="13.051308"><ele>291.66666666666663</ele><time>2026-04-22T08:24:32.678Z</time></trkpt><trkpt lat="46.3595753" lon="13.0514966"><ele>285.3333333333333</ele><time>2026-04-22T08:24:33.677Z</time></trkpt><trkpt lat="46.3594823" lon="13.0516798"><ele>279.0</ele><time>2026-04-22T08:24:34.677Z</time></trkpt><trkpt lat="46.35939" lon="13.0518589"><ele>279.0</ele><time>2026-04-22T08:24:35.677Z</time></trkpt><trkpt lat="46.3592948" lon="13.0520359"><ele>279.0</ele><time>2026-04-22T08:24:36.677Z</time></trkpt><trkpt lat="46.3591926" lon="13.0522138"><ele>279.0</ele><time>2026-04-22T08:24:37.677Z</time></trkpt><trkpt lat="46.3590832" lon="13.0523894"><ele>278.6666666666667</ele><time>2026-04-22T08:24:38.677Z</time></trkpt><trkpt lat="46.3589734" lon="13.0525558"><ele>278.33333333333337</ele><time>2026-04-22T08:24:39.678Z</time></trkpt><trkpt lat="46.3588591" lon="13.0527111"><ele>278.0</ele><time>2026-04-22T08:24:40.677Z</time></trkpt><trkpt lat="46.3587417" lon="13.052862"><ele>278.0</ele><time>2026-04-22T08:24:41.678Z</time></trkpt><trkpt lat="46.3586227" lon="13.0530068"><ele>278.0</ele><time>2026-04-22T08:24:42.677Z</time></trkpt><trkpt lat="46.358501" lon="13.0531466"><ele>278.0</ele><time>2026-04-22T08:24:43.677Z</time></trkpt><trkpt lat="46.358379" lon="13.0532806"><ele>280.0</ele><time>2026-04-22T08:24:44.677Z</time></trkpt><trkpt lat="46.3582552" lon="13.0534074"><ele>282.0</ele><time>2026-04-22T08:24:45.677Z</time></trkpt><trkpt lat="46.3581267" lon="13.0535224"><ele>284.0</ele><time>2026-04-22T08:24:46.677Z</time></trkpt><trkpt lat="46.357985" lon="13.053645"><ele>287.6666666666667</ele><time>2026-04-22T08:24:47.679Z</time></trkpt><trkpt lat="46.3578428" lon="13.0537571"><ele>291.3333333333333</ele><time>2026-04-22T08:24:48.677Z</time></trkpt><trkpt lat="46.3577051" lon="13.0538713"><ele>295.0</ele><time>2026-04-22T08:24:49.677Z</time></trkpt><trkpt lat="46.3575778" lon="13.0539967"><ele>294.25</ele><time>2026-04-22T08:24:50.677Z</time></trkpt><trkpt lat="46.357465" lon="13.0541389"><ele>293.5</ele><time>2026-04-22T08:24:51.678Z</time></trkpt><trkpt lat="46.3573743" lon="13.0542977"><ele>292.75</ele><time>2026-04-22T08:24:52.677Z</time></trkpt><trkpt lat="46.3573097" lon="13.0544744"><ele>292.0</ele><time>2026-04-22T08:24:53.677Z</time></trkpt><trkpt lat="46.3572696" lon="13.0546727"><ele>292.0</ele><time>2026-04-22T08:24:54.677Z</time></trkpt><trkpt lat="46.3572547" lon="13.0548996"><ele>292.0</ele><time>2026-04-22T08:24:55.677Z</time></trkpt><trkpt lat="46.3572609" lon="13.0551136"><ele>292.0</ele><time>2026-04-22T08:24:56.678Z</time></trkpt><trkpt lat="46.3572732" lon="13.0553109"><ele>292.0</ele><time>2026-04-22T08:24:57.677Z</time></trkpt><trkpt lat="46.3572843" lon="13.055492"><ele>293.0</ele><time>2026-04-22T08:24:58.677Z</time></trkpt><trkpt lat="46.3573022" lon="13.055682"><ele>294.0</ele><time>2026-04-22T08:24:59.677Z</time></trkpt><trkpt lat="46.357312" lon="13.0558575"><ele>295.0</ele><time>2026-04-22T08:25:00.677Z</time></trkpt><trkpt lat="46.3573071" lon="13.0560256"><ele>296.0</ele><time>2026-04-22T08:25:01.678Z</time></trkpt><trkpt lat="46.3572902" lon="13.0562046"><ele>297.75</ele><time>2026-04-22T08:25:02.677Z</time></trkpt><trkpt lat="46.3572555" lon="13.0563819"><ele>299.5</ele><time>2026-04-22T08:25:03.677Z</time></trkpt><trkpt lat="46.3572137" lon="13.0565535"><ele>301.25</ele><time>2026-04-22T08:25:04.678Z</time></trkpt><trkpt lat="46.3571732" lon="13.0567179"><ele>303.0</ele><time>2026-04-22T08:25:05.679Z</time></trkpt><trkpt lat="46.3571313" lon="13.0568719"><ele>310.75</ele><time>2026-04-22T08:25:06.677Z</time></trkpt><trkpt lat="46.3570701" lon="13.057003"><ele>318.5</ele><time>2026-04-22T08:25:07.677Z</time></trkpt><trkpt lat="46.3570056" lon="13.057151"><ele>326.25</ele><time>2026-04-22T08:25:08.679Z</time></trkpt><trkpt lat="46.3569525" lon="13.0573546"><ele>334.0</ele><time>2026-04-22T08:25:09.678Z</time></trkpt><trkpt lat="46.3568982" lon="13.0575444"><ele>334.0</ele><time>2026-04-22T08:25:10.677Z</time></trkpt><trkpt lat="46.3568335" lon="13.0577582"><ele>334.0</ele><time>2026-04-22T08:25:11.678Z</time></trkpt><trkpt lat="46.356766" lon="13.0579699"><ele>334.0</ele><time>2026-04-22T08:25:12.677Z</time></trkpt><trkpt lat="46.3567025" lon="13.0581614"><ele>333.0</ele><time>2026-04-22T08:25:13.677Z</time></trkpt><trkpt lat="46.3566346" lon="13.0583401"><ele>332.0</ele><time>2026-04-22T08:25:14.677Z</time></trkpt><trkpt lat="46.3565568" lon="13.0585086"><ele>331.0</ele><time>2026-04-22T08:25:15.677Z</time></trkpt><trkpt lat="46.3564798" lon="13.0586712"><ele>330.0</ele><time>2026-04-22T08:25:16.677Z</time></trkpt><trkpt lat="46.3563987" lon="13.0588312"><ele>328.8</ele><time>2026-04-22T08:25:17.677Z</time></trkpt><trkpt lat="46.3563101" lon="13.0589756"><ele>327.6</ele><time>2026-04-22T08:25:18.678Z</time></trkpt><trkpt lat="46.3562283" lon="13.0590944"><ele>326.4</ele><time>2026-04-22T08:25:19.677Z</time></trkpt><trkpt lat="46.3561497" lon="13.0591888"><ele>325.2</ele><time>2026-04-22T08:25:20.678Z</time></trkpt><trkpt lat="46.3560675" lon="13.0592316"><ele>324.0</ele><time>2026-04-22T08:25:21.677Z</time></trkpt><trkpt lat="46.3559944" lon="13.0592121"><ele>324.0</ele><time>2026-04-22T08:25:22.678Z</time></trkpt><trkpt lat="46.3559067" lon="13.0591581"><ele>324.0</ele><time>2026-04-22T08:25:23.677Z</time></trkpt><trkpt lat="46.3558078" lon="13.0590732"><ele>324.0</ele><time>2026-04-22T08:25:24.677Z</time></trkpt><trkpt lat="46.3557246" lon="13.0589685"><ele>324.0</ele><time>2026-04-22T08:25:25.678Z</time></trkpt><trkpt lat="46.3556434" lon="13.0588695"><ele>324.0</ele><time>2026-04-22T08:25:26.678Z</time></trkpt><trkpt lat="46.3555537" lon="13.0587962"><ele>324.4</ele><time>2026-04-22T08:25:27.677Z</time></trkpt><trkpt lat="46.3554712" lon="13.0587558"><ele>324.79999999999995</ele><time>2026-04-22T08:25:28.678Z</time></trkpt><trkpt lat="46.3553976" lon="13.0587108"><ele>325.20000000000005</ele><time>2026-04-22T08:25:29.677Z</time></trkpt><trkpt lat="46.3553371" lon="13.0586113"><ele>325.6</ele><time>2026-04-22T08:25:30.677Z</time></trkpt><trkpt lat="46.355281" lon="13.05848"><ele>326.0</ele><time>2026-04-22T08:25:31.678Z</time></trkpt><trkpt lat="46.3552035" lon="13.0583619"><ele>330.75</ele><time>2026-04-22T08:25:32.677Z</time></trkpt><trkpt lat="46.3551279" lon="13.0582663"><ele>335.5</ele><time>2026-04-22T08:25:33.677Z</time></trkpt><trkpt lat="46.3550663" lon="13.0581374"><ele>340.25</ele><time>2026-04-22T08:25:34.677Z</time></trkpt><trkpt lat="46.3550079" lon="13.0579807"><ele>345.0</ele><time>2026-04-22T08:25:35.678Z</time></trkpt><trkpt lat="46.3549567" lon="13.0578259"><ele>345.0</ele><time>2026-04-22T08:25:36.678Z</time></trkpt><trkpt lat="46.3548773" lon="13.0576731"><ele>345.0</ele><time>2026-04-22T08:25:37.677Z</time></trkpt><trkpt lat="46.3548086" lon="13.057552"><ele>345.0</ele><time>2026-04-22T08:25:38.677Z</time></trkpt><trkpt lat="46.3547341" lon="13.0574431"><ele>345.0</ele><time>2026-04-22T08:25:39.678Z</time></trkpt><trkpt lat="46.3546359" lon="13.0573668"><ele>353.0</ele><time>2026-04-22T08:25:40.677Z</time></trkpt><trkpt lat="46.3545302" lon="13.0573036"><ele>361.0</ele><time>2026-04-22T08:25:41.677Z</time></trkpt><trkpt lat="46.3544364" lon="13.0572643"><ele>369.0</ele><time>2026-04-22T08:25:42.677Z</time></trkpt><trkpt lat="46.3543296" lon="13.0572846"><ele>377.0</ele><time>2026-04-22T08:25:43.677Z</time></trkpt><trkpt lat="46.3542175" lon="13.0573122"><ele>385.0</ele><time>2026-04-22T08:25:44.677Z</time></trkpt><trkpt lat="46.3541121" lon="13.057333"><ele>385.0</ele><time>2026-04-22T08:25:45.677Z</time></trkpt><trkpt lat="46.3539794" lon="13.0574113"><ele>385.0</ele><time>2026-04-22T08:25:46.677Z</time></trkpt><trkpt lat="46.3538287" lon="13.057566"><ele>385.0</ele><time>2026-04-22T08:25:47.678Z</time></trkpt><trkpt lat="46.3537" lon="13.0576713"><ele>384.5</ele><time>2026-04-22T08:25:48.679Z</time></trkpt><trkpt lat="46.3535846" lon="13.0577607"><ele>384.0</ele><time>2026-04-22T08:25:49.677Z</time></trkpt><trkpt lat="46.3534774" lon="13.057854"><ele>383.5</ele><time>2026-04-22T08:25:50.679Z</time></trkpt><trkpt lat="46.3533663" lon="13.0580283"><ele>383.0</ele><time>2026-04-22T08:25:51.677Z</time></trkpt><trkpt lat="46.3532751" lon="13.0581895"><ele>377.33333333333337</ele><time>2026-04-22T08:25:52.679Z</time></trkpt><trkpt lat="46.3531782" lon="13.05846"><ele>371.6666666666667</ele><time>2026-04-22T08:25:53.677Z</time></trkpt><trkpt lat="46.3530916" lon="13.0586801"><ele>366.0</ele><time>2026-04-22T08:25:54.678Z</time></trkpt><trkpt lat="46.3530023" lon="13.0588765"><ele>365.0</ele><time>2026-04-22T08:25:55.677Z</time></trkpt><trkpt lat="46.352909" lon="13.0590571"><ele>364.0</ele><time>2026-04-22T08:25:56.679Z</time></trkpt><trkpt lat="46.3528239" lon="13.0592309"><ele>363.0</ele><time>2026-04-22T08:25:57.677Z</time></trkpt><trkpt lat="46.3527508" lon="13.0594006"><ele>362.0</ele><time>2026-04-22T08:25:58.678Z</time></trkpt><trkpt lat="46.3526775" lon="13.0595418"><ele>362.0</ele><time>2026-04-22T08:25:59.677Z</time></trkpt><trkpt lat="46.3526032" lon="13.0596627"><ele>362.0</ele><time>2026-04-22T08:26:00.679Z</time></trkpt><trkpt lat="46.3525282" lon="13.0597552"><ele>362.0</ele><time>2026-04-22T08:26:01.677Z</time></trkpt><trkpt lat="46.35246" lon="13.0598311"><ele>362.0</ele><time>2026-04-22T08:26:02.678Z</time></trkpt><trkpt lat="46.3523713" lon="13.0598705"><ele>362.0</ele><time>2026-04-22T08:26:03.677Z</time></trkpt><trkpt lat="46.3522929" lon="13.0599286"><ele>360.33333333333337</ele><time>2026-04-22T08:26:04.677Z</time></trkpt><trkpt lat="46.3521917" lon="13.0600092"><ele>358.6666666666667</ele><time>2026-04-22T08:26:06.677Z</time></trkpt><trkpt lat="46.3521242" lon="13.0600757"><ele>357.0</ele><time>2026-04-22T08:26:08.677Z</time></trkpt><trkpt lat="46.3520609" lon="13.0600998"><ele>355.3333333333333</ele><time>2026-04-22T08:26:12.678Z</time></trkpt><trkpt lat="46.3519915" lon="13.0601245"><ele>353.66666666666663</ele><time>2026-04-22T08:26:19.677Z</time></trkpt><trkpt lat="46.3520459" lon="13.0601946"><ele>352.0</ele><time>2026-04-22T08:26:23.677Z</time></trkpt><trkpt lat="46.3521527" lon="13.0600784"><ele>352.0</ele><time>2026-04-22T08:26:25.677Z</time></trkpt><trkpt lat="46.3522083" lon="13.0600119"><ele>352.0</ele><time>2026-04-22T08:26:26.678Z</time></trkpt><trkpt lat="46.3522709" lon="13.0599666"><ele>352.0</ele><time>2026-04-22T08:26:27.677Z</time></trkpt><trkpt lat="46.3523529" lon="13.0599055"><ele>352.0</ele><time>2026-04-22T08:26:29.677Z</time></trkpt><trkpt lat="46.352226" lon="13.0599603"><ele>352.0</ele><time>2026-04-22T08:26:39.677Z</time></trkpt><trkpt lat="46.3521416" lon="13.0600381"><ele>352.0</ele><time>2026-04-22T08:26:41.677Z</time></trkpt><trkpt lat="46.3520676" lon="13.0600742"><ele>352.0</ele><time>2026-04-22T08:26:43.677Z</time></trkpt><trkpt lat="46.3520694" lon="13.0599666"><ele>352.0</ele><time>2026-04-22T08:26:45.677Z</time></trkpt><trkpt lat="46.3521062" lon="13.0598652"><ele>352.0</ele><time>2026-04-22T08:26:46.677Z</time></trkpt><trkpt lat="46.3521471" lon="13.0597646"><ele>352.0</ele><time>2026-04-22T08:26:47.678Z</time></trkpt><trkpt lat="46.352181" lon="13.0596731"><ele>352.0</ele><time>2026-04-22T08:26:48.677Z</time></trkpt><trkpt lat="46.35222" lon="13.0595849"><ele>353.42857142857144</ele><time>2026-04-22T08:26:49.677Z</time></trkpt><trkpt lat="46.3522483" lon="13.05949"><ele>354.85714285714283</ele><time>2026-04-22T08:26:50.677Z</time></trkpt><trkpt lat="46.3522574" lon="13.0593911"><ele>356.2857142857143</ele><time>2026-04-22T08:26:51.678Z</time></trkpt><trkpt lat="46.3522518" lon="13.0592931"><ele>357.7142857142857</ele><time>2026-04-22T08:26:52.678Z</time></trkpt><trkpt lat="46.3522375" lon="13.0591955"><ele>359.1428571428571</ele><time>2026-04-22T08:26:53.677Z</time></trkpt><trkpt lat="46.3522347" lon="13.059084"><ele>360.57142857142856</ele><time>2026-04-22T08:26:54.678Z</time></trkpt><trkpt lat="46.3522476" lon="13.0589586"><ele>362.0</ele><time>2026-04-22T08:26:55.677Z</time></trkpt><trkpt lat="46.3522696" lon="13.0588208"><ele>362.0</ele><time>2026-04-22T08:26:56.677Z</time></trkpt><trkpt lat="46.3522958" lon="13.0587014"><ele>362.0</ele><time>2026-04-22T08:26:57.677Z</time></trkpt><trkpt lat="46.352324" lon="13.0585873"><ele>362.0</ele><time>2026-04-22T08:26:58.677Z</time></trkpt><trkpt lat="46.3523515" lon="13.0584798"><ele>362.0</ele><time>2026-04-22T08:26:59.678Z</time></trkpt><trkpt lat="46.3523783" lon="13.0583717"><ele>362.0</ele><time>2026-04-22T08:27:00.678Z</time></trkpt><trkpt lat="46.3524029" lon="13.0582633"><ele>362.0</ele><time>2026-04-22T08:27:01.678Z</time></trkpt><trkpt lat="46.3524244" lon="13.0581601"><ele>361.57142857142856</ele><time>2026-04-22T08:27:02.677Z</time></trkpt><trkpt lat="46.352442" lon="13.0580635"><ele>361.1428571428571</ele><time>2026-04-22T08:27:03.677Z</time></trkpt><trkpt lat="46.3524604" lon="13.0579633"><ele>360.7142857142857</ele><time>2026-04-22T08:27:04.677Z</time></trkpt><trkpt lat="46.3524792" lon="13.0578627"><ele>360.2857142857143</ele><time>2026-04-22T08:27:05.677Z</time></trkpt><trkpt lat="46.3524941" lon="13.0577632"><ele>359.8571428571429</ele><time>2026-04-22T08:27:06.677Z</time></trkpt><trkpt lat="46.3525074" lon="13.0576637"><ele>359.42857142857144</ele><time>2026-04-22T08:27:07.678Z</time></trkpt><trkpt lat="46.3525106" lon="13.0575406"><ele>359.0</ele><time>2026-04-22T08:27:08.677Z</time></trkpt><trkpt lat="46.3525022" lon="13.0573911"><ele>358.33333333333337</ele><time>2026-04-22T08:27:09.677Z</time></trkpt><trkpt lat="46.3524932" lon="13.0572653"><ele>357.6666666666667</ele><time>2026-04-22T08:27:10.677Z</time></trkpt><trkpt lat="46.3524849" lon="13.0571413"><ele>357.0</ele><time>2026-04-22T08:27:11.678Z</time></trkpt><trkpt lat="46.3524753" lon="13.0570179"><ele>356.3333333333333</ele><time>2026-04-22T08:27:12.678Z</time></trkpt><trkpt lat="46.3524681" lon="13.0568996"><ele>355.66666666666663</ele><time>2026-04-22T08:27:13.677Z</time></trkpt><trkpt lat="46.3524619" lon="13.0567856"><ele>355.0</ele><time>2026-04-22T08:27:14.678Z</time></trkpt><trkpt lat="46.3524562" lon="13.0566768"><ele>354.16666666666663</ele><time>2026-04-22T08:27:15.678Z</time></trkpt><trkpt lat="46.3524466" lon="13.0565665"><ele>353.3333333333333</ele><time>2026-04-22T08:27:16.677Z</time></trkpt><trkpt lat="46.3524397" lon="13.0564558"><ele>352.5</ele><time>2026-04-22T08:27:17.677Z</time></trkpt><trkpt lat="46.3524376" lon="13.0563499"><ele>351.6666666666667</ele><time>2026-04-22T08:27:18.677Z</time></trkpt><trkpt lat="46.35243" lon="13.056227"><ele>350.83333333333337</ele><time>2026-04-22T08:27:19.678Z</time></trkpt><trkpt lat="46.3524401" lon="13.0561039"><ele>350.0</ele><time>2026-04-22T08:27:20.677Z</time></trkpt><trkpt lat="46.3524531" lon="13.0559797"><ele>350.0</ele><time>2026-04-22T08:27:21.677Z</time></trkpt><trkpt lat="46.3524751" lon="13.0558486"><ele>350.0</ele><time>2026-04-22T08:27:22.678Z</time></trkpt><trkpt lat="46.3524994" lon="13.0557066"><ele>350.0</ele><time>2026-04-22T08:27:23.677Z</time></trkpt><trkpt lat="46.352519" lon="13.0555822"><ele>350.0</ele><time>2026-04-22T08:27:24.678Z</time></trkpt><trkpt lat="46.3525429" lon="13.0554686"><ele>350.0</ele><time>2026-04-22T08:27:25.677Z</time></trkpt><trkpt lat="46.3525658" lon="13.0553622"><ele>350.0</ele><time>2026-04-22T08:27:26.677Z</time></trkpt><trkpt lat="46.3525883" lon="13.0552615"><ele>350.0</ele><time>2026-04-22T08:27:27.677Z</time></trkpt><trkpt lat="46.3526123" lon="13.055169"><ele>350.0</ele><time>2026-04-22T08:27:28.677Z</time></trkpt><trkpt lat="46.3526313" lon="13.0550714"><ele>350.0</ele><time>2026-04-22T08:27:29.677Z</time></trkpt><trkpt lat="46.3526408" lon="13.0549698"><ele>350.0</ele><time>2026-04-22T08:27:30.678Z</time></trkpt><trkpt lat="46.3526425" lon="13.0548563"><ele>350.0</ele><time>2026-04-22T08:27:31.677Z</time></trkpt><trkpt lat="46.3526373" lon="13.054739"><ele>350.0</ele><time>2026-04-22T08:27:32.677Z</time></trkpt><trkpt lat="46.3526319" lon="13.0546229"><ele>350.0</ele><time>2026-04-22T08:27:33.677Z</time></trkpt><trkpt lat="46.3526326" lon="13.0545062"><ele>350.0</ele><time>2026-04-22T08:27:34.677Z</time></trkpt><trkpt lat="46.3526257" lon="13.0543873"><ele>350.0</ele><time>2026-04-22T08:27:35.678Z</time></trkpt><trkpt lat="46.3526016" lon="13.0542617"><ele>350.0</ele><time>2026-04-22T08:27:36.678Z</time></trkpt><trkpt lat="46.3525763" lon="13.0541472"><ele>350.0</ele><time>2026-04-22T08:27:37.677Z</time></trkpt><trkpt lat="46.3525613" lon="13.0540331"><ele>350.0</ele><time>2026-04-22T08:27:38.677Z</time></trkpt><trkpt lat="46.3525571" lon="13.0539206"><ele>350.0</ele><time>2026-04-22T08:27:39.679Z</time></trkpt><trkpt lat="46.3525637" lon="13.053811"><ele>350.83333333333337</ele><time>2026-04-22T08:27:40.677Z</time></trkpt><trkpt lat="46.3525758" lon="13.0536952"><ele>351.6666666666667</ele><time>2026-04-22T08:27:41.677Z</time></trkpt><trkpt lat="46.3526003" lon="13.0535742"><ele>352.5</ele><time>2026-04-22T08:27:42.677Z</time></trkpt><trkpt lat="46.3526377" lon="13.0534548"><ele>353.3333333333333</ele><time>2026-04-22T08:27:43.677Z</time></trkpt><trkpt lat="46.3526777" lon="13.0533437"><ele>354.16666666666663</ele><time>2026-04-22T08:27:44.677Z</time></trkpt><trkpt lat="46.3527189" lon="13.0532389"><ele>355.0</ele><time>2026-04-22T08:27:45.678Z</time></trkpt><trkpt lat="46.3527588" lon="13.0531377"><ele>355.1428571428571</ele><time>2026-04-22T08:27:46.678Z</time></trkpt><trkpt lat="46.3527965" lon="13.0530428"><ele>355.2857142857143</ele><time>2026-04-22T08:27:47.677Z</time></trkpt><trkpt lat="46.3528301" lon="13.0529557"><ele>355.42857142857144</ele><time>2026-04-22T08:27:48.677Z</time></trkpt><trkpt lat="46.3528692" lon="13.0528801"><ele>355.57142857142856</ele><time>2026-04-22T08:27:49.677Z</time></trkpt><trkpt lat="46.3529229" lon="13.052813"><ele>355.7142857142857</ele><time>2026-04-22T08:27:50.678Z</time></trkpt><trkpt lat="46.3529742" lon="13.0527324"><ele>355.85714285714283</ele><time>2026-04-22T08:27:51.677Z</time></trkpt><trkpt lat="46.3530303" lon="13.0526419"><ele>356.0</ele><time>2026-04-22T08:27:52.677Z</time></trkpt><trkpt lat="46.353083" lon="13.0525508"><ele>355.5</ele><time>2026-04-22T08:27:53.679Z</time></trkpt><trkpt lat="46.3531225" lon="13.052437"><ele>355.0</ele><time>2026-04-22T08:27:54.678Z</time></trkpt><trkpt lat="46.353152" lon="13.0523098"><ele>354.5</ele><time>2026-04-22T08:27:55.678Z</time></trkpt><trkpt lat="46.3531658" lon="13.0521994"><ele>354.0</ele><time>2026-04-22T08:27:56.677Z</time></trkpt><trkpt lat="46.353181" lon="13.0520934"><ele>353.5</ele><time>2026-04-22T08:27:57.677Z</time></trkpt><trkpt lat="46.3531997" lon="13.0519814"><ele>353.0</ele><time>2026-04-22T08:27:58.678Z</time></trkpt><trkpt lat="46.3532201" lon="13.0518647"><ele>353.0</ele><time>2026-04-22T08:27:59.677Z</time></trkpt><trkpt lat="46.3532451" lon="13.051751"><ele>353.0</ele><time>2026-04-22T08:28:00.678Z</time></trkpt><trkpt lat="46.3532802" lon="13.0515154"><ele>353.0</ele><time>2026-04-22T08:28:02.678Z</time></trkpt><trkpt lat="46.3532864" lon="13.0513715"><ele>353.0</ele><time>2026-04-22T08:28:03.677Z</time></trkpt><trkpt lat="46.3532878" lon="13.0512294"><ele>353.0</ele><time>2026-04-22T08:28:04.677Z</time></trkpt><trkpt lat="46.3532827" lon="13.0510822"><ele>352.59999999999997</ele><time>2026-04-22T08:28:05.677Z</time></trkpt><trkpt lat="46.3532869" lon="13.0509401"><ele>352.2</ele><time>2026-04-22T08:28:06.677Z</time></trkpt><trkpt lat="46.3532988" lon="13.0508012"><ele>351.8</ele><time>2026-04-22T08:28:07.677Z</time></trkpt><trkpt lat="46.3533183" lon="13.0506724"><ele>351.4</ele><time>2026-04-22T08:28:08.678Z</time></trkpt><trkpt lat="46.3533382" lon="13.0505457"><ele>351.0</ele><time>2026-04-22T08:28:09.678Z</time></trkpt><trkpt lat="46.3533627" lon="13.0504236"><ele>351.6666666666667</ele><time>2026-04-22T08:28:10.677Z</time></trkpt><trkpt lat="46.353397" lon="13.0503024"><ele>352.3333333333333</ele><time>2026-04-22T08:28:11.677Z</time></trkpt><trkpt lat="46.3534365" lon="13.0501899"><ele>353.0</ele><time>2026-04-22T08:28:12.678Z</time></trkpt><trkpt lat="46.3534802" lon="13.0500957"><ele>353.66666666666663</ele><time>2026-04-22T08:28:13.677Z</time></trkpt><trkpt lat="46.3535255" lon="13.0500138"><ele>354.3333333333333</ele><time>2026-04-22T08:28:14.677Z</time></trkpt><trkpt lat="46.3535965" lon="13.0499076"><ele>355.0</ele><time>2026-04-22T08:28:16.678Z</time></trkpt><trkpt lat="46.3536562" lon="13.0498392"><ele>355.6</ele><time>2026-04-22T08:28:18.678Z</time></trkpt><trkpt lat="46.3537387" lon="13.0497665"><ele>356.2</ele><time>2026-04-22T08:28:20.678Z</time></trkpt><trkpt lat="46.3538515" lon="13.0496906"><ele>356.79999999999995</ele><time>2026-04-22T08:28:22.677Z</time></trkpt><trkpt lat="46.3539312" lon="13.0496461"><ele>357.4</ele><time>2026-04-22T08:28:24.677Z</time></trkpt><trkpt lat="46.3539982" lon="13.0496206"><ele>358.0</ele><time>2026-04-22T08:28:27.677Z</time></trkpt><trkpt lat="46.3540731" lon="13.0495635"><ele>358.0</ele><time>2026-04-22T08:28:30.677Z</time></trkpt><trkpt lat="46.354131" lon="13.0495089"><ele>358.0</ele><time>2026-04-22T08:28:31.677Z</time></trkpt><trkpt lat="46.3542054" lon="13.0494589"><ele>358.0</ele><time>2026-04-22T08:28:32.677Z</time></trkpt><trkpt lat="46.3542925" lon="13.0493911"><ele>358.0</ele><time>2026-04-22T08:28:33.677Z</time></trkpt><trkpt lat="46.3543763" lon="13.049307"><ele>358.0</ele><time>2026-04-22T08:28:34.678Z</time></trkpt><trkpt lat="46.3544683" lon="13.0492082"><ele>358.0</ele><time>2026-04-22T08:28:35.677Z</time></trkpt><trkpt lat="46.3545456" lon="13.0491072"><ele>358.0</ele><time>2026-04-22T08:28:36.677Z</time></trkpt><trkpt lat="46.3546201" lon="13.0490039"><ele>358.0</ele><time>2026-04-22T08:28:37.677Z</time></trkpt><trkpt lat="46.3546906" lon="13.048901"><ele>358.0</ele><time>2026-04-22T08:28:38.677Z</time></trkpt><trkpt lat="46.3547608" lon="13.0487955"><ele>358.0</ele><time>2026-04-22T08:28:39.676Z</time></trkpt><trkpt lat="46.3548322" lon="13.0486801"><ele>358.0</ele><time>2026-04-22T08:28:40.676Z</time></trkpt><trkpt lat="46.3548979" lon="13.0485637"><ele>358.0</ele><time>2026-04-22T08:28:41.676Z</time></trkpt><trkpt lat="46.3549603" lon="13.0484465"><ele>358.0</ele><time>2026-04-22T08:28:42.676Z</time></trkpt><trkpt lat="46.3550235" lon="13.0483371"><ele>358.0</ele><time>2026-04-22T08:28:43.676Z</time></trkpt><trkpt lat="46.3550866" lon="13.048231"><ele>358.0</ele><time>2026-04-22T08:28:44.676Z</time></trkpt><trkpt lat="46.3551501" lon="13.04813"><ele>357.79999999999995</ele><time>2026-04-22T08:28:45.676Z</time></trkpt><trkpt lat="46.3552129" lon="13.0480307"><ele>357.6</ele><time>2026-04-22T08:28:46.676Z</time></trkpt><trkpt lat="46.3552755" lon="13.0479314"><ele>357.4</ele><time>2026-04-22T08:28:47.676Z</time></trkpt><trkpt lat="46.3553419" lon="13.0478277"><ele>357.20000000000005</ele><time>2026-04-22T08:28:48.677Z</time></trkpt><trkpt lat="46.3554067" lon="13.0477253"><ele>357.0</ele><time>2026-04-22T08:28:49.676Z</time></trkpt><trkpt lat="46.3554729" lon="13.0476223"><ele>356.6</ele><time>2026-04-22T08:28:50.678Z</time></trkpt><trkpt lat="46.3555384" lon="13.0475194"><ele>356.20000000000005</ele><time>2026-04-22T08:28:51.676Z</time></trkpt><trkpt lat="46.3556023" lon="13.0474173"><ele>355.8</ele><time>2026-04-22T08:28:52.676Z</time></trkpt><trkpt lat="46.3556676" lon="13.0473166"><ele>355.4</ele><time>2026-04-22T08:28:53.677Z</time></trkpt><trkpt lat="46.3557346" lon="13.0472216"><ele>355.0</ele><time>2026-04-22T08:28:54.676Z</time></trkpt><trkpt lat="46.3558039" lon="13.0471325"><ele>355.0</ele><time>2026-04-22T08:28:55.676Z</time></trkpt><trkpt lat="46.3558781" lon="13.0470491"><ele>355.0</ele><time>2026-04-22T08:28:56.677Z</time></trkpt><trkpt lat="46.3559495" lon="13.046969"><ele>355.0</ele><time>2026-04-22T08:28:57.676Z</time></trkpt><trkpt lat="46.3560188" lon="13.046889"><ele>355.0</ele><time>2026-04-22T08:28:58.676Z</time></trkpt><trkpt lat="46.3560857" lon="13.0467939"><ele>355.0</ele><time>2026-04-22T08:28:59.676Z</time></trkpt><trkpt lat="46.3561418" lon="13.0466748"><ele>355.75</ele><time>2026-04-22T08:29:00.676Z</time></trkpt><trkpt lat="46.3561823" lon="13.0465228"><ele>356.5</ele><time>2026-04-22T08:29:01.676Z</time></trkpt><trkpt lat="46.3562082" lon="13.0463411"><ele>357.25</ele><time>2026-04-22T08:29:02.677Z</time></trkpt><trkpt lat="46.3562242" lon="13.0461691"><ele>358.0</ele><time>2026-04-22T08:29:03.676Z</time></trkpt><trkpt lat="46.3562374" lon="13.0459971"><ele>358.0</ele><time>2026-04-22T08:29:04.677Z</time></trkpt><trkpt lat="46.3562456" lon="13.0458315"><ele>358.0</ele><time>2026-04-22T08:29:05.676Z</time></trkpt><trkpt lat="46.3562563" lon="13.0456699"><ele>358.0</ele><time>2026-04-22T08:29:06.676Z</time></trkpt><trkpt lat="46.3562672" lon="13.0455133"><ele>358.0</ele><time>2026-04-22T08:29:07.677Z</time></trkpt><trkpt lat="46.3562702" lon="13.0453535"><ele>358.0</ele><time>2026-04-22T08:29:08.676Z</time></trkpt><trkpt lat="46.3562621" lon="13.0451662"><ele>358.0</ele><time>2026-04-22T08:29:09.676Z</time></trkpt><trkpt lat="46.3562464" lon="13.0449851"><ele>358.0</ele><time>2026-04-22T08:29:10.676Z</time></trkpt><trkpt lat="46.3562238" lon="13.0448127"><ele>358.0</ele><time>2026-04-22T08:29:11.676Z</time></trkpt><trkpt lat="46.3562008" lon="13.0446477"><ele>358.0</ele><time>2026-04-22T08:29:12.676Z</time></trkpt><trkpt lat="46.3561758" lon="13.0444879"><ele>358.4</ele><time>2026-04-22T08:29:13.677Z</time></trkpt><trkpt lat="46.3561521" lon="13.0443323"><ele>358.79999999999995</ele><time>2026-04-22T08:29:14.676Z</time></trkpt><trkpt lat="46.3561318" lon="13.0441814"><ele>359.2</ele><time>2026-04-22T08:29:15.678Z</time></trkpt><trkpt lat="46.3561129" lon="13.0440347"><ele>359.6</ele><time>2026-04-22T08:29:16.676Z</time></trkpt><trkpt lat="46.3560984" lon="13.043889"><ele>360.0</ele><time>2026-04-22T08:29:17.676Z</time></trkpt><trkpt lat="46.3560893" lon="13.0437428"><ele>359.0</ele><time>2026-04-22T08:29:18.677Z</time></trkpt><trkpt lat="46.3560897" lon="13.0436028"><ele>358.0</ele><time>2026-04-22T08:29:19.677Z</time></trkpt><trkpt lat="46.3560964" lon="13.0434601"><ele>357.0</ele><time>2026-04-22T08:29:20.676Z</time></trkpt><trkpt lat="46.3561111" lon="13.0433222"><ele>356.0</ele><time>2026-04-22T08:29:21.676Z</time></trkpt><trkpt lat="46.3561334" lon="13.0431896"><ele>355.0</ele><time>2026-04-22T08:29:22.676Z</time></trkpt><trkpt lat="46.3561567" lon="13.0430569"><ele>354.4</ele><time>2026-04-22T08:29:23.677Z</time></trkpt><trkpt lat="46.3561837" lon="13.0429222"><ele>353.8</ele><time>2026-04-22T08:29:24.677Z</time></trkpt><trkpt lat="46.3562214" lon="13.0427863"><ele>353.20000000000005</ele><time>2026-04-22T08:29:25.677Z</time></trkpt><trkpt lat="46.3562687" lon="13.042645"><ele>352.6</ele><time>2026-04-22T08:29:26.676Z</time></trkpt><trkpt lat="46.3563178" lon="13.0425055"><ele>352.0</ele><time>2026-04-22T08:29:27.677Z</time></trkpt><trkpt lat="46.3563671" lon="13.0423679"><ele>353.6</ele><time>2026-04-22T08:29:28.676Z</time></trkpt><trkpt lat="46.3564072" lon="13.042223"><ele>355.20000000000005</ele><time>2026-04-22T08:29:29.676Z</time></trkpt><trkpt lat="46.3564364" lon="13.0420711"><ele>356.8</ele><time>2026-04-22T08:29:30.677Z</time></trkpt><trkpt lat="46.3564564" lon="13.0419206"><ele>358.4</ele><time>2026-04-22T08:29:31.677Z</time></trkpt><trkpt lat="46.3564718" lon="13.041771"><ele>360.0</ele><time>2026-04-22T08:29:32.677Z</time></trkpt><trkpt lat="46.3564856" lon="13.0416247"><ele>360.0</ele><time>2026-04-22T08:29:33.676Z</time></trkpt><trkpt lat="46.3565008" lon="13.0414807"><ele>360.0</ele><time>2026-04-22T08:29:34.676Z</time></trkpt><trkpt lat="46.3565177" lon="13.0413366"><ele>360.0</ele><time>2026-04-22T08:29:35.677Z</time></trkpt><trkpt lat="46.3565382" lon="13.0411928"><ele>360.0</ele><time>2026-04-22T08:29:36.676Z</time></trkpt><trkpt lat="46.3565659" lon="13.041047"><ele>360.0</ele><time>2026-04-22T08:29:37.676Z</time></trkpt><trkpt lat="46.3566011" lon="13.0409005"><ele>359.8</ele><time>2026-04-22T08:29:38.676Z</time></trkpt><trkpt lat="46.3566423" lon="13.0407565"><ele>359.6</ele><time>2026-04-22T08:29:39.676Z</time></trkpt><trkpt lat="46.3566897" lon="13.0406178"><ele>359.4</ele><time>2026-04-22T08:29:40.677Z</time></trkpt><trkpt lat="46.3567426" lon="13.0404825"><ele>359.2</ele><time>2026-04-22T08:29:41.676Z</time></trkpt><trkpt lat="46.3568012" lon="13.0403539"><ele>359.0</ele><time>2026-04-22T08:29:42.676Z</time></trkpt><trkpt lat="46.3568625" lon="13.0402279"><ele>359.0</ele><time>2026-04-22T08:29:43.676Z</time></trkpt><trkpt lat="46.3569247" lon="13.0401042"><ele>359.0</ele><time>2026-04-22T08:29:44.676Z</time></trkpt><trkpt lat="46.3569872" lon="13.0399809"><ele>359.0</ele><time>2026-04-22T08:29:45.678Z</time></trkpt><trkpt lat="46.3570507" lon="13.0398595"><ele>359.0</ele><time>2026-04-22T08:29:46.676Z</time></trkpt><trkpt lat="46.3571125" lon="13.0397375"><ele>359.0</ele><time>2026-04-22T08:29:47.676Z</time></trkpt><trkpt lat="46.3571732" lon="13.0396138"><ele>358.6</ele><time>2026-04-22T08:29:48.676Z</time></trkpt><trkpt lat="46.3572343" lon="13.0394911"><ele>358.2</ele><time>2026-04-22T08:29:49.676Z</time></trkpt><trkpt lat="46.3572965" lon="13.0393694"><ele>357.8</ele><time>2026-04-22T08:29:50.677Z</time></trkpt><trkpt lat="46.3573583" lon="13.039248"><ele>357.40000000000003</ele><time>2026-04-22T08:29:51.676Z</time></trkpt><trkpt lat="46.3574193" lon="13.0391263"><ele>357.0</ele><time>2026-04-22T08:29:52.676Z</time></trkpt><trkpt lat="46.3574806" lon="13.0390058"><ele>357.0</ele><time>2026-04-22T08:29:53.676Z</time></trkpt><trkpt lat="46.3575433" lon="13.0388875"><ele>357.0</ele><time>2026-04-22T08:29:54.676Z</time></trkpt><trkpt lat="46.3576046" lon="13.0387693"><ele>357.0</ele><time>2026-04-22T08:29:55.676Z</time></trkpt><trkpt lat="46.3576653" lon="13.0386516"><ele>357.0</ele><time>2026-04-22T08:29:56.676Z</time></trkpt><trkpt lat="46.3577259" lon="13.0385328"><ele>357.0</ele><time>2026-04-22T08:29:57.676Z</time></trkpt><trkpt lat="46.3577898" lon="13.0384086"><ele>356.75</ele><time>2026-04-22T08:29:58.676Z</time></trkpt><trkpt lat="46.3578683" lon="13.0382578"><ele>356.5</ele><time>2026-04-22T08:29:59.677Z</time></trkpt><trkpt lat="46.3579563" lon="13.0380881"><ele>356.25</ele><time>2026-04-22T08:30:00.677Z</time></trkpt><trkpt lat="46.3580332" lon="13.0379369"><ele>356.0</ele><time>2026-04-22T08:30:01.676Z</time></trkpt><trkpt lat="46.3581051" lon="13.03779"><ele>357.25</ele><time>2026-04-22T08:30:02.676Z</time></trkpt><trkpt lat="46.3581736" lon="13.0376545"><ele>358.5</ele><time>2026-04-22T08:30:03.677Z</time></trkpt><trkpt lat="46.3582411" lon="13.0375234"><ele>359.75</ele><time>2026-04-22T08:30:04.678Z</time></trkpt><trkpt lat="46.3583081" lon="13.0373912"><ele>361.0</ele><time>2026-04-22T08:30:05.676Z</time></trkpt><trkpt lat="46.358377" lon="13.0372622"><ele>361.0</ele><time>2026-04-22T08:30:06.676Z</time></trkpt><trkpt lat="46.3584461" lon="13.0371331"><ele>361.0</ele><time>2026-04-22T08:30:07.677Z</time></trkpt><trkpt lat="46.3585184" lon="13.0370059"><ele>361.0</ele><time>2026-04-22T08:30:08.677Z</time></trkpt><trkpt lat="46.3585907" lon="13.0368785"><ele>361.0</ele><time>2026-04-22T08:30:09.676Z</time></trkpt><trkpt lat="46.3586642" lon="13.0367512"><ele>360.0</ele><time>2026-04-22T08:30:10.677Z</time></trkpt><trkpt lat="46.3587331" lon="13.0366308"><ele>359.0</ele><time>2026-04-22T08:30:11.676Z</time></trkpt><trkpt lat="46.3587995" lon="13.0365122"><ele>358.0</ele><time>2026-04-22T08:30:12.676Z</time></trkpt><trkpt lat="46.3588663" lon="13.0363984"><ele>357.0</ele><time>2026-04-22T08:30:13.676Z</time></trkpt><trkpt lat="46.3589261" lon="13.0362908"><ele>356.0</ele><time>2026-04-22T08:30:14.676Z</time></trkpt><trkpt lat="46.3589842" lon="13.0361919"><ele>357.5</ele><time>2026-04-22T08:30:15.676Z</time></trkpt><trkpt lat="46.3590367" lon="13.0361"><ele>359.0</ele><time>2026-04-22T08:30:16.677Z</time></trkpt><trkpt lat="46.3590886" lon="13.0360129"><ele>360.5</ele><time>2026-04-22T08:30:17.676Z</time></trkpt><trkpt lat="46.3591366" lon="13.0359317"><ele>362.0</ele><time>2026-04-22T08:30:18.676Z</time></trkpt><trkpt lat="46.3591844" lon="13.0358485"><ele>363.5</ele><time>2026-04-22T08:30:19.677Z</time></trkpt><trkpt lat="46.359218" lon="13.0357501"><ele>365.0</ele><time>2026-04-22T08:30:20.677Z</time></trkpt><trkpt lat="46.3592274" lon="13.0356431"><ele>365.00000000000006</ele><time>2026-04-22T08:30:21.676Z</time></trkpt><trkpt lat="46.3592137" lon="13.035529"><ele>365.0</ele><time>2026-04-22T08:30:22.676Z</time></trkpt><trkpt lat="46.3591803" lon="13.0354279"><ele>365.0</ele><time>2026-04-22T08:30:23.677Z</time></trkpt><trkpt lat="46.3591387" lon="13.0353489"><ele>365.0</ele><time>2026-04-22T08:30:24.676Z</time></trkpt><trkpt lat="46.3590951" lon="13.0352808"><ele>365.0</ele><time>2026-04-22T08:30:25.677Z</time></trkpt><trkpt lat="46.3590309" lon="13.0351861"><ele>365.00000000000006</ele><time>2026-04-22T08:30:27.676Z</time></trkpt><trkpt lat="46.3589664" lon="13.035164"><ele>365.0</ele><time>2026-04-22T08:30:29.676Z</time></trkpt><trkpt lat="46.3588819" lon="13.0352186"><ele>364.2</ele><time>2026-04-22T08:30:31.677Z</time></trkpt><trkpt lat="46.3587621" lon="13.0352403"><ele>363.4</ele><time>2026-04-22T08:30:33.676Z</time></trkpt><trkpt lat="46.3586881" lon="13.0352504"><ele>362.6</ele><time>2026-04-22T08:30:34.677Z</time></trkpt><trkpt lat="46.3586173" lon="13.0352631"><ele>361.8</ele><time>2026-04-22T08:30:35.676Z</time></trkpt><trkpt lat="46.3585541" lon="13.0352708"><ele>361.0</ele><time>2026-04-22T08:30:36.676Z</time></trkpt><trkpt lat="46.3584286" lon="13.0352759"><ele>361.0</ele><time>2026-04-22T08:30:38.676Z</time></trkpt><trkpt lat="46.3583535" lon="13.0352609"><ele>361.0</ele><time>2026-04-22T08:30:39.676Z</time></trkpt><trkpt lat="46.3582742" lon="13.0352373"><ele>361.0</ele><time>2026-04-22T08:30:40.676Z</time></trkpt><trkpt lat="46.3581876" lon="13.0352063"><ele>361.0</ele><time>2026-04-22T08:30:41.676Z</time></trkpt><trkpt lat="46.3580846" lon="13.0351615"><ele>361.0</ele><time>2026-04-22T08:30:42.676Z</time></trkpt><trkpt lat="46.3580025" lon="13.0351291"><ele>361.0</ele><time>2026-04-22T08:30:43.676Z</time></trkpt><trkpt lat="46.3578995" lon="13.0350969"><ele>361.16666666666663</ele><time>2026-04-22T08:30:44.677Z</time></trkpt><trkpt lat="46.3577925" lon="13.035062"><ele>361.3333333333333</ele><time>2026-04-22T08:30:45.677Z</time></trkpt><trkpt lat="46.3577029" lon="13.0350336"><ele>361.5</ele><time>2026-04-22T08:30:46.676Z</time></trkpt><trkpt lat="46.3576335" lon="13.0350142"><ele>361.6666666666667</ele><time>2026-04-22T08:30:47.677Z</time></trkpt><trkpt lat="46.3575678" lon="13.034992"><ele>361.83333333333337</ele><time>2026-04-22T08:30:48.676Z</time></trkpt><trkpt lat="46.357496" lon="13.034949"><ele>362.0</ele><time>2026-04-22T08:30:49.677Z</time></trkpt><trkpt lat="46.3574317" lon="13.0349042"><ele>362.0</ele><time>2026-04-22T08:30:50.676Z</time></trkpt><trkpt lat="46.3573471" lon="13.0348627"><ele>362.0</ele><time>2026-04-22T08:30:52.676Z</time></trkpt><trkpt lat="46.3572908" lon="13.0349342"><ele>362.0</ele><time>2026-04-22T08:30:55.677Z</time></trkpt><trkpt lat="46.357375" lon="13.0350041"><ele>362.0</ele><time>2026-04-22T08:30:58.676Z</time></trkpt><trkpt lat="46.3574458" lon="13.035011"><ele>362.0</ele><time>2026-04-22T08:30:59.676Z</time></trkpt><trkpt lat="46.3575238" lon="13.0350204"><ele>362.0</ele><time>2026-04-22T08:31:00.676Z</time></trkpt><trkpt lat="46.3576156" lon="13.0350362"><ele>362.0</ele><time>2026-04-22T08:31:01.676Z</time></trkpt><trkpt lat="46.3577081" lon="13.0350537"><ele>362.0</ele><time>2026-04-22T08:31:02.677Z</time></trkpt><trkpt lat="46.3578259" lon="13.0350829"><ele>362.0</ele><time>2026-04-22T08:31:03.676Z</time></trkpt><trkpt lat="46.3579465" lon="13.03512"><ele>362.0</ele><time>2026-04-22T08:31:04.676Z</time></trkpt><trkpt lat="46.3580494" lon="13.0351572"><ele>362.0</ele><time>2026-04-22T08:31:05.677Z</time></trkpt><trkpt lat="46.3581457" lon="13.0352017"><ele>361.8</ele><time>2026-04-22T08:31:06.677Z</time></trkpt><trkpt lat="46.3582484" lon="13.0352361"><ele>361.6</ele><time>2026-04-22T08:31:07.676Z</time></trkpt><trkpt lat="46.3583615" lon="13.0352629"><ele>361.40000000000003</ele><time>2026-04-22T08:31:08.678Z</time></trkpt><trkpt lat="46.3584567" lon="13.0352763"><ele>361.20000000000005</ele><time>2026-04-22T08:31:09.677Z</time></trkpt><trkpt lat="46.3585566" lon="13.0352757"><ele>361.0</ele><time>2026-04-22T08:31:10.676Z</time></trkpt><trkpt lat="46.3586602" lon="13.0352661"><ele>361.0</ele><time>2026-04-22T08:31:11.677Z</time></trkpt><trkpt lat="46.3587399" lon="13.0352574"><ele>361.0</ele><time>2026-04-22T08:31:12.677Z</time></trkpt><trkpt lat="46.3588053" lon="13.0352385"><ele>361.0</ele><time>2026-04-22T08:31:13.676Z</time></trkpt><trkpt lat="46.3588891" lon="13.0351664"><ele>361.0</ele><time>2026-04-22T08:31:15.676Z</time></trkpt><trkpt lat="46.3589149" lon="13.035047"><ele>361.0</ele><time>2026-04-22T08:31:17.677Z</time></trkpt><trkpt lat="46.3588761" lon="13.0349437"><ele>361.0</ele><time>2026-04-22T08:31:19.676Z</time></trkpt><trkpt lat="46.3587726" lon="13.0348128"><ele>364.75</ele><time>2026-04-22T08:31:21.677Z</time></trkpt><trkpt lat="46.3586959" lon="13.0347128"><ele>368.5</ele><time>2026-04-22T08:31:22.676Z</time></trkpt><trkpt lat="46.3586015" lon="13.0345809"><ele>372.25</ele><time>2026-04-22T08:31:23.676Z</time></trkpt><trkpt lat="46.3585034" lon="13.034454"><ele>376.0</ele><time>2026-04-22T08:31:24.677Z</time></trkpt><trkpt lat="46.3584089" lon="13.0343431"><ele>376.0</ele><time>2026-04-22T08:31:25.676Z</time></trkpt><trkpt lat="46.3583176" lon="13.034243"><ele>376.0</ele><time>2026-04-22T08:31:26.677Z</time></trkpt><trkpt lat="46.3582272" lon="13.0341443"><ele>376.0</ele><time>2026-04-22T08:31:27.676Z</time></trkpt><trkpt lat="46.3581181" lon="13.0340625"><ele>376.0</ele><time>2026-04-22T08:31:28.676Z</time></trkpt><trkpt lat="46.3579918" lon="13.0339934"><ele>376.6</ele><time>2026-04-22T08:31:29.676Z</time></trkpt><trkpt lat="46.3578792" lon="13.0339512"><ele>377.20000000000005</ele><time>2026-04-22T08:31:30.677Z</time></trkpt><trkpt lat="46.3577658" lon="13.0339221"><ele>377.79999999999995</ele><time>2026-04-22T08:31:31.676Z</time></trkpt><trkpt lat="46.3576586" lon="13.033893"><ele>378.4</ele><time>2026-04-22T08:31:32.676Z</time></trkpt><trkpt lat="46.3575823" lon="13.0338128"><ele>379.0</ele><time>2026-04-22T08:31:33.676Z</time></trkpt><trkpt lat="46.3575071" lon="13.0337257"><ele>379.0</ele><time>2026-04-22T08:31:34.677Z</time></trkpt><trkpt lat="46.3574473" lon="13.033615"><ele>379.0</ele><time>2026-04-22T08:31:35.676Z</time></trkpt><trkpt lat="46.3574039" lon="13.033492"><ele>379.0</ele><time>2026-04-22T08:31:36.677Z</time></trkpt><trkpt lat="46.35738" lon="13.0333297"><ele>379.0</ele><time>2026-04-22T08:31:37.676Z</time></trkpt><trkpt lat="46.3573527" lon="13.0331386"><ele>379.0</ele><time>2026-04-22T08:31:38.677Z</time></trkpt><trkpt lat="46.3572965" lon="13.0329274"><ele>379.0</ele><time>2026-04-22T08:31:39.676Z</time></trkpt><trkpt lat="46.3572378" lon="13.0327381"><ele>379.0</ele><time>2026-04-22T08:31:40.677Z</time></trkpt><trkpt lat="46.3571731" lon="13.0325354"><ele>379.0</ele><time>2026-04-22T08:31:41.677Z</time></trkpt><trkpt lat="46.3571074" lon="13.0323412"><ele>379.0</ele><time>2026-04-22T08:31:42.677Z</time></trkpt><trkpt lat="46.3570334" lon="13.0321658"><ele>379.0</ele><time>2026-04-22T08:31:43.676Z</time></trkpt><trkpt lat="46.3569426" lon="13.0320001"><ele>379.0</ele><time>2026-04-22T08:31:44.677Z</time></trkpt><trkpt lat="46.3568555" lon="13.0318532"><ele>379.0</ele><time>2026-04-22T08:31:45.676Z</time></trkpt><trkpt lat="46.3567728" lon="13.0317143"><ele>379.0</ele><time>2026-04-22T08:31:46.677Z</time></trkpt><trkpt lat="46.3567101" lon="13.0315905"><ele>379.79999999999995</ele><time>2026-04-22T08:31:47.676Z</time></trkpt><trkpt lat="46.3566569" lon="13.031475"><ele>380.59999999999997</ele><time>2026-04-22T08:31:48.676Z</time></trkpt><trkpt lat="46.3566271" lon="13.0313824"><ele>381.4</ele><time>2026-04-22T08:31:49.676Z</time></trkpt><trkpt lat="46.3565952" lon="13.0312211"><ele>382.2</ele><time>2026-04-22T08:31:51.676Z</time></trkpt><trkpt lat="46.3566134" lon="13.0310783"><ele>383.0</ele><time>2026-04-22T08:31:53.676Z</time></trkpt><trkpt lat="46.3566357" lon="13.0309385"><ele>383.0</ele><time>2026-04-22T08:31:55.676Z</time></trkpt><trkpt lat="46.3565878" lon="13.0308448"><ele>383.0</ele><time>2026-04-22T08:31:57.677Z</time></trkpt><trkpt lat="46.356483" lon="13.0308378"><ele>383.0</ele><time>2026-04-22T08:31:59.676Z</time></trkpt><trkpt lat="46.3564144" lon="13.0308194"><ele>383.0</ele><time>2026-04-22T08:32:01.677Z</time></trkpt><trkpt lat="46.3564804" lon="13.0308242"><ele>383.0</ele><time>2026-04-22T08:32:13.676Z</time></trkpt><trkpt lat="46.3565711" lon="13.0308298"><ele>383.0</ele><time>2026-04-22T08:32:15.676Z</time></trkpt><trkpt lat="46.3566512" lon="13.0307538"><ele>383.33333333333337</ele><time>2026-04-22T08:32:17.676Z</time></trkpt><trkpt lat="46.3566856" lon="13.0306682"><ele>383.6666666666667</ele><time>2026-04-22T08:32:18.676Z</time></trkpt><trkpt lat="46.3567111" lon="13.030553"><ele>384.0</ele><time>2026-04-22T08:32:19.676Z</time></trkpt><trkpt lat="46.356737" lon="13.0304264"><ele>384.33333333333337</ele><time>2026-04-22T08:32:20.677Z</time></trkpt><trkpt lat="46.3567624" lon="13.0303184"><ele>384.6666666666667</ele><time>2026-04-22T08:32:21.677Z</time></trkpt><trkpt lat="46.3567848" lon="13.0302169"><ele>385.0</ele><time>2026-04-22T08:32:22.677Z</time></trkpt><trkpt lat="46.3568081" lon="13.0301298"><ele>383.6666666666667</ele><time>2026-04-22T08:32:23.676Z</time></trkpt><trkpt lat="46.3568511" lon="13.0299729"><ele>382.33333333333337</ele><time>2026-04-22T08:32:25.676Z</time></trkpt><trkpt lat="46.3568748" lon="13.0298878"><ele>381.0</ele><time>2026-04-22T08:32:26.676Z</time></trkpt><trkpt lat="46.3569112" lon="13.0297797"><ele>379.6666666666667</ele><time>2026-04-22T08:32:27.676Z</time></trkpt><trkpt lat="46.3569517" lon="13.0296631"><ele>378.33333333333337</ele><time>2026-04-22T08:32:28.676Z</time></trkpt><trkpt lat="46.3569971" lon="13.0295444"><ele>377.0</ele><time>2026-04-22T08:32:29.678Z</time></trkpt><trkpt lat="46.3570416" lon="13.0294363"><ele>377.0</ele><time>2026-04-22T08:32:30.676Z</time></trkpt><trkpt lat="46.3570878" lon="13.0293256"><ele>377.0</ele><time>2026-04-22T08:32:31.676Z</time></trkpt><trkpt lat="46.3571297" lon="13.0292058"><ele>377.0</ele><time>2026-04-22T08:32:32.677Z</time></trkpt><trkpt lat="46.3571579" lon="13.0290878"><ele>377.0</ele><time>2026-04-22T08:32:33.676Z</time></trkpt><trkpt lat="46.3571823" lon="13.0289704"><ele>377.0</ele><time>2026-04-22T08:32:34.677Z</time></trkpt><trkpt lat="46.357219" lon="13.0288481"><ele>377.0</ele><time>2026-04-22T08:32:35.677Z</time></trkpt><trkpt lat="46.3572603" lon="13.0287401"><ele>377.71428571428567</ele><time>2026-04-22T08:32:36.676Z</time></trkpt><trkpt lat="46.3572927" lon="13.0286342"><ele>378.42857142857144</ele><time>2026-04-22T08:32:37.676Z</time></trkpt><trkpt lat="46.3573204" lon="13.0285324"><ele>379.1428571428571</ele><time>2026-04-22T08:32:38.676Z</time></trkpt><trkpt lat="46.3573447" lon="13.0284371"><ele>379.85714285714283</ele><time>2026-04-22T08:32:39.678Z</time></trkpt><trkpt lat="46.3573683" lon="13.0283464"><ele>380.57142857142856</ele><time>2026-04-22T08:32:40.676Z</time></trkpt><trkpt lat="46.3574024" lon="13.0282604"><ele>381.2857142857143</ele><time>2026-04-22T08:32:41.677Z</time></trkpt><trkpt lat="46.3574525" lon="13.0281693"><ele>382.0</ele><time>2026-04-22T08:32:42.677Z</time></trkpt><trkpt lat="46.3575131" lon="13.0280962"><ele>377.6</ele><time>2026-04-22T08:32:43.676Z</time></trkpt><trkpt lat="46.3575747" lon="13.0280278"><ele>373.20000000000005</ele><time>2026-04-22T08:32:44.677Z</time></trkpt><trkpt lat="46.3576314" lon="13.0279415"><ele>368.8</ele><time>2026-04-22T08:32:45.676Z</time></trkpt><trkpt lat="46.3576787" lon="13.0278216"><ele>364.4</ele><time>2026-04-22T08:32:46.676Z</time></trkpt><trkpt lat="46.3577124" lon="13.0276766"><ele>360.0</ele><time>2026-04-22T08:32:47.676Z</time></trkpt><trkpt lat="46.357743" lon="13.0275403"><ele>356.6</ele><time>2026-04-22T08:32:48.677Z</time></trkpt><trkpt lat="46.3577665" lon="13.0274001"><ele>353.2</ele><time>2026-04-22T08:32:49.676Z</time></trkpt><trkpt lat="46.3577861" lon="13.0272652"><ele>349.79999999999995</ele><time>2026-04-22T08:32:50.676Z</time></trkpt><trkpt lat="46.3578131" lon="13.0271346"><ele>346.4</ele><time>2026-04-22T08:32:51.676Z</time></trkpt><trkpt lat="46.3578459" lon="13.0270121"><ele>343.0</ele><time>2026-04-22T08:32:52.676Z</time></trkpt><trkpt lat="46.3578767" lon="13.0269013"><ele>343.0</ele><time>2026-04-22T08:32:53.677Z</time></trkpt><trkpt lat="46.3579073" lon="13.0267971"><ele>343.0</ele><time>2026-04-22T08:32:54.676Z</time></trkpt><trkpt lat="46.3579464" lon="13.0266922"><ele>343.0</ele><time>2026-04-22T08:32:55.678Z</time></trkpt><trkpt lat="46.3580034" lon="13.0265907"><ele>343.0</ele><time>2026-04-22T08:32:56.676Z</time></trkpt><trkpt lat="46.3580643" lon="13.0265033"><ele>343.0</ele><time>2026-04-22T08:32:57.676Z</time></trkpt><trkpt lat="46.358119" lon="13.0264028"><ele>343.0</ele><time>2026-04-22T08:32:58.677Z</time></trkpt><trkpt lat="46.3581754" lon="13.0262838"><ele>344.59999999999997</ele><time>2026-04-22T08:32:59.677Z</time></trkpt><trkpt lat="46.3582266" lon="13.026165"><ele>346.2</ele><time>2026-04-22T08:33:00.677Z</time></trkpt><trkpt lat="46.3582825" lon="13.0260498"><ele>347.8</ele><time>2026-04-22T08:33:01.676Z</time></trkpt><trkpt lat="46.3583391" lon="13.0259358"><ele>349.4</ele><time>2026-04-22T08:33:02.677Z</time></trkpt><trkpt lat="46.3583997" lon="13.0258272"><ele>351.0</ele><time>2026-04-22T08:33:03.676Z</time></trkpt><trkpt lat="46.358465" lon="13.0257247"><ele>346.6</ele><time>2026-04-22T08:33:04.677Z</time></trkpt><trkpt lat="46.3585332" lon="13.0256274"><ele>342.20000000000005</ele><time>2026-04-22T08:33:05.676Z</time></trkpt><trkpt lat="46.358612" lon="13.025545"><ele>337.79999999999995</ele><time>2026-04-22T08:33:06.678Z</time></trkpt><trkpt lat="46.3586887" lon="13.0254569"><ele>333.4</ele><time>2026-04-22T08:33:07.676Z</time></trkpt><trkpt lat="46.3587535" lon="13.0253557"><ele>329.0</ele><time>2026-04-22T08:33:08.676Z</time></trkpt><trkpt lat="46.3588102" lon="13.0252484"><ele>326.4</ele><time>2026-04-22T08:33:09.676Z</time></trkpt><trkpt lat="46.3588694" lon="13.0251487"><ele>323.79999999999995</ele><time>2026-04-22T08:33:10.676Z</time></trkpt><trkpt lat="46.3589435" lon="13.0250616"><ele>321.20000000000005</ele><time>2026-04-22T08:33:11.677Z</time></trkpt><trkpt lat="46.3590242" lon="13.0249966"><ele>318.6</ele><time>2026-04-22T08:33:12.676Z</time></trkpt><trkpt lat="46.3591107" lon="13.0249448"><ele>316.0</ele><time>2026-04-22T08:33:13.676Z</time></trkpt><trkpt lat="46.3591971" lon="13.0248937"><ele>316.0</ele><time>2026-04-22T08:33:14.676Z</time></trkpt><trkpt lat="46.3592881" lon="13.0248434"><ele>316.0</ele><time>2026-04-22T08:33:15.677Z</time></trkpt><trkpt lat="46.3593817" lon="13.0248083"><ele>316.0</ele><time>2026-04-22T08:33:16.676Z</time></trkpt><trkpt lat="46.3594767" lon="13.0247773"><ele>316.0</ele><time>2026-04-22T08:33:17.676Z</time></trkpt><trkpt lat="46.3595725" lon="13.0247554"><ele>316.0</ele><time>2026-04-22T08:33:18.677Z</time></trkpt><trkpt lat="46.3596668" lon="13.0247275"><ele>314.8</ele><time>2026-04-22T08:33:19.676Z</time></trkpt><trkpt lat="46.3597584" lon="13.0246821"><ele>313.6</ele><time>2026-04-22T08:33:20.677Z</time></trkpt><trkpt lat="46.3598533" lon="13.024653"><ele>312.4</ele><time>2026-04-22T08:33:21.676Z</time></trkpt><trkpt lat="46.3599483" lon="13.0246442"><ele>311.2</ele><time>2026-04-22T08:33:22.677Z</time></trkpt><trkpt lat="46.3600466" lon="13.0246532"><ele>310.0</ele><time>2026-04-22T08:33:23.676Z</time></trkpt><trkpt lat="46.3601508" lon="13.0246825"><ele>310.0</ele><time>2026-04-22T08:33:24.677Z</time></trkpt><trkpt lat="46.3602481" lon="13.0247168"><ele>310.0</ele><time>2026-04-22T08:33:25.676Z</time></trkpt><trkpt lat="46.3603478" lon="13.0247481"><ele>310.0</ele><time>2026-04-22T08:33:26.676Z</time></trkpt><trkpt lat="46.3604473" lon="13.0247746"><ele>310.0</ele><time>2026-04-22T08:33:27.677Z</time></trkpt><trkpt lat="46.3605471" lon="13.0247962"><ele>310.0</ele><time>2026-04-22T08:33:28.676Z</time></trkpt><trkpt lat="46.3606436" lon="13.0248238"><ele>309.2</ele><time>2026-04-22T08:33:29.676Z</time></trkpt><trkpt lat="46.3607401" lon="13.0248503"><ele>308.4</ele><time>2026-04-22T08:33:30.676Z</time></trkpt><trkpt lat="46.3608368" lon="13.0248732"><ele>307.6</ele><time>2026-04-22T08:33:31.676Z</time></trkpt><trkpt lat="46.3609327" lon="13.0248948"><ele>306.8</ele><time>2026-04-22T08:33:32.676Z</time></trkpt><trkpt lat="46.3610285" lon="13.0249159"><ele>306.0</ele><time>2026-04-22T08:33:33.676Z</time></trkpt><trkpt lat="46.3611245" lon="13.0249309"><ele>306.0</ele><time>2026-04-22T08:33:34.676Z</time></trkpt><trkpt lat="46.3612124" lon="13.0249325"><ele>306.0</ele><time>2026-04-22T08:33:35.676Z</time></trkpt><trkpt lat="46.3612988" lon="13.0249258"><ele>306.0</ele><time>2026-04-22T08:33:36.676Z</time></trkpt><trkpt lat="46.361379" lon="13.0249156"><ele>306.0</ele><time>2026-04-22T08:33:37.677Z</time></trkpt><trkpt lat="46.3614558" lon="13.0249109"><ele>306.0</ele><time>2026-04-22T08:33:38.676Z</time></trkpt><trkpt lat="46.3615211" lon="13.0249062"><ele>306.0</ele><time>2026-04-22T08:33:39.676Z</time></trkpt><trkpt lat="46.3615868" lon="13.0248869"><ele>305.8</ele><time>2026-04-22T08:33:43.676Z</time></trkpt><trkpt lat="46.3616588" lon="13.0248694"><ele>305.6</ele><time>2026-04-22T08:33:45.678Z</time></trkpt><trkpt lat="46.3617309" lon="13.0248756"><ele>305.4</ele><time>2026-04-22T08:33:46.676Z</time></trkpt><trkpt lat="46.3618483" lon="13.0248808"><ele>305.2</ele><time>2026-04-22T08:33:48.677Z</time></trkpt><trkpt lat="46.3619585" lon="13.0248916"><ele>305.0</ele><time>2026-04-22T08:33:50.676Z</time></trkpt><trkpt lat="46.3620653" lon="13.0249001"><ele>305.0</ele><time>2026-04-22T08:33:52.676Z</time></trkpt><trkpt lat="46.362159" lon="13.0248941"><ele>305.0</ele><time>2026-04-22T08:33:54.676Z</time></trkpt><trkpt lat="46.3622459" lon="13.0249455"><ele>305.0</ele><time>2026-04-22T08:33:56.677Z</time></trkpt><trkpt lat="46.362291" lon="13.0251145"><ele>305.0</ele><time>2026-04-22T08:33:58.677Z</time></trkpt><trkpt lat="46.362299" lon="13.0252295"><ele>305.0</ele><time>2026-04-22T08:33:59.676Z</time></trkpt><trkpt lat="46.3622972" lon="13.0253773"><ele>307.25</ele><time>2026-04-22T08:34:00.677Z</time></trkpt><trkpt lat="46.3622716" lon="13.0255148"><ele>309.5</ele><time>2026-04-22T08:34:01.676Z</time></trkpt><trkpt lat="46.3622263" lon="13.0256585"><ele>311.75</ele><time>2026-04-22T08:34:02.676Z</time></trkpt><trkpt lat="46.3621739" lon="13.025819"><ele>314.0</ele><time>2026-04-22T08:34:03.676Z</time></trkpt><trkpt lat="46.3621287" lon="13.0259946"><ele>314.0</ele><time>2026-04-22T08:34:04.676Z</time></trkpt><trkpt lat="46.3620998" lon="13.0261909"><ele>314.0</ele><time>2026-04-22T08:34:05.677Z</time></trkpt><trkpt lat="46.3620806" lon="13.0263791"><ele>314.0</ele><time>2026-04-22T08:34:06.676Z</time></trkpt><trkpt lat="46.3620662" lon="13.0265522"><ele>314.0</ele><time>2026-04-22T08:34:07.677Z</time></trkpt><trkpt lat="46.3620477" lon="13.026715"><ele>317.0</ele><time>2026-04-22T08:34:08.676Z</time></trkpt><trkpt lat="46.3620262" lon="13.0268501"><ele>320.0</ele><time>2026-04-22T08:34:09.676Z</time></trkpt><trkpt lat="46.3620382" lon="13.0269937"><ele>323.0</ele><time>2026-04-22T08:34:10.676Z</time></trkpt><trkpt lat="46.3620917" lon="13.0271276"><ele>326.0</ele><time>2026-04-22T08:34:11.676Z</time></trkpt><trkpt lat="46.3621484" lon="13.027243"><ele>329.0</ele><time>2026-04-22T08:34:12.676Z</time></trkpt><trkpt lat="46.3621907" lon="13.0273584"><ele>327.5</ele><time>2026-04-22T08:34:13.676Z</time></trkpt><trkpt lat="46.3622181" lon="13.0274977"><ele>326.0</ele><time>2026-04-22T08:34:14.676Z</time></trkpt><trkpt lat="46.3622327" lon="13.0276597"><ele>324.5</ele><time>2026-04-22T08:34:15.676Z</time></trkpt><trkpt lat="46.3622633" lon="13.0278444"><ele>323.0</ele><time>2026-04-22T08:34:16.676Z</time></trkpt><trkpt lat="46.3623003" lon="13.0280171"><ele>323.0</ele><time>2026-04-22T08:34:17.676Z</time></trkpt><trkpt lat="46.3623059" lon="13.0281933"><ele>323.0</ele><time>2026-04-22T08:34:18.677Z</time></trkpt><trkpt lat="46.3622907" lon="13.0283615"><ele>323.0</ele><time>2026-04-22T08:34:19.676Z</time></trkpt><trkpt lat="46.3622765" lon="13.0285481"><ele>323.0</ele><time>2026-04-22T08:34:20.676Z</time></trkpt><trkpt lat="46.3622693" lon="13.0287219"><ele>324.4</ele><time>2026-04-22T08:34:21.676Z</time></trkpt><trkpt lat="46.3622667" lon="13.0288874"><ele>325.79999999999995</ele><time>2026-04-22T08:34:22.676Z</time></trkpt><trkpt lat="46.3622646" lon="13.0290401"><ele>327.2</ele><time>2026-04-22T08:34:23.676Z</time></trkpt><trkpt lat="46.3622664" lon="13.0291798"><ele>328.6</ele><time>2026-04-22T08:34:24.677Z</time></trkpt><trkpt lat="46.3622695" lon="13.0293002"><ele>330.0</ele><time>2026-04-22T08:34:25.676Z</time></trkpt><trkpt lat="46.3622721" lon="13.0294047"><ele>331.0</ele><time>2026-04-22T08:34:26.677Z</time></trkpt><trkpt lat="46.3622875" lon="13.0295591"><ele>331.0</ele><time>2026-04-22T08:34:28.676Z</time></trkpt><trkpt lat="46.3622518" lon="13.029656"><ele>331.0</ele><time>2026-04-22T08:34:31.677Z</time></trkpt><trkpt lat="46.3621845" lon="13.0296684"><ele>359.0</ele><time>2026-04-22T08:34:35.677Z</time></trkpt><trkpt lat="46.3621111" lon="13.0296552"><ele>359.0</ele><time>2026-04-22T08:34:38.676Z</time></trkpt><trkpt lat="46.3621064" lon="13.0295544"><ele>359.0</ele><time>2026-04-22T08:34:45.676Z</time></trkpt></trkseg><trkseg><trkpt lat="46.3631994" lon="13.0313818"><ele>325.0</ele><time>2026-04-22T08:49:03.674Z</time></trkpt><trkpt lat="46.3632847" lon="13.0314219"><ele>325.0</ele><time>2026-04-22T08:49:04.675Z</time></trkpt><trkpt lat="46.3633796" lon="13.0314558"><ele>325.0</ele><time>2026-04-22T08:49:05.674Z</time></trkpt><trkpt lat="46.363485" lon="13.031494"><ele>325.0</ele><time>2026-04-22T08:49:06.675Z</time></trkpt><trkpt lat="46.3636131" lon="13.0315344"><ele>325.0</ele><time>2026-04-22T08:49:07.674Z</time></trkpt><trkpt lat="46.363738" lon="13.03157"><ele>325.5</ele><time>2026-04-22T08:49:08.674Z</time></trkpt><trkpt lat="46.363865" lon="13.0316071"><ele>326.0</ele><time>2026-04-22T08:49:09.675Z</time></trkpt><trkpt lat="46.3639937" lon="13.0316399"><ele>326.5</ele><time>2026-04-22T08:49:10.675Z</time></trkpt><trkpt lat="46.3641209" lon="13.0316765"><ele>327.0</ele><time>2026-04-22T08:49:11.675Z</time></trkpt><trkpt lat="46.3642415" lon="13.031713"><ele>319.75</ele><time>2026-04-22T08:49:12.674Z</time></trkpt><trkpt lat="46.3643587" lon="13.0317475"><ele>312.5</ele><time>2026-04-22T08:49:13.674Z</time></trkpt><trkpt lat="46.3644707" lon="13.031779"><ele>305.25</ele><time>2026-04-22T08:49:14.675Z</time></trkpt><trkpt lat="46.3645801" lon="13.0318144"><ele>298.0</ele><time>2026-04-22T08:49:15.674Z</time></trkpt><trkpt lat="46.3646886" lon="13.0318552"><ele>296.75</ele><time>2026-04-22T08:49:16.675Z</time></trkpt><trkpt lat="46.3647937" lon="13.0319064"><ele>295.5</ele><time>2026-04-22T08:49:17.675Z</time></trkpt><trkpt lat="46.3649062" lon="13.0319635"><ele>294.25</ele><time>2026-04-22T08:49:18.675Z</time></trkpt><trkpt lat="46.3650408" lon="13.032035"><ele>293.0</ele><time>2026-04-22T08:49:19.676Z</time></trkpt><trkpt lat="46.3651669" lon="13.0321025"><ele>293.0</ele><time>2026-04-22T08:49:20.674Z</time></trkpt><trkpt lat="46.3652905" lon="13.0321655"><ele>293.0</ele><time>2026-04-22T08:49:21.674Z</time></trkpt><trkpt lat="46.3654081" lon="13.0322259"><ele>293.0</ele><time>2026-04-22T08:49:22.674Z</time></trkpt><trkpt lat="46.3655252" lon="13.0322875"><ele>293.0</ele><time>2026-04-22T08:49:23.674Z</time></trkpt><trkpt lat="46.3656387" lon="13.0323447"><ele>291.75</ele><time>2026-04-22T08:49:24.674Z</time></trkpt><trkpt lat="46.3657494" lon="13.0324001"><ele>290.5</ele><time>2026-04-22T08:49:25.675Z</time></trkpt><trkpt lat="46.3658558" lon="13.0324603"><ele>289.25</ele><time>2026-04-22T08:49:26.675Z</time></trkpt><trkpt lat="46.3659624" lon="13.032533"><ele>288.0</ele><time>2026-04-22T08:49:27.674Z</time></trkpt><trkpt lat="46.366062" lon="13.0326232"><ele>287.75</ele><time>2026-04-22T08:49:28.675Z</time></trkpt><trkpt lat="46.3661622" lon="13.0327538"><ele>287.5</ele><time>2026-04-22T08:49:29.675Z</time></trkpt><trkpt lat="46.366254" lon="13.0329065"><ele>287.25</ele><time>2026-04-22T08:49:30.675Z</time></trkpt><trkpt lat="46.3663335" lon="13.0330651"><ele>287.0</ele><time>2026-04-22T08:49:31.675Z</time></trkpt><trkpt lat="46.3664096" lon="13.0332187"><ele>286.2</ele><time>2026-04-22T08:49:32.674Z</time></trkpt><trkpt lat="46.3664816" lon="13.0333661"><ele>285.4</ele><time>2026-04-22T08:49:33.674Z</time></trkpt><trkpt lat="46.3665491" lon="13.0335001"><ele>284.6</ele><time>2026-04-22T08:49:34.675Z</time></trkpt><trkpt lat="46.3666069" lon="13.0336149"><ele>283.8</ele><time>2026-04-22T08:49:35.674Z</time></trkpt><trkpt lat="46.3666595" lon="13.0337208"><ele>283.0</ele><time>2026-04-22T08:49:36.674Z</time></trkpt><trkpt lat="46.3667049" lon="13.0338077"><ele>283.0</ele><time>2026-04-22T08:49:37.674Z</time></trkpt><trkpt lat="46.3667686" lon="13.0339208"><ele>283.0</ele><time>2026-04-22T08:49:39.674Z</time></trkpt><trkpt lat="46.3667622" lon="13.0340589"><ele>283.0</ele><time>2026-04-22T08:49:42.674Z</time></trkpt><trkpt lat="46.3667114" lon="13.0341295"><ele>283.0</ele><time>2026-04-22T08:49:43.674Z</time></trkpt><trkpt lat="46.366638" lon="13.0342124"><ele>283.0</ele><time>2026-04-22T08:49:44.674Z</time></trkpt><trkpt lat="46.3665566" lon="13.0343206"><ele>283.25</ele><time>2026-04-22T08:49:45.674Z</time></trkpt><trkpt lat="46.3664713" lon="13.0344439"><ele>283.5</ele><time>2026-04-22T08:49:46.674Z</time></trkpt><trkpt lat="46.3663859" lon="13.0345715"><ele>283.75</ele><time>2026-04-22T08:49:47.674Z</time></trkpt><trkpt lat="46.3662972" lon="13.0347101"><ele>284.0</ele><time>2026-04-22T08:49:48.674Z</time></trkpt><trkpt lat="46.3662033" lon="13.034865"><ele>285.33333333333337</ele><time>2026-04-22T08:49:49.675Z</time></trkpt><trkpt lat="46.3661163" lon="13.0350248"><ele>286.6666666666667</ele><time>2026-04-22T08:49:50.674Z</time></trkpt><trkpt lat="46.3660273" lon="13.0352032"><ele>288.0</ele><time>2026-04-22T08:49:51.675Z</time></trkpt><trkpt lat="46.3659431" lon="13.0354"><ele>288.0</ele><time>2026-04-22T08:49:52.675Z</time></trkpt><trkpt lat="46.3658576" lon="13.0356234"><ele>288.0</ele><time>2026-04-22T08:49:53.674Z</time></trkpt><trkpt lat="46.3657812" lon="13.0358382"><ele>288.0</ele><time>2026-04-22T08:49:54.674Z</time></trkpt><trkpt lat="46.3657091" lon="13.0360544"><ele>288.0</ele><time>2026-04-22T08:49:55.675Z</time></trkpt><trkpt lat="46.3656426" lon="13.0362732"><ele>288.0</ele><time>2026-04-22T08:49:56.674Z</time></trkpt><trkpt lat="46.3655785" lon="13.0364913"><ele>288.0</ele><time>2026-04-22T08:49:57.674Z</time></trkpt><trkpt lat="46.3655144" lon="13.0367132"><ele>288.0</ele><time>2026-04-22T08:49:58.674Z</time></trkpt><trkpt lat="46.365442" lon="13.0369317"><ele>288.0</ele><time>2026-04-22T08:49:59.674Z</time></trkpt><trkpt lat="46.365367" lon="13.0371484"><ele>288.0</ele><time>2026-04-22T08:50:00.675Z</time></trkpt><trkpt lat="46.3652969" lon="13.037377"><ele>287.6666666666667</ele><time>2026-04-22T08:50:01.674Z</time></trkpt><trkpt lat="46.365231" lon="13.03761"><ele>287.33333333333337</ele><time>2026-04-22T08:50:02.675Z</time></trkpt><trkpt lat="46.3651642" lon="13.0378463"><ele>287.0</ele><time>2026-04-22T08:50:03.674Z</time></trkpt><trkpt lat="46.3650987" lon="13.0380814"><ele>286.6666666666667</ele><time>2026-04-22T08:50:04.675Z</time></trkpt><trkpt lat="46.365029" lon="13.0383343"><ele>286.3333333333333</ele><time>2026-04-22T08:50:05.674Z</time></trkpt><trkpt lat="46.3649512" lon="13.0385992"><ele>286.0</ele><time>2026-04-22T08:50:06.674Z</time></trkpt><trkpt lat="46.3648823" lon="13.0388451"><ele>286.0</ele><time>2026-04-22T08:50:07.674Z</time></trkpt><trkpt lat="46.3648137" lon="13.0390888"><ele>286.0</ele><time>2026-04-22T08:50:08.674Z</time></trkpt><trkpt lat="46.3647468" lon="13.0393303"><ele>286.0</ele><time>2026-04-22T08:50:09.674Z</time></trkpt><trkpt lat="46.3646806" lon="13.039569"><ele>290.0</ele><time>2026-04-22T08:50:10.674Z</time></trkpt><trkpt lat="46.3646168" lon="13.0398046"><ele>294.0</ele><time>2026-04-22T08:50:11.675Z</time></trkpt><trkpt lat="46.3645542" lon="13.0400375"><ele>298.0</ele><time>2026-04-22T08:50:12.675Z</time></trkpt><trkpt lat="46.3644914" lon="13.0402647"><ele>298.0</ele><time>2026-04-22T08:50:13.674Z</time></trkpt><trkpt lat="46.3644262" lon="13.0404889"><ele>298.0</ele><time>2026-04-22T08:50:14.674Z</time></trkpt><trkpt lat="46.3643583" lon="13.0407065"><ele>298.0</ele><time>2026-04-22T08:50:15.674Z</time></trkpt><trkpt lat="46.3642828" lon="13.0409228"><ele>295.66666666666663</ele><time>2026-04-22T08:50:16.675Z</time></trkpt><trkpt lat="46.3641989" lon="13.0411372"><ele>293.3333333333333</ele><time>2026-04-22T08:50:17.674Z</time></trkpt><trkpt lat="46.3641143" lon="13.0413573"><ele>291.0</ele><time>2026-04-22T08:50:18.674Z</time></trkpt><trkpt lat="46.3640283" lon="13.0415716"><ele>290.3333333333333</ele><time>2026-04-22T08:50:19.674Z</time></trkpt><trkpt lat="46.3639427" lon="13.0417842"><ele>289.66666666666663</ele><time>2026-04-22T08:50:20.674Z</time></trkpt><trkpt lat="46.3638593" lon="13.0419953"><ele>289.0</ele><time>2026-04-22T08:50:21.675Z</time></trkpt><trkpt lat="46.363775" lon="13.042207"><ele>296.0</ele><time>2026-04-22T08:50:22.674Z</time></trkpt><trkpt lat="46.3636924" lon="13.0424182"><ele>303.0</ele><time>2026-04-22T08:50:23.674Z</time></trkpt><trkpt lat="46.3636058" lon="13.0426277"><ele>310.0</ele><time>2026-04-22T08:50:24.674Z</time></trkpt><trkpt lat="46.363517" lon="13.0428353"><ele>310.0</ele><time>2026-04-22T08:50:25.674Z</time></trkpt><trkpt lat="46.3634217" lon="13.0430418"><ele>310.0</ele><time>2026-04-22T08:50:26.675Z</time></trkpt><trkpt lat="46.3633164" lon="13.043242"><ele>310.0</ele><time>2026-04-22T08:50:27.674Z</time></trkpt><trkpt lat="46.3631857" lon="13.0434483"><ele>311.3333333333333</ele><time>2026-04-22T08:50:28.676Z</time></trkpt><trkpt lat="46.3630375" lon="13.0436614"><ele>312.6666666666667</ele><time>2026-04-22T08:50:29.674Z</time></trkpt><trkpt lat="46.3628883" lon="13.0438706"><ele>314.0</ele><time>2026-04-22T08:50:30.674Z</time></trkpt><trkpt lat="46.3627398" lon="13.0440726"><ele>310.33333333333337</ele><time>2026-04-22T08:50:31.675Z</time></trkpt><trkpt lat="46.3625962" lon="13.0442667"><ele>306.6666666666667</ele><time>2026-04-22T08:50:32.674Z</time></trkpt><trkpt lat="46.3624645" lon="13.0444503"><ele>303.0</ele><time>2026-04-22T08:50:33.674Z</time></trkpt><trkpt lat="46.3623273" lon="13.0446291"><ele>305.6666666666667</ele><time>2026-04-22T08:50:34.675Z</time></trkpt><trkpt lat="46.3621915" lon="13.0447924"><ele>308.33333333333337</ele><time>2026-04-22T08:50:35.674Z</time></trkpt><trkpt lat="46.3620466" lon="13.0449403"><ele>311.0</ele><time>2026-04-22T08:50:36.674Z</time></trkpt><trkpt lat="46.3618919" lon="13.0450655"><ele>311.0</ele><time>2026-04-22T08:50:37.675Z</time></trkpt><trkpt lat="46.3617189" lon="13.0451667"><ele>311.0</ele><time>2026-04-22T08:50:38.675Z</time></trkpt><trkpt lat="46.3615506" lon="13.0452587"><ele>311.0</ele><time>2026-04-22T08:50:39.675Z</time></trkpt><trkpt lat="46.3613952" lon="13.0453349"><ele>309.0</ele><time>2026-04-22T08:50:40.674Z</time></trkpt><trkpt lat="46.3612505" lon="13.0454044"><ele>307.0</ele><time>2026-04-22T08:50:41.675Z</time></trkpt><trkpt lat="46.3611187" lon="13.0454666"><ele>305.0</ele><time>2026-04-22T08:50:42.674Z</time></trkpt><trkpt lat="46.3610002" lon="13.0455233"><ele>303.0</ele><time>2026-04-22T08:50:43.674Z</time></trkpt><trkpt lat="46.3608893" lon="13.0455957"><ele>303.0</ele><time>2026-04-22T08:50:44.674Z</time></trkpt><trkpt lat="46.3607977" lon="13.0457029"><ele>303.0</ele><time>2026-04-22T08:50:45.674Z</time></trkpt><trkpt lat="46.3607395" lon="13.0458506"><ele>303.0</ele><time>2026-04-22T08:50:46.674Z</time></trkpt><trkpt lat="46.3607007" lon="13.0460448"><ele>303.0</ele><time>2026-04-22T08:50:47.674Z</time></trkpt><trkpt lat="46.3606675" lon="13.046286"><ele>303.0</ele><time>2026-04-22T08:50:48.674Z</time></trkpt><trkpt lat="46.3606311" lon="13.0465388"><ele>303.0</ele><time>2026-04-22T08:50:49.674Z</time></trkpt><trkpt lat="46.3605871" lon="13.0467822"><ele>303.0</ele><time>2026-04-22T08:50:50.674Z</time></trkpt><trkpt lat="46.3605346" lon="13.0470296"><ele>295.6666666666667</ele><time>2026-04-22T08:50:51.675Z</time></trkpt><trkpt lat="46.3604745" lon="13.047271"><ele>288.33333333333337</ele><time>2026-04-22T08:50:52.676Z</time></trkpt><trkpt lat="46.3604119" lon="13.0475103"><ele>281.0</ele><time>2026-04-22T08:50:53.675Z</time></trkpt><trkpt lat="46.3603524" lon="13.0477498"><ele>281.0</ele><time>2026-04-22T08:50:54.674Z</time></trkpt><trkpt lat="46.3603043" lon="13.0479963"><ele>281.0</ele><time>2026-04-22T08:50:55.674Z</time></trkpt><trkpt lat="46.3602722" lon="13.0482548"><ele>281.0</ele><time>2026-04-22T08:50:56.674Z</time></trkpt><trkpt lat="46.3602393" lon="13.0485158"><ele>283.0</ele><time>2026-04-22T08:50:57.675Z</time></trkpt><trkpt lat="46.3601972" lon="13.048773"><ele>285.0</ele><time>2026-04-22T08:50:58.674Z</time></trkpt><trkpt lat="46.3601529" lon="13.0490265"><ele>287.0</ele><time>2026-04-22T08:50:59.674Z</time></trkpt><trkpt lat="46.3601101" lon="13.0492795"><ele>287.6666666666667</ele><time>2026-04-22T08:51:00.675Z</time></trkpt><trkpt lat="46.3600657" lon="13.0495292"><ele>288.3333333333333</ele><time>2026-04-22T08:51:01.674Z</time></trkpt><trkpt lat="46.3600275" lon="13.0497747"><ele>289.0</ele><time>2026-04-22T08:51:02.674Z</time></trkpt><trkpt lat="46.3599824" lon="13.0500191"><ele>291.3333333333333</ele><time>2026-04-22T08:51:03.674Z</time></trkpt><trkpt lat="46.3599417" lon="13.0502612"><ele>293.6666666666667</ele><time>2026-04-22T08:51:04.675Z</time></trkpt><trkpt lat="46.3599026" lon="13.0504969"><ele>296.0</ele><time>2026-04-22T08:51:05.674Z</time></trkpt><trkpt lat="46.3598604" lon="13.0507252"><ele>296.6666666666667</ele><time>2026-04-22T08:51:06.674Z</time></trkpt><trkpt lat="46.3598073" lon="13.0509446"><ele>297.3333333333333</ele><time>2026-04-22T08:51:07.674Z</time></trkpt><trkpt lat="46.3597358" lon="13.0511524"><ele>298.0</ele><time>2026-04-22T08:51:08.674Z</time></trkpt><trkpt lat="46.3596496" lon="13.0513532"><ele>291.66666666666663</ele><time>2026-04-22T08:51:09.674Z</time></trkpt><trkpt lat="46.3595554" lon="13.0515494"><ele>285.3333333333333</ele><time>2026-04-22T08:51:10.674Z</time></trkpt><trkpt lat="46.3594583" lon="13.051748"><ele>279.0</ele><time>2026-04-22T08:51:11.675Z</time></trkpt><trkpt lat="46.3593581" lon="13.0519422"><ele>279.0</ele><time>2026-04-22T08:51:12.674Z</time></trkpt><trkpt lat="46.359256" lon="13.0521328"><ele>279.0</ele><time>2026-04-22T08:51:13.674Z</time></trkpt><trkpt lat="46.3591476" lon="13.052318"><ele>279.0</ele><time>2026-04-22T08:51:14.674Z</time></trkpt><trkpt lat="46.3590299" lon="13.052491"><ele>278.6666666666667</ele><time>2026-04-22T08:51:15.675Z</time></trkpt><trkpt lat="46.3589129" lon="13.0526575"><ele>278.33333333333337</ele><time>2026-04-22T08:51:16.675Z</time></trkpt><trkpt lat="46.3587886" lon="13.0528155"><ele>278.0</ele><time>2026-04-22T08:51:17.674Z</time></trkpt><trkpt lat="46.3586629" lon="13.0529708"><ele>278.0</ele><time>2026-04-22T08:51:18.674Z</time></trkpt><trkpt lat="46.358528" lon="13.0531332"><ele>278.0</ele><time>2026-04-22T08:51:19.674Z</time></trkpt><trkpt lat="46.3583707" lon="13.0533048"><ele>278.0</ele><time>2026-04-22T08:51:20.675Z</time></trkpt><trkpt lat="46.3582096" lon="13.0534605"><ele>280.0</ele><time>2026-04-22T08:51:21.674Z</time></trkpt><trkpt lat="46.3580578" lon="13.0535929"><ele>282.0</ele><time>2026-04-22T08:51:22.674Z</time></trkpt><trkpt lat="46.3579083" lon="13.0537193"><ele>284.0</ele><time>2026-04-22T08:51:23.674Z</time></trkpt><trkpt lat="46.3577614" lon="13.0538415"><ele>286.6666666666667</ele><time>2026-04-22T08:51:24.675Z</time></trkpt><trkpt lat="46.357623" lon="13.053967"><ele>289.3333333333333</ele><time>2026-04-22T08:51:25.674Z</time></trkpt><trkpt lat="46.3575028" lon="13.0541069"><ele>292.0</ele><time>2026-04-22T08:51:26.674Z</time></trkpt><trkpt lat="46.3574007" lon="13.0542657"><ele>292.0</ele><time>2026-04-22T08:51:27.674Z</time></trkpt><trkpt lat="46.3573226" lon="13.0544588"><ele>292.0</ele><time>2026-04-22T08:51:28.674Z</time></trkpt><trkpt lat="46.3572781" lon="13.0546868"><ele>292.0</ele><time>2026-04-22T08:51:29.674Z</time></trkpt><trkpt lat="46.3572626" lon="13.0549444"><ele>293.3333333333333</ele><time>2026-04-22T08:51:30.675Z</time></trkpt><trkpt lat="46.3572704" lon="13.0552158"><ele>294.6666666666667</ele><time>2026-04-22T08:51:31.674Z</time></trkpt><trkpt lat="46.357292" lon="13.0554614"><ele>296.0</ele><time>2026-04-22T08:51:32.674Z</time></trkpt><trkpt lat="46.357313" lon="13.0556911"><ele>298.33333333333337</ele><time>2026-04-22T08:51:33.675Z</time></trkpt><trkpt lat="46.3573126" lon="13.0559128"><ele>300.6666666666667</ele><time>2026-04-22T08:51:34.675Z</time></trkpt><trkpt lat="46.3572929" lon="13.0561432"><ele>303.0</ele><time>2026-04-22T08:51:35.674Z</time></trkpt><trkpt lat="46.3572527" lon="13.0563665"><ele>303.0</ele><time>2026-04-22T08:51:36.675Z</time></trkpt><trkpt lat="46.3572028" lon="13.0565904"><ele>303.0</ele><time>2026-04-22T08:51:37.675Z</time></trkpt><trkpt lat="46.3571509" lon="13.0568092"><ele>303.0</ele><time>2026-04-22T08:51:38.675Z</time></trkpt><trkpt lat="46.3571001" lon="13.0570243"><ele>313.3333333333333</ele><time>2026-04-22T08:51:39.674Z</time></trkpt><trkpt lat="46.3570507" lon="13.0572401"><ele>323.66666666666663</ele><time>2026-04-22T08:51:40.675Z</time></trkpt><trkpt lat="46.3570046" lon="13.057462"><ele>334.0</ele><time>2026-04-22T08:51:41.674Z</time></trkpt><trkpt lat="46.3569586" lon="13.0576841"><ele>334.0</ele><time>2026-04-22T08:51:42.674Z</time></trkpt><trkpt lat="46.3569148" lon="13.0579021"><ele>334.0</ele><time>2026-04-22T08:51:43.675Z</time></trkpt><trkpt lat="46.3568731" lon="13.0581215"><ele>334.0</ele><time>2026-04-22T08:51:44.674Z</time></trkpt><trkpt lat="46.3568307" lon="13.0583438"><ele>332.66666666666663</ele><time>2026-04-22T08:51:45.674Z</time></trkpt><trkpt lat="46.3567881" lon="13.0585681"><ele>331.3333333333333</ele><time>2026-04-22T08:51:46.674Z</time></trkpt><trkpt lat="46.3567448" lon="13.0587961"><ele>330.0</ele><time>2026-04-22T08:51:47.675Z</time></trkpt><trkpt lat="46.3566978" lon="13.0590214"><ele>326.6666666666667</ele><time>2026-04-22T08:51:48.674Z</time></trkpt><trkpt lat="46.3566407" lon="13.0592442"><ele>323.33333333333337</ele><time>2026-04-22T08:51:49.674Z</time></trkpt><trkpt lat="46.3565787" lon="13.0594587"><ele>320.0</ele><time>2026-04-22T08:51:50.676Z</time></trkpt><trkpt lat="46.3565155" lon="13.0596698"><ele>320.0</ele><time>2026-04-22T08:51:51.675Z</time></trkpt><trkpt lat="46.3564505" lon="13.0598789"><ele>320.0</ele><time>2026-04-22T08:51:52.675Z</time></trkpt><trkpt lat="46.35639" lon="13.0600958"><ele>320.0</ele><time>2026-04-22T08:51:53.675Z</time></trkpt><trkpt lat="46.3563354" lon="13.0603191"><ele>314.6666666666667</ele><time>2026-04-22T08:51:54.674Z</time></trkpt><trkpt lat="46.3562842" lon="13.0605458"><ele>309.3333333333333</ele><time>2026-04-22T08:51:55.675Z</time></trkpt><trkpt lat="46.3562326" lon="13.0607792"><ele>304.0</ele><time>2026-04-22T08:51:56.674Z</time></trkpt><trkpt lat="46.3561836" lon="13.0610144"><ele>299.0</ele><time>2026-04-22T08:51:57.674Z</time></trkpt><trkpt lat="46.356135" lon="13.061255"><ele>294.0</ele><time>2026-04-22T08:51:58.674Z</time></trkpt><trkpt lat="46.3560865" lon="13.061497"><ele>289.0</ele><time>2026-04-22T08:51:59.674Z</time></trkpt><trkpt lat="46.3560413" lon="13.0617308"><ele>288.0</ele><time>2026-04-22T08:52:00.676Z</time></trkpt><trkpt lat="46.3559964" lon="13.0619611"><ele>287.0</ele><time>2026-04-22T08:52:01.674Z</time></trkpt><trkpt lat="46.3559524" lon="13.0621829"><ele>286.0</ele><time>2026-04-22T08:52:02.674Z</time></trkpt><trkpt lat="46.3559158" lon="13.0623997"><ele>286.25</ele><time>2026-04-22T08:52:03.674Z</time></trkpt><trkpt lat="46.355893" lon="13.0626156"><ele>286.5</ele><time>2026-04-22T08:52:04.674Z</time></trkpt><trkpt lat="46.3558806" lon="13.0628131"><ele>286.75</ele><time>2026-04-22T08:52:05.674Z</time></trkpt><trkpt lat="46.3558752" lon="13.0629968"><ele>287.0</ele><time>2026-04-22T08:52:06.675Z</time></trkpt><trkpt lat="46.3558669" lon="13.0631658"><ele>287.0</ele><time>2026-04-22T08:52:07.675Z</time></trkpt><trkpt lat="46.3558427" lon="13.0633193"><ele>287.0</ele><time>2026-04-22T08:52:08.674Z</time></trkpt><trkpt lat="46.3557968" lon="13.0634492"><ele>287.0</ele><time>2026-04-22T08:52:09.675Z</time></trkpt><trkpt lat="46.3557215" lon="13.0635512"><ele>287.0</ele><time>2026-04-22T08:52:10.674Z</time></trkpt><trkpt lat="46.3556177" lon="13.063601"><ele>287.0</ele><time>2026-04-22T08:52:11.674Z</time></trkpt><trkpt lat="46.3555067" lon="13.0635736"><ele>287.75</ele><time>2026-04-22T08:52:12.675Z</time></trkpt><trkpt lat="46.3554019" lon="13.063463"><ele>288.5</ele><time>2026-04-22T08:52:13.675Z</time></trkpt><trkpt lat="46.3553258" lon="13.0633061"><ele>289.25</ele><time>2026-04-22T08:52:14.675Z</time></trkpt><trkpt lat="46.3552545" lon="13.0631521"><ele>290.0</ele><time>2026-04-22T08:52:15.674Z</time></trkpt><trkpt lat="46.3551623" lon="13.0630176"><ele>283.6666666666667</ele><time>2026-04-22T08:52:16.674Z</time></trkpt><trkpt lat="46.3550443" lon="13.0629261"><ele>277.3333333333333</ele><time>2026-04-22T08:52:17.675Z</time></trkpt><trkpt lat="46.3548965" lon="13.0628864"><ele>271.0</ele><time>2026-04-22T08:52:18.674Z</time></trkpt><trkpt lat="46.3547239" lon="13.0628724"><ele>269.3333333333333</ele><time>2026-04-22T08:52:19.674Z</time></trkpt><trkpt lat="46.3545558" lon="13.0628669"><ele>267.6666666666667</ele><time>2026-04-22T08:52:20.675Z</time></trkpt><trkpt lat="46.3543898" lon="13.0628693"><ele>266.0</ele><time>2026-04-22T08:52:21.674Z</time></trkpt><trkpt lat="46.3542276" lon="13.0628802"><ele>266.0</ele><time>2026-04-22T08:52:22.675Z</time></trkpt><trkpt lat="46.3540703" lon="13.0629063"><ele>266.0</ele><time>2026-04-22T08:52:23.674Z</time></trkpt><trkpt lat="46.3539106" lon="13.0629646"><ele>266.0</ele><time>2026-04-22T08:52:24.674Z</time></trkpt><trkpt lat="46.3537533" lon="13.0630481"><ele>267.33333333333337</ele><time>2026-04-22T08:52:25.674Z</time></trkpt><trkpt lat="46.353607" lon="13.0631392"><ele>268.6666666666667</ele><time>2026-04-22T08:52:26.675Z</time></trkpt><trkpt lat="46.3534705" lon="13.063254"><ele>270.0</ele><time>2026-04-22T08:52:27.674Z</time></trkpt><trkpt lat="46.3533406" lon="13.0633809"><ele>270.0</ele><time>2026-04-22T08:52:28.674Z</time></trkpt><trkpt lat="46.3532147" lon="13.0635156"><ele>270.0</ele><time>2026-04-22T08:52:29.674Z</time></trkpt><trkpt lat="46.3530917" lon="13.0636514"><ele>270.0</ele><time>2026-04-22T08:52:30.675Z</time></trkpt><trkpt lat="46.3529739" lon="13.0637973"><ele>270.0</ele><time>2026-04-22T08:52:31.674Z</time></trkpt><trkpt lat="46.3528651" lon="13.0639483"><ele>270.0</ele><time>2026-04-22T08:52:32.674Z</time></trkpt><trkpt lat="46.352765" lon="13.0641095"><ele>270.0</ele><time>2026-04-22T08:52:33.675Z</time></trkpt><trkpt lat="46.3526742" lon="13.0642825"><ele>267.5</ele><time>2026-04-22T08:52:34.674Z</time></trkpt><trkpt lat="46.3525894" lon="13.0644527"><ele>265.0</ele><time>2026-04-22T08:52:35.675Z</time></trkpt><trkpt lat="46.3525049" lon="13.0646135"><ele>262.5</ele><time>2026-04-22T08:52:36.674Z</time></trkpt><trkpt lat="46.3524226" lon="13.0647732"><ele>260.0</ele><time>2026-04-22T08:52:37.674Z</time></trkpt><trkpt lat="46.3523402" lon="13.0649316"><ele>260.75</ele><time>2026-04-22T08:52:38.674Z</time></trkpt><trkpt lat="46.3522567" lon="13.0650821"><ele>261.5</ele><time>2026-04-22T08:52:39.675Z</time></trkpt><trkpt lat="46.3521646" lon="13.0652245"><ele>262.25</ele><time>2026-04-22T08:52:40.674Z</time></trkpt><trkpt lat="46.3520631" lon="13.0653607"><ele>263.0</ele><time>2026-04-22T08:52:41.675Z</time></trkpt><trkpt lat="46.3519429" lon="13.0654696"><ele>263.0</ele><time>2026-04-22T08:52:42.674Z</time></trkpt><trkpt lat="46.351812" lon="13.0655617"><ele>263.0</ele><time>2026-04-22T08:52:43.674Z</time></trkpt><trkpt lat="46.3516753" lon="13.0656425"><ele>263.0</ele><time>2026-04-22T08:52:44.675Z</time></trkpt><trkpt lat="46.3515286" lon="13.0657406"><ele>262.33333333333337</ele><time>2026-04-22T08:52:45.674Z</time></trkpt><trkpt lat="46.3513809" lon="13.0658605"><ele>261.6666666666667</ele><time>2026-04-22T08:52:46.674Z</time></trkpt><trkpt lat="46.3512433" lon="13.0659822"><ele>261.0</ele><time>2026-04-22T08:52:47.674Z</time></trkpt><trkpt lat="46.3511107" lon="13.0661214"><ele>262.6666666666667</ele><time>2026-04-22T08:52:48.674Z</time></trkpt><trkpt lat="46.3509927" lon="13.0662681"><ele>264.33333333333337</ele><time>2026-04-22T08:52:49.674Z</time></trkpt><trkpt lat="46.3508777" lon="13.0664072"><ele>266.0</ele><time>2026-04-22T08:52:50.674Z</time></trkpt><trkpt lat="46.3507672" lon="13.0665534"><ele>261.6666666666667</ele><time>2026-04-22T08:52:51.675Z</time></trkpt><trkpt lat="46.3506672" lon="13.0667209"><ele>257.3333333333333</ele><time>2026-04-22T08:52:52.674Z</time></trkpt><trkpt lat="46.350577" lon="13.0669001"><ele>253.0</ele><time>2026-04-22T08:52:53.674Z</time></trkpt><trkpt lat="46.3504954" lon="13.0670757"><ele>251.75</ele><time>2026-04-22T08:52:54.674Z</time></trkpt><trkpt lat="46.3504018" lon="13.0672413"><ele>250.5</ele><time>2026-04-22T08:52:55.674Z</time></trkpt><trkpt lat="46.3502897" lon="13.0673757"><ele>249.25</ele><time>2026-04-22T08:52:56.675Z</time></trkpt><trkpt lat="46.3501589" lon="13.0674698"><ele>248.0</ele><time>2026-04-22T08:52:57.674Z</time></trkpt><trkpt lat="46.35002" lon="13.0675413"><ele>246.5</ele><time>2026-04-22T08:52:58.674Z</time></trkpt><trkpt lat="46.349889" lon="13.067592"><ele>245.0</ele><time>2026-04-22T08:52:59.675Z</time></trkpt><trkpt lat="46.3497534" lon="13.0676403"><ele>243.5</ele><time>2026-04-22T08:53:00.674Z</time></trkpt><trkpt lat="46.3496259" lon="13.0676831"><ele>242.0</ele><time>2026-04-22T08:53:01.675Z</time></trkpt><trkpt lat="46.3495005" lon="13.0677231"><ele>238.8</ele><time>2026-04-22T08:53:02.674Z</time></trkpt><trkpt lat="46.3493864" lon="13.0677627"><ele>235.6</ele><time>2026-04-22T08:53:03.674Z</time></trkpt><trkpt lat="46.3492901" lon="13.0677902"><ele>232.40000000000003</ele><time>2026-04-22T08:53:04.674Z</time></trkpt><trkpt lat="46.3491951" lon="13.0678106"><ele>229.20000000000002</ele><time>2026-04-22T08:53:05.674Z</time></trkpt><trkpt lat="46.3491112" lon="13.0678338"><ele>226.0</ele><time>2026-04-22T08:53:06.675Z</time></trkpt><trkpt lat="46.3490357" lon="13.0678361"><ele>225.99999999999997</ele><time>2026-04-22T08:53:07.674Z</time></trkpt><trkpt lat="46.3489717" lon="13.0677852"><ele>226.0</ele><time>2026-04-22T08:53:08.674Z</time></trkpt><trkpt lat="46.3489434" lon="13.0676947"><ele>226.0</ele><time>2026-04-22T08:53:09.674Z</time></trkpt><trkpt lat="46.3489604" lon="13.0675912"><ele>226.0</ele><time>2026-04-22T08:53:10.674Z</time></trkpt><trkpt lat="46.3490307" lon="13.0674896"><ele>225.99999999999997</ele><time>2026-04-22T08:53:11.674Z</time></trkpt><trkpt lat="46.3490922" lon="13.0673736"><ele>226.0</ele><time>2026-04-22T08:53:12.674Z</time></trkpt><trkpt lat="46.3491287" lon="13.0672286"><ele>227.25</ele><time>2026-04-22T08:53:13.674Z</time></trkpt><trkpt lat="46.3491146" lon="13.0670814"><ele>228.5</ele><time>2026-04-22T08:53:14.674Z</time></trkpt><trkpt lat="46.3490616" lon="13.0669162"><ele>229.75</ele><time>2026-04-22T08:53:15.674Z</time></trkpt><trkpt lat="46.3489919" lon="13.0667508"><ele>231.0</ele><time>2026-04-22T08:53:16.674Z</time></trkpt><trkpt lat="46.348919" lon="13.0665967"><ele>230.0</ele><time>2026-04-22T08:53:17.675Z</time></trkpt><trkpt lat="46.3488387" lon="13.0664452"><ele>229.0</ele><time>2026-04-22T08:53:18.675Z</time></trkpt><trkpt lat="46.3487575" lon="13.0663108"><ele>228.0</ele><time>2026-04-22T08:53:19.674Z</time></trkpt><trkpt lat="46.3486628" lon="13.0661995"><ele>227.0</ele><time>2026-04-22T08:53:20.675Z</time></trkpt><trkpt lat="46.3485529" lon="13.0661167"><ele>227.0</ele><time>2026-04-22T08:53:21.674Z</time></trkpt><trkpt lat="46.348434" lon="13.0660712"><ele>227.0</ele><time>2026-04-22T08:53:22.674Z</time></trkpt><trkpt lat="46.3483086" lon="13.066063"><ele>227.0</ele><time>2026-04-22T08:53:23.674Z</time></trkpt><trkpt lat="46.3481831" lon="13.0660903"><ele>227.0</ele><time>2026-04-22T08:53:24.674Z</time></trkpt><trkpt lat="46.3480636" lon="13.0661691"><ele>223.0</ele><time>2026-04-22T08:53:25.674Z</time></trkpt><trkpt lat="46.3479482" lon="13.0662861"><ele>219.0</ele><time>2026-04-22T08:53:26.674Z</time></trkpt><trkpt lat="46.3478353" lon="13.0664188"><ele>215.0</ele><time>2026-04-22T08:53:27.675Z</time></trkpt><trkpt lat="46.3477213" lon="13.0665398"><ele>211.0</ele><time>2026-04-22T08:53:28.674Z</time></trkpt><trkpt lat="46.347602" lon="13.0666676"><ele>208.75</ele><time>2026-04-22T08:53:29.673Z</time></trkpt><trkpt lat="46.3474849" lon="13.0667858"><ele>206.5</ele><time>2026-04-22T08:53:30.674Z</time></trkpt><trkpt lat="46.3473704" lon="13.0669003"><ele>204.25</ele><time>2026-04-22T08:53:31.673Z</time></trkpt><trkpt lat="46.34726" lon="13.0670015"><ele>202.0</ele><time>2026-04-22T08:53:32.673Z</time></trkpt><trkpt lat="46.3471543" lon="13.0670959"><ele>201.75</ele><time>2026-04-22T08:53:33.673Z</time></trkpt><trkpt lat="46.3470617" lon="13.0672036"><ele>201.5</ele><time>2026-04-22T08:53:34.673Z</time></trkpt><trkpt lat="46.3469822" lon="13.0673546"><ele>201.25</ele><time>2026-04-22T08:53:35.673Z</time></trkpt><trkpt lat="46.346911" lon="13.0675573"><ele>201.0</ele><time>2026-04-22T08:53:36.674Z</time></trkpt><trkpt lat="46.3468477" lon="13.0677906"><ele>201.33333333333331</ele><time>2026-04-22T08:53:37.673Z</time></trkpt><trkpt lat="46.3468015" lon="13.0680129"><ele>201.66666666666666</ele><time>2026-04-22T08:53:38.673Z</time></trkpt><trkpt lat="46.3467588" lon="13.0682287"><ele>202.0</ele><time>2026-04-22T08:53:39.673Z</time></trkpt><trkpt lat="46.3467186" lon="13.0684431"><ele>202.0</ele><time>2026-04-22T08:53:40.673Z</time></trkpt><trkpt lat="46.3466712" lon="13.0686516"><ele>202.0</ele><time>2026-04-22T08:53:41.673Z</time></trkpt><trkpt lat="46.3466153" lon="13.0688553"><ele>202.0</ele><time>2026-04-22T08:53:42.673Z</time></trkpt><trkpt lat="46.3465513" lon="13.0690562"><ele>203.0</ele><time>2026-04-22T08:53:43.674Z</time></trkpt><trkpt lat="46.3464824" lon="13.0692588"><ele>204.0</ele><time>2026-04-22T08:53:44.673Z</time></trkpt><trkpt lat="46.3464058" lon="13.0694635"><ele>205.0</ele><time>2026-04-22T08:53:45.673Z</time></trkpt><trkpt lat="46.3463218" lon="13.0696667"><ele>204.0</ele><time>2026-04-22T08:53:46.673Z</time></trkpt><trkpt lat="46.3462329" lon="13.0698714"><ele>203.0</ele><time>2026-04-22T08:53:47.673Z</time></trkpt><trkpt lat="46.3461396" lon="13.0700754"><ele>202.0</ele><time>2026-04-22T08:53:48.674Z</time></trkpt><trkpt lat="46.346035" lon="13.0702926"><ele>202.0</ele><time>2026-04-22T08:53:49.673Z</time></trkpt><trkpt lat="46.3459272" lon="13.0705063"><ele>202.0</ele><time>2026-04-22T08:53:50.675Z</time></trkpt><trkpt lat="46.3458179" lon="13.0707265"><ele>202.0</ele><time>2026-04-22T08:53:51.673Z</time></trkpt><trkpt lat="46.3457111" lon="13.0709274"><ele>203.33333333333331</ele><time>2026-04-22T08:53:52.673Z</time></trkpt><trkpt lat="46.345606" lon="13.0711409"><ele>204.66666666666669</ele><time>2026-04-22T08:53:53.674Z</time></trkpt><trkpt lat="46.3455091" lon="13.0713463"><ele>206.0</ele><time>2026-04-22T08:53:54.673Z</time></trkpt><trkpt lat="46.3454086" lon="13.0715545"><ele>205.0</ele><time>2026-04-22T08:53:55.673Z</time></trkpt><trkpt lat="46.3453073" lon="13.071758"><ele>204.0</ele><time>2026-04-22T08:53:56.673Z</time></trkpt><trkpt lat="46.3452051" lon="13.0719621"><ele>203.0</ele><time>2026-04-22T08:53:57.674Z</time></trkpt><trkpt lat="46.3451052" lon="13.0721635"><ele>203.0</ele><time>2026-04-22T08:53:58.673Z</time></trkpt><trkpt lat="46.3450142" lon="13.0723639"><ele>203.0</ele><time>2026-04-22T08:53:59.674Z</time></trkpt><trkpt lat="46.3449305" lon="13.0725709"><ele>203.0</ele><time>2026-04-22T08:54:00.673Z</time></trkpt><trkpt lat="46.3448587" lon="13.0728047"><ele>203.0</ele><time>2026-04-22T08:54:01.674Z</time></trkpt><trkpt lat="46.3447983" lon="13.0730465"><ele>203.0</ele><time>2026-04-22T08:54:02.674Z</time></trkpt><trkpt lat="46.3447322" lon="13.0732716"><ele>203.0</ele><time>2026-04-22T08:54:03.674Z</time></trkpt><trkpt lat="46.3446473" lon="13.073483"><ele>201.0</ele><time>2026-04-22T08:54:04.674Z</time></trkpt><trkpt lat="46.34454" lon="13.0736773"><ele>199.0</ele><time>2026-04-22T08:54:05.674Z</time></trkpt><trkpt lat="46.344411" lon="13.0738486"><ele>197.0</ele><time>2026-04-22T08:54:06.673Z</time></trkpt><trkpt lat="46.3442646" lon="13.0740022"><ele>196.33333333333334</ele><time>2026-04-22T08:54:07.674Z</time></trkpt><trkpt lat="46.3441063" lon="13.0741591"><ele>195.66666666666669</ele><time>2026-04-22T08:54:08.673Z</time></trkpt><trkpt lat="46.3439432" lon="13.0743125"><ele>195.0</ele><time>2026-04-22T08:54:09.673Z</time></trkpt><trkpt lat="46.3437791" lon="13.074453"><ele>195.0</ele><time>2026-04-22T08:54:10.673Z</time></trkpt><trkpt lat="46.3436116" lon="13.0745808"><ele>195.0</ele><time>2026-04-22T08:54:11.673Z</time></trkpt><trkpt lat="46.3434429" lon="13.0746941"><ele>195.0</ele><time>2026-04-22T08:54:12.674Z</time></trkpt><trkpt lat="46.3432763" lon="13.0747958"><ele>195.0</ele><time>2026-04-22T08:54:13.674Z</time></trkpt><trkpt lat="46.3431103" lon="13.0748862"><ele>195.0</ele><time>2026-04-22T08:54:14.673Z</time></trkpt><trkpt lat="46.3429463" lon="13.0749742"><ele>195.0</ele><time>2026-04-22T08:54:15.674Z</time></trkpt><trkpt lat="46.3427848" lon="13.0750587"><ele>196.33333333333331</ele><time>2026-04-22T08:54:16.673Z</time></trkpt><trkpt lat="46.3426265" lon="13.0751358"><ele>197.66666666666666</ele><time>2026-04-22T08:54:17.673Z</time></trkpt><trkpt lat="46.3424664" lon="13.0752161"><ele>199.0</ele><time>2026-04-22T08:54:18.673Z</time></trkpt><trkpt lat="46.3423089" lon="13.075294"><ele>197.66666666666666</ele><time>2026-04-22T08:54:19.674Z</time></trkpt><trkpt lat="46.3421485" lon="13.0753646"><ele>196.33333333333331</ele><time>2026-04-22T08:54:20.674Z</time></trkpt><trkpt lat="46.341991" lon="13.0754383"><ele>195.0</ele><time>2026-04-22T08:54:21.674Z</time></trkpt><trkpt lat="46.3418328" lon="13.0755127"><ele>195.0</ele><time>2026-04-22T08:54:22.673Z</time></trkpt><trkpt lat="46.3416773" lon="13.0755858"><ele>195.0</ele><time>2026-04-22T08:54:23.673Z</time></trkpt><trkpt lat="46.3415211" lon="13.0756532"><ele>195.0</ele><time>2026-04-22T08:54:24.673Z</time></trkpt><trkpt lat="46.3413661" lon="13.0757137"><ele>193.66666666666666</ele><time>2026-04-22T08:54:25.674Z</time></trkpt><trkpt lat="46.3412114" lon="13.075761"><ele>192.33333333333331</ele><time>2026-04-22T08:54:26.673Z</time></trkpt><trkpt lat="46.3410578" lon="13.0758062"><ele>191.0</ele><time>2026-04-22T08:54:27.674Z</time></trkpt><trkpt lat="46.3409036" lon="13.0758469"><ele>192.33333333333331</ele><time>2026-04-22T08:54:28.673Z</time></trkpt><trkpt lat="46.3407473" lon="13.0758817"><ele>193.66666666666666</ele><time>2026-04-22T08:54:29.673Z</time></trkpt><trkpt lat="46.3405946" lon="13.075939"><ele>195.0</ele><time>2026-04-22T08:54:30.673Z</time></trkpt><trkpt lat="46.3404502" lon="13.0760378"><ele>195.0</ele><time>2026-04-22T08:54:31.674Z</time></trkpt><trkpt lat="46.3403134" lon="13.0761852"><ele>195.0</ele><time>2026-04-22T08:54:32.673Z</time></trkpt><trkpt lat="46.3401838" lon="13.0763885"><ele>195.0</ele><time>2026-04-22T08:54:33.674Z</time></trkpt><trkpt lat="46.3400647" lon="13.0766197"><ele>197.0</ele><time>2026-04-22T08:54:34.673Z</time></trkpt><trkpt lat="46.3399584" lon="13.0768478"><ele>199.0</ele><time>2026-04-22T08:54:35.673Z</time></trkpt><trkpt lat="46.339852" lon="13.077067"><ele>201.0</ele><time>2026-04-22T08:54:36.674Z</time></trkpt><trkpt lat="46.3397317" lon="13.0772612"><ele>200.33333333333331</ele><time>2026-04-22T08:54:37.674Z</time></trkpt><trkpt lat="46.3395959" lon="13.0774235"><ele>199.66666666666666</ele><time>2026-04-22T08:54:38.675Z</time></trkpt><trkpt lat="46.33945" lon="13.0775535"><ele>199.0</ele><time>2026-04-22T08:54:39.674Z</time></trkpt><trkpt lat="46.3392957" lon="13.0776578"><ele>199.0</ele><time>2026-04-22T08:54:40.673Z</time></trkpt><trkpt lat="46.3391396" lon="13.0777638"><ele>199.0</ele><time>2026-04-22T08:54:41.674Z</time></trkpt><trkpt lat="46.3389654" lon="13.0778749"><ele>199.0</ele><time>2026-04-22T08:54:42.674Z</time></trkpt><trkpt lat="46.3387704" lon="13.0779874"><ele>197.0</ele><time>2026-04-22T08:54:43.674Z</time></trkpt><trkpt lat="46.3385879" lon="13.0780968"><ele>195.0</ele><time>2026-04-22T08:54:44.673Z</time></trkpt><trkpt lat="46.3384004" lon="13.0782103"><ele>193.0</ele><time>2026-04-22T08:54:45.675Z</time></trkpt><trkpt lat="46.3381887" lon="13.0783137"><ele>197.0</ele><time>2026-04-22T08:54:46.674Z</time></trkpt><trkpt lat="46.337972" lon="13.0783994"><ele>201.0</ele><time>2026-04-22T08:54:47.673Z</time></trkpt><trkpt lat="46.3377809" lon="13.0785982"><ele>201.0</ele><time>2026-04-22T08:54:48.673Z</time></trkpt><trkpt lat="46.3375691" lon="13.0786541"><ele>201.0</ele><time>2026-04-22T08:54:49.674Z</time></trkpt><trkpt lat="46.3373754" lon="13.0787386"><ele>201.0</ele><time>2026-04-22T08:54:50.673Z</time></trkpt><trkpt lat="46.3371829" lon="13.0787019"><ele>198.33333333333331</ele><time>2026-04-22T08:54:51.674Z</time></trkpt><trkpt lat="46.3370035" lon="13.0787598"><ele>195.66666666666666</ele><time>2026-04-22T08:54:52.673Z</time></trkpt><trkpt lat="46.3368233" lon="13.0788315"><ele>193.0</ele><time>2026-04-22T08:54:53.674Z</time></trkpt><trkpt lat="46.33665" lon="13.0788989"><ele>193.0</ele><time>2026-04-22T08:54:54.673Z</time></trkpt><trkpt lat="46.3364736" lon="13.0789774"><ele>193.0</ele><time>2026-04-22T08:54:55.673Z</time></trkpt><trkpt lat="46.3363006" lon="13.0790702"><ele>193.0</ele><time>2026-04-22T08:54:56.674Z</time></trkpt><trkpt lat="46.33613" lon="13.0791663"><ele>197.66666666666666</ele><time>2026-04-22T08:54:57.673Z</time></trkpt><trkpt lat="46.3359595" lon="13.0792674"><ele>202.33333333333331</ele><time>2026-04-22T08:54:58.673Z</time></trkpt><trkpt lat="46.3357898" lon="13.0793751"><ele>207.0</ele><time>2026-04-22T08:54:59.673Z</time></trkpt><trkpt lat="46.335625" lon="13.0794893"><ele>208.0</ele><time>2026-04-22T08:55:00.674Z</time></trkpt><trkpt lat="46.3354528" lon="13.0795925"><ele>209.0</ele><time>2026-04-22T08:55:01.674Z</time></trkpt><trkpt lat="46.3352726" lon="13.0796821"><ele>210.0</ele><time>2026-04-22T08:55:02.674Z</time></trkpt><trkpt lat="46.3350902" lon="13.0797656"><ele>210.0</ele><time>2026-04-22T08:55:03.673Z</time></trkpt><trkpt lat="46.3349103" lon="13.0798451"><ele>210.0</ele><time>2026-04-22T08:55:04.673Z</time></trkpt><trkpt lat="46.3347356" lon="13.0799238"><ele>210.0</ele><time>2026-04-22T08:55:05.673Z</time></trkpt><trkpt lat="46.3345638" lon="13.0800082"><ele>212.33333333333331</ele><time>2026-04-22T08:55:06.674Z</time></trkpt><trkpt lat="46.3343957" lon="13.0800914"><ele>214.66666666666666</ele><time>2026-04-22T08:55:07.673Z</time></trkpt><trkpt lat="46.3342283" lon="13.0801791"><ele>217.0</ele><time>2026-04-22T08:55:08.673Z</time></trkpt><trkpt lat="46.3340627" lon="13.0802705"><ele>217.0</ele><time>2026-04-22T08:55:09.673Z</time></trkpt><trkpt lat="46.3339005" lon="13.080365"><ele>217.0</ele><time>2026-04-22T08:55:10.673Z</time></trkpt><trkpt lat="46.333741" lon="13.0804626"><ele>217.0</ele><time>2026-04-22T08:55:11.674Z</time></trkpt><trkpt lat="46.3335898" lon="13.0805764"><ele>220.0</ele><time>2026-04-22T08:55:12.673Z</time></trkpt><trkpt lat="46.3334451" lon="13.0806947"><ele>223.0</ele><time>2026-04-22T08:55:13.674Z</time></trkpt><trkpt lat="46.3333146" lon="13.0808113"><ele>226.0</ele><time>2026-04-22T08:55:14.673Z</time></trkpt><trkpt lat="46.3331924" lon="13.0809209"><ele>226.0</ele><time>2026-04-22T08:55:15.674Z</time></trkpt><trkpt lat="46.3330771" lon="13.0810217"><ele>226.0</ele><time>2026-04-22T08:55:16.674Z</time></trkpt><trkpt lat="46.3329714" lon="13.0811155"><ele>226.0</ele><time>2026-04-22T08:55:17.673Z</time></trkpt><trkpt lat="46.3328643" lon="13.0812106"><ele>226.0</ele><time>2026-04-22T08:55:18.674Z</time></trkpt><trkpt lat="46.3327554" lon="13.0813055"><ele>223.33333333333331</ele><time>2026-04-22T08:55:19.673Z</time></trkpt><trkpt lat="46.332636" lon="13.0814012"><ele>220.66666666666669</ele><time>2026-04-22T08:55:20.675Z</time></trkpt><trkpt lat="46.3325217" lon="13.0814966"><ele>218.0</ele><time>2026-04-22T08:55:21.673Z</time></trkpt><trkpt lat="46.3277567" lon="13.0825935"><ele>223.25</ele><time>2026-04-22T08:55:53.673Z</time></trkpt><trkpt lat="46.3276397" lon="13.0824617"><ele>228.5</ele><time>2026-04-22T08:55:54.673Z</time></trkpt><trkpt lat="46.3275276" lon="13.0823368"><ele>233.75</ele><time>2026-04-22T08:55:55.673Z</time></trkpt><trkpt lat="46.3274273" lon="13.0821992"><ele>239.0</ele><time>2026-04-22T08:55:56.673Z</time></trkpt><trkpt lat="46.3273406" lon="13.082054"><ele>239.00000000000003</ele><time>2026-04-22T08:55:57.673Z</time></trkpt><trkpt lat="46.3272635" lon="13.0819235"><ele>239.0</ele><time>2026-04-22T08:55:58.673Z</time></trkpt><trkpt lat="46.327201" lon="13.0818195"><ele>239.0</ele><time>2026-04-22T08:55:59.675Z</time></trkpt><trkpt lat="46.3271476" lon="13.0817215"><ele>239.0</ele><time>2026-04-22T08:56:00.673Z</time></trkpt><trkpt lat="46.3271124" lon="13.0816319"><ele>239.00000000000003</ele><time>2026-04-22T08:56:01.673Z</time></trkpt><trkpt lat="46.327073" lon="13.0815566"><ele>239.0</ele><time>2026-04-22T08:56:02.674Z</time></trkpt><trkpt lat="46.3269593" lon="13.0814952"><ele>240.79999999999998</ele><time>2026-04-22T08:56:04.673Z</time></trkpt><trkpt lat="46.3268839" lon="13.081522"><ele>242.59999999999997</ele><time>2026-04-22T08:56:05.673Z</time></trkpt><trkpt lat="46.3267987" lon="13.0815844"><ele>244.4</ele><time>2026-04-22T08:56:06.674Z</time></trkpt><trkpt lat="46.3267016" lon="13.0816547"><ele>246.2</ele><time>2026-04-22T08:56:07.674Z</time></trkpt><trkpt lat="46.3266052" lon="13.0817296"><ele>248.0</ele><time>2026-04-22T08:56:08.673Z</time></trkpt><trkpt lat="46.3264954" lon="13.0818152"><ele>248.5</ele><time>2026-04-22T08:56:09.673Z</time></trkpt><trkpt lat="46.3263936" lon="13.0819059"><ele>249.0</ele><time>2026-04-22T08:56:10.673Z</time></trkpt><trkpt lat="46.3262978" lon="13.0820027"><ele>249.5</ele><time>2026-04-22T08:56:11.675Z</time></trkpt><trkpt lat="46.3261995" lon="13.0820957"><ele>250.0</ele><time>2026-04-22T08:56:12.673Z</time></trkpt><trkpt lat="46.3260993" lon="13.0821936"><ele>250.0</ele><time>2026-04-22T08:56:13.673Z</time></trkpt><trkpt lat="46.3260037" lon="13.0823041"><ele>250.0</ele><time>2026-04-22T08:56:14.674Z</time></trkpt><trkpt lat="46.3259079" lon="13.0824064"><ele>250.0</ele><time>2026-04-22T08:56:15.673Z</time></trkpt><trkpt lat="46.3258204" lon="13.0825154"><ele>250.0</ele><time>2026-04-22T08:56:16.673Z</time></trkpt><trkpt lat="46.3257415" lon="13.0826308"><ele>250.6</ele><time>2026-04-22T08:56:17.674Z</time></trkpt><trkpt lat="46.3256612" lon="13.0827445"><ele>251.2</ele><time>2026-04-22T08:56:18.673Z</time></trkpt><trkpt lat="46.3255791" lon="13.0828474"><ele>251.8</ele><time>2026-04-22T08:56:19.673Z</time></trkpt><trkpt lat="46.325499" lon="13.0829474"><ele>252.4</ele><time>2026-04-22T08:56:20.674Z</time></trkpt><trkpt lat="46.3254223" lon="13.0830474"><ele>253.0</ele><time>2026-04-22T08:56:21.674Z</time></trkpt><trkpt lat="46.3253465" lon="13.0831443"><ele>253.0</ele><time>2026-04-22T08:56:22.673Z</time></trkpt><trkpt lat="46.3252715" lon="13.0832393"><ele>253.0</ele><time>2026-04-22T08:56:23.673Z</time></trkpt><trkpt lat="46.3251996" lon="13.0833356"><ele>253.0</ele><time>2026-04-22T08:56:24.673Z</time></trkpt><trkpt lat="46.325125" lon="13.0834258"><ele>253.0</ele><time>2026-04-22T08:56:25.674Z</time></trkpt><trkpt lat="46.3250513" lon="13.0835096"><ele>253.0</ele><time>2026-04-22T08:56:26.673Z</time></trkpt><trkpt lat="46.3249808" lon="13.0835802"><ele>254.5</ele><time>2026-04-22T08:56:27.673Z</time></trkpt><trkpt lat="46.3248908" lon="13.083649"><ele>256.0</ele><time>2026-04-22T08:56:28.673Z</time></trkpt><trkpt lat="46.3247864" lon="13.0837266"><ele>257.5</ele><time>2026-04-22T08:56:29.674Z</time></trkpt><trkpt lat="46.3246836" lon="13.0838141"><ele>259.0</ele><time>2026-04-22T08:56:30.675Z</time></trkpt><trkpt lat="46.3245761" lon="13.0839091"><ele>259.0</ele><time>2026-04-22T08:56:31.673Z</time></trkpt><trkpt lat="46.3244728" lon="13.0839879"><ele>259.0</ele><time>2026-04-22T08:56:32.673Z</time></trkpt><trkpt lat="46.3243793" lon="13.0840585"><ele>259.0</ele><time>2026-04-22T08:56:33.673Z</time></trkpt><trkpt lat="46.3242963" lon="13.0841435"><ele>259.0</ele><time>2026-04-22T08:56:34.673Z</time></trkpt><trkpt lat="46.3242244" lon="13.0842616"><ele>259.0</ele><time>2026-04-22T08:56:35.673Z</time></trkpt><trkpt lat="46.3241622" lon="13.0844021"><ele>260.0</ele><time>2026-04-22T08:56:36.673Z</time></trkpt><trkpt lat="46.3241117" lon="13.0845634"><ele>261.0</ele><time>2026-04-22T08:56:37.673Z</time></trkpt><trkpt lat="46.3240658" lon="13.0847144"><ele>262.0</ele><time>2026-04-22T08:56:38.674Z</time></trkpt><trkpt lat="46.3240062" lon="13.0848471"><ele>263.0</ele><time>2026-04-22T08:56:39.673Z</time></trkpt><trkpt lat="46.3239309" lon="13.0849631"><ele>266.75</ele><time>2026-04-22T08:56:40.673Z</time></trkpt><trkpt lat="46.3238444" lon="13.0850581"><ele>270.5</ele><time>2026-04-22T08:56:41.674Z</time></trkpt><trkpt lat="46.3237623" lon="13.0851649"><ele>274.25</ele><time>2026-04-22T08:56:42.673Z</time></trkpt><trkpt lat="46.3236838" lon="13.0853005"><ele>278.0</ele><time>2026-04-22T08:56:43.673Z</time></trkpt><trkpt lat="46.3236116" lon="13.0854568"><ele>278.0</ele><time>2026-04-22T08:56:44.673Z</time></trkpt><trkpt lat="46.3235535" lon="13.0856081"><ele>278.0</ele><time>2026-04-22T08:56:45.674Z</time></trkpt><trkpt lat="46.3235069" lon="13.0857656"><ele>278.0</ele><time>2026-04-22T08:56:46.673Z</time></trkpt><trkpt lat="46.3234678" lon="13.0859402"><ele>278.0</ele><time>2026-04-22T08:56:47.674Z</time></trkpt><trkpt lat="46.3234412" lon="13.0861193"><ele>278.75</ele><time>2026-04-22T08:56:48.674Z</time></trkpt><trkpt lat="46.3234297" lon="13.0863157"><ele>279.5</ele><time>2026-04-22T08:56:49.673Z</time></trkpt><trkpt lat="46.3234359" lon="13.0864969"><ele>280.25</ele><time>2026-04-22T08:56:50.673Z</time></trkpt><trkpt lat="46.3234616" lon="13.0867008"><ele>281.0</ele><time>2026-04-22T08:56:51.673Z</time></trkpt><trkpt lat="46.3234985" lon="13.0868851"><ele>282.1666666666667</ele><time>2026-04-22T08:56:52.673Z</time></trkpt><trkpt lat="46.3235339" lon="13.0870378"><ele>283.33333333333337</ele><time>2026-04-22T08:56:53.674Z</time></trkpt><trkpt lat="46.3235641" lon="13.0871674"><ele>284.5</ele><time>2026-04-22T08:56:54.673Z</time></trkpt><trkpt lat="46.3235714" lon="13.0872769"><ele>285.6666666666667</ele><time>2026-04-22T08:56:55.673Z</time></trkpt><trkpt lat="46.3235424" lon="13.0873646"><ele>286.8333333333333</ele><time>2026-04-22T08:56:56.673Z</time></trkpt><trkpt lat="46.3234832" lon="13.0874257"><ele>288.0</ele><time>2026-04-22T08:56:57.673Z</time></trkpt><trkpt lat="46.3234113" lon="13.0874215"><ele>288.0</ele><time>2026-04-22T08:56:58.673Z</time></trkpt><trkpt lat="46.3233405" lon="13.0873515"><ele>288.0</ele><time>2026-04-22T08:56:59.674Z</time></trkpt><trkpt lat="46.3232605" lon="13.0872244"><ele>288.0</ele><time>2026-04-22T08:57:00.673Z</time></trkpt><trkpt lat="46.3231827" lon="13.0870867"><ele>288.0</ele><time>2026-04-22T08:57:01.673Z</time></trkpt><trkpt lat="46.3230921" lon="13.0869339"><ele>291.75</ele><time>2026-04-22T08:57:02.674Z</time></trkpt><trkpt lat="46.3230056" lon="13.0867882"><ele>295.5</ele><time>2026-04-22T08:57:03.673Z</time></trkpt><trkpt lat="46.3229247" lon="13.0866413"><ele>299.25</ele><time>2026-04-22T08:57:04.673Z</time></trkpt><trkpt lat="46.3228484" lon="13.0865076"><ele>303.0</ele><time>2026-04-22T08:57:05.673Z</time></trkpt><trkpt lat="46.3227779" lon="13.0863953"><ele>303.0</ele><time>2026-04-22T08:57:06.673Z</time></trkpt><trkpt lat="46.322695" lon="13.0863052"><ele>303.0</ele><time>2026-04-22T08:57:07.674Z</time></trkpt><trkpt lat="46.3225876" lon="13.0862461"><ele>303.0</ele><time>2026-04-22T08:57:08.673Z</time></trkpt><trkpt lat="46.3224609" lon="13.0862204"><ele>303.0</ele><time>2026-04-22T08:57:09.674Z</time></trkpt><trkpt lat="46.322327" lon="13.0862165"><ele>304.0</ele><time>2026-04-22T08:57:10.674Z</time></trkpt><trkpt lat="46.3222028" lon="13.0862165"><ele>305.0</ele><time>2026-04-22T08:57:11.673Z</time></trkpt><trkpt lat="46.3220987" lon="13.0862146"><ele>306.0</ele><time>2026-04-22T08:57:12.673Z</time></trkpt><trkpt lat="46.3220022" lon="13.0862152"><ele>307.0</ele><time>2026-04-22T08:57:13.673Z</time></trkpt><trkpt lat="46.3219114" lon="13.0862475"><ele>308.0</ele><time>2026-04-22T08:57:14.673Z</time></trkpt><trkpt lat="46.3218234" lon="13.0863249"><ele>308.0</ele><time>2026-04-22T08:57:15.673Z</time></trkpt><trkpt lat="46.3217305" lon="13.0864433"><ele>308.0</ele><time>2026-04-22T08:57:16.673Z</time></trkpt><trkpt lat="46.3216422" lon="13.0866017"><ele>308.0</ele><time>2026-04-22T08:57:17.673Z</time></trkpt><trkpt lat="46.3215646" lon="13.0867742"><ele>308.0</ele><time>2026-04-22T08:57:18.673Z</time></trkpt><trkpt lat="46.3214882" lon="13.086966"><ele>308.6666666666667</ele><time>2026-04-22T08:57:19.673Z</time></trkpt><trkpt lat="46.3214099" lon="13.0871729"><ele>309.3333333333333</ele><time>2026-04-22T08:57:20.673Z</time></trkpt><trkpt lat="46.3213364" lon="13.0873748"><ele>310.0</ele><time>2026-04-22T08:57:21.674Z</time></trkpt><trkpt lat="46.3212642" lon="13.0875739"><ele>312.0</ele><time>2026-04-22T08:57:22.673Z</time></trkpt><trkpt lat="46.3211955" lon="13.0877725"><ele>314.0</ele><time>2026-04-22T08:57:23.674Z</time></trkpt><trkpt lat="46.321124" lon="13.0879627"><ele>316.0</ele><time>2026-04-22T08:57:24.673Z</time></trkpt><trkpt lat="46.3210446" lon="13.0881349"><ele>318.0</ele><time>2026-04-22T08:57:25.674Z</time></trkpt><trkpt lat="46.3209496" lon="13.0882757"><ele>318.0</ele><time>2026-04-22T08:57:26.673Z</time></trkpt><trkpt lat="46.3208403" lon="13.0883802"><ele>318.0</ele><time>2026-04-22T08:57:27.673Z</time></trkpt><trkpt lat="46.3207125" lon="13.0884529"><ele>318.0</ele><time>2026-04-22T08:57:28.673Z</time></trkpt><trkpt lat="46.32056" lon="13.0885083"><ele>318.0</ele><time>2026-04-22T08:57:29.674Z</time></trkpt><trkpt lat="46.3204018" lon="13.0885492"><ele>321.3333333333333</ele><time>2026-04-22T08:57:30.674Z</time></trkpt><trkpt lat="46.3202385" lon="13.0885726"><ele>324.66666666666663</ele><time>2026-04-22T08:57:31.673Z</time></trkpt><trkpt lat="46.3200784" lon="13.088593"><ele>328.0</ele><time>2026-04-22T08:57:32.674Z</time></trkpt><trkpt lat="46.3199248" lon="13.0886091"><ele>328.0</ele><time>2026-04-22T08:57:33.673Z</time></trkpt><trkpt lat="46.3197743" lon="13.088628"><ele>328.0</ele><time>2026-04-22T08:57:34.674Z</time></trkpt><trkpt lat="46.319632" lon="13.0886439"><ele>328.0</ele><time>2026-04-22T08:57:35.673Z</time></trkpt><trkpt lat="46.3194933" lon="13.0886639"><ele>328.0</ele><time>2026-04-22T08:57:36.673Z</time></trkpt><trkpt lat="46.3193639" lon="13.0886738"><ele>332.5</ele><time>2026-04-22T08:57:37.673Z</time></trkpt><trkpt lat="46.3192401" lon="13.0886819"><ele>337.0</ele><time>2026-04-22T08:57:38.674Z</time></trkpt><trkpt lat="46.3191211" lon="13.0886907"><ele>341.5</ele><time>2026-04-22T08:57:39.673Z</time></trkpt><trkpt lat="46.3190111" lon="13.0886912"><ele>346.0</ele><time>2026-04-22T08:57:40.674Z</time></trkpt><trkpt lat="46.318902" lon="13.0886806"><ele>344.5</ele><time>2026-04-22T08:57:41.673Z</time></trkpt><trkpt lat="46.318785" lon="13.0886852"><ele>343.0</ele><time>2026-04-22T08:57:42.674Z</time></trkpt><trkpt lat="46.3186581" lon="13.0887277"><ele>341.5</ele><time>2026-04-22T08:57:43.673Z</time></trkpt><trkpt lat="46.3185296" lon="13.0888045"><ele>340.0</ele><time>2026-04-22T08:57:44.675Z</time></trkpt><trkpt lat="46.3184066" lon="13.0888987"><ele>340.0</ele><time>2026-04-22T08:57:45.673Z</time></trkpt><trkpt lat="46.3182837" lon="13.0890068"><ele>340.0</ele><time>2026-04-22T08:57:46.673Z</time></trkpt><trkpt lat="46.3181606" lon="13.0891162"><ele>340.0</ele><time>2026-04-22T08:57:47.673Z</time></trkpt><trkpt lat="46.3180363" lon="13.0892212"><ele>340.0</ele><time>2026-04-22T08:57:48.674Z</time></trkpt><trkpt lat="46.3179135" lon="13.0893192"><ele>332.3333333333333</ele><time>2026-04-22T08:57:49.673Z</time></trkpt><trkpt lat="46.3177806" lon="13.0893921"><ele>324.6666666666667</ele><time>2026-04-22T08:57:50.674Z</time></trkpt><trkpt lat="46.317627" lon="13.0894495"><ele>317.0</ele><time>2026-04-22T08:57:51.674Z</time></trkpt><trkpt lat="46.3174773" lon="13.0894947"><ele>317.0</ele><time>2026-04-22T08:57:52.673Z</time></trkpt><trkpt lat="46.3173408" lon="13.0895324"><ele>317.0</ele><time>2026-04-22T08:57:53.673Z</time></trkpt><trkpt lat="46.3172094" lon="13.0895676"><ele>317.0</ele><time>2026-04-22T08:57:54.673Z</time></trkpt><trkpt lat="46.3170863" lon="13.0895993"><ele>317.0</ele><time>2026-04-22T08:57:55.674Z</time></trkpt><trkpt lat="46.3169749" lon="13.0896337"><ele>316.0</ele><time>2026-04-22T08:57:56.673Z</time></trkpt><trkpt lat="46.3168729" lon="13.0896676"><ele>315.0</ele><time>2026-04-22T08:57:57.673Z</time></trkpt><trkpt lat="46.3167742" lon="13.0896938"><ele>314.0</ele><time>2026-04-22T08:57:58.674Z</time></trkpt><trkpt lat="46.3166836" lon="13.0897382"><ele>313.0</ele><time>2026-04-22T08:57:59.673Z</time></trkpt><trkpt lat="46.3165902" lon="13.089836"><ele>312.0</ele><time>2026-04-22T08:58:00.673Z</time></trkpt><trkpt lat="46.3165138" lon="13.0899575"><ele>312.0</ele><time>2026-04-22T08:58:01.673Z</time></trkpt><trkpt lat="46.3164464" lon="13.0900943"><ele>312.0</ele><time>2026-04-22T08:58:02.673Z</time></trkpt><trkpt lat="46.3163809" lon="13.0902293"><ele>312.0</ele><time>2026-04-22T08:58:03.673Z</time></trkpt><trkpt lat="46.3163195" lon="13.0903568"><ele>312.0</ele><time>2026-04-22T08:58:04.673Z</time></trkpt><trkpt lat="46.316265" lon="13.0904777"><ele>312.0</ele><time>2026-04-22T08:58:05.673Z</time></trkpt><trkpt lat="46.316225" lon="13.0905815"><ele>311.3333333333333</ele><time>2026-04-22T08:58:06.674Z</time></trkpt><trkpt lat="46.3161986" lon="13.0906834"><ele>310.6666666666667</ele><time>2026-04-22T08:58:07.674Z</time></trkpt><trkpt lat="46.3161732" lon="13.0908005"><ele>310.0</ele><time>2026-04-22T08:58:09.674Z</time></trkpt><trkpt lat="46.3161715" lon="13.0909247"><ele>309.33333333333337</ele><time>2026-04-22T08:58:25.674Z</time></trkpt><trkpt lat="46.3162028" lon="13.0910093"><ele>308.6666666666667</ele><time>2026-04-22T08:58:26.675Z</time></trkpt><trkpt lat="46.3162361" lon="13.0911227"><ele>308.0</ele><time>2026-04-22T08:58:27.673Z</time></trkpt><trkpt lat="46.3162681" lon="13.09125"><ele>307.83333333333337</ele><time>2026-04-22T08:58:28.673Z</time></trkpt><trkpt lat="46.3163003" lon="13.091373"><ele>307.6666666666667</ele><time>2026-04-22T08:58:29.673Z</time></trkpt><trkpt lat="46.316324" lon="13.0914904"><ele>307.5</ele><time>2026-04-22T08:58:30.674Z</time></trkpt><trkpt lat="46.3163212" lon="13.0916074"><ele>307.3333333333333</ele><time>2026-04-22T08:58:31.673Z</time></trkpt><trkpt lat="46.3162927" lon="13.0917234"><ele>307.16666666666663</ele><time>2026-04-22T08:58:32.673Z</time></trkpt><trkpt lat="46.316238" lon="13.0918504"><ele>307.0</ele><time>2026-04-22T08:58:33.673Z</time></trkpt><trkpt lat="46.3161777" lon="13.0919662"><ele>307.0</ele><time>2026-04-22T08:58:34.673Z</time></trkpt><trkpt lat="46.3161254" lon="13.0920871"><ele>307.0</ele><time>2026-04-22T08:58:35.673Z</time></trkpt><trkpt lat="46.3161069" lon="13.0922486"><ele>307.0</ele><time>2026-04-22T08:58:36.673Z</time></trkpt><trkpt lat="46.3161191" lon="13.0924359"><ele>307.0</ele><time>2026-04-22T08:58:37.673Z</time></trkpt><trkpt lat="46.3161495" lon="13.0926053"><ele>305.75</ele><time>2026-04-22T08:58:38.673Z</time></trkpt><trkpt lat="46.3161917" lon="13.0927637"><ele>304.5</ele><time>2026-04-22T08:58:39.674Z</time></trkpt><trkpt lat="46.316256" lon="13.092899"><ele>303.25</ele><time>2026-04-22T08:58:40.673Z</time></trkpt><trkpt lat="46.3163354" lon="13.0930095"><ele>302.0</ele><time>2026-04-22T08:58:41.674Z</time></trkpt><trkpt lat="46.3164176" lon="13.093119"><ele>300.25</ele><time>2026-04-22T08:58:42.673Z</time></trkpt><trkpt lat="46.3164913" lon="13.0932546"><ele>298.5</ele><time>2026-04-22T08:58:43.674Z</time></trkpt><trkpt lat="46.3165466" lon="13.0934145"><ele>296.75</ele><time>2026-04-22T08:58:44.673Z</time></trkpt><trkpt lat="46.3165948" lon="13.0935647"><ele>295.0</ele><time>2026-04-22T08:58:45.673Z</time></trkpt><trkpt lat="46.3166429" lon="13.0937174"><ele>293.25</ele><time>2026-04-22T08:58:46.673Z</time></trkpt><trkpt lat="46.3166787" lon="13.0938741"><ele>291.5</ele><time>2026-04-22T08:58:47.673Z</time></trkpt><trkpt lat="46.3166891" lon="13.0940461"><ele>289.75</ele><time>2026-04-22T08:58:48.673Z</time></trkpt><trkpt lat="46.3166821" lon="13.0942154"><ele>288.0</ele><time>2026-04-22T08:58:49.674Z</time></trkpt><trkpt lat="46.3166675" lon="13.0943739"><ele>286.2</ele><time>2026-04-22T08:58:50.674Z</time></trkpt><trkpt lat="46.3166548" lon="13.0945174"><ele>284.4</ele><time>2026-04-22T08:58:51.673Z</time></trkpt><trkpt lat="46.3166364" lon="13.0946553"><ele>282.59999999999997</ele><time>2026-04-22T08:58:52.674Z</time></trkpt><trkpt lat="46.3165829" lon="13.0947721"><ele>280.8</ele><time>2026-04-22T08:58:53.674Z</time></trkpt><trkpt lat="46.3165041" lon="13.0948519"><ele>279.0</ele><time>2026-04-22T08:58:54.674Z</time></trkpt><trkpt lat="46.3164151" lon="13.0948965"><ele>279.8333333333333</ele><time>2026-04-22T08:58:55.673Z</time></trkpt><trkpt lat="46.3163116" lon="13.0948955"><ele>280.6666666666667</ele><time>2026-04-22T08:58:56.674Z</time></trkpt><trkpt lat="46.3162343" lon="13.0948067"><ele>281.5</ele><time>2026-04-22T08:58:57.673Z</time></trkpt><trkpt lat="46.3161602" lon="13.094754"><ele>282.33333333333337</ele><time>2026-04-22T08:58:58.673Z</time></trkpt><trkpt lat="46.3160945" lon="13.094718"><ele>283.1666666666667</ele><time>2026-04-22T08:58:59.674Z</time></trkpt><trkpt lat="46.3160075" lon="13.0947668"><ele>284.0</ele><time>2026-04-22T08:59:01.673Z</time></trkpt><trkpt lat="46.3160044" lon="13.0948904"><ele>280.8</ele><time>2026-04-22T08:59:03.673Z</time></trkpt><trkpt lat="46.3160573" lon="13.0949667"><ele>277.59999999999997</ele><time>2026-04-22T08:59:04.673Z</time></trkpt><trkpt lat="46.3161581" lon="13.0950474"><ele>274.4</ele><time>2026-04-22T08:59:05.673Z</time></trkpt><trkpt lat="46.3162606" lon="13.0951217"><ele>271.2</ele><time>2026-04-22T08:59:06.673Z</time></trkpt><trkpt lat="46.3163751" lon="13.095192"><ele>268.0</ele><time>2026-04-22T08:59:07.673Z</time></trkpt><trkpt lat="46.3164832" lon="13.0952448"><ele>267.8</ele><time>2026-04-22T08:59:08.673Z</time></trkpt><trkpt lat="46.3165904" lon="13.0952656"><ele>267.6</ele><time>2026-04-22T08:59:09.673Z</time></trkpt><trkpt lat="46.3166947" lon="13.0952488"><ele>267.4</ele><time>2026-04-22T08:59:10.673Z</time></trkpt><trkpt lat="46.3167822" lon="13.0951858"><ele>267.2</ele><time>2026-04-22T08:59:11.674Z</time></trkpt><trkpt lat="46.3168431" lon="13.0950756"><ele>267.0</ele><time>2026-04-22T08:59:12.673Z</time></trkpt><trkpt lat="46.3168797" lon="13.0949573"><ele>267.0</ele><time>2026-04-22T08:59:13.674Z</time></trkpt><trkpt lat="46.3169107" lon="13.0948554"><ele>267.0</ele><time>2026-04-22T08:59:14.673Z</time></trkpt><trkpt lat="46.3169474" lon="13.0947804"><ele>267.0</ele><time>2026-04-22T08:59:15.673Z</time></trkpt><trkpt lat="46.3170563" lon="13.0947914"><ele>267.0</ele><time>2026-04-22T08:59:17.673Z</time></trkpt><trkpt lat="46.3170828" lon="13.094889"><ele>267.0</ele><time>2026-04-22T08:59:18.673Z</time></trkpt><trkpt lat="46.3170857" lon="13.0950428"><ele>267.0</ele><time>2026-04-22T08:59:19.674Z</time></trkpt><trkpt lat="46.3170845" lon="13.0952196"><ele>267.0</ele><time>2026-04-22T08:59:20.673Z</time></trkpt><trkpt lat="46.3170928" lon="13.0954202"><ele>267.0</ele><time>2026-04-22T08:59:21.674Z</time></trkpt><trkpt lat="46.3171032" lon="13.0956052"><ele>267.0</ele><time>2026-04-22T08:59:22.673Z</time></trkpt><trkpt lat="46.3171095" lon="13.0957868"><ele>267.0</ele><time>2026-04-22T08:59:23.673Z</time></trkpt><trkpt lat="46.3171135" lon="13.0959641"><ele>263.75</ele><time>2026-04-22T08:59:24.673Z</time></trkpt><trkpt lat="46.3171198" lon="13.0961407"><ele>260.5</ele><time>2026-04-22T08:59:25.673Z</time></trkpt><trkpt lat="46.3171231" lon="13.0963133"><ele>257.25</ele><time>2026-04-22T08:59:26.674Z</time></trkpt><trkpt lat="46.317113" lon="13.0964842"><ele>254.0</ele><time>2026-04-22T08:59:27.675Z</time></trkpt><trkpt lat="46.3170912" lon="13.096658"><ele>252.0</ele><time>2026-04-22T08:59:28.673Z</time></trkpt><trkpt lat="46.3170646" lon="13.0968184"><ele>249.99999999999997</ele><time>2026-04-22T08:59:29.673Z</time></trkpt><trkpt lat="46.3170434" lon="13.0969795"><ele>247.99999999999997</ele><time>2026-04-22T08:59:30.673Z</time></trkpt><trkpt lat="46.3170248" lon="13.0971344"><ele>246.0</ele><time>2026-04-22T08:59:31.673Z</time></trkpt><trkpt lat="46.317002" lon="13.097287"><ele>244.0</ele><time>2026-04-22T08:59:32.673Z</time></trkpt><trkpt lat="46.3169732" lon="13.0974426"><ele>243.39999999999998</ele><time>2026-04-22T08:59:33.674Z</time></trkpt><trkpt lat="46.3169363" lon="13.0975936"><ele>242.79999999999998</ele><time>2026-04-22T08:59:34.674Z</time></trkpt><trkpt lat="46.3168891" lon="13.0977375"><ele>242.20000000000002</ele><time>2026-04-22T08:59:35.674Z</time></trkpt><trkpt lat="46.3168381" lon="13.0978716"><ele>241.60000000000002</ele><time>2026-04-22T08:59:36.675Z</time></trkpt><trkpt lat="46.3167835" lon="13.0979962"><ele>241.0</ele><time>2026-04-22T08:59:37.673Z</time></trkpt><trkpt lat="46.3167302" lon="13.0981167"><ele>241.0</ele><time>2026-04-22T08:59:38.673Z</time></trkpt><trkpt lat="46.3166749" lon="13.0982333"><ele>241.00000000000003</ele><time>2026-04-22T08:59:39.673Z</time></trkpt><trkpt lat="46.316616" lon="13.0983446"><ele>241.00000000000003</ele><time>2026-04-22T08:59:40.673Z</time></trkpt><trkpt lat="46.31655" lon="13.0984493"><ele>241.0</ele><time>2026-04-22T08:59:41.674Z</time></trkpt><trkpt lat="46.3164822" lon="13.0985505"><ele>241.0</ele><time>2026-04-22T08:59:42.674Z</time></trkpt><trkpt lat="46.3164156" lon="13.0986484"><ele>241.33333333333331</ele><time>2026-04-22T08:59:43.673Z</time></trkpt><trkpt lat="46.3163497" lon="13.0987378"><ele>241.66666666666666</ele><time>2026-04-22T08:59:44.673Z</time></trkpt><trkpt lat="46.3162854" lon="13.0988226"><ele>242.0</ele><time>2026-04-22T08:59:45.673Z</time></trkpt><trkpt lat="46.3162222" lon="13.0989054"><ele>242.33333333333331</ele><time>2026-04-22T08:59:46.674Z</time></trkpt><trkpt lat="46.3161598" lon="13.0989853"><ele>242.66666666666666</ele><time>2026-04-22T08:59:47.673Z</time></trkpt><trkpt lat="46.3160942" lon="13.0990663"><ele>243.0</ele><time>2026-04-22T08:59:48.674Z</time></trkpt><trkpt lat="46.3160306" lon="13.0991475"><ele>241.66666666666666</ele><time>2026-04-22T08:59:49.673Z</time></trkpt><trkpt lat="46.315967" lon="13.0992275"><ele>240.33333333333331</ele><time>2026-04-22T08:59:50.673Z</time></trkpt><trkpt lat="46.3159033" lon="13.0993101"><ele>239.0</ele><time>2026-04-22T08:59:51.673Z</time></trkpt><trkpt lat="46.3158386" lon="13.0993928"><ele>237.66666666666666</ele><time>2026-04-22T08:59:52.674Z</time></trkpt><trkpt lat="46.3157738" lon="13.0994758"><ele>236.33333333333331</ele><time>2026-04-22T08:59:53.672Z</time></trkpt><trkpt lat="46.3157082" lon="13.0995628"><ele>235.0</ele><time>2026-04-22T08:59:54.672Z</time></trkpt><trkpt lat="46.3156404" lon="13.09965"><ele>235.0</ele><time>2026-04-22T08:59:55.672Z</time></trkpt><trkpt lat="46.315572" lon="13.0997414"><ele>235.0</ele><time>2026-04-22T08:59:56.673Z</time></trkpt><trkpt lat="46.3155055" lon="13.0998453"><ele>235.0</ele><time>2026-04-22T08:59:57.673Z</time></trkpt><trkpt lat="46.3154407" lon="13.0999636"><ele>235.0</ele><time>2026-04-22T08:59:58.672Z</time></trkpt><trkpt lat="46.3153866" lon="13.100095"><ele>235.0</ele><time>2026-04-22T08:59:59.672Z</time></trkpt><trkpt lat="46.3153506" lon="13.100247"><ele>234.4</ele><time>2026-04-22T09:00:00.673Z</time></trkpt><trkpt lat="46.3153348" lon="13.1004"><ele>233.8</ele><time>2026-04-22T09:00:01.672Z</time></trkpt><trkpt lat="46.3153295" lon="13.1005547"><ele>233.2</ele><time>2026-04-22T09:00:02.672Z</time></trkpt><trkpt lat="46.3153253" lon="13.1007112"><ele>232.6</ele><time>2026-04-22T09:00:03.672Z</time></trkpt><trkpt lat="46.3153197" lon="13.1008691"><ele>232.0</ele><time>2026-04-22T09:00:04.672Z</time></trkpt><trkpt lat="46.3153149" lon="13.1010251"><ele>232.0</ele><time>2026-04-22T09:00:05.672Z</time></trkpt><trkpt lat="46.315308" lon="13.1011785"><ele>232.0</ele><time>2026-04-22T09:00:06.672Z</time></trkpt><trkpt lat="46.3153034" lon="13.101329"><ele>232.0</ele><time>2026-04-22T09:00:07.672Z</time></trkpt><trkpt lat="46.3152966" lon="13.1014678"><ele>232.0</ele><time>2026-04-22T09:00:08.672Z</time></trkpt><trkpt lat="46.3152893" lon="13.1016064"><ele>232.0</ele><time>2026-04-22T09:00:09.672Z</time></trkpt><trkpt lat="46.3152869" lon="13.1017442"><ele>231.6</ele><time>2026-04-22T09:00:10.673Z</time></trkpt><trkpt lat="46.3152866" lon="13.1018924"><ele>231.2</ele><time>2026-04-22T09:00:11.673Z</time></trkpt><trkpt lat="46.3152831" lon="13.10204"><ele>230.8</ele><time>2026-04-22T09:00:12.673Z</time></trkpt><trkpt lat="46.3152788" lon="13.1021878"><ele>230.4</ele><time>2026-04-22T09:00:13.672Z</time></trkpt><trkpt lat="46.3152765" lon="13.1023331"><ele>230.0</ele><time>2026-04-22T09:00:14.674Z</time></trkpt><trkpt lat="46.315269" lon="13.1024734"><ele>231.0</ele><time>2026-04-22T09:00:15.672Z</time></trkpt><trkpt lat="46.3152651" lon="13.102611"><ele>232.0</ele><time>2026-04-22T09:00:16.672Z</time></trkpt><trkpt lat="46.3152622" lon="13.1027459"><ele>233.0</ele><time>2026-04-22T09:00:17.673Z</time></trkpt><trkpt lat="46.3152592" lon="13.102885"><ele>234.0</ele><time>2026-04-22T09:00:18.672Z</time></trkpt><trkpt lat="46.3152538" lon="13.1030218"><ele>235.0</ele><time>2026-04-22T09:00:19.673Z</time></trkpt><trkpt lat="46.3152482" lon="13.1031587"><ele>234.66666666666666</ele><time>2026-04-22T09:00:20.672Z</time></trkpt><trkpt lat="46.3152448" lon="13.1032992"><ele>234.33333333333331</ele><time>2026-04-22T09:00:21.672Z</time></trkpt><trkpt lat="46.3152454" lon="13.1034264"><ele>234.0</ele><time>2026-04-22T09:00:22.672Z</time></trkpt><trkpt lat="46.3152416" lon="13.1035524"><ele>233.66666666666669</ele><time>2026-04-22T09:00:23.673Z</time></trkpt><trkpt lat="46.3152296" lon="13.1036715"><ele>233.33333333333334</ele><time>2026-04-22T09:00:24.672Z</time></trkpt><trkpt lat="46.3152092" lon="13.1037921"><ele>233.0</ele><time>2026-04-22T09:00:25.673Z</time></trkpt><trkpt lat="46.3151764" lon="13.1039121"><ele>233.00000000000003</ele><time>2026-04-22T09:00:26.672Z</time></trkpt><trkpt lat="46.315137" lon="13.1040276"><ele>233.0</ele><time>2026-04-22T09:00:27.672Z</time></trkpt><trkpt lat="46.3150979" lon="13.1041406"><ele>233.0</ele><time>2026-04-22T09:00:28.672Z</time></trkpt><trkpt lat="46.3150598" lon="13.1042548"><ele>233.0</ele><time>2026-04-22T09:00:29.674Z</time></trkpt><trkpt lat="46.3150212" lon="13.1043699"><ele>233.00000000000003</ele><time>2026-04-22T09:00:30.672Z</time></trkpt><trkpt lat="46.3149794" lon="13.1044835"><ele>233.0</ele><time>2026-04-22T09:00:31.672Z</time></trkpt><trkpt lat="46.3149359" lon="13.104597"><ele>231.83333333333334</ele><time>2026-04-22T09:00:32.673Z</time></trkpt><trkpt lat="46.3148928" lon="13.1047101"><ele>230.66666666666669</ele><time>2026-04-22T09:00:33.672Z</time></trkpt><trkpt lat="46.3148476" lon="13.1048238"><ele>229.5</ele><time>2026-04-22T09:00:34.672Z</time></trkpt><trkpt lat="46.3148036" lon="13.1049362"><ele>228.33333333333331</ele><time>2026-04-22T09:00:35.673Z</time></trkpt><trkpt lat="46.3147618" lon="13.1050367"><ele>227.16666666666666</ele><time>2026-04-22T09:00:36.673Z</time></trkpt><trkpt lat="46.3147241" lon="13.1051393"><ele>226.0</ele><time>2026-04-22T09:00:37.673Z</time></trkpt><trkpt lat="46.3146887" lon="13.1052333"><ele>226.0</ele><time>2026-04-22T09:00:38.672Z</time></trkpt><trkpt lat="46.314653" lon="13.1053239"><ele>226.0</ele><time>2026-04-22T09:00:39.672Z</time></trkpt><trkpt lat="46.3146189" lon="13.1054086"><ele>226.0</ele><time>2026-04-22T09:00:40.673Z</time></trkpt><trkpt lat="46.3145873" lon="13.1054889"><ele>226.0</ele><time>2026-04-22T09:00:41.672Z</time></trkpt><trkpt lat="46.3145146" lon="13.1056044"><ele>226.0</ele><time>2026-04-22T09:00:43.672Z</time></trkpt><trkpt lat="46.3144526" lon="13.1056581"><ele>226.0</ele><time>2026-04-22T09:00:45.672Z</time></trkpt><trkpt lat="46.314398" lon="13.1057067"><ele>226.0</ele><time>2026-04-22T09:00:48.672Z</time></trkpt><trkpt lat="46.3143429" lon="13.1057818"><ele>224.60000000000002</ele><time>2026-04-22T09:00:59.673Z</time></trkpt><trkpt lat="46.3142743" lon="13.105831"><ele>223.20000000000002</ele><time>2026-04-22T09:01:00.672Z</time></trkpt><trkpt lat="46.3142121" lon="13.1058933"><ele>221.79999999999998</ele><time>2026-04-22T09:01:01.672Z</time></trkpt><trkpt lat="46.3141426" lon="13.1059771"><ele>220.39999999999998</ele><time>2026-04-22T09:01:02.672Z</time></trkpt><trkpt lat="46.3140517" lon="13.1060673"><ele>219.0</ele><time>2026-04-22T09:01:03.672Z</time></trkpt><trkpt lat="46.3139591" lon="13.106133"><ele>219.0</ele><time>2026-04-22T09:01:04.673Z</time></trkpt><trkpt lat="46.3138646" lon="13.1062027"><ele>218.99999999999997</ele><time>2026-04-22T09:01:05.672Z</time></trkpt><trkpt lat="46.3137675" lon="13.1062735"><ele>218.99999999999997</ele><time>2026-04-22T09:01:06.672Z</time></trkpt><trkpt lat="46.3136688" lon="13.1063421"><ele>219.0</ele><time>2026-04-22T09:01:07.674Z</time></trkpt><trkpt lat="46.3135694" lon="13.106404"><ele>219.0</ele><time>2026-04-22T09:01:08.672Z</time></trkpt><trkpt lat="46.3134687" lon="13.1064672"><ele>219.0</ele><time>2026-04-22T09:01:09.672Z</time></trkpt><trkpt lat="46.3133655" lon="13.1065237"><ele>219.0</ele><time>2026-04-22T09:01:10.672Z</time></trkpt><trkpt lat="46.3132508" lon="13.1065759"><ele>219.0</ele><time>2026-04-22T09:01:11.673Z</time></trkpt><trkpt lat="46.3131097" lon="13.1066341"><ele>219.0</ele><time>2026-04-22T09:01:12.673Z</time></trkpt><trkpt lat="46.3129784" lon="13.106681"><ele>218.75</ele><time>2026-04-22T09:01:13.672Z</time></trkpt><trkpt lat="46.3128353" lon="13.1067296"><ele>218.5</ele><time>2026-04-22T09:01:14.673Z</time></trkpt><trkpt lat="46.3126897" lon="13.1067784"><ele>218.25</ele><time>2026-04-22T09:01:15.673Z</time></trkpt><trkpt lat="46.3125405" lon="13.1068271"><ele>218.0</ele><time>2026-04-22T09:01:16.673Z</time></trkpt><trkpt lat="46.3123915" lon="13.1068761"><ele>218.0</ele><time>2026-04-22T09:01:17.673Z</time></trkpt><trkpt lat="46.312242" lon="13.1069232"><ele>218.0</ele><time>2026-04-22T09:01:18.672Z</time></trkpt><trkpt lat="46.3120918" lon="13.1069696"><ele>218.0</ele><time>2026-04-22T09:01:19.673Z</time></trkpt><trkpt lat="46.3119441" lon="13.1070187"><ele>217.66666666666669</ele><time>2026-04-22T09:01:20.672Z</time></trkpt><trkpt lat="46.3117968" lon="13.1070711"><ele>217.33333333333331</ele><time>2026-04-22T09:01:21.673Z</time></trkpt><trkpt lat="46.3116511" lon="13.1071182"><ele>217.0</ele><time>2026-04-22T09:01:22.672Z</time></trkpt><trkpt lat="46.3115041" lon="13.1071623"><ele>216.0</ele><time>2026-04-22T09:01:23.672Z</time></trkpt><trkpt lat="46.3113592" lon="13.1072032"><ele>215.0</ele><time>2026-04-22T09:01:24.672Z</time></trkpt><trkpt lat="46.3112137" lon="13.1072323"><ele>214.0</ele><time>2026-04-22T09:01:25.672Z</time></trkpt><trkpt lat="46.3110665" lon="13.1072433"><ele>213.0</ele><time>2026-04-22T09:01:26.672Z</time></trkpt><trkpt lat="46.3109214" lon="13.1072313"><ele>213.0</ele><time>2026-04-22T09:01:27.673Z</time></trkpt><trkpt lat="46.3107748" lon="13.1071966"><ele>213.0</ele><time>2026-04-22T09:01:28.672Z</time></trkpt><trkpt lat="46.3106137" lon="13.1071324"><ele>213.0</ele><time>2026-04-22T09:01:29.673Z</time></trkpt><trkpt lat="46.3104425" lon="13.1070447"><ele>212.66666666666669</ele><time>2026-04-22T09:01:30.672Z</time></trkpt><trkpt lat="46.3102808" lon="13.106952"><ele>212.33333333333334</ele><time>2026-04-22T09:01:31.672Z</time></trkpt><trkpt lat="46.3101085" lon="13.1068534"><ele>212.0</ele><time>2026-04-22T09:01:32.673Z</time></trkpt><trkpt lat="46.309923" lon="13.1067454"><ele>212.0</ele><time>2026-04-22T09:01:33.673Z</time></trkpt><trkpt lat="46.309747" lon="13.1066409"><ele>212.0</ele><time>2026-04-22T09:01:34.673Z</time></trkpt><trkpt lat="46.309573" lon="13.1065359"><ele>212.0</ele><time>2026-04-22T09:01:35.672Z</time></trkpt><trkpt lat="46.3094004" lon="13.1064331"><ele>212.33333333333334</ele><time>2026-04-22T09:01:36.672Z</time></trkpt><trkpt lat="46.3092275" lon="13.106332"><ele>212.66666666666669</ele><time>2026-04-22T09:01:37.673Z</time></trkpt><trkpt lat="46.3090607" lon="13.1062335"><ele>213.0</ele><time>2026-04-22T09:01:38.672Z</time></trkpt><trkpt lat="46.3088929" lon="13.1061312"><ele>213.0</ele><time>2026-04-22T09:01:39.672Z</time></trkpt><trkpt lat="46.3087271" lon="13.1060325"><ele>213.0</ele><time>2026-04-22T09:01:40.672Z</time></trkpt><trkpt lat="46.3085606" lon="13.1059349"><ele>213.0</ele><time>2026-04-22T09:01:41.673Z</time></trkpt><trkpt lat="46.3083957" lon="13.1058374"><ele>212.33333333333331</ele><time>2026-04-22T09:01:42.672Z</time></trkpt><trkpt lat="46.3082362" lon="13.1057369"><ele>211.66666666666666</ele><time>2026-04-22T09:01:43.672Z</time></trkpt><trkpt lat="46.3080784" lon="13.1056392"><ele>211.0</ele><time>2026-04-22T09:01:44.672Z</time></trkpt><trkpt lat="46.3079284" lon="13.1055483"><ele>210.33333333333331</ele><time>2026-04-22T09:01:45.673Z</time></trkpt><trkpt lat="46.3077795" lon="13.105455"><ele>209.66666666666669</ele><time>2026-04-22T09:01:46.673Z</time></trkpt><trkpt lat="46.307633" lon="13.1053649"><ele>209.0</ele><time>2026-04-22T09:01:47.672Z</time></trkpt><trkpt lat="46.3074977" lon="13.1052693"><ele>209.0</ele><time>2026-04-22T09:01:48.673Z</time></trkpt><trkpt lat="46.307372" lon="13.1051684"><ele>209.0</ele><time>2026-04-22T09:01:49.673Z</time></trkpt><trkpt lat="46.3072545" lon="13.1050662"><ele>209.0</ele><time>2026-04-22T09:01:50.672Z</time></trkpt><trkpt lat="46.3071375" lon="13.104965"><ele>209.0</ele><time>2026-04-22T09:01:51.673Z</time></trkpt><trkpt lat="46.3070266" lon="13.1048599"><ele>209.0</ele><time>2026-04-22T09:01:52.673Z</time></trkpt><trkpt lat="46.3069185" lon="13.1047605"><ele>209.0</ele><time>2026-04-22T09:01:53.673Z</time></trkpt><trkpt lat="46.3068128" lon="13.1046613"><ele>209.0</ele><time>2026-04-22T09:01:54.672Z</time></trkpt><trkpt lat="46.3067004" lon="13.1045578"><ele>209.0</ele><time>2026-04-22T09:01:55.673Z</time></trkpt><trkpt lat="46.3065855" lon="13.1044562"><ele>209.0</ele><time>2026-04-22T09:01:56.673Z</time></trkpt><trkpt lat="46.306468" lon="13.1043481"><ele>209.0</ele><time>2026-04-22T09:01:57.672Z</time></trkpt><trkpt lat="46.3063529" lon="13.1042349"><ele>209.0</ele><time>2026-04-22T09:01:58.672Z</time></trkpt><trkpt lat="46.3062416" lon="13.1041249"><ele>209.0</ele><time>2026-04-22T09:01:59.672Z</time></trkpt><trkpt lat="46.3061264" lon="13.1040213"><ele>209.75</ele><time>2026-04-22T09:02:00.673Z</time></trkpt><trkpt lat="46.3060109" lon="13.1039296"><ele>210.5</ele><time>2026-04-22T09:02:01.672Z</time></trkpt><trkpt lat="46.3058936" lon="13.1038498"><ele>211.25</ele><time>2026-04-22T09:02:02.672Z</time></trkpt><trkpt lat="46.3057756" lon="13.1037763"><ele>212.0</ele><time>2026-04-22T09:02:03.672Z</time></trkpt><trkpt lat="46.3056569" lon="13.1037048"><ele>211.25</ele><time>2026-04-22T09:02:04.673Z</time></trkpt><trkpt lat="46.305515" lon="13.1036205"><ele>210.5</ele><time>2026-04-22T09:02:05.672Z</time></trkpt><trkpt lat="46.3053785" lon="13.1035438"><ele>209.75</ele><time>2026-04-22T09:02:06.672Z</time></trkpt><trkpt lat="46.3052452" lon="13.1034692"><ele>209.0</ele><time>2026-04-22T09:02:07.672Z</time></trkpt><trkpt lat="46.3051192" lon="13.1033982"><ele>209.0</ele><time>2026-04-22T09:02:08.672Z</time></trkpt><trkpt lat="46.305003" lon="13.1033312"><ele>209.0</ele><time>2026-04-22T09:02:09.672Z</time></trkpt><trkpt lat="46.3048963" lon="13.10327"><ele>209.0</ele><time>2026-04-22T09:02:10.674Z</time></trkpt><trkpt lat="46.3048002" lon="13.103212"><ele>209.0</ele><time>2026-04-22T09:02:11.672Z</time></trkpt><trkpt lat="46.3047173" lon="13.1031639"><ele>209.0</ele><time>2026-04-22T09:02:12.672Z</time></trkpt><trkpt lat="46.3046519" lon="13.1031269"><ele>209.0</ele><time>2026-04-22T09:02:13.672Z</time></trkpt><trkpt lat="46.3045546" lon="13.1031362"><ele>209.0</ele><time>2026-04-22T09:02:15.672Z</time></trkpt><trkpt lat="46.3045304" lon="13.1032474"><ele>209.0</ele><time>2026-04-22T09:02:17.672Z</time></trkpt><trkpt lat="46.3045223" lon="13.1034164"><ele>209.0</ele><time>2026-04-22T09:02:19.672Z</time></trkpt><trkpt lat="46.3045017" lon="13.103516"><ele>209.0</ele><time>2026-04-22T09:02:20.673Z</time></trkpt><trkpt lat="46.3044742" lon="13.1036361"><ele>209.00000000000003</ele><time>2026-04-22T09:02:21.672Z</time></trkpt><trkpt lat="46.30444" lon="13.1037634"><ele>209.0</ele><time>2026-04-22T09:02:22.673Z</time></trkpt><trkpt lat="46.3044023" lon="13.1039042"><ele>209.0</ele><time>2026-04-22T09:02:23.672Z</time></trkpt><trkpt lat="46.3043754" lon="13.1040252"><ele>209.0</ele><time>2026-04-22T09:02:24.673Z</time></trkpt><trkpt lat="46.3043501" lon="13.1041366"><ele>209.00000000000003</ele><time>2026-04-22T09:02:25.672Z</time></trkpt><trkpt lat="46.3043298" lon="13.1042243"><ele>209.0</ele><time>2026-04-22T09:02:26.672Z</time></trkpt><trkpt lat="46.3042944" lon="13.1043268"><ele>209.2</ele><time>2026-04-22T09:02:28.673Z</time></trkpt><trkpt lat="46.304259" lon="13.1044196"><ele>209.39999999999998</ele><time>2026-04-22T09:02:31.673Z</time></trkpt><trkpt lat="46.3041763" lon="13.1044654"><ele>209.6</ele><time>2026-04-22T09:02:34.672Z</time></trkpt><trkpt lat="46.304073" lon="13.1044198"><ele>209.8</ele><time>2026-04-22T09:02:36.672Z</time></trkpt><trkpt lat="46.3039631" lon="13.1043355"><ele>210.0</ele><time>2026-04-22T09:02:38.672Z</time></trkpt><trkpt lat="46.303855" lon="13.1042556"><ele>210.0</ele><time>2026-04-22T09:02:40.673Z</time></trkpt><trkpt lat="46.303793" lon="13.1042157"><ele>210.0</ele><time>2026-04-22T09:02:41.672Z</time></trkpt><trkpt lat="46.3037386" lon="13.1041683"><ele>210.0</ele><time>2026-04-22T09:02:42.673Z</time></trkpt><trkpt lat="46.3036885" lon="13.1041039"><ele>210.0</ele><time>2026-04-22T09:02:43.672Z</time></trkpt><trkpt lat="46.3036299" lon="13.1040272"><ele>210.0</ele><time>2026-04-22T09:02:44.674Z</time></trkpt><trkpt lat="46.3035844" lon="13.1039627"><ele>210.0</ele><time>2026-04-22T09:02:45.673Z</time></trkpt><trkpt lat="46.3035367" lon="13.1038861"><ele>210.0</ele><time>2026-04-22T09:02:46.673Z</time></trkpt><trkpt lat="46.3034913" lon="13.1038118"><ele>210.0</ele><time>2026-04-22T09:02:47.672Z</time></trkpt><trkpt lat="46.3034448" lon="13.1037412"><ele>210.0</ele><time>2026-04-22T09:02:48.672Z</time></trkpt><trkpt lat="46.3033951" lon="13.1036675"><ele>210.0</ele><time>2026-04-22T09:02:49.672Z</time></trkpt><trkpt lat="46.3033431" lon="13.1036002"><ele>210.0</ele><time>2026-04-22T09:02:50.672Z</time></trkpt><trkpt lat="46.3032933" lon="13.1035306"><ele>210.0</ele><time>2026-04-22T09:02:51.672Z</time></trkpt><trkpt lat="46.3032529" lon="13.1034419"><ele>210.0</ele><time>2026-04-22T09:02:52.672Z</time></trkpt><trkpt lat="46.303163" lon="13.1033086"><ele>210.0</ele><time>2026-04-22T09:02:54.673Z</time></trkpt><trkpt lat="46.3031091" lon="13.1032531"><ele>210.0</ele><time>2026-04-22T09:02:55.673Z</time></trkpt><trkpt lat="46.3030324" lon="13.1031816"><ele>210.0</ele><time>2026-04-22T09:02:56.672Z</time></trkpt><trkpt lat="46.3029684" lon="13.1031205"><ele>210.0</ele><time>2026-04-22T09:02:57.673Z</time></trkpt><trkpt lat="46.302911" lon="13.103066"><ele>210.0</ele><time>2026-04-22T09:02:58.672Z</time></trkpt><trkpt lat="46.3028599" lon="13.10301"><ele>210.0</ele><time>2026-04-22T09:02:59.673Z</time></trkpt><trkpt lat="46.3027824" lon="13.1028917"><ele>209.85714285714286</ele><time>2026-04-22T09:03:01.673Z</time></trkpt><trkpt lat="46.3027418" lon="13.1028041"><ele>209.71428571428572</ele><time>2026-04-22T09:03:02.672Z</time></trkpt><trkpt lat="46.3027005" lon="13.1027236"><ele>209.57142857142856</ele><time>2026-04-22T09:03:03.672Z</time></trkpt><trkpt lat="46.302654" lon="13.1026592"><ele>209.42857142857144</ele><time>2026-04-22T09:03:04.673Z</time></trkpt><trkpt lat="46.3025874" lon="13.1025947"><ele>209.28571428571428</ele><time>2026-04-22T09:03:05.672Z</time></trkpt><trkpt lat="46.3025173" lon="13.1025428"><ele>209.14285714285714</ele><time>2026-04-22T09:03:06.672Z</time></trkpt><trkpt lat="46.3024601" lon="13.1024841"><ele>209.0</ele><time>2026-04-22T09:03:07.673Z</time></trkpt><trkpt lat="46.3023909" lon="13.1024108"><ele>209.00000000000003</ele><time>2026-04-22T09:03:08.672Z</time></trkpt><trkpt lat="46.3023384" lon="13.1023411"><ele>209.0</ele><time>2026-04-22T09:03:09.673Z</time></trkpt><trkpt lat="46.3022842" lon="13.1022761"><ele>209.0</ele><time>2026-04-22T09:03:10.672Z</time></trkpt><trkpt lat="46.3022312" lon="13.102196"><ele>209.0</ele><time>2026-04-22T09:03:11.672Z</time></trkpt><trkpt lat="46.3021907" lon="13.1021213"><ele>209.00000000000003</ele><time>2026-04-22T09:03:12.673Z</time></trkpt><trkpt lat="46.3021175" lon="13.1020106"><ele>209.0</ele><time>2026-04-22T09:03:14.672Z</time></trkpt><trkpt lat="46.3020893" lon="13.1019034"><ele>209.0</ele><time>2026-04-22T09:03:16.672Z</time></trkpt><trkpt lat="46.3020826" lon="13.1017488"><ele>209.0</ele><time>2026-04-22T09:03:18.673Z</time></trkpt><trkpt lat="46.302053" lon="13.1016047"><ele>209.0</ele><time>2026-04-22T09:03:20.672Z</time></trkpt><trkpt lat="46.3020186" lon="13.1014546"><ele>209.0</ele><time>2026-04-22T09:03:22.672Z</time></trkpt><trkpt lat="46.3019768" lon="13.1013381"><ele>209.0</ele><time>2026-04-22T09:03:24.672Z</time></trkpt><trkpt lat="46.3018882" lon="13.1012499"><ele>209.79999999999998</ele><time>2026-04-22T09:03:26.673Z</time></trkpt><trkpt lat="46.3018172" lon="13.1011329"><ele>210.6</ele><time>2026-04-22T09:03:28.673Z</time></trkpt><trkpt lat="46.3017355" lon="13.1010377"><ele>211.4</ele><time>2026-04-22T09:03:30.672Z</time></trkpt><trkpt lat="46.3016777" lon="13.1010009"><ele>212.2</ele><time>2026-04-22T09:03:31.672Z</time></trkpt><trkpt lat="46.3016044" lon="13.1009082"><ele>213.0</ele><time>2026-04-22T09:03:33.672Z</time></trkpt><trkpt lat="46.3015267" lon="13.100795"><ele>214.5</ele><time>2026-04-22T09:03:35.673Z</time></trkpt><trkpt lat="46.3014792" lon="13.1007143"><ele>216.0</ele><time>2026-04-22T09:03:37.672Z</time></trkpt><trkpt lat="46.3014289" lon="13.1006579"><ele>217.5</ele><time>2026-04-22T09:03:39.673Z</time></trkpt><trkpt lat="46.30137" lon="13.1006013"><ele>219.0</ele><time>2026-04-22T09:03:41.672Z</time></trkpt><trkpt lat="46.3013065" lon="13.1005489"><ele>220.5</ele><time>2026-04-22T09:03:43.673Z</time></trkpt><trkpt lat="46.3012124" lon="13.1005417"><ele>222.0</ele><time>2026-04-22T09:03:45.672Z</time></trkpt><trkpt lat="46.3011146" lon="13.1005476"><ele>222.0</ele><time>2026-04-22T09:03:47.673Z</time></trkpt><trkpt lat="46.3010171" lon="13.1005494"><ele>222.0</ele><time>2026-04-22T09:03:49.672Z</time></trkpt><trkpt lat="46.3009248" lon="13.1005455"><ele>222.0</ele><time>2026-04-22T09:03:51.672Z</time></trkpt><trkpt lat="46.3008447" lon="13.1005308"><ele>222.0</ele><time>2026-04-22T09:03:53.673Z</time></trkpt><trkpt lat="46.3007729" lon="13.1004502"><ele>222.0</ele><time>2026-04-22T09:03:55.672Z</time></trkpt><trkpt lat="46.3006934" lon="13.1003776"><ele>222.0</ele><time>2026-04-22T09:03:57.672Z</time></trkpt><trkpt lat="46.3005939" lon="13.1003346"><ele>222.0</ele><time>2026-04-22T09:03:59.672Z</time></trkpt><trkpt lat="46.3004938" lon="13.1003177"><ele>222.0</ele><time>2026-04-22T09:04:01.672Z</time></trkpt><trkpt lat="46.3004019" lon="13.1003075"><ele>222.0</ele><time>2026-04-22T09:04:03.672Z</time></trkpt><trkpt lat="46.3003359" lon="13.1002989"><ele>222.0</ele><time>2026-04-22T09:04:05.672Z</time></trkpt><trkpt lat="46.3002579" lon="13.1003045"><ele>222.0</ele><time>2026-04-22T09:04:07.672Z</time></trkpt><trkpt lat="46.3001682" lon="13.1003127"><ele>221.39999999999998</ele><time>2026-04-22T09:04:09.672Z</time></trkpt><trkpt lat="46.3000644" lon="13.1003833"><ele>220.79999999999998</ele><time>2026-04-22T09:04:11.672Z</time></trkpt><trkpt lat="46.2999819" lon="13.1004267"><ele>220.2</ele><time>2026-04-22T09:04:13.672Z</time></trkpt><trkpt lat="46.2998925" lon="13.1004395"><ele>219.6</ele><time>2026-04-22T09:04:15.672Z</time></trkpt><trkpt lat="46.299818" lon="13.1004379"><ele>219.0</ele><time>2026-04-22T09:04:17.672Z</time></trkpt><trkpt lat="46.299725" lon="13.1005326"><ele>219.0</ele><time>2026-04-22T09:04:20.672Z</time></trkpt><trkpt lat="46.2996666" lon="13.1006284"><ele>219.0</ele><time>2026-04-22T09:04:22.672Z</time></trkpt><trkpt lat="46.2996212" lon="13.1006985"><ele>219.0</ele><time>2026-04-22T09:04:25.672Z</time></trkpt><trkpt lat="46.299669" lon="13.1006351"><ele>219.0</ele><time>2026-04-22T09:05:05.672Z</time></trkpt><trkpt lat="46.2997262" lon="13.1005288"><ele>219.0</ele><time>2026-04-22T09:05:08.672Z</time></trkpt><trkpt lat="46.2997826" lon="13.1004313"><ele>219.0</ele><time>2026-04-22T09:05:11.672Z</time></trkpt><trkpt lat="46.2998546" lon="13.1004105"><ele>219.0</ele><time>2026-04-22T09:05:13.673Z</time></trkpt><trkpt lat="46.2999358" lon="13.1004196"><ele>219.0</ele><time>2026-04-22T09:05:15.672Z</time></trkpt><trkpt lat="46.3000167" lon="13.100417"><ele>219.0</ele><time>2026-04-22T09:05:16.673Z</time></trkpt><trkpt lat="46.3001017" lon="13.1003754"><ele>219.0</ele><time>2026-04-22T09:05:18.673Z</time></trkpt><trkpt lat="46.3002014" lon="13.1003283"><ele>219.0</ele><time>2026-04-22T09:05:20.673Z</time></trkpt><trkpt lat="46.3002899" lon="13.1003055"><ele>219.0</ele><time>2026-04-22T09:05:22.672Z</time></trkpt><trkpt lat="46.3003635" lon="13.1003036"><ele>219.0</ele><time>2026-04-22T09:05:24.672Z</time></trkpt><trkpt lat="46.3004755" lon="13.1003139"><ele>218.99999999999997</ele><time>2026-04-22T09:05:27.672Z</time></trkpt><trkpt lat="46.3005991" lon="13.100336"><ele>218.99999999999997</ele><time>2026-04-22T09:05:29.672Z</time></trkpt><trkpt lat="46.3006871" lon="13.100373"><ele>219.0</ele><time>2026-04-22T09:05:31.672Z</time></trkpt><trkpt lat="46.3007619" lon="13.1004499"><ele>219.0</ele><time>2026-04-22T09:05:33.672Z</time></trkpt><trkpt lat="46.3008439" lon="13.1005344"><ele>219.6</ele><time>2026-04-22T09:05:35.672Z</time></trkpt><trkpt lat="46.3009341" lon="13.100538"><ele>220.2</ele><time>2026-04-22T09:05:37.672Z</time></trkpt><trkpt lat="46.3010113" lon="13.1005473"><ele>220.79999999999998</ele><time>2026-04-22T09:05:39.672Z</time></trkpt><trkpt lat="46.3011217" lon="13.1005446"><ele>221.39999999999998</ele><time>2026-04-22T09:05:41.672Z</time></trkpt><trkpt lat="46.3012283" lon="13.1005375"><ele>222.0</ele><time>2026-04-22T09:05:43.672Z</time></trkpt><trkpt lat="46.3013054" lon="13.10057"><ele>222.0</ele><time>2026-04-22T09:05:45.672Z</time></trkpt><trkpt lat="46.3013666" lon="13.1006171"><ele>222.0</ele><time>2026-04-22T09:05:47.671Z</time></trkpt><trkpt lat="46.3014221" lon="13.1006639"><ele>222.0</ele><time>2026-04-22T09:05:50.672Z</time></trkpt><trkpt lat="46.3014782" lon="13.1007197"><ele>222.0</ele><time>2026-04-22T09:05:52.671Z</time></trkpt><trkpt lat="46.3015227" lon="13.1008124"><ele>222.0</ele><time>2026-04-22T09:05:54.671Z</time></trkpt><trkpt lat="46.3015919" lon="13.10092"><ele>222.0</ele><time>2026-04-22T09:05:56.672Z</time></trkpt><trkpt lat="46.3016955" lon="13.1010246"><ele>220.2</ele><time>2026-04-22T09:05:58.671Z</time></trkpt><trkpt lat="46.3017798" lon="13.1010957"><ele>218.39999999999998</ele><time>2026-04-22T09:06:00.671Z</time></trkpt><trkpt lat="46.3018547" lon="13.1012192"><ele>216.60000000000002</ele><time>2026-04-22T09:06:02.671Z</time></trkpt><trkpt lat="46.301954" lon="13.1013294"><ele>214.8</ele><time>2026-04-22T09:06:04.671Z</time></trkpt><trkpt lat="46.3020084" lon="13.1014504"><ele>213.0</ele><time>2026-04-22T09:06:06.671Z</time></trkpt><trkpt lat="46.3020365" lon="13.1015451"><ele>212.2</ele><time>2026-04-22T09:06:07.671Z</time></trkpt><trkpt lat="46.3020629" lon="13.1016444"><ele>211.4</ele><time>2026-04-22T09:06:08.671Z</time></trkpt><trkpt lat="46.3020778" lon="13.1018062"><ele>210.6</ele><time>2026-04-22T09:06:10.671Z</time></trkpt><trkpt lat="46.3020829" lon="13.1019364"><ele>209.79999999999998</ele><time>2026-04-22T09:06:12.671Z</time></trkpt><trkpt lat="46.3021418" lon="13.1020559"><ele>209.0</ele><time>2026-04-22T09:06:14.671Z</time></trkpt><trkpt lat="46.3022245" lon="13.1021935"><ele>209.00000000000003</ele><time>2026-04-22T09:06:16.672Z</time></trkpt><trkpt lat="46.30228" lon="13.1022798"><ele>209.0</ele><time>2026-04-22T09:06:17.672Z</time></trkpt><trkpt lat="46.3023444" lon="13.1023595"><ele>209.0</ele><time>2026-04-22T09:06:18.672Z</time></trkpt><trkpt lat="46.302399" lon="13.1024286"><ele>209.0</ele><time>2026-04-22T09:06:19.672Z</time></trkpt><trkpt lat="46.3024566" lon="13.102496"><ele>209.00000000000003</ele><time>2026-04-22T09:06:20.671Z</time></trkpt><trkpt lat="46.3025232" lon="13.1025512"><ele>209.0</ele><time>2026-04-22T09:06:21.671Z</time></trkpt><trkpt lat="46.3025843" lon="13.1025986"><ele>208.66666666666669</ele><time>2026-04-22T09:06:22.671Z</time></trkpt><trkpt lat="46.3026409" lon="13.1026559"><ele>208.33333333333334</ele><time>2026-04-22T09:06:23.671Z</time></trkpt><trkpt lat="46.3026903" lon="13.1027249"><ele>208.0</ele><time>2026-04-22T09:06:24.671Z</time></trkpt><trkpt lat="46.3027339" lon="13.1028103"><ele>207.66666666666669</ele><time>2026-04-22T09:06:25.671Z</time></trkpt><trkpt lat="46.3027837" lon="13.1029161"><ele>207.33333333333334</ele><time>2026-04-22T09:06:26.671Z</time></trkpt><trkpt lat="46.3028395" lon="13.1029946"><ele>207.0</ele><time>2026-04-22T09:06:27.671Z</time></trkpt><trkpt lat="46.3029074" lon="13.1030772"><ele>207.0</ele><time>2026-04-22T09:06:28.672Z</time></trkpt><trkpt lat="46.3029961" lon="13.1031625"><ele>207.0</ele><time>2026-04-22T09:06:29.671Z</time></trkpt><trkpt lat="46.3030724" lon="13.1032302"><ele>207.0</ele><time>2026-04-22T09:06:30.671Z</time></trkpt><trkpt lat="46.3031383" lon="13.1032951"><ele>207.0</ele><time>2026-04-22T09:06:31.672Z</time></trkpt><trkpt lat="46.3031992" lon="13.1033744"><ele>207.0</ele><time>2026-04-22T09:06:32.671Z</time></trkpt><trkpt lat="46.3032534" lon="13.1034662"><ele>207.0</ele><time>2026-04-22T09:06:33.671Z</time></trkpt><trkpt lat="46.3033037" lon="13.1035586"><ele>207.6</ele><time>2026-04-22T09:06:34.671Z</time></trkpt><trkpt lat="46.3033755" lon="13.1036608"><ele>208.2</ele><time>2026-04-22T09:06:35.671Z</time></trkpt><trkpt lat="46.3034458" lon="13.1037544"><ele>208.8</ele><time>2026-04-22T09:06:36.671Z</time></trkpt><trkpt lat="46.3035096" lon="13.1038453"><ele>209.4</ele><time>2026-04-22T09:06:37.671Z</time></trkpt><trkpt lat="46.3035751" lon="13.1039555"><ele>210.0</ele><time>2026-04-22T09:06:38.672Z</time></trkpt><trkpt lat="46.3036355" lon="13.1040524"><ele>210.0</ele><time>2026-04-22T09:06:39.671Z</time></trkpt><trkpt lat="46.3036971" lon="13.1041304"><ele>210.0</ele><time>2026-04-22T09:06:40.671Z</time></trkpt><trkpt lat="46.3037669" lon="13.1041938"><ele>210.0</ele><time>2026-04-22T09:06:41.671Z</time></trkpt><trkpt lat="46.3038502" lon="13.1042531"><ele>210.0</ele><time>2026-04-22T09:06:42.671Z</time></trkpt><trkpt lat="46.3039122" lon="13.1043056"><ele>210.0</ele><time>2026-04-22T09:06:43.671Z</time></trkpt><trkpt lat="46.3039654" lon="13.1043558"><ele>210.0</ele><time>2026-04-22T09:06:44.672Z</time></trkpt><trkpt lat="46.3040546" lon="13.1044243"><ele>210.0</ele><time>2026-04-22T09:06:46.671Z</time></trkpt><trkpt lat="46.3041324" lon="13.1045094"><ele>210.0</ele><time>2026-04-22T09:06:48.671Z</time></trkpt><trkpt lat="46.3041629" lon="13.1046235"><ele>210.0</ele><time>2026-04-22T09:06:50.671Z</time></trkpt><trkpt lat="46.3041495" lon="13.1047976"><ele>210.0</ele><time>2026-04-22T09:06:52.671Z</time></trkpt><trkpt lat="46.3041171" lon="13.1049089"><ele>210.0</ele><time>2026-04-22T09:06:53.671Z</time></trkpt><trkpt lat="46.3040825" lon="13.1050243"><ele>209.83333333333334</ele><time>2026-04-22T09:06:54.673Z</time></trkpt><trkpt lat="46.3040502" lon="13.1051442"><ele>209.66666666666669</ele><time>2026-04-22T09:06:55.671Z</time></trkpt><trkpt lat="46.3040039" lon="13.105259"><ele>209.5</ele><time>2026-04-22T09:06:56.671Z</time></trkpt><trkpt lat="46.3039716" lon="13.1053468"><ele>209.33333333333334</ele><time>2026-04-22T09:06:57.671Z</time></trkpt><trkpt lat="46.3039328" lon="13.1054475"><ele>209.16666666666669</ele><time>2026-04-22T09:06:58.671Z</time></trkpt><trkpt lat="46.303895" lon="13.1055269"><ele>209.0</ele><time>2026-04-22T09:06:59.671Z</time></trkpt><trkpt lat="46.3038517" lon="13.1055956"><ele>208.79999999999998</ele><time>2026-04-22T09:07:00.672Z</time></trkpt><trkpt lat="46.3037536" lon="13.1057066"><ele>208.6</ele><time>2026-04-22T09:07:02.672Z</time></trkpt><trkpt lat="46.3036985" lon="13.1057934"><ele>208.4</ele><time>2026-04-22T09:07:03.672Z</time></trkpt><trkpt lat="46.3036486" lon="13.1058653"><ele>208.2</ele><time>2026-04-22T09:07:04.671Z</time></trkpt><trkpt lat="46.3035762" lon="13.1059311"><ele>208.0</ele><time>2026-04-22T09:07:05.671Z</time></trkpt><trkpt lat="46.3034963" lon="13.1059834"><ele>207.99999999999997</ele><time>2026-04-22T09:07:06.672Z</time></trkpt><trkpt lat="46.3034209" lon="13.1060387"><ele>208.0</ele><time>2026-04-22T09:07:07.671Z</time></trkpt><trkpt lat="46.3033369" lon="13.106083"><ele>208.0</ele><time>2026-04-22T09:07:08.671Z</time></trkpt><trkpt lat="46.3032506" lon="13.106136"><ele>208.0</ele><time>2026-04-22T09:07:09.671Z</time></trkpt><trkpt lat="46.3031854" lon="13.1061776"><ele>207.99999999999997</ele><time>2026-04-22T09:07:10.671Z</time></trkpt><trkpt lat="46.30312" lon="13.1062267"><ele>208.0</ele><time>2026-04-22T09:07:11.671Z</time></trkpt><trkpt lat="46.3030513" lon="13.1062913"><ele>207.83333333333331</ele><time>2026-04-22T09:07:12.671Z</time></trkpt><trkpt lat="46.3029775" lon="13.1063428"><ele>207.66666666666666</ele><time>2026-04-22T09:07:13.672Z</time></trkpt><trkpt lat="46.3029044" lon="13.1063936"><ele>207.5</ele><time>2026-04-22T09:07:14.671Z</time></trkpt><trkpt lat="46.3028102" lon="13.106445"><ele>207.33333333333331</ele><time>2026-04-22T09:07:15.671Z</time></trkpt><trkpt lat="46.302733" lon="13.1064988"><ele>207.16666666666666</ele><time>2026-04-22T09:07:16.671Z</time></trkpt><trkpt lat="46.3026614" lon="13.1065583"><ele>207.0</ele><time>2026-04-22T09:07:17.672Z</time></trkpt><trkpt lat="46.3025978" lon="13.1066097"><ele>207.0</ele><time>2026-04-22T09:07:18.672Z</time></trkpt><trkpt lat="46.3025428" lon="13.1066646"><ele>207.0</ele><time>2026-04-22T09:07:19.671Z</time></trkpt><trkpt lat="46.302486" lon="13.1067307"><ele>207.0</ele><time>2026-04-22T09:07:20.671Z</time></trkpt><trkpt lat="46.302437" lon="13.1067887"><ele>207.0</ele><time>2026-04-22T09:07:21.672Z</time></trkpt><trkpt lat="46.3023531" lon="13.1068776"><ele>207.0</ele><time>2026-04-22T09:07:23.672Z</time></trkpt><trkpt lat="46.3022708" lon="13.1068605"><ele>207.0</ele><time>2026-04-22T09:07:25.671Z</time></trkpt><trkpt lat="46.3021776" lon="13.1067358"><ele>207.0</ele><time>2026-04-22T09:07:27.671Z</time></trkpt><trkpt lat="46.3021328" lon="13.1066253"><ele>207.0</ele><time>2026-04-22T09:07:28.671Z</time></trkpt><trkpt lat="46.3020778" lon="13.1065431"><ele>207.0</ele><time>2026-04-22T09:07:29.671Z</time></trkpt><trkpt lat="46.3020113" lon="13.1064794"><ele>207.0</ele><time>2026-04-22T09:07:30.671Z</time></trkpt><trkpt lat="46.301924" lon="13.1064277"><ele>207.0</ele><time>2026-04-22T09:07:31.671Z</time></trkpt><trkpt lat="46.3018167" lon="13.1063728"><ele>207.16666666666666</ele><time>2026-04-22T09:07:32.671Z</time></trkpt><trkpt lat="46.3017325" lon="13.1063407"><ele>207.33333333333331</ele><time>2026-04-22T09:07:33.672Z</time></trkpt><trkpt lat="46.3016564" lon="13.1063349"><ele>207.5</ele><time>2026-04-22T09:07:34.671Z</time></trkpt><trkpt lat="46.3015725" lon="13.1063545"><ele>207.66666666666666</ele><time>2026-04-22T09:07:35.673Z</time></trkpt><trkpt lat="46.3014842" lon="13.1063889"><ele>207.83333333333331</ele><time>2026-04-22T09:07:36.672Z</time></trkpt><trkpt lat="46.3013947" lon="13.1064427"><ele>208.0</ele><time>2026-04-22T09:07:37.671Z</time></trkpt><trkpt lat="46.3012979" lon="13.1065024"><ele>208.0</ele><time>2026-04-22T09:07:38.672Z</time></trkpt><trkpt lat="46.3012011" lon="13.1065723"><ele>208.0</ele><time>2026-04-22T09:07:39.671Z</time></trkpt><trkpt lat="46.3010702" lon="13.1066362"><ele>208.0</ele><time>2026-04-22T09:07:40.671Z</time></trkpt><trkpt lat="46.3009524" lon="13.1067123"><ele>208.0</ele><time>2026-04-22T09:07:41.672Z</time></trkpt><trkpt lat="46.3008164" lon="13.10678"><ele>208.0</ele><time>2026-04-22T09:07:42.671Z</time></trkpt><trkpt lat="46.3007052" lon="13.1068552"><ele>208.0</ele><time>2026-04-22T09:07:43.671Z</time></trkpt><trkpt lat="46.3005943" lon="13.1069397"><ele>208.0</ele><time>2026-04-22T09:07:44.671Z</time></trkpt><trkpt lat="46.3005065" lon="13.1070144"><ele>208.0</ele><time>2026-04-22T09:07:45.671Z</time></trkpt><trkpt lat="46.3004331" lon="13.1070912"><ele>208.0</ele><time>2026-04-22T09:07:46.671Z</time></trkpt><trkpt lat="46.3003703" lon="13.1071683"><ele>207.99999999999997</ele><time>2026-04-22T09:07:47.671Z</time></trkpt><trkpt lat="46.3003188" lon="13.1072402"><ele>208.0</ele><time>2026-04-22T09:07:48.671Z</time></trkpt><trkpt lat="46.3002752" lon="13.1073202"><ele>208.0</ele><time>2026-04-22T09:07:49.672Z</time></trkpt><trkpt lat="46.3002309" lon="13.1074157"><ele>208.0</ele><time>2026-04-22T09:07:50.671Z</time></trkpt><trkpt lat="46.3001875" lon="13.1075345"><ele>207.99999999999997</ele><time>2026-04-22T09:07:52.672Z</time></trkpt><trkpt lat="46.300245" lon="13.1073877"><ele>208.0</ele><time>2026-04-22T09:08:07.671Z</time></trkpt><trkpt lat="46.3002994" lon="13.1072839"><ele>208.0</ele><time>2026-04-22T09:08:08.671Z</time></trkpt><trkpt lat="46.3003618" lon="13.1071933"><ele>208.0</ele><time>2026-04-22T09:08:09.671Z</time></trkpt><trkpt lat="46.30044" lon="13.1071067"><ele>208.0</ele><time>2026-04-22T09:08:10.671Z</time></trkpt><trkpt lat="46.300519" lon="13.1070332"><ele>208.0</ele><time>2026-04-22T09:08:11.671Z</time></trkpt><trkpt lat="46.3006121" lon="13.1069483"><ele>208.0</ele><time>2026-04-22T09:08:12.671Z</time></trkpt><trkpt lat="46.3007148" lon="13.1068675"><ele>208.0</ele><time>2026-04-22T09:08:13.672Z</time></trkpt><trkpt lat="46.3008051" lon="13.1068007"><ele>208.0</ele><time>2026-04-22T09:08:14.671Z</time></trkpt><trkpt lat="46.3008972" lon="13.1067386"><ele>208.0</ele><time>2026-04-22T09:08:15.671Z</time></trkpt><trkpt lat="46.300997" lon="13.1066816"><ele>208.0</ele><time>2026-04-22T09:08:16.672Z</time></trkpt><trkpt lat="46.3011009" lon="13.1066204"><ele>208.0</ele><time>2026-04-22T09:08:17.671Z</time></trkpt><trkpt lat="46.301197" lon="13.1065611"><ele>208.0</ele><time>2026-04-22T09:08:18.671Z</time></trkpt><trkpt lat="46.3012984" lon="13.1064976"><ele>208.0</ele><time>2026-04-22T09:08:19.672Z</time></trkpt><trkpt lat="46.3013967" lon="13.1064403"><ele>208.0</ele><time>2026-04-22T09:08:20.671Z</time></trkpt><trkpt lat="46.3014875" lon="13.1064011"><ele>208.0</ele><time>2026-04-22T09:08:21.672Z</time></trkpt><trkpt lat="46.301596" lon="13.1063681"><ele>208.0</ele><time>2026-04-22T09:08:22.671Z</time></trkpt><trkpt lat="46.3017011" lon="13.1063584"><ele>208.2</ele><time>2026-04-22T09:08:23.671Z</time></trkpt><trkpt lat="46.3018043" lon="13.1063773"><ele>208.4</ele><time>2026-04-22T09:08:24.671Z</time></trkpt><trkpt lat="46.3019056" lon="13.106422"><ele>208.6</ele><time>2026-04-22T09:08:25.671Z</time></trkpt><trkpt lat="46.3020183" lon="13.1064935"><ele>208.79999999999998</ele><time>2026-04-22T09:08:26.672Z</time></trkpt><trkpt lat="46.3020841" lon="13.1065582"><ele>209.0</ele><time>2026-04-22T09:08:27.672Z</time></trkpt><trkpt lat="46.3021369" lon="13.1066358"><ele>208.6</ele><time>2026-04-22T09:08:28.671Z</time></trkpt><trkpt lat="46.3021752" lon="13.1067276"><ele>208.2</ele><time>2026-04-22T09:08:29.672Z</time></trkpt><trkpt lat="46.3022128" lon="13.1068072"><ele>207.79999999999998</ele><time>2026-04-22T09:08:30.672Z</time></trkpt><trkpt lat="46.3023089" lon="13.1068766"><ele>207.39999999999998</ele><time>2026-04-22T09:08:32.671Z</time></trkpt><trkpt lat="46.3024356" lon="13.1068186"><ele>207.0</ele><time>2026-04-22T09:08:34.671Z</time></trkpt><trkpt lat="46.3025224" lon="13.1067575"><ele>207.0</ele><time>2026-04-22T09:08:35.673Z</time></trkpt><trkpt lat="46.3026033" lon="13.1066764"><ele>207.0</ele><time>2026-04-22T09:08:36.671Z</time></trkpt><trkpt lat="46.3026904" lon="13.1065826"><ele>207.0</ele><time>2026-04-22T09:08:37.671Z</time></trkpt><trkpt lat="46.3027671" lon="13.1065249"><ele>207.0</ele><time>2026-04-22T09:08:38.671Z</time></trkpt><trkpt lat="46.3028517" lon="13.1064709"><ele>207.0</ele><time>2026-04-22T09:08:39.671Z</time></trkpt><trkpt lat="46.3029517" lon="13.1063998"><ele>207.0</ele><time>2026-04-22T09:08:40.671Z</time></trkpt><trkpt lat="46.3030513" lon="13.1063327"><ele>207.0</ele><time>2026-04-22T09:08:41.672Z</time></trkpt><trkpt lat="46.3031608" lon="13.1062581"><ele>207.0</ele><time>2026-04-22T09:08:42.672Z</time></trkpt><trkpt lat="46.3032643" lon="13.1061772"><ele>207.0</ele><time>2026-04-22T09:08:43.672Z</time></trkpt><trkpt lat="46.303369" lon="13.1060993"><ele>207.2</ele><time>2026-04-22T09:08:44.671Z</time></trkpt><trkpt lat="46.3034694" lon="13.1060242"><ele>207.39999999999998</ele><time>2026-04-22T09:08:45.671Z</time></trkpt><trkpt lat="46.303553" lon="13.1059597"><ele>207.60000000000002</ele><time>2026-04-22T09:08:46.671Z</time></trkpt><trkpt lat="46.3036314" lon="13.1058857"><ele>207.8</ele><time>2026-04-22T09:08:47.671Z</time></trkpt><trkpt lat="46.303697" lon="13.1058088"><ele>208.0</ele><time>2026-04-22T09:08:48.672Z</time></trkpt><trkpt lat="46.3037795" lon="13.1057244"><ele>208.2</ele><time>2026-04-22T09:08:49.671Z</time></trkpt><trkpt lat="46.3038441" lon="13.1056416"><ele>208.4</ele><time>2026-04-22T09:08:50.672Z</time></trkpt><trkpt lat="46.3038934" lon="13.1055497"><ele>208.6</ele><time>2026-04-22T09:08:51.671Z</time></trkpt><trkpt lat="46.3039473" lon="13.1054174"><ele>208.79999999999998</ele><time>2026-04-22T09:08:52.673Z</time></trkpt><trkpt lat="46.3039978" lon="13.1052981"><ele>209.0</ele><time>2026-04-22T09:08:53.671Z</time></trkpt><trkpt lat="46.3040441" lon="13.1051826"><ele>209.0</ele><time>2026-04-22T09:08:54.671Z</time></trkpt><trkpt lat="46.3040893" lon="13.1050594"><ele>209.0</ele><time>2026-04-22T09:08:55.671Z</time></trkpt><trkpt lat="46.3041298" lon="13.1049412"><ele>209.0</ele><time>2026-04-22T09:08:56.671Z</time></trkpt><trkpt lat="46.3041756" lon="13.1048126"><ele>209.0</ele><time>2026-04-22T09:08:57.672Z</time></trkpt><trkpt lat="46.3042175" lon="13.1046648"><ele>209.0</ele><time>2026-04-22T09:08:58.671Z</time></trkpt><trkpt lat="46.3042541" lon="13.1045101"><ele>209.0</ele><time>2026-04-22T09:08:59.672Z</time></trkpt><trkpt lat="46.3042972" lon="13.1043377"><ele>209.0</ele><time>2026-04-22T09:09:00.671Z</time></trkpt><trkpt lat="46.3043431" lon="13.1041577"><ele>209.0</ele><time>2026-04-22T09:09:01.671Z</time></trkpt><trkpt lat="46.3043819" lon="13.1040011"><ele>209.0</ele><time>2026-04-22T09:09:02.671Z</time></trkpt><trkpt lat="46.3044227" lon="13.1038392"><ele>209.0</ele><time>2026-04-22T09:09:03.672Z</time></trkpt><trkpt lat="46.3044566" lon="13.1036948"><ele>209.0</ele><time>2026-04-22T09:09:04.671Z</time></trkpt><trkpt lat="46.3044839" lon="13.1035666"><ele>209.0</ele><time>2026-04-22T09:09:05.671Z</time></trkpt><trkpt lat="46.3045061" lon="13.1034645"><ele>209.0</ele><time>2026-04-22T09:09:06.672Z</time></trkpt><trkpt lat="46.3045365" lon="13.1033113"><ele>209.0</ele><time>2026-04-22T09:09:08.671Z</time></trkpt><trkpt lat="46.3045447" lon="13.1031862"><ele>208.75</ele><time>2026-04-22T09:09:10.671Z</time></trkpt><trkpt lat="46.3045208" lon="13.1030982"><ele>208.5</ele><time>2026-04-22T09:09:12.671Z</time></trkpt><trkpt lat="46.3043927" lon="13.1029913"><ele>208.25</ele><time>2026-04-22T09:09:14.671Z</time></trkpt><trkpt lat="46.3042831" lon="13.102943"><ele>208.0</ele><time>2026-04-22T09:09:15.671Z</time></trkpt><trkpt lat="46.3041567" lon="13.1028887"><ele>208.0</ele><time>2026-04-22T09:09:16.672Z</time></trkpt><trkpt lat="46.3040138" lon="13.1028147"><ele>208.0</ele><time>2026-04-22T09:09:17.672Z</time></trkpt><trkpt lat="46.303856" lon="13.1027233"><ele>208.0</ele><time>2026-04-22T09:09:18.671Z</time></trkpt><trkpt lat="46.3036701" lon="13.1025928"><ele>207.5</ele><time>2026-04-22T09:09:19.673Z</time></trkpt><trkpt lat="46.303412" lon="13.1024378"><ele>207.0</ele><time>2026-04-22T09:09:20.671Z</time></trkpt><trkpt lat="46.3032026" lon="13.1022827"><ele>207.66666666666669</ele><time>2026-04-22T09:09:21.671Z</time></trkpt><trkpt lat="46.3030157" lon="13.1021288"><ele>208.33333333333334</ele><time>2026-04-22T09:09:22.671Z</time></trkpt><trkpt lat="46.3028405" lon="13.1019918"><ele>209.0</ele><time>2026-04-22T09:09:23.671Z</time></trkpt><trkpt lat="46.3026803" lon="13.1018492"><ele>209.0</ele><time>2026-04-22T09:09:24.671Z</time></trkpt><trkpt lat="46.3025474" lon="13.1016768"><ele>209.0</ele><time>2026-04-22T09:09:25.672Z</time></trkpt><trkpt lat="46.3024378" lon="13.101473"><ele>209.0</ele><time>2026-04-22T09:09:26.672Z</time></trkpt><trkpt lat="46.302342" lon="13.1012553"><ele>209.0</ele><time>2026-04-22T09:09:27.671Z</time></trkpt><trkpt lat="46.3022526" lon="13.101038"><ele>209.0</ele><time>2026-04-22T09:09:28.671Z</time></trkpt><trkpt lat="46.3021725" lon="13.1008254"><ele>209.0</ele><time>2026-04-22T09:09:29.671Z</time></trkpt><trkpt lat="46.3020946" lon="13.1006197"><ele>213.66666666666669</ele><time>2026-04-22T09:09:30.671Z</time></trkpt><trkpt lat="46.3020095" lon="13.1004283"><ele>218.33333333333331</ele><time>2026-04-22T09:09:31.671Z</time></trkpt><trkpt lat="46.3019152" lon="13.1002509"><ele>223.0</ele><time>2026-04-22T09:09:32.672Z</time></trkpt><trkpt lat="46.3017906" lon="13.1001253"><ele>223.0</ele><time>2026-04-22T09:09:33.672Z</time></trkpt><trkpt lat="46.3016397" lon="13.100017"><ele>223.0</ele><time>2026-04-22T09:09:34.671Z</time></trkpt><trkpt lat="46.3014672" lon="13.099922"><ele>223.0</ele><time>2026-04-22T09:09:35.672Z</time></trkpt><trkpt lat="46.3013051" lon="13.0998404"><ele>230.33333333333331</ele><time>2026-04-22T09:09:36.671Z</time></trkpt><trkpt lat="46.3011426" lon="13.0997714"><ele>237.66666666666669</ele><time>2026-04-22T09:09:37.671Z</time></trkpt><trkpt lat="46.3009602" lon="13.0997457"><ele>245.0</ele><time>2026-04-22T09:09:38.671Z</time></trkpt><trkpt lat="46.3007669" lon="13.0997426"><ele>245.0</ele><time>2026-04-22T09:09:39.671Z</time></trkpt><trkpt lat="46.3005904" lon="13.0997526"><ele>245.0</ele><time>2026-04-22T09:09:40.671Z</time></trkpt><trkpt lat="46.3004186" lon="13.0997695"><ele>245.0</ele><time>2026-04-22T09:09:41.671Z</time></trkpt><trkpt lat="46.3002475" lon="13.0998161"><ele>245.66666666666669</ele><time>2026-04-22T09:09:42.671Z</time></trkpt><trkpt lat="46.3000738" lon="13.0998904"><ele>246.33333333333331</ele><time>2026-04-22T09:09:43.672Z</time></trkpt><trkpt lat="46.2999013" lon="13.099974"><ele>247.0</ele><time>2026-04-22T09:09:44.672Z</time></trkpt><trkpt lat="46.2997408" lon="13.1000496"><ele>240.66666666666666</ele><time>2026-04-22T09:09:45.671Z</time></trkpt><trkpt lat="46.2995764" lon="13.1001127"><ele>234.33333333333331</ele><time>2026-04-22T09:09:46.671Z</time></trkpt><trkpt lat="46.2994084" lon="13.1001666"><ele>228.0</ele><time>2026-04-22T09:09:47.671Z</time></trkpt><trkpt lat="46.2992533" lon="13.1002114"><ele>228.0</ele><time>2026-04-22T09:09:48.671Z</time></trkpt><trkpt lat="46.2990995" lon="13.1002497"><ele>228.0</ele><time>2026-04-22T09:09:49.671Z</time></trkpt><trkpt lat="46.2989501" lon="13.1002862"><ele>228.0</ele><time>2026-04-22T09:09:50.672Z</time></trkpt><trkpt lat="46.2988035" lon="13.1003143"><ele>227.0</ele><time>2026-04-22T09:09:51.671Z</time></trkpt><trkpt lat="46.2986494" lon="13.1003058"><ele>226.0</ele><time>2026-04-22T09:09:52.671Z</time></trkpt><trkpt lat="46.2984873" lon="13.1002765"><ele>225.0</ele><time>2026-04-22T09:09:53.672Z</time></trkpt><trkpt lat="46.2983271" lon="13.1002266"><ele>225.0</ele><time>2026-04-22T09:09:54.671Z</time></trkpt><trkpt lat="46.2981644" lon="13.1001728"><ele>225.0</ele><time>2026-04-22T09:09:55.671Z</time></trkpt><trkpt lat="46.2980013" lon="13.1001143"><ele>225.0</ele><time>2026-04-22T09:09:56.672Z</time></trkpt><trkpt lat="46.2978386" lon="13.1000594"><ele>224.0</ele><time>2026-04-22T09:09:57.672Z</time></trkpt><trkpt lat="46.2976733" lon="13.0999946"><ele>223.0</ele><time>2026-04-22T09:09:58.673Z</time></trkpt><trkpt lat="46.2975061" lon="13.0999262"><ele>222.0</ele><time>2026-04-22T09:09:59.671Z</time></trkpt><trkpt lat="46.2973366" lon="13.099855"><ele>228.0</ele><time>2026-04-22T09:10:00.671Z</time></trkpt><trkpt lat="46.2971638" lon="13.0997766"><ele>234.0</ele><time>2026-04-22T09:10:01.671Z</time></trkpt><trkpt lat="46.2969894" lon="13.099703"><ele>240.0</ele><time>2026-04-22T09:10:02.672Z</time></trkpt><trkpt lat="46.2968027" lon="13.0996228"><ele>240.0</ele><time>2026-04-22T09:10:03.672Z</time></trkpt><trkpt lat="46.2966101" lon="13.0995378"><ele>240.0</ele><time>2026-04-22T09:10:04.671Z</time></trkpt><trkpt lat="46.2964148" lon="13.0994428"><ele>240.0</ele><time>2026-04-22T09:10:05.671Z</time></trkpt><trkpt lat="46.2962346" lon="13.0993499"><ele>236.66666666666669</ele><time>2026-04-22T09:10:06.672Z</time></trkpt><trkpt lat="46.2960635" lon="13.0992623"><ele>233.33333333333334</ele><time>2026-04-22T09:10:07.671Z</time></trkpt><trkpt lat="46.295881" lon="13.0991437"><ele>230.0</ele><time>2026-04-22T09:10:08.671Z</time></trkpt><trkpt lat="46.2957116" lon="13.099053"><ele>234.66666666666669</ele><time>2026-04-22T09:10:09.672Z</time></trkpt><trkpt lat="46.2955429" lon="13.0989995"><ele>239.33333333333331</ele><time>2026-04-22T09:10:10.672Z</time></trkpt><trkpt lat="46.295369" lon="13.098906"><ele>244.0</ele><time>2026-04-22T09:10:11.671Z</time></trkpt><trkpt lat="46.2951994" lon="13.0988067"><ele>244.0</ele><time>2026-04-22T09:10:12.672Z</time></trkpt><trkpt lat="46.2950432" lon="13.0986917"><ele>244.0</ele><time>2026-04-22T09:10:13.672Z</time></trkpt><trkpt lat="46.2949304" lon="13.0985927"><ele>244.0</ele><time>2026-04-22T09:10:14.671Z</time></trkpt><trkpt lat="46.2948092" lon="13.0985082"><ele>244.0</ele><time>2026-04-22T09:10:15.672Z</time></trkpt><trkpt lat="46.2946748" lon="13.0984166"><ele>242.33333333333331</ele><time>2026-04-22T09:10:16.671Z</time></trkpt><trkpt lat="46.29454" lon="13.0983063"><ele>240.66666666666669</ele><time>2026-04-22T09:10:17.672Z</time></trkpt><trkpt lat="46.2944165" lon="13.0981825"><ele>239.0</ele><time>2026-04-22T09:10:18.672Z</time></trkpt><trkpt lat="46.2942882" lon="13.0980734"><ele>236.0</ele><time>2026-04-22T09:10:19.672Z</time></trkpt><trkpt lat="46.2941585" lon="13.0979713"><ele>233.0</ele><time>2026-04-22T09:10:20.671Z</time></trkpt><trkpt lat="46.2940279" lon="13.0978776"><ele>230.0</ele><time>2026-04-22T09:10:21.671Z</time></trkpt><trkpt lat="46.2938089" lon="13.0977531"><ele>230.0</ele><time>2026-04-22T09:10:22.671Z</time></trkpt><trkpt lat="46.2935719" lon="13.0977012"><ele>230.0</ele><time>2026-04-22T09:10:23.671Z</time></trkpt><trkpt lat="46.2933611" lon="13.0976077"><ele>230.0</ele><time>2026-04-22T09:10:24.671Z</time></trkpt><trkpt lat="46.2931956" lon="13.0974952"><ele>230.0</ele><time>2026-04-22T09:10:25.671Z</time></trkpt><trkpt lat="46.2930373" lon="13.0974016"><ele>230.0</ele><time>2026-04-22T09:10:26.671Z</time></trkpt><trkpt lat="46.2928859" lon="13.097307"><ele>229.33333333333334</ele><time>2026-04-22T09:10:27.671Z</time></trkpt><trkpt lat="46.2927412" lon="13.0971829"><ele>228.66666666666669</ele><time>2026-04-22T09:10:28.672Z</time></trkpt><trkpt lat="46.2925926" lon="13.0970718"><ele>228.0</ele><time>2026-04-22T09:10:29.671Z</time></trkpt><trkpt lat="46.2924454" lon="13.0969542"><ele>228.0</ele><time>2026-04-22T09:10:30.671Z</time></trkpt><trkpt lat="46.292298" lon="13.0968482"><ele>228.0</ele><time>2026-04-22T09:10:31.671Z</time></trkpt><trkpt lat="46.2921524" lon="13.0967384"><ele>228.0</ele><time>2026-04-22T09:10:32.671Z</time></trkpt><trkpt lat="46.291988" lon="13.0966656"><ele>227.0</ele><time>2026-04-22T09:10:33.672Z</time></trkpt><trkpt lat="46.2918116" lon="13.0965972"><ele>226.0</ele><time>2026-04-22T09:10:34.671Z</time></trkpt><trkpt lat="46.2916354" lon="13.0965392"><ele>225.0</ele><time>2026-04-22T09:10:35.672Z</time></trkpt><trkpt lat="46.2914601" lon="13.0964849"><ele>225.0</ele><time>2026-04-22T09:10:36.671Z</time></trkpt><trkpt lat="46.2912847" lon="13.0964318"><ele>225.0</ele><time>2026-04-22T09:10:37.671Z</time></trkpt><trkpt lat="46.2911205" lon="13.0963778"><ele>225.0</ele><time>2026-04-22T09:10:38.671Z</time></trkpt><trkpt lat="46.2909581" lon="13.0963169"><ele>219.0</ele><time>2026-04-22T09:10:39.672Z</time></trkpt><trkpt lat="46.2908013" lon="13.0962255"><ele>213.0</ele><time>2026-04-22T09:10:40.671Z</time></trkpt><trkpt lat="46.2906371" lon="13.0961273"><ele>207.0</ele><time>2026-04-22T09:10:41.672Z</time></trkpt><trkpt lat="46.2904693" lon="13.0960253"><ele>207.0</ele><time>2026-04-22T09:10:42.671Z</time></trkpt><trkpt lat="46.2903061" lon="13.0959117"><ele>207.0</ele><time>2026-04-22T09:10:43.671Z</time></trkpt><trkpt lat="46.2901435" lon="13.0958078"><ele>207.0</ele><time>2026-04-22T09:10:44.672Z</time></trkpt><trkpt lat="46.2899869" lon="13.0957051"><ele>213.33333333333331</ele><time>2026-04-22T09:10:45.672Z</time></trkpt><trkpt lat="46.2898393" lon="13.0956049"><ele>219.66666666666666</ele><time>2026-04-22T09:10:46.671Z</time></trkpt><trkpt lat="46.2896947" lon="13.0955077"><ele>226.0</ele><time>2026-04-22T09:10:47.671Z</time></trkpt><trkpt lat="46.2895486" lon="13.0954135"><ele>226.0</ele><time>2026-04-22T09:10:48.671Z</time></trkpt><trkpt lat="46.2893861" lon="13.0953618"><ele>226.0</ele><time>2026-04-22T09:10:49.671Z</time></trkpt><trkpt lat="46.2892071" lon="13.0953246"><ele>226.0</ele><time>2026-04-22T09:10:50.671Z</time></trkpt><trkpt lat="46.2890286" lon="13.0953049"><ele>227.0</ele><time>2026-04-22T09:10:51.672Z</time></trkpt><trkpt lat="46.2888632" lon="13.0952862"><ele>228.0</ele><time>2026-04-22T09:10:52.671Z</time></trkpt><trkpt lat="46.2887052" lon="13.0952664"><ele>229.0</ele><time>2026-04-22T09:10:53.672Z</time></trkpt><trkpt lat="46.2885588" lon="13.0952452"><ele>229.0</ele><time>2026-04-22T09:10:54.671Z</time></trkpt><trkpt lat="46.2884193" lon="13.0952322"><ele>229.0</ele><time>2026-04-22T09:10:55.671Z</time></trkpt><trkpt lat="46.2882876" lon="13.0952389"><ele>229.0</ele><time>2026-04-22T09:10:56.671Z</time></trkpt><trkpt lat="46.2881737" lon="13.0952814"><ele>229.0</ele><time>2026-04-22T09:10:57.671Z</time></trkpt><trkpt lat="46.2880652" lon="13.0953253"><ele>225.0</ele><time>2026-04-22T09:10:58.672Z</time></trkpt><trkpt lat="46.2879632" lon="13.0953665"><ele>220.99999999999997</ele><time>2026-04-22T09:10:59.671Z</time></trkpt><trkpt lat="46.2878602" lon="13.0954108"><ele>217.0</ele><time>2026-04-22T09:11:00.671Z</time></trkpt><trkpt lat="46.2877537" lon="13.0954411"><ele>213.0</ele><time>2026-04-22T09:11:01.671Z</time></trkpt><trkpt lat="46.2876283" lon="13.0954691"><ele>209.0</ele><time>2026-04-22T09:11:02.672Z</time></trkpt><trkpt lat="46.2874808" lon="13.0953457"><ele>209.0</ele><time>2026-04-22T09:11:03.671Z</time></trkpt><trkpt lat="46.2873849" lon="13.0952353"><ele>209.0</ele><time>2026-04-22T09:11:04.671Z</time></trkpt><trkpt lat="46.2872772" lon="13.0951053"><ele>209.0</ele><time>2026-04-22T09:11:05.672Z</time></trkpt><trkpt lat="46.287149" lon="13.0950007"><ele>209.0</ele><time>2026-04-22T09:11:06.671Z</time></trkpt><trkpt lat="46.2870183" lon="13.0949092"><ele>206.75</ele><time>2026-04-22T09:11:07.671Z</time></trkpt><trkpt lat="46.2868799" lon="13.0948319"><ele>204.5</ele><time>2026-04-22T09:11:08.672Z</time></trkpt><trkpt lat="46.2867429" lon="13.0947638"><ele>202.25</ele><time>2026-04-22T09:11:09.671Z</time></trkpt><trkpt lat="46.2866012" lon="13.0947074"><ele>200.0</ele><time>2026-04-22T09:11:10.673Z</time></trkpt><trkpt lat="46.2864544" lon="13.0946547"><ele>200.0</ele><time>2026-04-22T09:11:11.672Z</time></trkpt><trkpt lat="46.2863147" lon="13.0946043"><ele>200.0</ele><time>2026-04-22T09:11:12.671Z</time></trkpt><trkpt lat="46.286175" lon="13.0945463"><ele>200.0</ele><time>2026-04-22T09:11:13.671Z</time></trkpt><trkpt lat="46.286039" lon="13.0944803"><ele>200.0</ele><time>2026-04-22T09:11:14.671Z</time></trkpt><trkpt lat="46.2859046" lon="13.0944148"><ele>200.0</ele><time>2026-04-22T09:11:15.672Z</time></trkpt><trkpt lat="46.2857701" lon="13.0943456"><ele>200.0</ele><time>2026-04-22T09:11:16.671Z</time></trkpt><trkpt lat="46.2856395" lon="13.0942612"><ele>200.0</ele><time>2026-04-22T09:11:17.672Z</time></trkpt><trkpt lat="46.2855154" lon="13.0941563"><ele>200.0</ele><time>2026-04-22T09:11:18.671Z</time></trkpt><trkpt lat="46.285402" lon="13.0940288"><ele>199.5</ele><time>2026-04-22T09:11:19.671Z</time></trkpt><trkpt lat="46.2853022" lon="13.0938856"><ele>199.0</ele><time>2026-04-22T09:11:20.67Z</time></trkpt><trkpt lat="46.2852061" lon="13.0937352"><ele>198.5</ele><time>2026-04-22T09:11:21.67Z</time></trkpt><trkpt lat="46.2851094" lon="13.0935812"><ele>198.0</ele><time>2026-04-22T09:11:22.671Z</time></trkpt><trkpt lat="46.285002" lon="13.0934139"><ele>198.0</ele><time>2026-04-22T09:11:23.67Z</time></trkpt><trkpt lat="46.2848835" lon="13.0932354"><ele>198.0</ele><time>2026-04-22T09:11:24.671Z</time></trkpt><trkpt lat="46.2847729" lon="13.0930666"><ele>198.0</ele><time>2026-04-22T09:11:25.671Z</time></trkpt><trkpt lat="46.2846656" lon="13.0929045"><ele>198.0</ele><time>2026-04-22T09:11:26.67Z</time></trkpt><trkpt lat="46.2845584" lon="13.0927535"><ele>198.0</ele><time>2026-04-22T09:11:27.671Z</time></trkpt><trkpt lat="46.2844539" lon="13.092608"><ele>198.0</ele><time>2026-04-22T09:11:28.671Z</time></trkpt><trkpt lat="46.2843505" lon="13.0924727"><ele>198.0</ele><time>2026-04-22T09:11:29.671Z</time></trkpt><trkpt lat="46.2842555" lon="13.0923493"><ele>198.4</ele><time>2026-04-22T09:11:30.67Z</time></trkpt><trkpt lat="46.2841673" lon="13.0922349"><ele>198.8</ele><time>2026-04-22T09:11:31.67Z</time></trkpt><trkpt lat="46.2840924" lon="13.0921388"><ele>199.2</ele><time>2026-04-22T09:11:32.67Z</time></trkpt><trkpt lat="46.2840272" lon="13.0920558"><ele>199.6</ele><time>2026-04-22T09:11:33.67Z</time></trkpt><trkpt lat="46.2839725" lon="13.0919856"><ele>200.0</ele><time>2026-04-22T09:11:34.67Z</time></trkpt><trkpt lat="46.2839113" lon="13.0918462"><ele>200.0</ele><time>2026-04-22T09:11:36.671Z</time></trkpt><trkpt lat="46.2839106" lon="13.0917365"><ele>200.0</ele><time>2026-04-22T09:11:37.67Z</time></trkpt><trkpt lat="46.2839118" lon="13.0916364"><ele>200.0</ele><time>2026-04-22T09:11:38.671Z</time></trkpt><trkpt lat="46.2838912" lon="13.0915439"><ele>200.0</ele><time>2026-04-22T09:11:39.671Z</time></trkpt><trkpt lat="46.2837813" lon="13.0914851"><ele>200.0</ele><time>2026-04-22T09:11:41.671Z</time></trkpt><trkpt lat="46.2837175" lon="13.0916475"><ele>200.0</ele><time>2026-04-22T09:11:43.67Z</time></trkpt><trkpt lat="46.2837044" lon="13.091788"><ele>200.0</ele><time>2026-04-22T09:11:44.672Z</time></trkpt><trkpt lat="46.283654" lon="13.0919286"><ele>200.0</ele><time>2026-04-22T09:11:45.67Z</time></trkpt><trkpt lat="46.2835724" lon="13.0920715"><ele>200.0</ele><time>2026-04-22T09:11:46.67Z</time></trkpt><trkpt lat="46.2834635" lon="13.0922343"><ele>200.0</ele><time>2026-04-22T09:11:47.67Z</time></trkpt><trkpt lat="46.2833614" lon="13.0923888"><ele>200.0</ele><time>2026-04-22T09:11:48.672Z</time></trkpt><trkpt lat="46.283249" lon="13.0925656"><ele>200.0</ele><time>2026-04-22T09:11:49.67Z</time></trkpt><trkpt lat="46.2831289" lon="13.0927551"><ele>198.66666666666669</ele><time>2026-04-22T09:11:50.67Z</time></trkpt><trkpt lat="46.2830089" lon="13.0929361"><ele>197.33333333333331</ele><time>2026-04-22T09:11:51.67Z</time></trkpt><trkpt lat="46.2828935" lon="13.0931154"><ele>196.0</ele><time>2026-04-22T09:11:52.671Z</time></trkpt><trkpt lat="46.2827817" lon="13.0932908"><ele>196.0</ele><time>2026-04-22T09:11:53.67Z</time></trkpt><trkpt lat="46.2826717" lon="13.0934611"><ele>196.0</ele><time>2026-04-22T09:11:54.67Z</time></trkpt><trkpt lat="46.2825648" lon="13.0936269"><ele>196.0</ele><time>2026-04-22T09:11:55.67Z</time></trkpt><trkpt lat="46.2824601" lon="13.0937887"><ele>196.0</ele><time>2026-04-22T09:11:56.67Z</time></trkpt><trkpt lat="46.282358" lon="13.0939484"><ele>196.0</ele><time>2026-04-22T09:11:57.67Z</time></trkpt><trkpt lat="46.282256" lon="13.0941038"><ele>196.0</ele><time>2026-04-22T09:11:58.671Z</time></trkpt><trkpt lat="46.2821557" lon="13.0942567"><ele>196.0</ele><time>2026-04-22T09:11:59.671Z</time></trkpt><trkpt lat="46.282058" lon="13.09441"><ele>196.25</ele><time>2026-04-22T09:12:00.67Z</time></trkpt><trkpt lat="46.2819594" lon="13.0945585"><ele>196.5</ele><time>2026-04-22T09:12:01.67Z</time></trkpt><trkpt lat="46.2818665" lon="13.0947"><ele>196.75</ele><time>2026-04-22T09:12:02.67Z</time></trkpt><trkpt lat="46.2817783" lon="13.0948379"><ele>197.0</ele><time>2026-04-22T09:12:03.67Z</time></trkpt><trkpt lat="46.2816889" lon="13.0949775"><ele>197.25</ele><time>2026-04-22T09:12:04.67Z</time></trkpt><trkpt lat="46.2816017" lon="13.0951134"><ele>197.5</ele><time>2026-04-22T09:12:05.67Z</time></trkpt><trkpt lat="46.281522" lon="13.095237"><ele>197.75</ele><time>2026-04-22T09:12:06.67Z</time></trkpt><trkpt lat="46.2814453" lon="13.0953534"><ele>198.0</ele><time>2026-04-22T09:12:07.67Z</time></trkpt><trkpt lat="46.2813725" lon="13.0954587"><ele>198.0</ele><time>2026-04-22T09:12:08.671Z</time></trkpt><trkpt lat="46.2813027" lon="13.095549"><ele>198.0</ele><time>2026-04-22T09:12:09.67Z</time></trkpt><trkpt lat="46.2812249" lon="13.0956241"><ele>198.0</ele><time>2026-04-22T09:12:10.671Z</time></trkpt><trkpt lat="46.2811507" lon="13.0956858"><ele>198.0</ele><time>2026-04-22T09:12:11.671Z</time></trkpt><trkpt lat="46.281066" lon="13.0957389"><ele>198.0</ele><time>2026-04-22T09:12:12.672Z</time></trkpt><trkpt lat="46.2809846" lon="13.095766"><ele>198.0</ele><time>2026-04-22T09:12:13.671Z</time></trkpt><trkpt lat="46.2809034" lon="13.0957882"><ele>198.0</ele><time>2026-04-22T09:12:14.671Z</time></trkpt><trkpt lat="46.2808186" lon="13.095817"><ele>198.0</ele><time>2026-04-22T09:12:15.67Z</time></trkpt><trkpt lat="46.2807349" lon="13.0958364"><ele>198.0</ele><time>2026-04-22T09:12:16.67Z</time></trkpt><trkpt lat="46.2806557" lon="13.0958358"><ele>198.0</ele><time>2026-04-22T09:12:17.67Z</time></trkpt><trkpt lat="46.2805785" lon="13.0958143"><ele>198.0</ele><time>2026-04-22T09:12:18.67Z</time></trkpt><trkpt lat="46.2805145" lon="13.0957634"><ele>198.0</ele><time>2026-04-22T09:12:19.67Z</time></trkpt><trkpt lat="46.2804706" lon="13.0956884"><ele>198.0</ele><time>2026-04-22T09:12:20.671Z</time></trkpt><trkpt lat="46.2804433" lon="13.0955249"><ele>198.0</ele><time>2026-04-22T09:12:22.67Z</time></trkpt><trkpt lat="46.2804368" lon="13.0953935"><ele>198.0</ele><time>2026-04-22T09:12:24.671Z</time></trkpt><trkpt lat="46.2804187" lon="13.095221"><ele>198.0</ele><time>2026-04-22T09:12:26.67Z</time></trkpt><trkpt lat="46.280387" lon="13.0951167"><ele>198.0</ele><time>2026-04-22T09:12:27.671Z</time></trkpt><trkpt lat="46.2803428" lon="13.0950148"><ele>197.83333333333334</ele><time>2026-04-22T09:12:28.671Z</time></trkpt><trkpt lat="46.2802961" lon="13.0949207"><ele>197.66666666666669</ele><time>2026-04-22T09:12:29.67Z</time></trkpt><trkpt lat="46.2802458" lon="13.0948338"><ele>197.5</ele><time>2026-04-22T09:12:30.671Z</time></trkpt><trkpt lat="46.2802001" lon="13.0947425"><ele>197.33333333333334</ele><time>2026-04-22T09:12:31.671Z</time></trkpt><trkpt lat="46.2801541" lon="13.0946526"><ele>197.16666666666669</ele><time>2026-04-22T09:12:32.67Z</time></trkpt><trkpt lat="46.2800985" lon="13.0945773"><ele>197.0</ele><time>2026-04-22T09:12:33.672Z</time></trkpt><trkpt lat="46.2800367" lon="13.0945223"><ele>197.00000000000003</ele><time>2026-04-22T09:12:34.67Z</time></trkpt><trkpt lat="46.2799695" lon="13.0944865"><ele>197.0</ele><time>2026-04-22T09:12:35.67Z</time></trkpt><trkpt lat="46.2798997" lon="13.0944709"><ele>197.0</ele><time>2026-04-22T09:12:36.67Z</time></trkpt><trkpt lat="46.2798349" lon="13.0944625"><ele>197.0</ele><time>2026-04-22T09:12:37.67Z</time></trkpt><trkpt lat="46.2797245" lon="13.0944739"><ele>197.00000000000003</ele><time>2026-04-22T09:12:39.67Z</time></trkpt><trkpt lat="46.2796463" lon="13.0944859"><ele>197.0</ele><time>2026-04-22T09:12:41.67Z</time></trkpt><trkpt lat="46.2795507" lon="13.0944803"><ele>197.33333333333334</ele><time>2026-04-22T09:12:43.67Z</time></trkpt><trkpt lat="46.2794379" lon="13.0944859"><ele>197.66666666666669</ele><time>2026-04-22T09:12:45.671Z</time></trkpt><trkpt lat="46.2793727" lon="13.0944751"><ele>198.0</ele><time>2026-04-22T09:12:46.67Z</time></trkpt><trkpt lat="46.2793087" lon="13.0944525"><ele>198.33333333333331</ele><time>2026-04-22T09:12:47.67Z</time></trkpt><trkpt lat="46.279197" lon="13.0944179"><ele>198.66666666666666</ele><time>2026-04-22T09:12:49.671Z</time></trkpt><trkpt lat="46.2791305" lon="13.094422"><ele>199.0</ele><time>2026-04-22T09:12:50.67Z</time></trkpt><trkpt lat="46.2790104" lon="13.0943945"><ele>199.0</ele><time>2026-04-22T09:12:52.67Z</time></trkpt><trkpt lat="46.2789446" lon="13.0943628"><ele>199.0</ele><time>2026-04-22T09:12:53.67Z</time></trkpt><trkpt lat="46.2788351" lon="13.0942982"><ele>199.0</ele><time>2026-04-22T09:12:55.671Z</time></trkpt><trkpt lat="46.2787282" lon="13.0942163"><ele>199.0</ele><time>2026-04-22T09:12:57.67Z</time></trkpt><trkpt lat="46.2786368" lon="13.0941011"><ele>199.0</ele><time>2026-04-22T09:12:59.67Z</time></trkpt><trkpt lat="46.2785966" lon="13.0940163"><ele>198.99999999999997</ele><time>2026-04-22T09:13:00.67Z</time></trkpt><trkpt lat="46.2785603" lon="13.0939235"><ele>199.0</ele><time>2026-04-22T09:13:01.67Z</time></trkpt><trkpt lat="46.2785175" lon="13.0938288"><ele>199.0</ele><time>2026-04-22T09:13:02.67Z</time></trkpt><trkpt lat="46.2784729" lon="13.09375"><ele>199.0</ele><time>2026-04-22T09:13:03.67Z</time></trkpt><trkpt lat="46.2784241" lon="13.0936697"><ele>199.0</ele><time>2026-04-22T09:13:04.67Z</time></trkpt><trkpt lat="46.2783677" lon="13.0936047"><ele>198.99999999999997</ele><time>2026-04-22T09:13:05.67Z</time></trkpt><trkpt lat="46.2783141" lon="13.0935484"><ele>199.0</ele><time>2026-04-22T09:13:06.67Z</time></trkpt><trkpt lat="46.2782663" lon="13.093488"><ele>199.0</ele><time>2026-04-22T09:13:07.67Z</time></trkpt><trkpt lat="46.2782131" lon="13.0933851"><ele>199.0</ele><time>2026-04-22T09:13:09.67Z</time></trkpt><trkpt lat="46.2782052" lon="13.0932412"><ele>199.0</ele><time>2026-04-22T09:13:11.67Z</time></trkpt><trkpt lat="46.2782151" lon="13.0931492"><ele>199.0</ele><time>2026-04-22T09:13:12.671Z</time></trkpt><trkpt lat="46.2782261" lon="13.0929716"><ele>199.0</ele><time>2026-04-22T09:13:14.67Z</time></trkpt><trkpt lat="46.27823" lon="13.0927977"><ele>198.2</ele><time>2026-04-22T09:13:16.67Z</time></trkpt><trkpt lat="46.2782312" lon="13.0925986"><ele>197.39999999999998</ele><time>2026-04-22T09:13:19.67Z</time></trkpt><trkpt lat="46.2781382" lon="13.0925074"><ele>196.6</ele><time>2026-04-22T09:13:21.67Z</time></trkpt><trkpt lat="46.2780201" lon="13.0924745"><ele>195.8</ele><time>2026-04-22T09:13:23.67Z</time></trkpt><trkpt lat="46.2779488" lon="13.0924506"><ele>195.0</ele><time>2026-04-22T09:13:24.671Z</time></trkpt><trkpt lat="46.277887" lon="13.0924209"><ele>194.33333333333334</ele><time>2026-04-22T09:13:25.67Z</time></trkpt><trkpt lat="46.2777694" lon="13.0923329"><ele>193.66666666666666</ele><time>2026-04-22T09:13:27.67Z</time></trkpt><trkpt lat="46.277705" lon="13.0922851"><ele>193.0</ele><time>2026-04-22T09:13:28.67Z</time></trkpt><trkpt lat="46.2776482" lon="13.0922247"><ele>192.33333333333331</ele><time>2026-04-22T09:13:29.67Z</time></trkpt><trkpt lat="46.2775825" lon="13.0921446"><ele>191.66666666666666</ele><time>2026-04-22T09:13:30.67Z</time></trkpt><trkpt lat="46.2775209" lon="13.0920848"><ele>191.0</ele><time>2026-04-22T09:13:31.67Z</time></trkpt><trkpt lat="46.2774585" lon="13.0920313"><ele>191.0</ele><time>2026-04-22T09:13:32.67Z</time></trkpt><trkpt lat="46.2773961" lon="13.0919816"><ele>191.0</ele><time>2026-04-22T09:13:33.67Z</time></trkpt><trkpt lat="46.2773397" lon="13.0919333"><ele>191.0</ele><time>2026-04-22T09:13:34.671Z</time></trkpt><trkpt lat="46.2772855" lon="13.0918745"><ele>191.0</ele><time>2026-04-22T09:13:35.67Z</time></trkpt><trkpt lat="46.2772242" lon="13.0918107"><ele>191.0</ele><time>2026-04-22T09:13:36.67Z</time></trkpt><trkpt lat="46.277154" lon="13.0917161"><ele>191.0</ele><time>2026-04-22T09:13:37.67Z</time></trkpt><trkpt lat="46.2770907" lon="13.0916382"><ele>191.16666666666666</ele><time>2026-04-22T09:13:38.67Z</time></trkpt><trkpt lat="46.2770339" lon="13.0915705"><ele>191.33333333333331</ele><time>2026-04-22T09:13:39.671Z</time></trkpt><trkpt lat="46.2769877" lon="13.0915071"><ele>191.5</ele><time>2026-04-22T09:13:40.67Z</time></trkpt><trkpt lat="46.2769332" lon="13.0914027"><ele>191.66666666666666</ele><time>2026-04-22T09:13:42.67Z</time></trkpt><trkpt lat="46.2768802" lon="13.0913342"><ele>191.83333333333334</ele><time>2026-04-22T09:13:44.671Z</time></trkpt><trkpt lat="46.2768031" lon="13.0913402"><ele>192.0</ele><time>2026-04-22T09:13:46.67Z</time></trkpt><trkpt lat="46.2767326" lon="13.0914429"><ele>192.0</ele><time>2026-04-22T09:13:48.671Z</time></trkpt><trkpt lat="46.2766936" lon="13.0915492"><ele>192.0</ele><time>2026-04-22T09:13:50.67Z</time></trkpt><trkpt lat="46.276657" lon="13.091629"><ele>192.0</ele><time>2026-04-22T09:13:52.671Z</time></trkpt><trkpt lat="46.2766232" lon="13.0917215"><ele>192.0</ele><time>2026-04-22T09:13:55.671Z</time></trkpt><trkpt lat="46.276522" lon="13.0917517"><ele>192.0</ele><time>2026-04-22T09:13:58.67Z</time></trkpt><trkpt lat="46.2764304" lon="13.0918174"><ele>192.0</ele><time>2026-04-22T09:14:00.671Z</time></trkpt><trkpt lat="46.2763367" lon="13.0918657"><ele>192.8</ele><time>2026-04-22T09:14:02.67Z</time></trkpt><trkpt lat="46.2762623" lon="13.0919038"><ele>193.6</ele><time>2026-04-22T09:14:04.671Z</time></trkpt><trkpt lat="46.2761853" lon="13.0918814"><ele>194.4</ele><time>2026-04-22T09:14:06.67Z</time></trkpt><trkpt lat="46.2760987" lon="13.0918401"><ele>195.20000000000002</ele><time>2026-04-22T09:14:08.671Z</time></trkpt><trkpt lat="46.2760139" lon="13.0917778"><ele>196.0</ele><time>2026-04-22T09:14:10.67Z</time></trkpt><trkpt lat="46.2759133" lon="13.0916867"><ele>195.99999999999997</ele><time>2026-04-22T09:14:12.671Z</time></trkpt><trkpt lat="46.2758007" lon="13.0916188"><ele>196.0</ele><time>2026-04-22T09:14:14.671Z</time></trkpt><trkpt lat="46.2757392" lon="13.0915882"><ele>196.0</ele><time>2026-04-22T09:14:15.671Z</time></trkpt><trkpt lat="46.275675" lon="13.0915563"><ele>196.0</ele><time>2026-04-22T09:14:16.67Z</time></trkpt><trkpt lat="46.2756069" lon="13.0915244"><ele>195.99999999999997</ele><time>2026-04-22T09:14:17.67Z</time></trkpt><trkpt lat="46.2755022" lon="13.0914938"><ele>196.0</ele><time>2026-04-22T09:14:19.671Z</time></trkpt><trkpt lat="46.275399" lon="13.0914499"><ele>195.8</ele><time>2026-04-22T09:14:21.671Z</time></trkpt><trkpt lat="46.275293" lon="13.0913933"><ele>195.60000000000002</ele><time>2026-04-22T09:14:23.67Z</time></trkpt><trkpt lat="46.2751997" lon="13.0913441"><ele>195.4</ele><time>2026-04-22T09:14:25.671Z</time></trkpt><trkpt lat="46.2751364" lon="13.0912997"><ele>195.2</ele><time>2026-04-22T09:14:27.67Z</time></trkpt><trkpt lat="46.2752309" lon="13.0913526"><ele>195.0</ele><time>2026-04-22T09:14:43.67Z</time></trkpt><trkpt lat="46.2752896" lon="13.0914139"><ele>195.0</ele><time>2026-04-22T09:14:44.67Z</time></trkpt><trkpt lat="46.2753863" lon="13.0914476"><ele>195.0</ele><time>2026-04-22T09:14:45.67Z</time></trkpt><trkpt lat="46.2754573" lon="13.0914799"><ele>195.0</ele><time>2026-04-22T09:14:46.671Z</time></trkpt><trkpt lat="46.2755343" lon="13.0915108"><ele>195.0</ele><time>2026-04-22T09:14:47.67Z</time></trkpt><trkpt lat="46.2756056" lon="13.0915419"><ele>195.0</ele><time>2026-04-22T09:14:48.671Z</time></trkpt><trkpt lat="46.2756823" lon="13.0915629"><ele>195.0</ele><time>2026-04-22T09:14:49.671Z</time></trkpt><trkpt lat="46.2757466" lon="13.0915906"><ele>195.16666666666666</ele><time>2026-04-22T09:14:50.67Z</time></trkpt><trkpt lat="46.2758126" lon="13.0916257"><ele>195.33333333333331</ele><time>2026-04-22T09:14:51.671Z</time></trkpt><trkpt lat="46.2758947" lon="13.0916794"><ele>195.5</ele><time>2026-04-22T09:14:52.67Z</time></trkpt><trkpt lat="46.2759607" lon="13.0917284"><ele>195.66666666666666</ele><time>2026-04-22T09:14:53.67Z</time></trkpt><trkpt lat="46.2760735" lon="13.0918067"><ele>195.83333333333331</ele><time>2026-04-22T09:14:55.672Z</time></trkpt><trkpt lat="46.2761334" lon="13.0918523"><ele>196.0</ele><time>2026-04-22T09:14:56.67Z</time></trkpt><trkpt lat="46.2762269" lon="13.0919208"><ele>196.0</ele><time>2026-04-22T09:14:58.671Z</time></trkpt><trkpt lat="46.2763574" lon="13.0918587"><ele>196.0</ele><time>2026-04-22T09:15:00.67Z</time></trkpt><trkpt lat="46.2764201" lon="13.0918282"><ele>196.0</ele><time>2026-04-22T09:15:01.671Z</time></trkpt><trkpt lat="46.2765116" lon="13.0917579"><ele>196.0</ele><time>2026-04-22T09:15:03.67Z</time></trkpt><trkpt lat="46.2765901" lon="13.0917139"><ele>196.0</ele><time>2026-04-22T09:15:05.67Z</time></trkpt><trkpt lat="46.2766087" lon="13.0915996"><ele>195.0</ele><time>2026-04-22T09:15:07.671Z</time></trkpt></trkseg><trkseg><trkpt lat="46.2766931" lon="13.0915528"><ele>192.0</ele><time>2026-04-22T09:31:05.668Z</time></trkpt><trkpt lat="46.2767705" lon="13.0915254"><ele>192.0</ele><time>2026-04-22T09:31:07.668Z</time></trkpt><trkpt lat="46.2768504" lon="13.0915049"><ele>192.0</ele><time>2026-04-22T09:31:09.669Z</time></trkpt><trkpt lat="46.2769357" lon="13.0915686"><ele>192.0</ele><time>2026-04-22T09:31:11.668Z</time></trkpt><trkpt lat="46.2770334" lon="13.0916404"><ele>192.0</ele><time>2026-04-22T09:31:13.668Z</time></trkpt><trkpt lat="46.2770941" lon="13.0916831"><ele>192.0</ele><time>2026-04-22T09:31:14.667Z</time></trkpt><trkpt lat="46.277151" lon="13.0917312"><ele>191.8</ele><time>2026-04-22T09:31:15.668Z</time></trkpt><trkpt lat="46.2772633" lon="13.0917924"><ele>191.6</ele><time>2026-04-22T09:31:17.667Z</time></trkpt><trkpt lat="46.2773732" lon="13.0918739"><ele>191.4</ele><time>2026-04-22T09:31:19.668Z</time></trkpt><trkpt lat="46.277428" lon="13.091922"><ele>191.20000000000002</ele><time>2026-04-22T09:31:20.667Z</time></trkpt><trkpt lat="46.2775245" lon="13.0920372"><ele>191.0</ele><time>2026-04-22T09:31:22.668Z</time></trkpt><trkpt lat="46.277616" lon="13.0921304"><ele>191.0</ele><time>2026-04-22T09:31:24.667Z</time></trkpt><trkpt lat="46.2776665" lon="13.092185"><ele>191.0</ele><time>2026-04-22T09:31:25.667Z</time></trkpt><trkpt lat="46.2777419" lon="13.0922743"><ele>191.0</ele><time>2026-04-22T09:31:27.667Z</time></trkpt><trkpt lat="46.277795" lon="13.0923435"><ele>191.0</ele><time>2026-04-22T09:31:29.668Z</time></trkpt><trkpt lat="46.2778629" lon="13.0924012"><ele>191.0</ele><time>2026-04-22T09:31:31.667Z</time></trkpt><trkpt lat="46.2779622" lon="13.0924407"><ele>191.0</ele><time>2026-04-22T09:31:33.667Z</time></trkpt><trkpt lat="46.2780567" lon="13.0924681"><ele>191.66666666666666</ele><time>2026-04-22T09:31:35.667Z</time></trkpt><trkpt lat="46.2781406" lon="13.0924968"><ele>192.33333333333331</ele><time>2026-04-22T09:31:37.667Z</time></trkpt><trkpt lat="46.2781986" lon="13.092538"><ele>193.0</ele><time>2026-04-22T09:31:39.668Z</time></trkpt><trkpt lat="46.2782277" lon="13.0926327"><ele>193.66666666666666</ele><time>2026-04-22T09:31:41.667Z</time></trkpt><trkpt lat="46.2782287" lon="13.0927471"><ele>194.33333333333334</ele><time>2026-04-22T09:31:43.668Z</time></trkpt><trkpt lat="46.2782147" lon="13.0928643"><ele>195.0</ele><time>2026-04-22T09:31:45.667Z</time></trkpt><trkpt lat="46.2782116" lon="13.0930038"><ele>195.0</ele><time>2026-04-22T09:31:47.667Z</time></trkpt><trkpt lat="46.2782064" lon="13.093183"><ele>195.0</ele><time>2026-04-22T09:31:49.667Z</time></trkpt><trkpt lat="46.2781998" lon="13.0933116"><ele>195.0</ele><time>2026-04-22T09:31:51.668Z</time></trkpt><trkpt lat="46.2782333" lon="13.0934329"><ele>195.0</ele><time>2026-04-22T09:31:53.667Z</time></trkpt><trkpt lat="46.2783163" lon="13.0935363"><ele>195.0</ele><time>2026-04-22T09:31:55.667Z</time></trkpt><trkpt lat="46.2783986" lon="13.0936228"><ele>195.8</ele><time>2026-04-22T09:31:57.667Z</time></trkpt><trkpt lat="46.2784757" lon="13.0937297"><ele>196.6</ele><time>2026-04-22T09:31:59.667Z</time></trkpt><trkpt lat="46.278542" lon="13.0938522"><ele>197.39999999999998</ele><time>2026-04-22T09:32:01.667Z</time></trkpt><trkpt lat="46.2785894" lon="13.0939773"><ele>198.2</ele><time>2026-04-22T09:32:03.668Z</time></trkpt><trkpt lat="46.2786308" lon="13.0941006"><ele>199.0</ele><time>2026-04-22T09:32:05.668Z</time></trkpt><trkpt lat="46.278663" lon="13.0941818"><ele>198.99999999999997</ele><time>2026-04-22T09:32:07.667Z</time></trkpt><trkpt lat="46.278729" lon="13.094254"><ele>199.0</ele><time>2026-04-22T09:32:09.667Z</time></trkpt><trkpt lat="46.2788205" lon="13.0943112"><ele>199.0</ele><time>2026-04-22T09:32:11.667Z</time></trkpt><trkpt lat="46.2788831" lon="13.0943453"><ele>199.0</ele><time>2026-04-22T09:32:12.667Z</time></trkpt><trkpt lat="46.2789944" lon="13.0943868"><ele>198.99999999999997</ele><time>2026-04-22T09:32:14.668Z</time></trkpt><trkpt lat="46.2790621" lon="13.0944024"><ele>199.0</ele><time>2026-04-22T09:32:15.667Z</time></trkpt><trkpt lat="46.279143" lon="13.094421"><ele>198.99999999999997</ele><time>2026-04-22T09:32:16.667Z</time></trkpt><trkpt lat="46.2792141" lon="13.0944326"><ele>199.0</ele><time>2026-04-22T09:32:17.668Z</time></trkpt><trkpt lat="46.2792857" lon="13.0944551"><ele>199.0</ele><time>2026-04-22T09:32:18.667Z</time></trkpt><trkpt lat="46.2793529" lon="13.0944784"><ele>199.0</ele><time>2026-04-22T09:32:19.668Z</time></trkpt><trkpt lat="46.2794762" lon="13.0944991"><ele>198.99999999999997</ele><time>2026-04-22T09:32:21.667Z</time></trkpt><trkpt lat="46.2795813" lon="13.0944927"><ele>199.0</ele><time>2026-04-22T09:32:23.667Z</time></trkpt><trkpt lat="46.2796669" lon="13.0944833"><ele>198.99999999999997</ele><time>2026-04-22T09:32:25.667Z</time></trkpt><trkpt lat="46.2797322" lon="13.0944694"><ele>199.0</ele><time>2026-04-22T09:32:45.667Z</time></trkpt><trkpt lat="46.2797973" lon="13.094455"><ele>199.0</ele><time>2026-04-22T09:32:47.668Z</time></trkpt><trkpt lat="46.2799226" lon="13.0944912"><ele>199.0</ele><time>2026-04-22T09:32:49.669Z</time></trkpt><trkpt lat="46.2799939" lon="13.0945284"><ele>198.99999999999997</ele><time>2026-04-22T09:32:50.667Z</time></trkpt><trkpt lat="46.280065" lon="13.0945865"><ele>199.0</ele><time>2026-04-22T09:32:51.667Z</time></trkpt><trkpt lat="46.2801311" lon="13.0946756"><ele>198.83333333333331</ele><time>2026-04-22T09:32:52.668Z</time></trkpt><trkpt lat="46.280188" lon="13.0947637"><ele>198.66666666666666</ele><time>2026-04-22T09:32:53.667Z</time></trkpt><trkpt lat="46.280236" lon="13.0948437"><ele>198.5</ele><time>2026-04-22T09:32:54.668Z</time></trkpt><trkpt lat="46.2802832" lon="13.0949193"><ele>198.33333333333331</ele><time>2026-04-22T09:32:55.667Z</time></trkpt><trkpt lat="46.2803344" lon="13.0950124"><ele>198.16666666666666</ele><time>2026-04-22T09:32:56.668Z</time></trkpt><trkpt lat="46.2803816" lon="13.0951219"><ele>198.0</ele><time>2026-04-22T09:32:57.667Z</time></trkpt><trkpt lat="46.2804114" lon="13.0952388"><ele>198.0</ele><time>2026-04-22T09:32:58.668Z</time></trkpt><trkpt lat="46.2804195" lon="13.095363"><ele>198.0</ele><time>2026-04-22T09:32:59.667Z</time></trkpt><trkpt lat="46.2804228" lon="13.0954716"><ele>198.0</ele><time>2026-04-22T09:33:00.668Z</time></trkpt><trkpt lat="46.2804288" lon="13.0955732"><ele>198.0</ele><time>2026-04-22T09:33:01.667Z</time></trkpt><trkpt lat="46.2804493" lon="13.0956596"><ele>198.0</ele><time>2026-04-22T09:33:02.667Z</time></trkpt><trkpt lat="46.28052" lon="13.0957807"><ele>198.0</ele><time>2026-04-22T09:33:04.668Z</time></trkpt><trkpt lat="46.2805816" lon="13.0958267"><ele>198.5</ele><time>2026-04-22T09:33:05.668Z</time></trkpt><trkpt lat="46.2806652" lon="13.0958436"><ele>199.0</ele><time>2026-04-22T09:33:06.667Z</time></trkpt><trkpt lat="46.2807526" lon="13.0958313"><ele>199.5</ele><time>2026-04-22T09:33:07.667Z</time></trkpt><trkpt lat="46.2808289" lon="13.0958164"><ele>200.0</ele><time>2026-04-22T09:33:08.667Z</time></trkpt><trkpt lat="46.2808971" lon="13.0958086"><ele>200.5</ele><time>2026-04-22T09:33:09.667Z</time></trkpt><trkpt lat="46.2810003" lon="13.0958522"><ele>201.0</ele><time>2026-04-22T09:33:11.667Z</time></trkpt><trkpt lat="46.2810215" lon="13.0959787"><ele>201.0</ele><time>2026-04-22T09:33:14.668Z</time></trkpt><trkpt lat="46.2809772" lon="13.0960881"><ele>201.0</ele><time>2026-04-22T09:33:16.668Z</time></trkpt><trkpt lat="46.2810595" lon="13.0961303"><ele>201.0</ele><time>2026-04-22T09:33:19.667Z</time></trkpt><trkpt lat="46.2811855" lon="13.0961044"><ele>201.0</ele><time>2026-04-22T09:33:21.667Z</time></trkpt><trkpt lat="46.2812632" lon="13.0961174"><ele>201.0</ele><time>2026-04-22T09:33:22.667Z</time></trkpt><trkpt lat="46.2813417" lon="13.0961635"><ele>201.0</ele><time>2026-04-22T09:33:23.667Z</time></trkpt><trkpt lat="46.2814217" lon="13.0962623"><ele>201.0</ele><time>2026-04-22T09:33:24.667Z</time></trkpt><trkpt lat="46.2814993" lon="13.0964031"><ele>201.0</ele><time>2026-04-22T09:33:25.668Z</time></trkpt><trkpt lat="46.2815705" lon="13.0965432"><ele>201.0</ele><time>2026-04-22T09:33:26.668Z</time></trkpt><trkpt lat="46.2816429" lon="13.0966894"><ele>200.75</ele><time>2026-04-22T09:33:27.668Z</time></trkpt><trkpt lat="46.2817147" lon="13.0968388"><ele>200.5</ele><time>2026-04-22T09:33:28.668Z</time></trkpt><trkpt lat="46.281786" lon="13.0969883"><ele>200.25</ele><time>2026-04-22T09:33:29.668Z</time></trkpt><trkpt lat="46.2818556" lon="13.0971418"><ele>200.0</ele><time>2026-04-22T09:33:30.667Z</time></trkpt><trkpt lat="46.2819204" lon="13.0972973"><ele>199.5</ele><time>2026-04-22T09:33:31.667Z</time></trkpt><trkpt lat="46.2819819" lon="13.0974533"><ele>199.0</ele><time>2026-04-22T09:33:32.668Z</time></trkpt><trkpt lat="46.2820424" lon="13.0976077"><ele>198.5</ele><time>2026-04-22T09:33:33.667Z</time></trkpt><trkpt lat="46.2821002" lon="13.0977639"><ele>198.0</ele><time>2026-04-22T09:33:34.668Z</time></trkpt><trkpt lat="46.2821539" lon="13.0979201"><ele>198.0</ele><time>2026-04-22T09:33:35.667Z</time></trkpt><trkpt lat="46.2822028" lon="13.0980789"><ele>198.0</ele><time>2026-04-22T09:33:36.668Z</time></trkpt><trkpt lat="46.282245" lon="13.09824"><ele>198.0</ele><time>2026-04-22T09:33:37.667Z</time></trkpt><trkpt lat="46.2822822" lon="13.0984027"><ele>198.0</ele><time>2026-04-22T09:33:38.668Z</time></trkpt><trkpt lat="46.2823159" lon="13.0985665"><ele>197.75</ele><time>2026-04-22T09:33:39.668Z</time></trkpt><trkpt lat="46.282344" lon="13.0987315"><ele>197.5</ele><time>2026-04-22T09:33:40.667Z</time></trkpt><trkpt lat="46.2823669" lon="13.0988967"><ele>197.25</ele><time>2026-04-22T09:33:41.668Z</time></trkpt><trkpt lat="46.2823849" lon="13.0990603"><ele>197.0</ele><time>2026-04-22T09:33:42.668Z</time></trkpt><trkpt lat="46.2823965" lon="13.0992236"><ele>197.0</ele><time>2026-04-22T09:33:43.667Z</time></trkpt><trkpt lat="46.282404" lon="13.0993917"><ele>197.0</ele><time>2026-04-22T09:33:44.667Z</time></trkpt><trkpt lat="46.282408" lon="13.0995642"><ele>197.0</ele><time>2026-04-22T09:33:45.668Z</time></trkpt><trkpt lat="46.282404" lon="13.0997457"><ele>197.0</ele><time>2026-04-22T09:33:46.667Z</time></trkpt><trkpt lat="46.2823914" lon="13.0999232"><ele>197.25</ele><time>2026-04-22T09:33:47.667Z</time></trkpt><trkpt lat="46.282374" lon="13.1000988"><ele>197.5</ele><time>2026-04-22T09:33:48.667Z</time></trkpt><trkpt lat="46.2823547" lon="13.100276"><ele>197.75</ele><time>2026-04-22T09:33:49.668Z</time></trkpt><trkpt lat="46.2823316" lon="13.1004544"><ele>198.0</ele><time>2026-04-22T09:33:50.667Z</time></trkpt><trkpt lat="46.2823049" lon="13.1006319"><ele>198.0</ele><time>2026-04-22T09:33:51.667Z</time></trkpt><trkpt lat="46.2822764" lon="13.1008069"><ele>198.0</ele><time>2026-04-22T09:33:52.667Z</time></trkpt><trkpt lat="46.282248" lon="13.10098"><ele>198.0</ele><time>2026-04-22T09:33:53.667Z</time></trkpt><trkpt lat="46.2822206" lon="13.1011535"><ele>198.0</ele><time>2026-04-22T09:33:54.667Z</time></trkpt><trkpt lat="46.2821942" lon="13.1013273"><ele>198.0</ele><time>2026-04-22T09:33:55.667Z</time></trkpt><trkpt lat="46.2821669" lon="13.1015001"><ele>198.0</ele><time>2026-04-22T09:33:56.667Z</time></trkpt><trkpt lat="46.2821393" lon="13.1016728"><ele>198.0</ele><time>2026-04-22T09:33:57.667Z</time></trkpt><trkpt lat="46.2821109" lon="13.1018458"><ele>198.0</ele><time>2026-04-22T09:33:58.668Z</time></trkpt><trkpt lat="46.2820838" lon="13.1020191"><ele>197.75</ele><time>2026-04-22T09:33:59.667Z</time></trkpt><trkpt lat="46.2820581" lon="13.1021943"><ele>197.5</ele><time>2026-04-22T09:34:00.667Z</time></trkpt><trkpt lat="46.2820309" lon="13.1023695"><ele>197.25</ele><time>2026-04-22T09:34:01.667Z</time></trkpt><trkpt lat="46.2820027" lon="13.1025466"><ele>197.0</ele><time>2026-04-22T09:34:02.667Z</time></trkpt><trkpt lat="46.2819738" lon="13.1027248"><ele>196.75</ele><time>2026-04-22T09:34:03.668Z</time></trkpt><trkpt lat="46.2819446" lon="13.102904"><ele>196.5</ele><time>2026-04-22T09:34:04.667Z</time></trkpt><trkpt lat="46.2819169" lon="13.1030833"><ele>196.25</ele><time>2026-04-22T09:34:05.667Z</time></trkpt><trkpt lat="46.2818886" lon="13.1032588"><ele>196.0</ele><time>2026-04-22T09:34:06.668Z</time></trkpt><trkpt lat="46.2818603" lon="13.1034313"><ele>196.0</ele><time>2026-04-22T09:34:07.667Z</time></trkpt><trkpt lat="46.2818335" lon="13.1036022"><ele>196.0</ele><time>2026-04-22T09:34:08.667Z</time></trkpt><trkpt lat="46.281806" lon="13.1037768"><ele>196.0</ele><time>2026-04-22T09:34:09.667Z</time></trkpt><trkpt lat="46.281778" lon="13.103951"><ele>196.0</ele><time>2026-04-22T09:34:10.667Z</time></trkpt><trkpt lat="46.2817491" lon="13.1041254"><ele>196.0</ele><time>2026-04-22T09:34:11.667Z</time></trkpt><trkpt lat="46.2817211" lon="13.1043042"><ele>196.0</ele><time>2026-04-22T09:34:12.667Z</time></trkpt><trkpt lat="46.2816917" lon="13.1044824"><ele>196.0</ele><time>2026-04-22T09:34:13.667Z</time></trkpt><trkpt lat="46.281663" lon="13.1046583"><ele>196.0</ele><time>2026-04-22T09:34:14.669Z</time></trkpt><trkpt lat="46.2816377" lon="13.1048197"><ele>196.20000000000002</ele><time>2026-04-22T09:34:15.667Z</time></trkpt><trkpt lat="46.2816138" lon="13.1049708"><ele>196.4</ele><time>2026-04-22T09:34:16.667Z</time></trkpt><trkpt lat="46.2815912" lon="13.1051156"><ele>196.6</ele><time>2026-04-22T09:34:17.668Z</time></trkpt><trkpt lat="46.2815693" lon="13.1052482"><ele>196.8</ele><time>2026-04-22T09:34:18.667Z</time></trkpt><trkpt lat="46.2815497" lon="13.1053676"><ele>197.0</ele><time>2026-04-22T09:34:19.667Z</time></trkpt><trkpt lat="46.2815322" lon="13.1054731"><ele>197.00000000000003</ele><time>2026-04-22T09:34:20.667Z</time></trkpt><trkpt lat="46.2815172" lon="13.1055649"><ele>197.0</ele><time>2026-04-22T09:34:21.667Z</time></trkpt><trkpt lat="46.2814911" lon="13.1057101"><ele>197.0</ele><time>2026-04-22T09:34:23.668Z</time></trkpt><trkpt lat="46.2814732" lon="13.1058149"><ele>197.0</ele><time>2026-04-22T09:34:25.667Z</time></trkpt><trkpt lat="46.2814594" lon="13.1059277"><ele>197.00000000000003</ele><time>2026-04-22T09:34:38.668Z</time></trkpt><trkpt lat="46.2814499" lon="13.1060473"><ele>197.0</ele><time>2026-04-22T09:34:40.667Z</time></trkpt><trkpt lat="46.2814332" lon="13.1061766"><ele>196.66666666666669</ele><time>2026-04-22T09:34:42.667Z</time></trkpt><trkpt lat="46.2814116" lon="13.1063331"><ele>196.33333333333334</ele><time>2026-04-22T09:34:44.667Z</time></trkpt><trkpt lat="46.2813965" lon="13.1064252"><ele>196.0</ele><time>2026-04-22T09:34:45.669Z</time></trkpt><trkpt lat="46.2813812" lon="13.1065166"><ele>195.66666666666669</ele><time>2026-04-22T09:34:46.668Z</time></trkpt><trkpt lat="46.2813664" lon="13.1066115"><ele>195.33333333333334</ele><time>2026-04-22T09:34:47.667Z</time></trkpt><trkpt lat="46.2813504" lon="13.1067111"><ele>195.0</ele><time>2026-04-22T09:34:48.667Z</time></trkpt><trkpt lat="46.2813338" lon="13.1068125"><ele>195.0</ele><time>2026-04-22T09:34:49.667Z</time></trkpt><trkpt lat="46.2813181" lon="13.1069143"><ele>195.0</ele><time>2026-04-22T09:34:50.668Z</time></trkpt><trkpt lat="46.2813023" lon="13.1070173"><ele>195.0</ele><time>2026-04-22T09:34:51.667Z</time></trkpt><trkpt lat="46.281286" lon="13.1071354"><ele>195.0</ele><time>2026-04-22T09:34:52.667Z</time></trkpt><trkpt lat="46.2812631" lon="13.1072743"><ele>195.0</ele><time>2026-04-22T09:34:53.667Z</time></trkpt><trkpt lat="46.2812443" lon="13.107403"><ele>195.0</ele><time>2026-04-22T09:34:54.668Z</time></trkpt><trkpt lat="46.2812208" lon="13.1075364"><ele>195.16666666666666</ele><time>2026-04-22T09:34:55.667Z</time></trkpt><trkpt lat="46.2811985" lon="13.1076673"><ele>195.33333333333331</ele><time>2026-04-22T09:34:56.667Z</time></trkpt><trkpt lat="46.2811774" lon="13.1077963"><ele>195.5</ele><time>2026-04-22T09:34:57.668Z</time></trkpt><trkpt lat="46.2811563" lon="13.1079241"><ele>195.66666666666666</ele><time>2026-04-22T09:34:58.667Z</time></trkpt><trkpt lat="46.2811381" lon="13.1080426"><ele>195.83333333333331</ele><time>2026-04-22T09:34:59.667Z</time></trkpt><trkpt lat="46.2811204" lon="13.1081565"><ele>196.0</ele><time>2026-04-22T09:35:00.667Z</time></trkpt><trkpt lat="46.2811026" lon="13.1082661"><ele>196.14285714285714</ele><time>2026-04-22T09:35:01.667Z</time></trkpt><trkpt lat="46.2810852" lon="13.108369"><ele>196.28571428571428</ele><time>2026-04-22T09:35:02.667Z</time></trkpt><trkpt lat="46.281068" lon="13.1084685"><ele>196.42857142857144</ele><time>2026-04-22T09:35:03.666Z</time></trkpt><trkpt lat="46.2810523" lon="13.1085624"><ele>196.57142857142856</ele><time>2026-04-22T09:35:04.666Z</time></trkpt><trkpt lat="46.2810366" lon="13.1086571"><ele>196.71428571428572</ele><time>2026-04-22T09:35:05.667Z</time></trkpt><trkpt lat="46.2810199" lon="13.1087562"><ele>196.85714285714286</ele><time>2026-04-22T09:35:06.666Z</time></trkpt><trkpt lat="46.2810044" lon="13.1088559"><ele>197.0</ele><time>2026-04-22T09:35:07.666Z</time></trkpt><trkpt lat="46.2809893" lon="13.1089506"><ele>197.00000000000003</ele><time>2026-04-22T09:35:08.666Z</time></trkpt><trkpt lat="46.2809644" lon="13.1091128"><ele>197.0</ele><time>2026-04-22T09:35:10.667Z</time></trkpt><trkpt lat="46.2809465" lon="13.1092257"><ele>197.0</ele><time>2026-04-22T09:35:12.667Z</time></trkpt><trkpt lat="46.2809237" lon="13.1093119"><ele>197.0</ele><time>2026-04-22T09:35:18.666Z</time></trkpt><trkpt lat="46.2808807" lon="13.1093837"><ele>197.00000000000003</ele><time>2026-04-22T09:35:21.667Z</time></trkpt><trkpt lat="46.2807716" lon="13.1094073"><ele>197.0</ele><time>2026-04-22T09:35:27.666Z</time></trkpt><trkpt lat="46.2806873" lon="13.1093902"><ele>196.75</ele><time>2026-04-22T09:35:28.666Z</time></trkpt><trkpt lat="46.2805767" lon="13.1093716"><ele>196.5</ele><time>2026-04-22T09:35:29.666Z</time></trkpt><trkpt lat="46.2804544" lon="13.1093509"><ele>196.25</ele><time>2026-04-22T09:35:30.668Z</time></trkpt><trkpt lat="46.2803292" lon="13.1093249"><ele>196.0</ele><time>2026-04-22T09:35:31.666Z</time></trkpt><trkpt lat="46.2801741" lon="13.1092963"><ele>196.0</ele><time>2026-04-22T09:35:32.666Z</time></trkpt><trkpt lat="46.280033" lon="13.1092711"><ele>196.0</ele><time>2026-04-22T09:35:33.668Z</time></trkpt><trkpt lat="46.2798962" lon="13.1092461"><ele>196.0</ele><time>2026-04-22T09:35:34.666Z</time></trkpt><trkpt lat="46.2797717" lon="13.1092222"><ele>196.0</ele><time>2026-04-22T09:35:35.666Z</time></trkpt><trkpt lat="46.2796571" lon="13.1092023"><ele>196.20000000000002</ele><time>2026-04-22T09:35:36.666Z</time></trkpt><trkpt lat="46.2795513" lon="13.1091887"><ele>196.4</ele><time>2026-04-22T09:35:37.667Z</time></trkpt><trkpt lat="46.279451" lon="13.1091762"><ele>196.6</ele><time>2026-04-22T09:35:38.667Z</time></trkpt><trkpt lat="46.2793554" lon="13.1091632"><ele>196.8</ele><time>2026-04-22T09:35:39.667Z</time></trkpt><trkpt lat="46.2792624" lon="13.1091512"><ele>197.0</ele><time>2026-04-22T09:35:40.666Z</time></trkpt><trkpt lat="46.2791712" lon="13.1091402"><ele>197.0</ele><time>2026-04-22T09:35:41.667Z</time></trkpt><trkpt lat="46.2790821" lon="13.1091276"><ele>197.0</ele><time>2026-04-22T09:35:42.666Z</time></trkpt><trkpt lat="46.2789902" lon="13.1091158"><ele>197.0</ele><time>2026-04-22T09:35:43.667Z</time></trkpt><trkpt lat="46.278897" lon="13.1091072"><ele>197.0</ele><time>2026-04-22T09:35:44.666Z</time></trkpt><trkpt lat="46.2788029" lon="13.1091005"><ele>197.0</ele><time>2026-04-22T09:35:45.666Z</time></trkpt><trkpt lat="46.2787104" lon="13.1090926"><ele>196.83333333333334</ele><time>2026-04-22T09:35:46.668Z</time></trkpt><trkpt lat="46.2786205" lon="13.1090839"><ele>196.66666666666669</ele><time>2026-04-22T09:35:47.666Z</time></trkpt><trkpt lat="46.2785311" lon="13.1090737"><ele>196.5</ele><time>2026-04-22T09:35:48.666Z</time></trkpt><trkpt lat="46.2784441" lon="13.109062"><ele>196.33333333333331</ele><time>2026-04-22T09:35:49.666Z</time></trkpt><trkpt lat="46.2783592" lon="13.1090482"><ele>196.16666666666666</ele><time>2026-04-22T09:35:50.666Z</time></trkpt><trkpt lat="46.278274" lon="13.1090339"><ele>196.0</ele><time>2026-04-22T09:35:51.666Z</time></trkpt><trkpt lat="46.2781893" lon="13.1090207"><ele>195.99999999999997</ele><time>2026-04-22T09:35:52.666Z</time></trkpt><trkpt lat="46.2781025" lon="13.109008"><ele>196.0</ele><time>2026-04-22T09:35:53.668Z</time></trkpt><trkpt lat="46.278017" lon="13.108994"><ele>196.0</ele><time>2026-04-22T09:35:54.666Z</time></trkpt><trkpt lat="46.2779309" lon="13.1089795"><ele>196.0</ele><time>2026-04-22T09:35:55.666Z</time></trkpt><trkpt lat="46.277842" lon="13.1089652"><ele>195.99999999999997</ele><time>2026-04-22T09:35:56.667Z</time></trkpt><trkpt lat="46.2777548" lon="13.1089527"><ele>196.0</ele><time>2026-04-22T09:35:57.666Z</time></trkpt><trkpt lat="46.2776644" lon="13.1089367"><ele>195.66666666666666</ele><time>2026-04-22T09:35:58.666Z</time></trkpt><trkpt lat="46.2775762" lon="13.1089198"><ele>195.33333333333331</ele><time>2026-04-22T09:35:59.667Z</time></trkpt><trkpt lat="46.2774848" lon="13.1089042"><ele>195.0</ele><time>2026-04-22T09:36:00.667Z</time></trkpt><trkpt lat="46.2773931" lon="13.1088909"><ele>194.66666666666669</ele><time>2026-04-22T09:36:01.667Z</time></trkpt><trkpt lat="46.2773044" lon="13.1088803"><ele>194.33333333333334</ele><time>2026-04-22T09:36:02.667Z</time></trkpt><trkpt lat="46.277218" lon="13.1088683"><ele>194.0</ele><time>2026-04-22T09:36:03.667Z</time></trkpt><trkpt lat="46.277138" lon="13.1088515"><ele>194.00000000000003</ele><time>2026-04-22T09:36:04.667Z</time></trkpt><trkpt lat="46.2770642" lon="13.1088375"><ele>194.0</ele><time>2026-04-22T09:36:05.667Z</time></trkpt><trkpt lat="46.2770014" lon="13.1088249"><ele>194.0</ele><time>2026-04-22T09:36:06.666Z</time></trkpt><trkpt lat="46.2769049" lon="13.1087987"><ele>194.0</ele><time>2026-04-22T09:36:08.666Z</time></trkpt><trkpt lat="46.276808" lon="13.1087767"><ele>194.00000000000003</ele><time>2026-04-22T09:36:10.667Z</time></trkpt><trkpt lat="46.276696" lon="13.1087614"><ele>194.0</ele><time>2026-04-22T09:36:12.666Z</time></trkpt><trkpt lat="46.2765741" lon="13.1087381"><ele>194.0</ele><time>2026-04-22T09:36:14.666Z</time></trkpt><trkpt lat="46.2764913" lon="13.1087255"><ele>194.0</ele><time>2026-04-22T09:36:15.667Z</time></trkpt><trkpt lat="46.2763924" lon="13.1087056"><ele>194.0</ele><time>2026-04-22T09:36:16.666Z</time></trkpt><trkpt lat="46.2762903" lon="13.1086848"><ele>194.0</ele><time>2026-04-22T09:36:17.666Z</time></trkpt><trkpt lat="46.276186" lon="13.1086635"><ele>194.0</ele><time>2026-04-22T09:36:18.666Z</time></trkpt><trkpt lat="46.2760786" lon="13.1086459"><ele>194.0</ele><time>2026-04-22T09:36:19.667Z</time></trkpt><trkpt lat="46.2759675" lon="13.1086224"><ele>194.0</ele><time>2026-04-22T09:36:20.666Z</time></trkpt><trkpt lat="46.2758614" lon="13.1086"><ele>194.0</ele><time>2026-04-22T09:36:21.667Z</time></trkpt><trkpt lat="46.2757576" lon="13.1085819"><ele>194.0</ele><time>2026-04-22T09:36:22.666Z</time></trkpt><trkpt lat="46.2756554" lon="13.1085651"><ele>194.0</ele><time>2026-04-22T09:36:23.666Z</time></trkpt><trkpt lat="46.2755539" lon="13.1085458"><ele>194.0</ele><time>2026-04-22T09:36:24.667Z</time></trkpt><trkpt lat="46.2754539" lon="13.1085276"><ele>194.0</ele><time>2026-04-22T09:36:25.667Z</time></trkpt><trkpt lat="46.2753543" lon="13.108512"><ele>194.0</ele><time>2026-04-22T09:36:26.666Z</time></trkpt><trkpt lat="46.2752564" lon="13.1084938"><ele>194.0</ele><time>2026-04-22T09:36:27.666Z</time></trkpt><trkpt lat="46.2751593" lon="13.1084749"><ele>194.0</ele><time>2026-04-22T09:36:28.666Z</time></trkpt><trkpt lat="46.2750631" lon="13.1084575"><ele>194.0</ele><time>2026-04-22T09:36:29.666Z</time></trkpt><trkpt lat="46.2749668" lon="13.10844"><ele>194.0</ele><time>2026-04-22T09:36:30.666Z</time></trkpt><trkpt lat="46.2748716" lon="13.1084239"><ele>194.0</ele><time>2026-04-22T09:36:31.666Z</time></trkpt><trkpt lat="46.2747856" lon="13.1084093"><ele>194.0</ele><time>2026-04-22T09:36:32.667Z</time></trkpt><trkpt lat="46.2747128" lon="13.1083965"><ele>194.0</ele><time>2026-04-22T09:36:33.666Z</time></trkpt><trkpt lat="46.2745938" lon="13.1083721"><ele>193.79999999999998</ele><time>2026-04-22T09:36:35.666Z</time></trkpt><trkpt lat="46.2744973" lon="13.1083565"><ele>193.6</ele><time>2026-04-22T09:36:37.666Z</time></trkpt><trkpt lat="46.2744139" lon="13.1083419"><ele>193.4</ele><time>2026-04-22T09:36:39.666Z</time></trkpt><trkpt lat="46.2743452" lon="13.1083038"><ele>193.2</ele><time>2026-04-22T09:36:41.666Z</time></trkpt><trkpt lat="46.2742594" lon="13.108272"><ele>193.0</ele><time>2026-04-22T09:36:44.666Z</time></trkpt><trkpt lat="46.2741394" lon="13.1082586"><ele>192.99999999999997</ele><time>2026-04-22T09:36:46.667Z</time></trkpt><trkpt lat="46.2740732" lon="13.1082545"><ele>193.0</ele><time>2026-04-22T09:36:47.667Z</time></trkpt><trkpt lat="46.2739879" lon="13.1082536"><ele>193.0</ele><time>2026-04-22T09:36:48.666Z</time></trkpt><trkpt lat="46.2739022" lon="13.108244"><ele>193.0</ele><time>2026-04-22T09:36:49.666Z</time></trkpt><trkpt lat="46.2738264" lon="13.1082334"><ele>192.99999999999997</ele><time>2026-04-22T09:36:50.667Z</time></trkpt><trkpt lat="46.2737557" lon="13.108214"><ele>193.0</ele><time>2026-04-22T09:36:51.666Z</time></trkpt><trkpt lat="46.2736912" lon="13.1081869"><ele>193.00000000000003</ele><time>2026-04-22T09:36:52.667Z</time></trkpt><trkpt lat="46.2736307" lon="13.1081603"><ele>193.0</ele><time>2026-04-22T09:36:53.667Z</time></trkpt><trkpt lat="46.2735712" lon="13.10813"><ele>193.0</ele><time>2026-04-22T09:36:54.667Z</time></trkpt><trkpt lat="46.2735131" lon="13.108089"><ele>193.0</ele><time>2026-04-22T09:36:55.666Z</time></trkpt><trkpt lat="46.273451" lon="13.1080199"><ele>193.0</ele><time>2026-04-22T09:36:56.666Z</time></trkpt><trkpt lat="46.2734065" lon="13.1079369"><ele>193.00000000000003</ele><time>2026-04-22T09:36:57.666Z</time></trkpt><trkpt lat="46.2733484" lon="13.107898"><ele>193.0</ele><time>2026-04-22T09:36:58.667Z</time></trkpt><trkpt lat="46.273233" lon="13.1079072"><ele>193.0</ele><time>2026-04-22T09:37:00.666Z</time></trkpt><trkpt lat="46.2731197" lon="13.1079728"><ele>193.0</ele><time>2026-04-22T09:37:02.666Z</time></trkpt><trkpt lat="46.2730498" lon="13.1080012"><ele>193.0</ele><time>2026-04-22T09:37:03.666Z</time></trkpt><trkpt lat="46.272981" lon="13.1080171"><ele>193.0</ele><time>2026-04-22T09:37:04.666Z</time></trkpt><trkpt lat="46.2728581" lon="13.1080304"><ele>193.0</ele><time>2026-04-22T09:37:06.667Z</time></trkpt><trkpt lat="46.2727295" lon="13.1080264"><ele>192.2</ele><time>2026-04-22T09:37:08.666Z</time></trkpt><trkpt lat="46.2726647" lon="13.1080201"><ele>191.4</ele><time>2026-04-22T09:37:09.666Z</time></trkpt><trkpt lat="46.2726012" lon="13.1080106"><ele>190.6</ele><time>2026-04-22T09:37:10.666Z</time></trkpt><trkpt lat="46.2724866" lon="13.1079917"><ele>189.79999999999998</ele><time>2026-04-22T09:37:12.666Z</time></trkpt><trkpt lat="46.2723782" lon="13.1079696"><ele>189.0</ele><time>2026-04-22T09:37:14.666Z</time></trkpt><trkpt lat="46.272268" lon="13.1079457"><ele>189.0</ele><time>2026-04-22T09:37:16.666Z</time></trkpt><trkpt lat="46.272144" lon="13.1079205"><ele>189.0</ele><time>2026-04-22T09:37:18.666Z</time></trkpt><trkpt lat="46.2720774" lon="13.1079069"><ele>189.0</ele><time>2026-04-22T09:37:19.667Z</time></trkpt><trkpt lat="46.2720032" lon="13.107891"><ele>189.0</ele><time>2026-04-22T09:37:20.668Z</time></trkpt><trkpt lat="46.2719143" lon="13.1078712"><ele>189.0</ele><time>2026-04-22T09:37:21.666Z</time></trkpt><trkpt lat="46.2718198" lon="13.1078542"><ele>189.0</ele><time>2026-04-22T09:37:22.666Z</time></trkpt><trkpt lat="46.2717265" lon="13.1078362"><ele>189.0</ele><time>2026-04-22T09:37:23.667Z</time></trkpt><trkpt lat="46.2716331" lon="13.1078223"><ele>189.0</ele><time>2026-04-22T09:37:24.667Z</time></trkpt><trkpt lat="46.2715422" lon="13.1078067"><ele>189.0</ele><time>2026-04-22T09:37:25.666Z</time></trkpt><trkpt lat="46.2714523" lon="13.1077909"><ele>189.0</ele><time>2026-04-22T09:37:26.666Z</time></trkpt><trkpt lat="46.271363" lon="13.1077769"><ele>189.33333333333334</ele><time>2026-04-22T09:37:27.666Z</time></trkpt><trkpt lat="46.2712746" lon="13.1077649"><ele>189.66666666666666</ele><time>2026-04-22T09:37:28.667Z</time></trkpt><trkpt lat="46.2711913" lon="13.1077498"><ele>190.0</ele><time>2026-04-22T09:37:29.666Z</time></trkpt><trkpt lat="46.2711093" lon="13.1077323"><ele>190.33333333333331</ele><time>2026-04-22T09:37:30.666Z</time></trkpt><trkpt lat="46.2710268" lon="13.1077171"><ele>190.66666666666666</ele><time>2026-04-22T09:37:31.666Z</time></trkpt><trkpt lat="46.2709424" lon="13.1077007"><ele>191.0</ele><time>2026-04-22T09:37:32.666Z</time></trkpt><trkpt lat="46.2708543" lon="13.1076849"><ele>191.0</ele><time>2026-04-22T09:37:33.666Z</time></trkpt><trkpt lat="46.2707623" lon="13.1076709"><ele>191.0</ele><time>2026-04-22T09:37:34.666Z</time></trkpt><trkpt lat="46.2706686" lon="13.1076559"><ele>191.0</ele><time>2026-04-22T09:37:35.667Z</time></trkpt><trkpt lat="46.2705752" lon="13.1076397"><ele>191.0</ele><time>2026-04-22T09:37:36.666Z</time></trkpt><trkpt lat="46.2704825" lon="13.1076222"><ele>191.0</ele><time>2026-04-22T09:37:37.667Z</time></trkpt><trkpt lat="46.2703888" lon="13.1076061"><ele>191.4</ele><time>2026-04-22T09:37:38.667Z</time></trkpt><trkpt lat="46.270297" lon="13.1075876"><ele>191.8</ele><time>2026-04-22T09:37:39.666Z</time></trkpt><trkpt lat="46.2702048" lon="13.1075695"><ele>192.20000000000002</ele><time>2026-04-22T09:37:40.666Z</time></trkpt><trkpt lat="46.2701107" lon="13.107552"><ele>192.60000000000002</ele><time>2026-04-22T09:37:41.667Z</time></trkpt><trkpt lat="46.2700161" lon="13.107533"><ele>193.0</ele><time>2026-04-22T09:37:42.667Z</time></trkpt><trkpt lat="46.269921" lon="13.1075179"><ele>193.0</ele><time>2026-04-22T09:37:43.666Z</time></trkpt><trkpt lat="46.2698258" lon="13.1074991"><ele>193.0</ele><time>2026-04-22T09:37:44.666Z</time></trkpt><trkpt lat="46.2697274" lon="13.1074772"><ele>193.0</ele><time>2026-04-22T09:37:45.667Z</time></trkpt><trkpt lat="46.2696311" lon="13.1074604"><ele>193.0</ele><time>2026-04-22T09:37:46.666Z</time></trkpt><trkpt lat="46.2695372" lon="13.1074448"><ele>193.0</ele><time>2026-04-22T09:37:47.666Z</time></trkpt><trkpt lat="46.269443" lon="13.1074307"><ele>192.4</ele><time>2026-04-22T09:37:48.667Z</time></trkpt><trkpt lat="46.2693477" lon="13.107422"><ele>191.8</ele><time>2026-04-22T09:37:49.666Z</time></trkpt><trkpt lat="46.2692558" lon="13.1074138"><ele>191.2</ele><time>2026-04-22T09:37:50.666Z</time></trkpt><trkpt lat="46.269169" lon="13.1074069"><ele>190.6</ele><time>2026-04-22T09:37:51.667Z</time></trkpt><trkpt lat="46.2690808" lon="13.1074006"><ele>190.0</ele><time>2026-04-22T09:37:52.666Z</time></trkpt><trkpt lat="46.2689923" lon="13.1073965"><ele>189.6</ele><time>2026-04-22T09:37:53.666Z</time></trkpt><trkpt lat="46.2689049" lon="13.1073951"><ele>189.2</ele><time>2026-04-22T09:37:54.667Z</time></trkpt><trkpt lat="46.2688146" lon="13.1074015"><ele>188.8</ele><time>2026-04-22T09:37:55.667Z</time></trkpt><trkpt lat="46.2687226" lon="13.1074081"><ele>188.4</ele><time>2026-04-22T09:37:56.667Z</time></trkpt><trkpt lat="46.2686139" lon="13.1074201"><ele>188.0</ele><time>2026-04-22T09:37:57.666Z</time></trkpt><trkpt lat="46.2685076" lon="13.1074312"><ele>188.0</ele><time>2026-04-22T09:37:58.666Z</time></trkpt><trkpt lat="46.2684101" lon="13.1074432"><ele>188.0</ele><time>2026-04-22T09:37:59.666Z</time></trkpt><trkpt lat="46.2683172" lon="13.1074552"><ele>188.0</ele><time>2026-04-22T09:38:00.666Z</time></trkpt><trkpt lat="46.2682282" lon="13.1074679"><ele>188.0</ele><time>2026-04-22T09:38:01.666Z</time></trkpt><trkpt lat="46.2681378" lon="13.1074763"><ele>188.0</ele><time>2026-04-22T09:38:02.666Z</time></trkpt><trkpt lat="46.268047" lon="13.1074874"><ele>188.0</ele><time>2026-04-22T09:38:03.666Z</time></trkpt><trkpt lat="46.2679592" lon="13.1074974"><ele>188.0</ele><time>2026-04-22T09:38:04.667Z</time></trkpt><trkpt lat="46.2678745" lon="13.1075074"><ele>188.0</ele><time>2026-04-22T09:38:05.667Z</time></trkpt><trkpt lat="46.2677941" lon="13.1075208"><ele>188.0</ele><time>2026-04-22T09:38:06.666Z</time></trkpt><trkpt lat="46.2677156" lon="13.1075361"><ele>188.0</ele><time>2026-04-22T09:38:07.666Z</time></trkpt><trkpt lat="46.2676358" lon="13.1075406"><ele>188.0</ele><time>2026-04-22T09:38:08.666Z</time></trkpt><trkpt lat="46.2675548" lon="13.1075452"><ele>188.0</ele><time>2026-04-22T09:38:09.666Z</time></trkpt><trkpt lat="46.2674683" lon="13.1075531"><ele>188.0</ele><time>2026-04-22T09:38:10.667Z</time></trkpt><trkpt lat="46.2673769" lon="13.1075657"><ele>188.0</ele><time>2026-04-22T09:38:11.666Z</time></trkpt><trkpt lat="46.2672813" lon="13.107573"><ele>188.0</ele><time>2026-04-22T09:38:12.666Z</time></trkpt><trkpt lat="46.2671841" lon="13.1075842"><ele>188.0</ele><time>2026-04-22T09:38:13.666Z</time></trkpt><trkpt lat="46.2670885" lon="13.1075956"><ele>187.60000000000002</ele><time>2026-04-22T09:38:14.666Z</time></trkpt><trkpt lat="46.2669771" lon="13.1076057"><ele>187.20000000000002</ele><time>2026-04-22T09:38:15.667Z</time></trkpt><trkpt lat="46.2668757" lon="13.1076166"><ele>186.8</ele><time>2026-04-22T09:38:16.668Z</time></trkpt><trkpt lat="46.2667848" lon="13.1076284"><ele>186.4</ele><time>2026-04-22T09:38:17.666Z</time></trkpt><trkpt lat="46.2667047" lon="13.1076402"><ele>186.0</ele><time>2026-04-22T09:38:18.667Z</time></trkpt><trkpt lat="46.2666354" lon="13.1076536"><ele>186.0</ele><time>2026-04-22T09:38:19.666Z</time></trkpt><trkpt lat="46.2665234" lon="13.1076745"><ele>186.0</ele><time>2026-04-22T09:38:21.666Z</time></trkpt><trkpt lat="46.2664525" lon="13.1076871"><ele>186.0</ele><time>2026-04-22T09:38:23.666Z</time></trkpt><trkpt lat="46.2663824" lon="13.1076889"><ele>186.0</ele><time>2026-04-22T09:39:12.667Z</time></trkpt><trkpt lat="46.2662822" lon="13.1077052"><ele>186.0</ele><time>2026-04-22T09:39:14.666Z</time></trkpt><trkpt lat="46.2661848" lon="13.107714"><ele>186.20000000000002</ele><time>2026-04-22T09:39:16.667Z</time></trkpt><trkpt lat="46.266088" lon="13.1077584"><ele>186.4</ele><time>2026-04-22T09:39:18.666Z</time></trkpt><trkpt lat="46.2660372" lon="13.1078731"><ele>186.6</ele><time>2026-04-22T09:39:20.666Z</time></trkpt><trkpt lat="46.2660512" lon="13.108021"><ele>186.8</ele><time>2026-04-22T09:39:22.666Z</time></trkpt><trkpt lat="46.2660806" lon="13.1081019"><ele>187.0</ele><time>2026-04-22T09:39:23.666Z</time></trkpt><trkpt lat="46.2661459" lon="13.1082511"><ele>187.0</ele><time>2026-04-22T09:39:25.667Z</time></trkpt><trkpt lat="46.266179" lon="13.1083354"><ele>187.0</ele><time>2026-04-22T09:39:26.666Z</time></trkpt><trkpt lat="46.2662118" lon="13.1084426"><ele>187.0</ele><time>2026-04-22T09:39:27.667Z</time></trkpt><trkpt lat="46.2662346" lon="13.1085479"><ele>187.0</ele><time>2026-04-22T09:39:28.666Z</time></trkpt><trkpt lat="46.2662599" lon="13.108715"><ele>187.0</ele><time>2026-04-22T09:39:30.666Z</time></trkpt><trkpt lat="46.2662635" lon="13.1088194"><ele>187.0</ele><time>2026-04-22T09:39:31.666Z</time></trkpt><trkpt lat="46.2662645" lon="13.108925"><ele>187.0</ele><time>2026-04-22T09:39:32.666Z</time></trkpt><trkpt lat="46.266266" lon="13.1090171"><ele>187.0</ele><time>2026-04-22T09:39:33.666Z</time></trkpt><trkpt lat="46.2662623" lon="13.1091163"><ele>187.0</ele><time>2026-04-22T09:39:35.666Z</time></trkpt><trkpt lat="46.2662525" lon="13.1092342"><ele>187.0</ele><time>2026-04-22T09:39:39.666Z</time></trkpt><trkpt lat="46.2662542" lon="13.1093485"><ele>187.0</ele><time>2026-04-22T09:39:41.667Z</time></trkpt><trkpt lat="46.2662667" lon="13.1095156"><ele>187.0</ele><time>2026-04-22T09:39:43.666Z</time></trkpt><trkpt lat="46.2662681" lon="13.1096206"><ele>187.2</ele><time>2026-04-22T09:39:44.666Z</time></trkpt><trkpt lat="46.2662694" lon="13.1097369"><ele>187.39999999999998</ele><time>2026-04-22T09:39:45.667Z</time></trkpt><trkpt lat="46.2662765" lon="13.1098846"><ele>187.60000000000002</ele><time>2026-04-22T09:39:46.666Z</time></trkpt><trkpt lat="46.2662792" lon="13.1100274"><ele>187.8</ele><time>2026-04-22T09:39:47.666Z</time></trkpt><trkpt lat="46.2662803" lon="13.1101699"><ele>188.0</ele><time>2026-04-22T09:39:48.667Z</time></trkpt><trkpt lat="46.2662825" lon="13.1103188"><ele>188.0</ele><time>2026-04-22T09:39:49.667Z</time></trkpt><trkpt lat="46.2662844" lon="13.1104678"><ele>188.0</ele><time>2026-04-22T09:39:50.666Z</time></trkpt><trkpt lat="46.2662874" lon="13.1106163"><ele>188.0</ele><time>2026-04-22T09:39:51.666Z</time></trkpt><trkpt lat="46.2662894" lon="13.1107655"><ele>188.0</ele><time>2026-04-22T09:39:52.666Z</time></trkpt><trkpt lat="46.2662932" lon="13.1109136"><ele>188.0</ele><time>2026-04-22T09:39:53.667Z</time></trkpt><trkpt lat="46.2662957" lon="13.1110579"><ele>188.0</ele><time>2026-04-22T09:39:54.666Z</time></trkpt><trkpt lat="46.2662988" lon="13.1111988"><ele>188.0</ele><time>2026-04-22T09:39:55.666Z</time></trkpt><trkpt lat="46.2662983" lon="13.1113426"><ele>188.0</ele><time>2026-04-22T09:39:56.666Z</time></trkpt><trkpt lat="46.2662975" lon="13.1114841"><ele>188.0</ele><time>2026-04-22T09:39:57.666Z</time></trkpt><trkpt lat="46.2662992" lon="13.1116216"><ele>188.0</ele><time>2026-04-22T09:39:58.667Z</time></trkpt><trkpt lat="46.2663019" lon="13.1117536"><ele>188.0</ele><time>2026-04-22T09:39:59.666Z</time></trkpt><trkpt lat="46.2663056" lon="13.111882"><ele>188.0</ele><time>2026-04-22T09:40:00.667Z</time></trkpt><trkpt lat="46.2663105" lon="13.1120063"><ele>188.0</ele><time>2026-04-22T09:40:01.666Z</time></trkpt><trkpt lat="46.2663119" lon="13.1121217"><ele>188.0</ele><time>2026-04-22T09:40:02.666Z</time></trkpt><trkpt lat="46.2663032" lon="13.1122211"><ele>188.0</ele><time>2026-04-22T09:40:03.666Z</time></trkpt><trkpt lat="46.2662396" lon="13.1123606"><ele>188.0</ele><time>2026-04-22T09:40:05.666Z</time></trkpt><trkpt lat="46.266172" lon="13.1124884"><ele>188.0</ele><time>2026-04-22T09:40:07.666Z</time></trkpt><trkpt lat="46.2661994" lon="13.1126572"><ele>188.0</ele><time>2026-04-22T09:40:09.668Z</time></trkpt><trkpt lat="46.2662462" lon="13.1127306"><ele>188.0</ele><time>2026-04-22T09:40:10.666Z</time></trkpt><trkpt lat="46.2662992" lon="13.1128102"><ele>188.0</ele><time>2026-04-22T09:40:11.666Z</time></trkpt><trkpt lat="46.2663433" lon="13.1129256"><ele>188.0</ele><time>2026-04-22T09:40:12.667Z</time></trkpt><trkpt lat="46.2663746" lon="13.1130395"><ele>188.0</ele><time>2026-04-22T09:40:13.666Z</time></trkpt><trkpt lat="46.2663968" lon="13.1131509"><ele>188.0</ele><time>2026-04-22T09:40:14.666Z</time></trkpt><trkpt lat="46.2664163" lon="13.1132645"><ele>188.0</ele><time>2026-04-22T09:40:15.666Z</time></trkpt><trkpt lat="46.2664292" lon="13.1133807"><ele>188.0</ele><time>2026-04-22T09:40:16.666Z</time></trkpt><trkpt lat="46.2664391" lon="13.113497"><ele>188.0</ele><time>2026-04-22T09:40:17.667Z</time></trkpt><trkpt lat="46.2664586" lon="13.1136211"><ele>188.0</ele><time>2026-04-22T09:40:18.666Z</time></trkpt><trkpt lat="46.2664778" lon="13.1137488"><ele>188.0</ele><time>2026-04-22T09:40:19.666Z</time></trkpt><trkpt lat="46.2664933" lon="13.1138758"><ele>188.0</ele><time>2026-04-22T09:40:20.667Z</time></trkpt><trkpt lat="46.266506" lon="13.1140058"><ele>188.0</ele><time>2026-04-22T09:40:21.668Z</time></trkpt><trkpt lat="46.2665198" lon="13.1141292"><ele>188.0</ele><time>2026-04-22T09:40:22.666Z</time></trkpt><trkpt lat="46.2665338" lon="13.1142468"><ele>188.0</ele><time>2026-04-22T09:40:23.666Z</time></trkpt><trkpt lat="46.2665497" lon="13.1143604"><ele>188.0</ele><time>2026-04-22T09:40:24.667Z</time></trkpt><trkpt lat="46.266566" lon="13.1144727"><ele>188.0</ele><time>2026-04-22T09:40:25.665Z</time></trkpt><trkpt lat="46.2665843" lon="13.1145821"><ele>188.0</ele><time>2026-04-22T09:40:26.665Z</time></trkpt><trkpt lat="46.266597" lon="13.1146929"><ele>188.0</ele><time>2026-04-22T09:40:27.666Z</time></trkpt><trkpt lat="46.2666133" lon="13.1148081"><ele>188.0</ele><time>2026-04-22T09:40:28.665Z</time></trkpt><trkpt lat="46.2666433" lon="13.1149327"><ele>188.0</ele><time>2026-04-22T09:40:29.666Z</time></trkpt><trkpt lat="46.2666749" lon="13.1150479"><ele>188.0</ele><time>2026-04-22T09:40:30.665Z</time></trkpt><trkpt lat="46.2667068" lon="13.1151562"><ele>188.0</ele><time>2026-04-22T09:40:31.665Z</time></trkpt><trkpt lat="46.2667358" lon="13.1152578"><ele>188.0</ele><time>2026-04-22T09:40:32.666Z</time></trkpt><trkpt lat="46.2667638" lon="13.11536"><ele>188.0</ele><time>2026-04-22T09:40:33.665Z</time></trkpt><trkpt lat="46.2667923" lon="13.1154603"><ele>188.0</ele><time>2026-04-22T09:40:34.666Z</time></trkpt><trkpt lat="46.266823" lon="13.1155589"><ele>188.0</ele><time>2026-04-22T09:40:35.665Z</time></trkpt><trkpt lat="46.266853" lon="13.1156586"><ele>188.0</ele><time>2026-04-22T09:40:36.666Z</time></trkpt><trkpt lat="46.266881" lon="13.1157579"><ele>188.0</ele><time>2026-04-22T09:40:37.665Z</time></trkpt><trkpt lat="46.2669097" lon="13.1158578"><ele>188.0</ele><time>2026-04-22T09:40:38.665Z</time></trkpt><trkpt lat="46.2669423" lon="13.1159587"><ele>188.0</ele><time>2026-04-22T09:40:39.665Z</time></trkpt><trkpt lat="46.2669739" lon="13.1160601"><ele>188.0</ele><time>2026-04-22T09:40:40.665Z</time></trkpt><trkpt lat="46.2670021" lon="13.1161625"><ele>188.0</ele><time>2026-04-22T09:40:41.666Z</time></trkpt><trkpt lat="46.2670296" lon="13.1162639"><ele>188.0</ele><time>2026-04-22T09:40:42.665Z</time></trkpt><trkpt lat="46.2670591" lon="13.116363"><ele>188.0</ele><time>2026-04-22T09:40:43.665Z</time></trkpt><trkpt lat="46.2670898" lon="13.1164588"><ele>188.0</ele><time>2026-04-22T09:40:44.665Z</time></trkpt><trkpt lat="46.2671179" lon="13.1165565"><ele>188.0</ele><time>2026-04-22T09:40:45.665Z</time></trkpt><trkpt lat="46.267143" lon="13.1166564"><ele>188.0</ele><time>2026-04-22T09:40:46.665Z</time></trkpt><trkpt lat="46.2671719" lon="13.1167552"><ele>188.0</ele><time>2026-04-22T09:40:47.665Z</time></trkpt><trkpt lat="46.2671997" lon="13.1168516"><ele>188.0</ele><time>2026-04-22T09:40:48.666Z</time></trkpt><trkpt lat="46.2672269" lon="13.1169438"><ele>188.0</ele><time>2026-04-22T09:40:49.665Z</time></trkpt><trkpt lat="46.267254" lon="13.1170339"><ele>188.0</ele><time>2026-04-22T09:40:50.665Z</time></trkpt><trkpt lat="46.2672784" lon="13.117124"><ele>188.0</ele><time>2026-04-22T09:40:51.666Z</time></trkpt><trkpt lat="46.2673043" lon="13.1172093"><ele>188.0</ele><time>2026-04-22T09:40:52.666Z</time></trkpt><trkpt lat="46.2673536" lon="13.1173675"><ele>188.0</ele><time>2026-04-22T09:40:54.666Z</time></trkpt><trkpt lat="46.2674031" lon="13.117533"><ele>188.0</ele><time>2026-04-22T09:40:56.665Z</time></trkpt><trkpt lat="46.267427" lon="13.1176182"><ele>188.0</ele><time>2026-04-22T09:40:57.666Z</time></trkpt><trkpt lat="46.2674555" lon="13.1177074"><ele>188.0</ele><time>2026-04-22T09:40:58.666Z</time></trkpt><trkpt lat="46.2674835" lon="13.1177987"><ele>188.0</ele><time>2026-04-22T09:40:59.666Z</time></trkpt><trkpt lat="46.2675287" lon="13.1179577"><ele>188.0</ele><time>2026-04-22T09:41:01.666Z</time></trkpt><trkpt lat="46.267571" lon="13.1181067"><ele>188.0</ele><time>2026-04-22T09:41:03.665Z</time></trkpt><trkpt lat="46.267622" lon="13.1182659"><ele>188.0</ele><time>2026-04-22T09:41:05.665Z</time></trkpt><trkpt lat="46.2676462" lon="13.1183536"><ele>188.0</ele><time>2026-04-22T09:41:06.665Z</time></trkpt><trkpt lat="46.2676892" lon="13.1185232"><ele>187.83333333333331</ele><time>2026-04-22T09:41:08.665Z</time></trkpt><trkpt lat="46.2677144" lon="13.1186117"><ele>187.66666666666666</ele><time>2026-04-22T09:41:09.665Z</time></trkpt><trkpt lat="46.2677409" lon="13.1187015"><ele>187.5</ele><time>2026-04-22T09:41:10.665Z</time></trkpt><trkpt lat="46.2677657" lon="13.1187898"><ele>187.33333333333334</ele><time>2026-04-22T09:41:11.665Z</time></trkpt><trkpt lat="46.2678047" lon="13.1189618"><ele>187.16666666666669</ele><time>2026-04-22T09:41:13.665Z</time></trkpt><trkpt lat="46.2678319" lon="13.1190525"><ele>187.0</ele><time>2026-04-22T09:41:14.667Z</time></trkpt><trkpt lat="46.2678614" lon="13.1191363"><ele>187.0</ele><time>2026-04-22T09:41:15.666Z</time></trkpt><trkpt lat="46.2679074" lon="13.1192988"><ele>187.0</ele><time>2026-04-22T09:41:17.665Z</time></trkpt><trkpt lat="46.267946" lon="13.1194674"><ele>187.0</ele><time>2026-04-22T09:41:19.665Z</time></trkpt><trkpt lat="46.2679918" lon="13.1196247"><ele>187.0</ele><time>2026-04-22T09:41:21.665Z</time></trkpt><trkpt lat="46.2680335" lon="13.1197797"><ele>186.8</ele><time>2026-04-22T09:41:23.665Z</time></trkpt><trkpt lat="46.2680716" lon="13.119931"><ele>186.6</ele><time>2026-04-22T09:41:25.665Z</time></trkpt><trkpt lat="46.2681166" lon="13.1200922"><ele>186.4</ele><time>2026-04-22T09:41:27.666Z</time></trkpt><trkpt lat="46.268159" lon="13.1202314"><ele>186.20000000000002</ele><time>2026-04-22T09:41:29.665Z</time></trkpt><trkpt lat="46.2681889" lon="13.1203448"><ele>186.0</ele><time>2026-04-22T09:41:31.666Z</time></trkpt><trkpt lat="46.2682161" lon="13.1204398"><ele>186.0</ele><time>2026-04-22T09:41:33.665Z</time></trkpt><trkpt lat="46.2682417" lon="13.1205367"><ele>186.0</ele><time>2026-04-22T09:41:35.665Z</time></trkpt><trkpt lat="46.2682687" lon="13.120646"><ele>186.0</ele><time>2026-04-22T09:41:37.665Z</time></trkpt><trkpt lat="46.2683001" lon="13.1207508"><ele>186.0</ele><time>2026-04-22T09:41:39.665Z</time></trkpt><trkpt lat="46.2683319" lon="13.1208648"><ele>186.0</ele><time>2026-04-22T09:41:41.665Z</time></trkpt><trkpt lat="46.2683616" lon="13.1209804"><ele>186.0</ele><time>2026-04-22T09:41:43.665Z</time></trkpt><trkpt lat="46.2683952" lon="13.1210993"><ele>186.0</ele><time>2026-04-22T09:41:45.665Z</time></trkpt><trkpt lat="46.268429" lon="13.1212213"><ele>186.0</ele><time>2026-04-22T09:41:47.665Z</time></trkpt><trkpt lat="46.2684621" lon="13.121341"><ele>186.0</ele><time>2026-04-22T09:41:49.666Z</time></trkpt><trkpt lat="46.2684942" lon="13.1214614"><ele>186.0</ele><time>2026-04-22T09:41:51.665Z</time></trkpt><trkpt lat="46.2685294" lon="13.1215983"><ele>186.0</ele><time>2026-04-22T09:41:53.665Z</time></trkpt><trkpt lat="46.2685718" lon="13.1217542"><ele>186.20000000000002</ele><time>2026-04-22T09:41:55.666Z</time></trkpt><trkpt lat="46.26861" lon="13.121882"><ele>186.4</ele><time>2026-04-22T09:41:57.665Z</time></trkpt><trkpt lat="46.2686498" lon="13.1220113"><ele>186.6</ele><time>2026-04-22T09:41:59.665Z</time></trkpt><trkpt lat="46.2686932" lon="13.1221356"><ele>186.8</ele><time>2026-04-22T09:42:01.665Z</time></trkpt><trkpt lat="46.2687404" lon="13.1222626"><ele>187.0</ele><time>2026-04-22T09:42:03.665Z</time></trkpt><trkpt lat="46.2687908" lon="13.1223814"><ele>187.16666666666669</ele><time>2026-04-22T09:42:05.665Z</time></trkpt><trkpt lat="46.268843" lon="13.122494"><ele>187.33333333333334</ele><time>2026-04-22T09:42:07.665Z</time></trkpt><trkpt lat="46.2688964" lon="13.1225902"><ele>187.5</ele><time>2026-04-22T09:42:09.665Z</time></trkpt><trkpt lat="46.2689451" lon="13.1226791"><ele>187.66666666666666</ele><time>2026-04-22T09:42:11.665Z</time></trkpt><trkpt lat="46.2689957" lon="13.1227746"><ele>187.83333333333331</ele><time>2026-04-22T09:42:13.665Z</time></trkpt><trkpt lat="46.2690532" lon="13.1228772"><ele>188.0</ele><time>2026-04-22T09:42:15.665Z</time></trkpt><trkpt lat="46.2691155" lon="13.1229896"><ele>188.0</ele><time>2026-04-22T09:42:17.665Z</time></trkpt><trkpt lat="46.2691785" lon="13.123097"><ele>188.0</ele><time>2026-04-22T09:42:19.666Z</time></trkpt><trkpt lat="46.2692305" lon="13.1232001"><ele>188.0</ele><time>2026-04-22T09:42:21.666Z</time></trkpt><trkpt lat="46.2692852" lon="13.1233084"><ele>188.0</ele><time>2026-04-22T09:42:23.665Z</time></trkpt><trkpt lat="46.2693487" lon="13.1234209"><ele>188.0</ele><time>2026-04-22T09:42:25.666Z</time></trkpt><trkpt lat="46.2694182" lon="13.12354"><ele>188.2</ele><time>2026-04-22T09:42:27.666Z</time></trkpt><trkpt lat="46.2694915" lon="13.1236668"><ele>188.4</ele><time>2026-04-22T09:42:29.665Z</time></trkpt><trkpt lat="46.2695629" lon="13.1237924"><ele>188.6</ele><time>2026-04-22T09:42:31.666Z</time></trkpt><trkpt lat="46.269642" lon="13.1239341"><ele>188.79999999999998</ele><time>2026-04-22T09:42:33.665Z</time></trkpt><trkpt lat="46.2696819" lon="13.1240055"><ele>189.0</ele><time>2026-04-22T09:42:34.666Z</time></trkpt><trkpt lat="46.269723" lon="13.1240812"><ele>189.0</ele><time>2026-04-22T09:42:35.666Z</time></trkpt><trkpt lat="46.2697634" lon="13.1241585"><ele>189.0</ele><time>2026-04-22T09:42:36.666Z</time></trkpt><trkpt lat="46.2698027" lon="13.1242405"><ele>189.0</ele><time>2026-04-22T09:42:37.665Z</time></trkpt><trkpt lat="46.2698416" lon="13.1243262"><ele>189.0</ele><time>2026-04-22T09:42:38.666Z</time></trkpt><trkpt lat="46.2698783" lon="13.1244102"><ele>189.0</ele><time>2026-04-22T09:42:39.665Z</time></trkpt><trkpt lat="46.269913" lon="13.1244949"><ele>189.0</ele><time>2026-04-22T09:42:40.665Z</time></trkpt><trkpt lat="46.2699495" lon="13.1245778"><ele>189.0</ele><time>2026-04-22T09:42:41.665Z</time></trkpt><trkpt lat="46.2699841" lon="13.1246587"><ele>189.0</ele><time>2026-04-22T09:42:42.665Z</time></trkpt><trkpt lat="46.2700149" lon="13.1247419"><ele>189.0</ele><time>2026-04-22T09:42:43.666Z</time></trkpt><trkpt lat="46.2700481" lon="13.1248256"><ele>189.0</ele><time>2026-04-22T09:42:44.665Z</time></trkpt><trkpt lat="46.2700807" lon="13.1249115"><ele>189.0</ele><time>2026-04-22T09:42:45.665Z</time></trkpt><trkpt lat="46.2701151" lon="13.1249919"><ele>189.0</ele><time>2026-04-22T09:42:46.665Z</time></trkpt><trkpt lat="46.2701498" lon="13.1250713"><ele>189.0</ele><time>2026-04-22T09:42:47.666Z</time></trkpt><trkpt lat="46.2702109" lon="13.1252285"><ele>189.0</ele><time>2026-04-22T09:42:49.665Z</time></trkpt><trkpt lat="46.2702702" lon="13.1253675"><ele>189.0</ele><time>2026-04-22T09:42:51.665Z</time></trkpt><trkpt lat="46.2703266" lon="13.1254827"><ele>189.0</ele><time>2026-04-22T09:42:53.665Z</time></trkpt><trkpt lat="46.2703822" lon="13.1255832"><ele>189.0</ele><time>2026-04-22T09:42:55.665Z</time></trkpt><trkpt lat="46.2704477" lon="13.1256908"><ele>189.0</ele><time>2026-04-22T09:42:57.666Z</time></trkpt><trkpt lat="46.2705195" lon="13.1258038"><ele>189.0</ele><time>2026-04-22T09:42:59.666Z</time></trkpt><trkpt lat="46.2705913" lon="13.1259115"><ele>189.0</ele><time>2026-04-22T09:43:01.666Z</time></trkpt><trkpt lat="46.2706611" lon="13.1260118"><ele>189.0</ele><time>2026-04-22T09:43:03.665Z</time></trkpt><trkpt lat="46.2707371" lon="13.1261097"><ele>189.0</ele><time>2026-04-22T09:43:05.666Z</time></trkpt><trkpt lat="46.2708066" lon="13.1262034"><ele>189.0</ele><time>2026-04-22T09:43:07.665Z</time></trkpt><trkpt lat="46.270872" lon="13.1263072"><ele>188.79999999999998</ele><time>2026-04-22T09:43:09.666Z</time></trkpt><trkpt lat="46.2709323" lon="13.1264124"><ele>188.6</ele><time>2026-04-22T09:43:11.665Z</time></trkpt><trkpt lat="46.2709887" lon="13.1265257"><ele>188.4</ele><time>2026-04-22T09:43:13.667Z</time></trkpt><trkpt lat="46.2710401" lon="13.1266544"><ele>188.2</ele><time>2026-04-22T09:43:15.665Z</time></trkpt><trkpt lat="46.2710819" lon="13.1268043"><ele>188.0</ele><time>2026-04-22T09:43:17.665Z</time></trkpt><trkpt lat="46.2711026" lon="13.1268918"><ele>188.0</ele><time>2026-04-22T09:43:18.665Z</time></trkpt><trkpt lat="46.2711301" lon="13.1270182"><ele>188.0</ele><time>2026-04-22T09:43:19.665Z</time></trkpt><trkpt lat="46.2711572" lon="13.1271303"><ele>188.0</ele><time>2026-04-22T09:43:20.665Z</time></trkpt><trkpt lat="46.2711856" lon="13.1272306"><ele>188.0</ele><time>2026-04-22T09:43:21.665Z</time></trkpt><trkpt lat="46.2712145" lon="13.1273273"><ele>188.0</ele><time>2026-04-22T09:43:22.666Z</time></trkpt><trkpt lat="46.2712394" lon="13.1274185"><ele>188.0</ele><time>2026-04-22T09:43:23.665Z</time></trkpt><trkpt lat="46.271266" lon="13.1275073"><ele>188.0</ele><time>2026-04-22T09:43:24.666Z</time></trkpt><trkpt lat="46.2712946" lon="13.1275917"><ele>188.0</ele><time>2026-04-22T09:43:25.666Z</time></trkpt><trkpt lat="46.2713219" lon="13.1276775"><ele>188.0</ele><time>2026-04-22T09:43:26.665Z</time></trkpt><trkpt lat="46.2713482" lon="13.1277669"><ele>188.0</ele><time>2026-04-22T09:43:27.666Z</time></trkpt><trkpt lat="46.2713743" lon="13.1278552"><ele>188.0</ele><time>2026-04-22T09:43:28.665Z</time></trkpt><trkpt lat="46.2714003" lon="13.1279389"><ele>188.0</ele><time>2026-04-22T09:43:29.666Z</time></trkpt><trkpt lat="46.2714286" lon="13.1280212"><ele>188.0</ele><time>2026-04-22T09:43:30.665Z</time></trkpt><trkpt lat="46.2714801" lon="13.1281774"><ele>188.4</ele><time>2026-04-22T09:43:32.665Z</time></trkpt><trkpt lat="46.2715271" lon="13.1283241"><ele>188.8</ele><time>2026-04-22T09:43:34.665Z</time></trkpt><trkpt lat="46.2715764" lon="13.1284574"><ele>189.2</ele><time>2026-04-22T09:43:36.665Z</time></trkpt><trkpt lat="46.27162" lon="13.128582"><ele>189.6</ele><time>2026-04-22T09:43:38.666Z</time></trkpt><trkpt lat="46.2716581" lon="13.1287083"><ele>190.0</ele><time>2026-04-22T09:43:40.665Z</time></trkpt><trkpt lat="46.2716986" lon="13.1288282"><ele>190.0</ele><time>2026-04-22T09:43:42.665Z</time></trkpt><trkpt lat="46.2717347" lon="13.1289654"><ele>190.0</ele><time>2026-04-22T09:43:44.667Z</time></trkpt><trkpt lat="46.2717648" lon="13.1291093"><ele>190.0</ele><time>2026-04-22T09:43:46.666Z</time></trkpt><trkpt lat="46.2717851" lon="13.1292502"><ele>190.0</ele><time>2026-04-22T09:43:48.666Z</time></trkpt><trkpt lat="46.2718042" lon="13.1294318"><ele>190.0</ele><time>2026-04-22T09:43:50.665Z</time></trkpt><trkpt lat="46.271821" lon="13.1295706"><ele>190.16666666666669</ele><time>2026-04-22T09:43:51.667Z</time></trkpt><trkpt lat="46.2718417" lon="13.1297002"><ele>190.33333333333334</ele><time>2026-04-22T09:43:52.665Z</time></trkpt><trkpt lat="46.2718543" lon="13.1298227"><ele>190.5</ele><time>2026-04-22T09:43:53.665Z</time></trkpt><trkpt lat="46.2718664" lon="13.1299421"><ele>190.66666666666666</ele><time>2026-04-22T09:43:54.665Z</time></trkpt><trkpt lat="46.2718787" lon="13.1300559"><ele>190.83333333333331</ele><time>2026-04-22T09:43:55.665Z</time></trkpt><trkpt lat="46.271893" lon="13.1301703"><ele>191.0</ele><time>2026-04-22T09:43:56.665Z</time></trkpt><trkpt lat="46.2719073" lon="13.1302833"><ele>191.0</ele><time>2026-04-22T09:43:57.665Z</time></trkpt><trkpt lat="46.2719164" lon="13.1303898"><ele>191.0</ele><time>2026-04-22T09:43:58.665Z</time></trkpt><trkpt lat="46.2719226" lon="13.1304863"><ele>191.0</ele><time>2026-04-22T09:43:59.666Z</time></trkpt><trkpt lat="46.2719291" lon="13.1305812"><ele>191.0</ele><time>2026-04-22T09:44:00.666Z</time></trkpt><trkpt lat="46.2719348" lon="13.1306733"><ele>191.0</ele><time>2026-04-22T09:44:01.666Z</time></trkpt><trkpt lat="46.2719383" lon="13.1307672"><ele>191.0</ele><time>2026-04-22T09:44:02.665Z</time></trkpt><trkpt lat="46.2719405" lon="13.130862"><ele>191.0</ele><time>2026-04-22T09:44:03.665Z</time></trkpt><trkpt lat="46.2719405" lon="13.1309584"><ele>191.0</ele><time>2026-04-22T09:44:04.666Z</time></trkpt><trkpt lat="46.2719374" lon="13.1310685"><ele>191.0</ele><time>2026-04-22T09:44:05.665Z</time></trkpt><trkpt lat="46.2719368" lon="13.1311747"><ele>191.0</ele><time>2026-04-22T09:44:06.665Z</time></trkpt><trkpt lat="46.2719431" lon="13.1312832"><ele>191.0</ele><time>2026-04-22T09:44:07.665Z</time></trkpt><trkpt lat="46.2719568" lon="13.1313876"><ele>191.0</ele><time>2026-04-22T09:44:08.665Z</time></trkpt><trkpt lat="46.2719727" lon="13.1314862"><ele>191.0</ele><time>2026-04-22T09:44:09.665Z</time></trkpt><trkpt lat="46.2719911" lon="13.1315829"><ele>191.0</ele><time>2026-04-22T09:44:10.665Z</time></trkpt><trkpt lat="46.27201" lon="13.1316827"><ele>190.83333333333331</ele><time>2026-04-22T09:44:11.665Z</time></trkpt><trkpt lat="46.2720313" lon="13.1317793"><ele>190.66666666666666</ele><time>2026-04-22T09:44:12.666Z</time></trkpt><trkpt lat="46.272054" lon="13.1318747"><ele>190.5</ele><time>2026-04-22T09:44:13.665Z</time></trkpt><trkpt lat="46.2720796" lon="13.1319704"><ele>190.33333333333334</ele><time>2026-04-22T09:44:14.666Z</time></trkpt><trkpt lat="46.2721041" lon="13.1320578"><ele>190.16666666666669</ele><time>2026-04-22T09:44:15.665Z</time></trkpt><trkpt lat="46.2721428" lon="13.1321888"><ele>190.0</ele><time>2026-04-22T09:44:17.665Z</time></trkpt><trkpt lat="46.2722077" lon="13.1323858"><ele>190.0</ele><time>2026-04-22T09:44:19.666Z</time></trkpt><trkpt lat="46.2722501" lon="13.1325261"><ele>190.0</ele><time>2026-04-22T09:44:20.665Z</time></trkpt><trkpt lat="46.2722865" lon="13.1326697"><ele>190.0</ele><time>2026-04-22T09:44:21.665Z</time></trkpt><trkpt lat="46.272311" lon="13.1328014"><ele>190.0</ele><time>2026-04-22T09:44:22.665Z</time></trkpt><trkpt lat="46.2723399" lon="13.1329258"><ele>190.0</ele><time>2026-04-22T09:44:23.666Z</time></trkpt><trkpt lat="46.2723727" lon="13.1330572"><ele>190.25</ele><time>2026-04-22T09:44:24.666Z</time></trkpt><trkpt lat="46.2724034" lon="13.1332155"><ele>190.5</ele><time>2026-04-22T09:44:25.666Z</time></trkpt><trkpt lat="46.2724302" lon="13.1333691"><ele>190.75</ele><time>2026-04-22T09:44:26.666Z</time></trkpt><trkpt lat="46.2724692" lon="13.1335332"><ele>191.0</ele><time>2026-04-22T09:44:27.665Z</time></trkpt><trkpt lat="46.2725226" lon="13.1336814"><ele>191.0</ele><time>2026-04-22T09:44:28.665Z</time></trkpt><trkpt lat="46.2725737" lon="13.1338177"><ele>191.0</ele><time>2026-04-22T09:44:29.666Z</time></trkpt><trkpt lat="46.2726243" lon="13.1339425"><ele>191.0</ele><time>2026-04-22T09:44:30.666Z</time></trkpt><trkpt lat="46.2726747" lon="13.1340533"><ele>191.0</ele><time>2026-04-22T09:44:31.665Z</time></trkpt><trkpt lat="46.2727238" lon="13.1341551"><ele>191.0</ele><time>2026-04-22T09:44:32.665Z</time></trkpt><trkpt lat="46.2727735" lon="13.1342588"><ele>191.0</ele><time>2026-04-22T09:44:33.666Z</time></trkpt><trkpt lat="46.2728145" lon="13.1343573"><ele>191.0</ele><time>2026-04-22T09:44:34.665Z</time></trkpt><trkpt lat="46.2728536" lon="13.1344722"><ele>191.0</ele><time>2026-04-22T09:44:35.665Z</time></trkpt><trkpt lat="46.2729048" lon="13.1345845"><ele>191.0</ele><time>2026-04-22T09:44:36.665Z</time></trkpt><trkpt lat="46.2729631" lon="13.134699"><ele>191.0</ele><time>2026-04-22T09:44:37.665Z</time></trkpt><trkpt lat="46.2730407" lon="13.1348276"><ele>192.0</ele><time>2026-04-22T09:44:38.665Z</time></trkpt><trkpt lat="46.2731323" lon="13.1349541"><ele>193.0</ele><time>2026-04-22T09:44:39.666Z</time></trkpt><trkpt lat="46.2732455" lon="13.135082"><ele>194.0</ele><time>2026-04-22T09:44:40.665Z</time></trkpt><trkpt lat="46.2733535" lon="13.1351824"><ele>195.0</ele><time>2026-04-22T09:44:41.665Z</time></trkpt><trkpt lat="46.2734623" lon="13.1352728"><ele>195.0</ele><time>2026-04-22T09:44:42.665Z</time></trkpt><trkpt lat="46.2735658" lon="13.1353533"><ele>195.0</ele><time>2026-04-22T09:44:43.666Z</time></trkpt><trkpt lat="46.2736626" lon="13.1354383"><ele>195.0</ele><time>2026-04-22T09:44:44.665Z</time></trkpt><trkpt lat="46.2737543" lon="13.1355297"><ele>195.0</ele><time>2026-04-22T09:44:45.666Z</time></trkpt><trkpt lat="46.2738424" lon="13.1356228"><ele>195.2</ele><time>2026-04-22T09:44:46.665Z</time></trkpt><trkpt lat="46.2739293" lon="13.1357288"><ele>195.4</ele><time>2026-04-22T09:44:47.665Z</time></trkpt><trkpt lat="46.2740079" lon="13.1358338"><ele>195.60000000000002</ele><time>2026-04-22T09:44:48.665Z</time></trkpt><trkpt lat="46.274072" lon="13.1359252"><ele>195.8</ele><time>2026-04-22T09:44:49.665Z</time></trkpt><trkpt lat="46.2741289" lon="13.1360094"><ele>196.0</ele><time>2026-04-22T09:44:50.666Z</time></trkpt><trkpt lat="46.274177" lon="13.1360841"><ele>197.66666666666666</ele><time>2026-04-22T09:44:51.665Z</time></trkpt><trkpt lat="46.274222" lon="13.1361489"><ele>199.33333333333331</ele><time>2026-04-22T09:44:52.665Z</time></trkpt><trkpt lat="46.2742734" lon="13.13621"><ele>201.0</ele><time>2026-04-22T09:44:53.665Z</time></trkpt><trkpt lat="46.2743188" lon="13.1362739"><ele>202.66666666666669</ele><time>2026-04-22T09:44:54.665Z</time></trkpt><trkpt lat="46.2744075" lon="13.1364015"><ele>204.33333333333334</ele><time>2026-04-22T09:44:56.665Z</time></trkpt><trkpt lat="46.2744581" lon="13.1364643"><ele>206.0</ele><time>2026-04-22T09:44:57.665Z</time></trkpt><trkpt lat="46.274496" lon="13.1365405"><ele>206.33333333333334</ele><time>2026-04-22T09:44:58.666Z</time></trkpt><trkpt lat="46.2745231" lon="13.1366389"><ele>206.66666666666669</ele><time>2026-04-22T09:44:59.665Z</time></trkpt><trkpt lat="46.274545" lon="13.1367668"><ele>207.0</ele><time>2026-04-22T09:45:00.665Z</time></trkpt><trkpt lat="46.2745534" lon="13.1368839"><ele>207.33333333333331</ele><time>2026-04-22T09:45:01.665Z</time></trkpt><trkpt lat="46.274554" lon="13.1370017"><ele>207.66666666666666</ele><time>2026-04-22T09:45:02.666Z</time></trkpt><trkpt lat="46.2745395" lon="13.1371345"><ele>208.0</ele><time>2026-04-22T09:45:03.665Z</time></trkpt><trkpt lat="46.274516" lon="13.1372936"><ele>208.60000000000002</ele><time>2026-04-22T09:45:04.666Z</time></trkpt><trkpt lat="46.27449" lon="13.1374467"><ele>209.20000000000002</ele><time>2026-04-22T09:45:05.665Z</time></trkpt><trkpt lat="46.2744644" lon="13.137603"><ele>209.8</ele><time>2026-04-22T09:45:06.666Z</time></trkpt><trkpt lat="46.2744437" lon="13.1377594"><ele>210.4</ele><time>2026-04-22T09:45:07.666Z</time></trkpt><trkpt lat="46.2744187" lon="13.1379134"><ele>211.0</ele><time>2026-04-22T09:45:08.665Z</time></trkpt><trkpt lat="46.2743913" lon="13.1380628"><ele>211.0</ele><time>2026-04-22T09:45:09.665Z</time></trkpt><trkpt lat="46.2743636" lon="13.1382104"><ele>211.0</ele><time>2026-04-22T09:45:10.665Z</time></trkpt><trkpt lat="46.274334" lon="13.1383685"><ele>211.0</ele><time>2026-04-22T09:45:11.665Z</time></trkpt><trkpt lat="46.2743088" lon="13.1385152"><ele>211.0</ele><time>2026-04-22T09:45:12.667Z</time></trkpt><trkpt lat="46.274297" lon="13.1386554"><ele>211.0</ele><time>2026-04-22T09:45:13.665Z</time></trkpt><trkpt lat="46.2743072" lon="13.1388035"><ele>212.0</ele><time>2026-04-22T09:45:14.666Z</time></trkpt><trkpt lat="46.2743443" lon="13.1389744"><ele>213.0</ele><time>2026-04-22T09:45:15.666Z</time></trkpt><trkpt lat="46.2743979" lon="13.1391418"><ele>214.0</ele><time>2026-04-22T09:45:16.665Z</time></trkpt><trkpt lat="46.274444" lon="13.1392842"><ele>215.0</ele><time>2026-04-22T09:45:17.665Z</time></trkpt><trkpt lat="46.2744848" lon="13.1394242"><ele>216.5</ele><time>2026-04-22T09:45:18.665Z</time></trkpt><trkpt lat="46.2745183" lon="13.1395694"><ele>218.0</ele><time>2026-04-22T09:45:19.666Z</time></trkpt><trkpt lat="46.274534" lon="13.1397197"><ele>219.5</ele><time>2026-04-22T09:45:20.666Z</time></trkpt><trkpt lat="46.2745333" lon="13.1398903"><ele>221.0</ele><time>2026-04-22T09:45:21.665Z</time></trkpt><trkpt lat="46.2745184" lon="13.1400672"><ele>222.8</ele><time>2026-04-22T09:45:22.665Z</time></trkpt><trkpt lat="46.2745068" lon="13.1402158"><ele>224.60000000000002</ele><time>2026-04-22T09:45:23.666Z</time></trkpt><trkpt lat="46.274493" lon="13.1403592"><ele>226.4</ele><time>2026-04-22T09:45:24.665Z</time></trkpt><trkpt lat="46.2744762" lon="13.140498"><ele>228.2</ele><time>2026-04-22T09:45:25.667Z</time></trkpt><trkpt lat="46.2744646" lon="13.1406387"><ele>230.0</ele><time>2026-04-22T09:45:26.665Z</time></trkpt><trkpt lat="46.2744636" lon="13.1407839"><ele>230.75</ele><time>2026-04-22T09:45:27.665Z</time></trkpt><trkpt lat="46.2744837" lon="13.1409391"><ele>231.5</ele><time>2026-04-22T09:45:28.665Z</time></trkpt><trkpt lat="46.2745248" lon="13.1411179"><ele>232.25</ele><time>2026-04-22T09:45:29.665Z</time></trkpt><trkpt lat="46.2745669" lon="13.1412769"><ele>233.0</ele><time>2026-04-22T09:45:30.665Z</time></trkpt><trkpt lat="46.2746006" lon="13.1414389"><ele>232.4</ele><time>2026-04-22T09:45:31.665Z</time></trkpt><trkpt lat="46.2746239" lon="13.1415935"><ele>231.8</ele><time>2026-04-22T09:45:32.665Z</time></trkpt><trkpt lat="46.2746276" lon="13.1417482"><ele>231.2</ele><time>2026-04-22T09:45:33.665Z</time></trkpt><trkpt lat="46.2746282" lon="13.1418917"><ele>230.6</ele><time>2026-04-22T09:45:34.665Z</time></trkpt><trkpt lat="46.2746421" lon="13.1420226"><ele>230.0</ele><time>2026-04-22T09:45:35.665Z</time></trkpt><trkpt lat="46.2746747" lon="13.1421378"><ele>230.0</ele><time>2026-04-22T09:45:36.666Z</time></trkpt><trkpt lat="46.2747304" lon="13.1422419"><ele>230.0</ele><time>2026-04-22T09:45:37.665Z</time></trkpt><trkpt lat="46.274807" lon="13.142339"><ele>230.0</ele><time>2026-04-22T09:45:38.665Z</time></trkpt><trkpt lat="46.2748936" lon="13.1424606"><ele>230.0</ele><time>2026-04-22T09:45:39.665Z</time></trkpt><trkpt lat="46.2749715" lon="13.14258"><ele>230.0</ele><time>2026-04-22T09:45:40.665Z</time></trkpt><trkpt lat="46.275046" lon="13.1426772"><ele>233.00000000000003</ele><time>2026-04-22T09:45:41.666Z</time></trkpt><trkpt lat="46.2751109" lon="13.1427598"><ele>236.0</ele><time>2026-04-22T09:45:42.666Z</time></trkpt><trkpt lat="46.2751767" lon="13.1428175"><ele>239.0</ele><time>2026-04-22T09:45:43.665Z</time></trkpt><trkpt lat="46.2752403" lon="13.1428473"><ele>242.0</ele><time>2026-04-22T09:45:44.665Z</time></trkpt><trkpt lat="46.2753272" lon="13.1428661"><ele>245.00000000000003</ele><time>2026-04-22T09:45:46.664Z</time></trkpt><trkpt lat="46.2754128" lon="13.1428472"><ele>248.0</ele><time>2026-04-22T09:45:49.664Z</time></trkpt><trkpt lat="46.2754602" lon="13.1427174"><ele>248.0</ele><time>2026-04-22T09:45:51.664Z</time></trkpt><trkpt lat="46.2754684" lon="13.1426078"><ele>248.0</ele><time>2026-04-22T09:45:52.664Z</time></trkpt><trkpt lat="46.275473" lon="13.1424944"><ele>248.0</ele><time>2026-04-22T09:45:53.664Z</time></trkpt><trkpt lat="46.2754808" lon="13.1423965"><ele>248.0</ele><time>2026-04-22T09:45:54.666Z</time></trkpt><trkpt lat="46.2755085" lon="13.1422366"><ele>248.0</ele><time>2026-04-22T09:45:56.664Z</time></trkpt><trkpt lat="46.2755566" lon="13.142079"><ele>248.66666666666669</ele><time>2026-04-22T09:45:58.666Z</time></trkpt><trkpt lat="46.2755871" lon="13.141979"><ele>249.33333333333334</ele><time>2026-04-22T09:45:59.664Z</time></trkpt><trkpt lat="46.2756163" lon="13.1418893"><ele>250.0</ele><time>2026-04-22T09:46:00.666Z</time></trkpt><trkpt lat="46.2756497" lon="13.1418038"><ele>250.66666666666669</ele><time>2026-04-22T09:46:01.664Z</time></trkpt><trkpt lat="46.2756851" lon="13.141727"><ele>251.33333333333334</ele><time>2026-04-22T09:46:02.664Z</time></trkpt><trkpt lat="46.2757833" lon="13.1416145"><ele>252.0</ele><time>2026-04-22T09:46:04.665Z</time></trkpt><trkpt lat="46.27584" lon="13.1415717"><ele>254.33333333333334</ele><time>2026-04-22T09:46:05.665Z</time></trkpt><trkpt lat="46.2759003" lon="13.1415319"><ele>256.6666666666667</ele><time>2026-04-22T09:46:06.664Z</time></trkpt><trkpt lat="46.2760066" lon="13.1414371"><ele>259.0</ele><time>2026-04-22T09:46:08.664Z</time></trkpt><trkpt lat="46.2760531" lon="13.1413642"><ele>261.33333333333337</ele><time>2026-04-22T09:46:09.664Z</time></trkpt><trkpt lat="46.2760925" lon="13.1412841"><ele>263.6666666666667</ele><time>2026-04-22T09:46:10.664Z</time></trkpt><trkpt lat="46.2761319" lon="13.1412082"><ele>266.0</ele><time>2026-04-22T09:46:11.664Z</time></trkpt><trkpt lat="46.2762055" lon="13.1410508"><ele>266.0</ele><time>2026-04-22T09:46:13.664Z</time></trkpt><trkpt lat="46.2762429" lon="13.1409715"><ele>266.0</ele><time>2026-04-22T09:46:14.664Z</time></trkpt><trkpt lat="46.2762822" lon="13.1408933"><ele>266.0</ele><time>2026-04-22T09:46:15.664Z</time></trkpt><trkpt lat="46.2763282" lon="13.1408285"><ele>266.0</ele><time>2026-04-22T09:46:16.664Z</time></trkpt><trkpt lat="46.2763825" lon="13.140757"><ele>266.0</ele><time>2026-04-22T09:46:17.664Z</time></trkpt><trkpt lat="46.2764817" lon="13.1406603"><ele>266.0</ele><time>2026-04-22T09:46:19.664Z</time></trkpt><trkpt lat="46.2765634" lon="13.1405814"><ele>267.83333333333337</ele><time>2026-04-22T09:46:21.664Z</time></trkpt><trkpt lat="46.2766261" lon="13.1404948"><ele>269.6666666666667</ele><time>2026-04-22T09:46:23.664Z</time></trkpt><trkpt lat="46.2767141" lon="13.1404395"><ele>271.5</ele><time>2026-04-22T09:46:25.664Z</time></trkpt><trkpt lat="46.2767851" lon="13.14039"><ele>273.3333333333333</ele><time>2026-04-22T09:46:27.665Z</time></trkpt><trkpt lat="46.2768551" lon="13.1403561"><ele>275.16666666666663</ele><time>2026-04-22T09:46:29.665Z</time></trkpt><trkpt lat="46.2769287" lon="13.1403064"><ele>277.0</ele><time>2026-04-22T09:46:32.665Z</time></trkpt><trkpt lat="46.277002" lon="13.140231"><ele>277.0</ele><time>2026-04-22T09:46:34.664Z</time></trkpt><trkpt lat="46.2770603" lon="13.1401816"><ele>277.0</ele><time>2026-04-22T09:46:35.664Z</time></trkpt><trkpt lat="46.2771215" lon="13.1401379"><ele>277.0</ele><time>2026-04-22T09:46:36.664Z</time></trkpt><trkpt lat="46.2771912" lon="13.1401021"><ele>277.0</ele><time>2026-04-22T09:46:37.665Z</time></trkpt><trkpt lat="46.277255" lon="13.1400745"><ele>277.0</ele><time>2026-04-22T09:46:38.664Z</time></trkpt><trkpt lat="46.2773916" lon="13.1400466"><ele>277.0</ele><time>2026-04-22T09:46:40.665Z</time></trkpt><trkpt lat="46.2774555" lon="13.1400064"><ele>276.6</ele><time>2026-04-22T09:46:41.664Z</time></trkpt><trkpt lat="46.2775747" lon="13.1399725"><ele>276.2</ele><time>2026-04-22T09:46:43.664Z</time></trkpt><trkpt lat="46.2776812" lon="13.1399538"><ele>275.8</ele><time>2026-04-22T09:46:45.664Z</time></trkpt><trkpt lat="46.2777911" lon="13.139947"><ele>275.4</ele><time>2026-04-22T09:46:47.665Z</time></trkpt><trkpt lat="46.277889" lon="13.1399322"><ele>275.0</ele><time>2026-04-22T09:46:49.665Z</time></trkpt><trkpt lat="46.2779596" lon="13.1399118"><ele>274.6</ele><time>2026-04-22T09:46:51.665Z</time></trkpt><trkpt lat="46.2780332" lon="13.1398563"><ele>274.2</ele><time>2026-04-22T09:46:53.664Z</time></trkpt><trkpt lat="46.2781049" lon="13.1397999"><ele>273.8</ele><time>2026-04-22T09:46:55.664Z</time></trkpt><trkpt lat="46.2782103" lon="13.1397654"><ele>273.4</ele><time>2026-04-22T09:46:57.664Z</time></trkpt><trkpt lat="46.2783197" lon="13.1396985"><ele>273.0</ele><time>2026-04-22T09:46:59.664Z</time></trkpt><trkpt lat="46.2784269" lon="13.1396241"><ele>273.0</ele><time>2026-04-22T09:47:01.665Z</time></trkpt><trkpt lat="46.278534" lon="13.1395448"><ele>273.0</ele><time>2026-04-22T09:47:03.665Z</time></trkpt><trkpt lat="46.278629" lon="13.1394589"><ele>273.0</ele><time>2026-04-22T09:47:05.665Z</time></trkpt><trkpt lat="46.2787184" lon="13.1393768"><ele>273.0</ele><time>2026-04-22T09:47:07.665Z</time></trkpt><trkpt lat="46.2788024" lon="13.1392898"><ele>273.0</ele><time>2026-04-22T09:47:09.664Z</time></trkpt><trkpt lat="46.2788814" lon="13.1392308"><ele>273.0</ele><time>2026-04-22T09:47:12.664Z</time></trkpt><trkpt lat="46.2789709" lon="13.1391549"><ele>273.0</ele><time>2026-04-22T09:47:14.665Z</time></trkpt><trkpt lat="46.2790278" lon="13.1390894"><ele>273.0</ele><time>2026-04-22T09:47:15.665Z</time></trkpt><trkpt lat="46.2790805" lon="13.1390126"><ele>273.0</ele><time>2026-04-22T09:47:16.665Z</time></trkpt><trkpt lat="46.279137" lon="13.138926"><ele>273.0</ele><time>2026-04-22T09:47:17.664Z</time></trkpt><trkpt lat="46.279188" lon="13.1388462"><ele>273.0</ele><time>2026-04-22T09:47:18.665Z</time></trkpt><trkpt lat="46.2792355" lon="13.1387692"><ele>273.0</ele><time>2026-04-22T09:47:19.665Z</time></trkpt><trkpt lat="46.2792829" lon="13.138697"><ele>273.0</ele><time>2026-04-22T09:47:20.664Z</time></trkpt><trkpt lat="46.2793304" lon="13.1386275"><ele>273.0</ele><time>2026-04-22T09:47:21.664Z</time></trkpt><trkpt lat="46.2793811" lon="13.1385609"><ele>273.0</ele><time>2026-04-22T09:47:22.665Z</time></trkpt><trkpt lat="46.2794313" lon="13.1384934"><ele>273.0</ele><time>2026-04-22T09:47:23.665Z</time></trkpt><trkpt lat="46.2794822" lon="13.1384222"><ele>273.0</ele><time>2026-04-22T09:47:24.664Z</time></trkpt><trkpt lat="46.2795378" lon="13.1383443"><ele>273.0</ele><time>2026-04-22T09:47:25.664Z</time></trkpt><trkpt lat="46.2795936" lon="13.1382522"><ele>272.8333333333333</ele><time>2026-04-22T09:47:26.664Z</time></trkpt><trkpt lat="46.2796445" lon="13.1381708"><ele>272.6666666666667</ele><time>2026-04-22T09:47:27.665Z</time></trkpt><trkpt lat="46.2796937" lon="13.1380994"><ele>272.5</ele><time>2026-04-22T09:47:28.664Z</time></trkpt><trkpt lat="46.279787" lon="13.1379907"><ele>272.33333333333337</ele><time>2026-04-22T09:47:30.664Z</time></trkpt><trkpt lat="46.2798344" lon="13.1379151"><ele>272.1666666666667</ele><time>2026-04-22T09:47:31.665Z</time></trkpt><trkpt lat="46.2798877" lon="13.1378338"><ele>272.0</ele><time>2026-04-22T09:47:32.664Z</time></trkpt><trkpt lat="46.2799385" lon="13.1377731"><ele>271.99999999999994</ele><time>2026-04-22T09:47:33.665Z</time></trkpt><trkpt lat="46.2799895" lon="13.1377127"><ele>272.0</ele><time>2026-04-22T09:47:34.664Z</time></trkpt><trkpt lat="46.280042" lon="13.1376489"><ele>272.0</ele><time>2026-04-22T09:47:35.664Z</time></trkpt><trkpt lat="46.2800929" lon="13.1375814"><ele>272.0</ele><time>2026-04-22T09:47:36.664Z</time></trkpt><trkpt lat="46.2801395" lon="13.1375023"><ele>272.0</ele><time>2026-04-22T09:47:37.665Z</time></trkpt><trkpt lat="46.2801792" lon="13.1374145"><ele>271.99999999999994</ele><time>2026-04-22T09:47:38.665Z</time></trkpt><trkpt lat="46.2802112" lon="13.1373262"><ele>272.0</ele><time>2026-04-22T09:47:39.664Z</time></trkpt><trkpt lat="46.2802423" lon="13.1372419"><ele>270.4285714285714</ele><time>2026-04-22T09:47:40.664Z</time></trkpt><trkpt lat="46.2802688" lon="13.1371528"><ele>268.85714285714283</ele><time>2026-04-22T09:47:41.664Z</time></trkpt><trkpt lat="46.2802984" lon="13.1370668"><ele>267.2857142857143</ele><time>2026-04-22T09:47:42.664Z</time></trkpt><trkpt lat="46.2803333" lon="13.1369895"><ele>265.71428571428567</ele><time>2026-04-22T09:47:43.665Z</time></trkpt><trkpt lat="46.2803734" lon="13.1369147"><ele>264.1428571428571</ele><time>2026-04-22T09:47:44.664Z</time></trkpt><trkpt lat="46.2804287" lon="13.1368452"><ele>262.57142857142856</ele><time>2026-04-22T09:47:45.664Z</time></trkpt><trkpt lat="46.2805064" lon="13.1367619"><ele>261.0</ele><time>2026-04-22T09:47:46.665Z</time></trkpt><trkpt lat="46.2805735" lon="13.1366889"><ele>260.8333333333333</ele><time>2026-04-22T09:47:47.664Z</time></trkpt><trkpt lat="46.2806378" lon="13.1366139"><ele>260.6666666666667</ele><time>2026-04-22T09:47:48.664Z</time></trkpt><trkpt lat="46.2807013" lon="13.1365391"><ele>260.5</ele><time>2026-04-22T09:47:49.664Z</time></trkpt><trkpt lat="46.2807645" lon="13.1364648"><ele>260.33333333333337</ele><time>2026-04-22T09:47:50.664Z</time></trkpt><trkpt lat="46.2808276" lon="13.1363858"><ele>260.1666666666667</ele><time>2026-04-22T09:47:51.664Z</time></trkpt><trkpt lat="46.2808903" lon="13.1363019"><ele>260.0</ele><time>2026-04-22T09:47:52.664Z</time></trkpt><trkpt lat="46.2809601" lon="13.1362183"><ele>260.0</ele><time>2026-04-22T09:47:53.665Z</time></trkpt><trkpt lat="46.2810323" lon="13.1361361"><ele>260.0</ele><time>2026-04-22T09:47:54.664Z</time></trkpt><trkpt lat="46.2811007" lon="13.1360596"><ele>260.0</ele><time>2026-04-22T09:47:55.664Z</time></trkpt><trkpt lat="46.281171" lon="13.1359792"><ele>260.0</ele><time>2026-04-22T09:47:56.665Z</time></trkpt><trkpt lat="46.2812387" lon="13.1358977"><ele>260.0</ele><time>2026-04-22T09:47:57.665Z</time></trkpt><trkpt lat="46.2813051" lon="13.1358167"><ele>260.0</ele><time>2026-04-22T09:47:58.664Z</time></trkpt><trkpt lat="46.2813724" lon="13.135734"><ele>258.8</ele><time>2026-04-22T09:47:59.665Z</time></trkpt><trkpt lat="46.2814389" lon="13.13565"><ele>257.6</ele><time>2026-04-22T09:48:00.665Z</time></trkpt><trkpt lat="46.2815056" lon="13.1355687"><ele>256.4</ele><time>2026-04-22T09:48:01.664Z</time></trkpt><trkpt lat="46.281575" lon="13.1354864"><ele>255.2</ele><time>2026-04-22T09:48:02.664Z</time></trkpt><trkpt lat="46.2816482" lon="13.1354031"><ele>254.0</ele><time>2026-04-22T09:48:03.666Z</time></trkpt><trkpt lat="46.2817228" lon="13.1353136"><ele>254.0</ele><time>2026-04-22T09:48:04.664Z</time></trkpt><trkpt lat="46.2817976" lon="13.1352213"><ele>253.99999999999997</ele><time>2026-04-22T09:48:05.664Z</time></trkpt><trkpt lat="46.281875" lon="13.1351257"><ele>253.99999999999997</ele><time>2026-04-22T09:48:06.664Z</time></trkpt><trkpt lat="46.2819538" lon="13.1350246"><ele>254.0</ele><time>2026-04-22T09:48:07.664Z</time></trkpt><trkpt lat="46.2820329" lon="13.1349234"><ele>254.0</ele><time>2026-04-22T09:48:08.664Z</time></trkpt><trkpt lat="46.2821176" lon="13.1348215"><ele>253.39999999999998</ele><time>2026-04-22T09:48:09.664Z</time></trkpt><trkpt lat="46.2822023" lon="13.1347247"><ele>252.79999999999998</ele><time>2026-04-22T09:48:10.664Z</time></trkpt><trkpt lat="46.2822896" lon="13.1346333"><ele>252.20000000000002</ele><time>2026-04-22T09:48:11.666Z</time></trkpt><trkpt lat="46.2823747" lon="13.1345536"><ele>251.60000000000002</ele><time>2026-04-22T09:48:12.664Z</time></trkpt><trkpt lat="46.282463" lon="13.1344795"><ele>251.0</ele><time>2026-04-22T09:48:13.664Z</time></trkpt><trkpt lat="46.2825531" lon="13.1344097"><ele>251.0</ele><time>2026-04-22T09:48:14.665Z</time></trkpt><trkpt lat="46.2826447" lon="13.1343349"><ele>251.00000000000003</ele><time>2026-04-22T09:48:15.664Z</time></trkpt><trkpt lat="46.2827398" lon="13.1342636"><ele>251.00000000000003</ele><time>2026-04-22T09:48:16.664Z</time></trkpt><trkpt lat="46.2828378" lon="13.1341919"><ele>251.0</ele><time>2026-04-22T09:48:17.664Z</time></trkpt><trkpt lat="46.2829353" lon="13.1341179"><ele>251.0</ele><time>2026-04-22T09:48:18.665Z</time></trkpt><trkpt lat="46.2830322" lon="13.1340389"><ele>249.75</ele><time>2026-04-22T09:48:19.664Z</time></trkpt><trkpt lat="46.2831298" lon="13.1339589"><ele>248.5</ele><time>2026-04-22T09:48:20.664Z</time></trkpt><trkpt lat="46.2832269" lon="13.1338781"><ele>247.25</ele><time>2026-04-22T09:48:21.664Z</time></trkpt><trkpt lat="46.2833388" lon="13.1337908"><ele>246.0</ele><time>2026-04-22T09:48:22.665Z</time></trkpt><trkpt lat="46.2834507" lon="13.1337031"><ele>246.0</ele><time>2026-04-22T09:48:23.664Z</time></trkpt><trkpt lat="46.2835533" lon="13.1336239"><ele>246.00000000000003</ele><time>2026-04-22T09:48:24.665Z</time></trkpt><trkpt lat="46.2836528" lon="13.1335452"><ele>246.00000000000003</ele><time>2026-04-22T09:48:25.664Z</time></trkpt><trkpt lat="46.2837505" lon="13.1334715"><ele>246.0</ele><time>2026-04-22T09:48:26.665Z</time></trkpt><trkpt lat="46.2838455" lon="13.1333982"><ele>246.0</ele><time>2026-04-22T09:48:27.664Z</time></trkpt><trkpt lat="46.2839379" lon="13.1333264"><ele>246.8</ele><time>2026-04-22T09:48:28.664Z</time></trkpt><trkpt lat="46.2840296" lon="13.1332528"><ele>247.60000000000002</ele><time>2026-04-22T09:48:29.664Z</time></trkpt><trkpt lat="46.2841202" lon="13.13318"><ele>248.4</ele><time>2026-04-22T09:48:30.665Z</time></trkpt><trkpt lat="46.2842097" lon="13.1331084"><ele>249.2</ele><time>2026-04-22T09:48:31.664Z</time></trkpt><trkpt lat="46.2843002" lon="13.1330386"><ele>250.0</ele><time>2026-04-22T09:48:32.664Z</time></trkpt><trkpt lat="46.2843917" lon="13.132974"><ele>248.6</ele><time>2026-04-22T09:48:33.665Z</time></trkpt><trkpt lat="46.2844859" lon="13.1329137"><ele>247.2</ele><time>2026-04-22T09:48:34.665Z</time></trkpt><trkpt lat="46.2845796" lon="13.1328608"><ele>245.8</ele><time>2026-04-22T09:48:35.664Z</time></trkpt><trkpt lat="46.2846771" lon="13.1328136"><ele>244.4</ele><time>2026-04-22T09:48:36.665Z</time></trkpt><trkpt lat="46.2847766" lon="13.1327689"><ele>243.0</ele><time>2026-04-22T09:48:37.664Z</time></trkpt><trkpt lat="46.2848781" lon="13.1327254"><ele>243.0</ele><time>2026-04-22T09:48:38.664Z</time></trkpt><trkpt lat="46.2849812" lon="13.1326824"><ele>243.0</ele><time>2026-04-22T09:48:39.665Z</time></trkpt><trkpt lat="46.2850806" lon="13.1326409"><ele>243.0</ele><time>2026-04-22T09:48:40.664Z</time></trkpt><trkpt lat="46.2851737" lon="13.1325979"><ele>243.0</ele><time>2026-04-22T09:48:41.664Z</time></trkpt><trkpt lat="46.2852632" lon="13.132558"><ele>243.0</ele><time>2026-04-22T09:48:42.664Z</time></trkpt><trkpt lat="46.2853541" lon="13.1325198"><ele>243.0</ele><time>2026-04-22T09:48:43.664Z</time></trkpt><trkpt lat="46.2854438" lon="13.1324806"><ele>243.0</ele><time>2026-04-22T09:48:44.665Z</time></trkpt><trkpt lat="46.2855271" lon="13.1324439"><ele>243.0</ele><time>2026-04-22T09:48:45.664Z</time></trkpt><trkpt lat="46.2856094" lon="13.132408"><ele>243.0</ele><time>2026-04-22T09:48:46.665Z</time></trkpt><trkpt lat="46.2856883" lon="13.1323757"><ele>243.0</ele><time>2026-04-22T09:48:47.665Z</time></trkpt><trkpt lat="46.2857645" lon="13.1323377"><ele>243.0</ele><time>2026-04-22T09:48:48.664Z</time></trkpt><trkpt lat="46.2858439" lon="13.1323012"><ele>240.75</ele><time>2026-04-22T09:48:49.664Z</time></trkpt><trkpt lat="46.2859331" lon="13.1322611"><ele>238.5</ele><time>2026-04-22T09:48:50.664Z</time></trkpt><trkpt lat="46.2860479" lon="13.1322138"><ele>236.25</ele><time>2026-04-22T09:48:51.664Z</time></trkpt><trkpt lat="46.2861659" lon="13.1321647"><ele>234.0</ele><time>2026-04-22T09:48:52.664Z</time></trkpt><trkpt lat="46.2862884" lon="13.1321083"><ele>234.0</ele><time>2026-04-22T09:48:53.665Z</time></trkpt><trkpt lat="46.2864092" lon="13.1320477"><ele>234.0</ele><time>2026-04-22T09:48:54.665Z</time></trkpt><trkpt lat="46.2865309" lon="13.1319938"><ele>234.0</ele><time>2026-04-22T09:48:55.664Z</time></trkpt><trkpt lat="46.2866534" lon="13.1319421"><ele>234.0</ele><time>2026-04-22T09:48:56.664Z</time></trkpt><trkpt lat="46.2867753" lon="13.1318896"><ele>234.0</ele><time>2026-04-22T09:48:57.664Z</time></trkpt><trkpt lat="46.286896" lon="13.1318381"><ele>234.0</ele><time>2026-04-22T09:48:58.665Z</time></trkpt><trkpt lat="46.2870169" lon="13.1317881"><ele>234.0</ele><time>2026-04-22T09:48:59.665Z</time></trkpt><trkpt lat="46.2871373" lon="13.1317362"><ele>234.0</ele><time>2026-04-22T09:49:00.664Z</time></trkpt><trkpt lat="46.2872563" lon="13.1316842"><ele>232.75</ele><time>2026-04-22T09:49:01.664Z</time></trkpt><trkpt lat="46.2873766" lon="13.1316329"><ele>231.5</ele><time>2026-04-22T09:49:02.665Z</time></trkpt><trkpt lat="46.2874956" lon="13.1315785"><ele>230.25</ele><time>2026-04-22T09:49:03.665Z</time></trkpt><trkpt lat="46.2876134" lon="13.1315244"><ele>229.0</ele><time>2026-04-22T09:49:04.664Z</time></trkpt><trkpt lat="46.2877315" lon="13.1314712"><ele>227.25</ele><time>2026-04-22T09:49:05.665Z</time></trkpt><trkpt lat="46.2878475" lon="13.1314163"><ele>225.5</ele><time>2026-04-22T09:49:06.665Z</time></trkpt><trkpt lat="46.2879662" lon="13.1313655"><ele>223.75</ele><time>2026-04-22T09:49:07.664Z</time></trkpt><trkpt lat="46.2880847" lon="13.1313165"><ele>222.0</ele><time>2026-04-22T09:49:08.664Z</time></trkpt><trkpt lat="46.2882032" lon="13.1312662"><ele>221.75</ele><time>2026-04-22T09:49:09.664Z</time></trkpt><trkpt lat="46.2883224" lon="13.1312133"><ele>221.5</ele><time>2026-04-22T09:49:10.664Z</time></trkpt><trkpt lat="46.2884392" lon="13.1311563"><ele>221.25</ele><time>2026-04-22T09:49:11.665Z</time></trkpt><trkpt lat="46.2885557" lon="13.1311023"><ele>221.0</ele><time>2026-04-22T09:49:12.665Z</time></trkpt><trkpt lat="46.288675" lon="13.1310531"><ele>221.0</ele><time>2026-04-22T09:49:13.664Z</time></trkpt><trkpt lat="46.2887942" lon="13.1310048"><ele>221.0</ele><time>2026-04-22T09:49:14.664Z</time></trkpt><trkpt lat="46.2889148" lon="13.1309539"><ele>221.0</ele><time>2026-04-22T09:49:15.664Z</time></trkpt><trkpt lat="46.2890369" lon="13.1308971"><ele>221.0</ele><time>2026-04-22T09:49:16.664Z</time></trkpt><trkpt lat="46.2891573" lon="13.1308419"><ele>221.75</ele><time>2026-04-22T09:49:17.664Z</time></trkpt><trkpt lat="46.2892767" lon="13.1307889"><ele>222.5</ele><time>2026-04-22T09:49:18.664Z</time></trkpt><trkpt lat="46.289394" lon="13.13074"><ele>223.25</ele><time>2026-04-22T09:49:19.665Z</time></trkpt><trkpt lat="46.28951" lon="13.1306904"><ele>224.0</ele><time>2026-04-22T09:49:20.666Z</time></trkpt><trkpt lat="46.2896269" lon="13.1306402"><ele>222.5</ele><time>2026-04-22T09:49:21.664Z</time></trkpt><trkpt lat="46.2897383" lon="13.1305922"><ele>221.0</ele><time>2026-04-22T09:49:22.664Z</time></trkpt><trkpt lat="46.2898477" lon="13.1305448"><ele>219.5</ele><time>2026-04-22T09:49:23.665Z</time></trkpt><trkpt lat="46.2899564" lon="13.1305006"><ele>218.0</ele><time>2026-04-22T09:49:24.664Z</time></trkpt><trkpt lat="46.2900621" lon="13.1304525"><ele>218.0</ele><time>2026-04-22T09:49:25.664Z</time></trkpt><trkpt lat="46.2901747" lon="13.1303947"><ele>218.0</ele><time>2026-04-22T09:49:26.664Z</time></trkpt><trkpt lat="46.2902944" lon="13.13033"><ele>218.0</ele><time>2026-04-22T09:49:27.664Z</time></trkpt><trkpt lat="46.290407" lon="13.1302471"><ele>218.0</ele><time>2026-04-22T09:49:28.665Z</time></trkpt><trkpt lat="46.2904982" lon="13.1301377"><ele>218.0</ele><time>2026-04-22T09:49:29.666Z</time></trkpt><trkpt lat="46.2905722" lon="13.1300108"><ele>218.0</ele><time>2026-04-22T09:49:30.665Z</time></trkpt><trkpt lat="46.2906265" lon="13.1298625"><ele>218.0</ele><time>2026-04-22T09:49:31.665Z</time></trkpt><trkpt lat="46.2906585" lon="13.1297032"><ele>218.0</ele><time>2026-04-22T09:49:32.664Z</time></trkpt><trkpt lat="46.2906751" lon="13.1295359"><ele>217.0</ele><time>2026-04-22T09:49:33.664Z</time></trkpt><trkpt lat="46.2906842" lon="13.1293627"><ele>216.0</ele><time>2026-04-22T09:49:34.664Z</time></trkpt><trkpt lat="46.2906932" lon="13.129186"><ele>215.0</ele><time>2026-04-22T09:49:35.665Z</time></trkpt><trkpt lat="46.2907031" lon="13.1290015"><ele>214.0</ele><time>2026-04-22T09:49:36.666Z</time></trkpt><trkpt lat="46.2907117" lon="13.1288143"><ele>214.0</ele><time>2026-04-22T09:49:37.664Z</time></trkpt><trkpt lat="46.290721" lon="13.1286228"><ele>214.0</ele><time>2026-04-22T09:49:38.664Z</time></trkpt><trkpt lat="46.2907325" lon="13.1284288"><ele>214.0</ele><time>2026-04-22T09:49:39.664Z</time></trkpt><trkpt lat="46.2907411" lon="13.1282362"><ele>214.0</ele><time>2026-04-22T09:49:40.665Z</time></trkpt><trkpt lat="46.2907494" lon="13.1280433"><ele>213.25</ele><time>2026-04-22T09:49:41.664Z</time></trkpt><trkpt lat="46.2907575" lon="13.1278536"><ele>212.5</ele><time>2026-04-22T09:49:42.665Z</time></trkpt><trkpt lat="46.2907643" lon="13.1276644"><ele>211.75</ele><time>2026-04-22T09:49:43.664Z</time></trkpt><trkpt lat="46.2907734" lon="13.1274719"><ele>211.0</ele><time>2026-04-22T09:49:44.664Z</time></trkpt><trkpt lat="46.2907832" lon="13.127244"><ele>210.25</ele><time>2026-04-22T09:49:45.664Z</time></trkpt><trkpt lat="46.2907908" lon="13.1270438"><ele>209.5</ele><time>2026-04-22T09:49:46.664Z</time></trkpt><trkpt lat="46.2908017" lon="13.1268458"><ele>208.75</ele><time>2026-04-22T09:49:47.666Z</time></trkpt><trkpt lat="46.290826" lon="13.1266559"><ele>208.0</ele><time>2026-04-22T09:49:48.664Z</time></trkpt><trkpt lat="46.2908683" lon="13.1264749"><ele>207.5</ele><time>2026-04-22T09:49:49.664Z</time></trkpt><trkpt lat="46.2909265" lon="13.1263074"><ele>207.0</ele><time>2026-04-22T09:49:50.664Z</time></trkpt><trkpt lat="46.290993" lon="13.1261446"><ele>206.5</ele><time>2026-04-22T09:49:51.664Z</time></trkpt><trkpt lat="46.2910614" lon="13.1259813"><ele>206.0</ele><time>2026-04-22T09:49:52.664Z</time></trkpt><trkpt lat="46.2911367" lon="13.1258152"><ele>206.0</ele><time>2026-04-22T09:49:53.665Z</time></trkpt><trkpt lat="46.291212" lon="13.1256466"><ele>206.0</ele><time>2026-04-22T09:49:54.666Z</time></trkpt><trkpt lat="46.2912873" lon="13.12547"><ele>206.0</ele><time>2026-04-22T09:49:55.664Z</time></trkpt><trkpt lat="46.2913582" lon="13.125299"><ele>206.0</ele><time>2026-04-22T09:49:56.665Z</time></trkpt><trkpt lat="46.2914241" lon="13.1251342"><ele>206.0</ele><time>2026-04-22T09:49:57.665Z</time></trkpt><trkpt lat="46.2914861" lon="13.1249761"><ele>206.0</ele><time>2026-04-22T09:49:58.664Z</time></trkpt><trkpt lat="46.291547" lon="13.1248249"><ele>206.0</ele><time>2026-04-22T09:49:59.665Z</time></trkpt><trkpt lat="46.2916059" lon="13.1246813"><ele>206.0</ele><time>2026-04-22T09:50:00.664Z</time></trkpt><trkpt lat="46.2916657" lon="13.1245388"><ele>206.0</ele><time>2026-04-22T09:50:01.664Z</time></trkpt><trkpt lat="46.2917251" lon="13.1243944"><ele>206.0</ele><time>2026-04-22T09:50:02.665Z</time></trkpt><trkpt lat="46.2917853" lon="13.1242491"><ele>206.0</ele><time>2026-04-22T09:50:03.664Z</time></trkpt><trkpt lat="46.2918458" lon="13.1241052"><ele>206.0</ele><time>2026-04-22T09:50:04.664Z</time></trkpt><trkpt lat="46.2919047" lon="13.1239609"><ele>205.0</ele><time>2026-04-22T09:50:05.664Z</time></trkpt><trkpt lat="46.2919609" lon="13.1238244"><ele>204.0</ele><time>2026-04-22T09:50:06.664Z</time></trkpt><trkpt lat="46.292013" lon="13.1236967"><ele>203.0</ele><time>2026-04-22T09:50:07.664Z</time></trkpt><trkpt lat="46.2920613" lon="13.1235761"><ele>202.0</ele><time>2026-04-22T09:50:08.664Z</time></trkpt><trkpt lat="46.2921111" lon="13.1234564"><ele>201.0</ele><time>2026-04-22T09:50:09.664Z</time></trkpt><trkpt lat="46.2921611" lon="13.1233373"><ele>201.66666666666666</ele><time>2026-04-22T09:50:10.665Z</time></trkpt><trkpt lat="46.2922086" lon="13.1232215"><ele>202.33333333333331</ele><time>2026-04-22T09:50:11.664Z</time></trkpt><trkpt lat="46.2922546" lon="13.1231072"><ele>203.0</ele><time>2026-04-22T09:50:12.664Z</time></trkpt><trkpt lat="46.2922996" lon="13.1229943"><ele>203.66666666666666</ele><time>2026-04-22T09:50:13.664Z</time></trkpt><trkpt lat="46.2923436" lon="13.1228862"><ele>204.33333333333331</ele><time>2026-04-22T09:50:14.664Z</time></trkpt><trkpt lat="46.2923866" lon="13.1227782"><ele>205.0</ele><time>2026-04-22T09:50:15.665Z</time></trkpt><trkpt lat="46.2924318" lon="13.1226699"><ele>205.4</ele><time>2026-04-22T09:50:16.664Z</time></trkpt><trkpt lat="46.2924826" lon="13.1225508"><ele>205.8</ele><time>2026-04-22T09:50:17.665Z</time></trkpt><trkpt lat="46.2925362" lon="13.1224128"><ele>206.2</ele><time>2026-04-22T09:50:18.664Z</time></trkpt><trkpt lat="46.2925885" lon="13.1222799"><ele>206.6</ele><time>2026-04-22T09:50:19.664Z</time></trkpt><trkpt lat="46.2926393" lon="13.1221542"><ele>207.0</ele><time>2026-04-22T09:50:20.664Z</time></trkpt><trkpt lat="46.2926903" lon="13.1220324"><ele>207.0</ele><time>2026-04-22T09:50:21.665Z</time></trkpt><trkpt lat="46.2927383" lon="13.121914"><ele>207.0</ele><time>2026-04-22T09:50:22.665Z</time></trkpt><trkpt lat="46.2927884" lon="13.1217976"><ele>207.0</ele><time>2026-04-22T09:50:23.664Z</time></trkpt><trkpt lat="46.2928422" lon="13.1216845"><ele>207.0</ele><time>2026-04-22T09:50:24.664Z</time></trkpt><trkpt lat="46.2929033" lon="13.1215789"><ele>207.0</ele><time>2026-04-22T09:50:25.665Z</time></trkpt><trkpt lat="46.2929693" lon="13.1214779"><ele>206.8</ele><time>2026-04-22T09:50:26.664Z</time></trkpt><trkpt lat="46.2930425" lon="13.1213888"><ele>206.6</ele><time>2026-04-22T09:50:27.664Z</time></trkpt><trkpt lat="46.2931247" lon="13.1213093"><ele>206.4</ele><time>2026-04-22T09:50:28.664Z</time></trkpt><trkpt lat="46.2932159" lon="13.1212424"><ele>206.20000000000002</ele><time>2026-04-22T09:50:29.664Z</time></trkpt><trkpt lat="46.2933134" lon="13.1211786"><ele>206.0</ele><time>2026-04-22T09:50:30.664Z</time></trkpt><trkpt lat="46.293416" lon="13.121123"><ele>206.0</ele><time>2026-04-22T09:50:31.664Z</time></trkpt><trkpt lat="46.2935427" lon="13.1210611"><ele>206.0</ele><time>2026-04-22T09:50:32.664Z</time></trkpt><trkpt lat="46.2936578" lon="13.1210084"><ele>206.0</ele><time>2026-04-22T09:50:33.665Z</time></trkpt><trkpt lat="46.2937738" lon="13.120956"><ele>206.0</ele><time>2026-04-22T09:50:34.665Z</time></trkpt><trkpt lat="46.2938836" lon="13.1209038"><ele>206.0</ele><time>2026-04-22T09:50:35.664Z</time></trkpt><trkpt lat="46.293991" lon="13.1208542"><ele>206.0</ele><time>2026-04-22T09:50:36.664Z</time></trkpt><trkpt lat="46.2940966" lon="13.1208049"><ele>206.0</ele><time>2026-04-22T09:50:37.665Z</time></trkpt><trkpt lat="46.2942026" lon="13.1207556"><ele>206.0</ele><time>2026-04-22T09:50:38.664Z</time></trkpt><trkpt lat="46.2943076" lon="13.1207094"><ele>206.0</ele><time>2026-04-22T09:50:39.664Z</time></trkpt><trkpt lat="46.2944115" lon="13.1206632"><ele>206.0</ele><time>2026-04-22T09:50:40.664Z</time></trkpt><trkpt lat="46.2945146" lon="13.1206182"><ele>206.0</ele><time>2026-04-22T09:50:41.664Z</time></trkpt><trkpt lat="46.2946056" lon="13.1205749"><ele>206.0</ele><time>2026-04-22T09:50:42.665Z</time></trkpt><trkpt lat="46.294694" lon="13.1205343"><ele>206.0</ele><time>2026-04-22T09:50:43.664Z</time></trkpt><trkpt lat="46.2947825" lon="13.1204905"><ele>206.0</ele><time>2026-04-22T09:50:44.665Z</time></trkpt><trkpt lat="46.2948726" lon="13.1204535"><ele>205.8</ele><time>2026-04-22T09:50:45.664Z</time></trkpt><trkpt lat="46.2949643" lon="13.1204185"><ele>205.60000000000002</ele><time>2026-04-22T09:50:46.664Z</time></trkpt><trkpt lat="46.2950592" lon="13.1203898"><ele>205.4</ele><time>2026-04-22T09:50:47.664Z</time></trkpt><trkpt lat="46.2951733" lon="13.1203454"><ele>205.2</ele><time>2026-04-22T09:50:48.664Z</time></trkpt><trkpt lat="46.2952684" lon="13.1203017"><ele>205.0</ele><time>2026-04-22T09:50:49.665Z</time></trkpt><trkpt lat="46.2953591" lon="13.1202623"><ele>204.99999999999997</ele><time>2026-04-22T09:50:50.664Z</time></trkpt><trkpt lat="46.295441" lon="13.1202262"><ele>205.0</ele><time>2026-04-22T09:50:51.665Z</time></trkpt><trkpt lat="46.2955165" lon="13.1201892"><ele>205.0</ele><time>2026-04-22T09:50:52.664Z</time></trkpt><trkpt lat="46.2955783" lon="13.1201562"><ele>205.0</ele><time>2026-04-22T09:50:53.664Z</time></trkpt><trkpt lat="46.2956888" lon="13.1201095"><ele>204.99999999999997</ele><time>2026-04-22T09:50:55.665Z</time></trkpt><trkpt lat="46.2957533" lon="13.1200921"><ele>205.0</ele><time>2026-04-22T09:50:57.664Z</time></trkpt><trkpt lat="46.2958259" lon="13.1200399"><ele>205.33333333333331</ele><time>2026-04-22T09:51:00.664Z</time></trkpt><trkpt lat="46.2959073" lon="13.1199615"><ele>205.66666666666666</ele><time>2026-04-22T09:52:23.663Z</time></trkpt><trkpt lat="46.2959716" lon="13.119915"><ele>206.0</ele><time>2026-04-22T09:52:24.663Z</time></trkpt><trkpt lat="46.2960392" lon="13.1198734"><ele>206.33333333333331</ele><time>2026-04-22T09:52:25.663Z</time></trkpt><trkpt lat="46.2961193" lon="13.1198262"><ele>206.66666666666666</ele><time>2026-04-22T09:52:26.664Z</time></trkpt><trkpt lat="46.2961957" lon="13.1197819"><ele>207.0</ele><time>2026-04-22T09:52:27.663Z</time></trkpt><trkpt lat="46.2962714" lon="13.1197405"><ele>207.00000000000003</ele><time>2026-04-22T09:52:28.663Z</time></trkpt><trkpt lat="46.2963419" lon="13.1197016"><ele>207.0</ele><time>2026-04-22T09:52:29.663Z</time></trkpt><trkpt lat="46.2964122" lon="13.1196684"><ele>207.0</ele><time>2026-04-22T09:52:30.663Z</time></trkpt><trkpt lat="46.296484" lon="13.1196388"><ele>207.0</ele><time>2026-04-22T09:52:31.664Z</time></trkpt><trkpt lat="46.2965535" lon="13.119613"><ele>207.0</ele><time>2026-04-22T09:52:32.664Z</time></trkpt><trkpt lat="46.2966221" lon="13.1195869"><ele>207.00000000000003</ele><time>2026-04-22T09:52:33.663Z</time></trkpt><trkpt lat="46.2966915" lon="13.1195654"><ele>207.0</ele><time>2026-04-22T09:52:34.664Z</time></trkpt><trkpt lat="46.2967615" lon="13.1195445"><ele>207.00000000000003</ele><time>2026-04-22T09:52:35.663Z</time></trkpt><trkpt lat="46.296842" lon="13.1195211"><ele>207.0</ele><time>2026-04-22T09:52:36.663Z</time></trkpt><trkpt lat="46.2969206" lon="13.1195036"><ele>207.0</ele><time>2026-04-22T09:52:37.663Z</time></trkpt><trkpt lat="46.2969941" lon="13.119494"><ele>207.0</ele><time>2026-04-22T09:52:38.663Z</time></trkpt><trkpt lat="46.2970648" lon="13.1194824"><ele>207.0</ele><time>2026-04-22T09:52:39.663Z</time></trkpt><trkpt lat="46.2971331" lon="13.1194712"><ele>207.00000000000003</ele><time>2026-04-22T09:52:40.663Z</time></trkpt><trkpt lat="46.2972003" lon="13.1194627"><ele>207.0</ele><time>2026-04-22T09:52:41.663Z</time></trkpt><trkpt lat="46.297266" lon="13.1194553"><ele>207.33333333333334</ele><time>2026-04-22T09:52:42.664Z</time></trkpt><trkpt lat="46.29733" lon="13.1194488"><ele>207.66666666666669</ele><time>2026-04-22T09:52:43.664Z</time></trkpt><trkpt lat="46.2973941" lon="13.1194405"><ele>208.0</ele><time>2026-04-22T09:52:44.663Z</time></trkpt><trkpt lat="46.2974574" lon="13.1194388"><ele>208.33333333333334</ele><time>2026-04-22T09:52:45.664Z</time></trkpt><trkpt lat="46.2975751" lon="13.1194181"><ele>208.66666666666669</ele><time>2026-04-22T09:52:47.663Z</time></trkpt><trkpt lat="46.2976748" lon="13.1193582"><ele>209.0</ele><time>2026-04-22T09:52:49.664Z</time></trkpt><trkpt lat="46.2977603" lon="13.1192862"><ele>209.00000000000003</ele><time>2026-04-22T09:52:51.663Z</time></trkpt><trkpt lat="46.2978138" lon="13.1192301"><ele>209.0</ele><time>2026-04-22T09:52:53.663Z</time></trkpt><trkpt lat="46.2978943" lon="13.1191781"><ele>209.0</ele><time>2026-04-22T09:52:56.663Z</time></trkpt><trkpt lat="46.2979979" lon="13.1191481"><ele>209.0</ele><time>2026-04-22T09:52:58.663Z</time></trkpt><trkpt lat="46.2980678" lon="13.1191139"><ele>209.00000000000003</ele><time>2026-04-22T09:52:59.663Z</time></trkpt><trkpt lat="46.2981541" lon="13.1190782"><ele>209.0</ele><time>2026-04-22T09:53:00.663Z</time></trkpt><trkpt lat="46.2982428" lon="13.1190622"><ele>209.39999999999998</ele><time>2026-04-22T09:53:01.665Z</time></trkpt><trkpt lat="46.2983445" lon="13.1190571"><ele>209.8</ele><time>2026-04-22T09:53:02.664Z</time></trkpt><trkpt lat="46.2984447" lon="13.1190545"><ele>210.2</ele><time>2026-04-22T09:53:03.664Z</time></trkpt><trkpt lat="46.298544" lon="13.1190462"><ele>210.60000000000002</ele><time>2026-04-22T09:53:04.664Z</time></trkpt><trkpt lat="46.2986419" lon="13.1190382"><ele>211.0</ele><time>2026-04-22T09:53:05.663Z</time></trkpt><trkpt lat="46.2987354" lon="13.1190264"><ele>210.99999999999997</ele><time>2026-04-22T09:53:06.663Z</time></trkpt><trkpt lat="46.2988278" lon="13.1190174"><ele>211.0</ele><time>2026-04-22T09:53:07.663Z</time></trkpt><trkpt lat="46.2989186" lon="13.1190116"><ele>211.0</ele><time>2026-04-22T09:53:08.664Z</time></trkpt><trkpt lat="46.2990078" lon="13.1190072"><ele>211.0</ele><time>2026-04-22T09:53:09.664Z</time></trkpt><trkpt lat="46.2990938" lon="13.1190074"><ele>210.99999999999997</ele><time>2026-04-22T09:53:10.664Z</time></trkpt><trkpt lat="46.2991806" lon="13.1190144"><ele>211.0</ele><time>2026-04-22T09:53:11.663Z</time></trkpt><trkpt lat="46.2992729" lon="13.1190448"><ele>210.8</ele><time>2026-04-22T09:53:12.663Z</time></trkpt><trkpt lat="46.2993628" lon="13.1190881"><ele>210.60000000000002</ele><time>2026-04-22T09:53:13.664Z</time></trkpt><trkpt lat="46.2994571" lon="13.1191282"><ele>210.4</ele><time>2026-04-22T09:53:14.663Z</time></trkpt><trkpt lat="46.2995495" lon="13.1191702"><ele>210.2</ele><time>2026-04-22T09:53:15.664Z</time></trkpt><trkpt lat="46.29964" lon="13.1192226"><ele>210.0</ele><time>2026-04-22T09:53:16.663Z</time></trkpt><trkpt lat="46.2997296" lon="13.1192777"><ele>210.4</ele><time>2026-04-22T09:53:17.663Z</time></trkpt><trkpt lat="46.2998181" lon="13.1193409"><ele>210.8</ele><time>2026-04-22T09:53:18.664Z</time></trkpt><trkpt lat="46.2999132" lon="13.1194007"><ele>211.2</ele><time>2026-04-22T09:53:19.663Z</time></trkpt><trkpt lat="46.3000055" lon="13.1194628"><ele>211.6</ele><time>2026-04-22T09:53:20.663Z</time></trkpt><trkpt lat="46.300106" lon="13.1195258"><ele>212.0</ele><time>2026-04-22T09:53:21.663Z</time></trkpt><trkpt lat="46.3002082" lon="13.1195856"><ele>212.0</ele><time>2026-04-22T09:53:22.663Z</time></trkpt><trkpt lat="46.3003073" lon="13.1196315"><ele>212.0</ele><time>2026-04-22T09:53:23.663Z</time></trkpt><trkpt lat="46.3004105" lon="13.1196683"><ele>212.0</ele><time>2026-04-22T09:53:24.663Z</time></trkpt><trkpt lat="46.3005183" lon="13.1196916"><ele>212.0</ele><time>2026-04-22T09:53:25.663Z</time></trkpt><trkpt lat="46.3006315" lon="13.1197082"><ele>212.0</ele><time>2026-04-22T09:53:26.664Z</time></trkpt><trkpt lat="46.3007449" lon="13.1197244"><ele>211.5</ele><time>2026-04-22T09:53:27.663Z</time></trkpt><trkpt lat="46.300876" lon="13.1197439"><ele>211.0</ele><time>2026-04-22T09:53:28.663Z</time></trkpt><trkpt lat="46.301024" lon="13.1197648"><ele>210.5</ele><time>2026-04-22T09:53:29.663Z</time></trkpt><trkpt lat="46.3011541" lon="13.1197886"><ele>210.0</ele><time>2026-04-22T09:53:30.663Z</time></trkpt><trkpt lat="46.3012863" lon="13.1198133"><ele>210.0</ele><time>2026-04-22T09:53:31.663Z</time></trkpt><trkpt lat="46.3014133" lon="13.1198375"><ele>210.0</ele><time>2026-04-22T09:53:32.665Z</time></trkpt><trkpt lat="46.301543" lon="13.1198593"><ele>210.0</ele><time>2026-04-22T09:53:33.663Z</time></trkpt><trkpt lat="46.3016714" lon="13.1198789"><ele>210.0</ele><time>2026-04-22T09:53:34.663Z</time></trkpt><trkpt lat="46.3017943" lon="13.1198999"><ele>210.5</ele><time>2026-04-22T09:53:35.664Z</time></trkpt><trkpt lat="46.3019128" lon="13.1199202"><ele>211.0</ele><time>2026-04-22T09:53:36.663Z</time></trkpt><trkpt lat="46.3020392" lon="13.1199468"><ele>211.5</ele><time>2026-04-22T09:53:37.664Z</time></trkpt><trkpt lat="46.3021688" lon="13.1199882"><ele>212.0</ele><time>2026-04-22T09:53:38.665Z</time></trkpt><trkpt lat="46.302309" lon="13.1200628"><ele>212.66666666666669</ele><time>2026-04-22T09:53:39.663Z</time></trkpt><trkpt lat="46.3024682" lon="13.120183"><ele>213.33333333333331</ele><time>2026-04-22T09:53:40.664Z</time></trkpt><trkpt lat="46.3026334" lon="13.1203213"><ele>214.0</ele><time>2026-04-22T09:53:41.663Z</time></trkpt><trkpt lat="46.302799" lon="13.1204715"><ele>214.0</ele><time>2026-04-22T09:53:42.663Z</time></trkpt><trkpt lat="46.3029733" lon="13.1206385"><ele>214.0</ele><time>2026-04-22T09:53:43.663Z</time></trkpt><trkpt lat="46.3031353" lon="13.1207995"><ele>214.0</ele><time>2026-04-22T09:53:44.663Z</time></trkpt><trkpt lat="46.3032977" lon="13.1209627"><ele>214.0</ele><time>2026-04-22T09:53:45.664Z</time></trkpt><trkpt lat="46.3034603" lon="13.1211259"><ele>214.0</ele><time>2026-04-22T09:53:46.663Z</time></trkpt><trkpt lat="46.3036194" lon="13.1212883"><ele>214.0</ele><time>2026-04-22T09:53:47.663Z</time></trkpt><trkpt lat="46.3037795" lon="13.1214537"><ele>214.33333333333331</ele><time>2026-04-22T09:53:48.664Z</time></trkpt><trkpt lat="46.3039388" lon="13.1216168"><ele>214.66666666666669</ele><time>2026-04-22T09:53:49.663Z</time></trkpt><trkpt lat="46.3040982" lon="13.1217814"><ele>215.0</ele><time>2026-04-22T09:53:50.663Z</time></trkpt><trkpt lat="46.3042569" lon="13.121946"><ele>215.0</ele><time>2026-04-22T09:53:51.663Z</time></trkpt><trkpt lat="46.3044168" lon="13.1221156"><ele>215.0</ele><time>2026-04-22T09:53:52.663Z</time></trkpt><trkpt lat="46.3045911" lon="13.1222995"><ele>215.0</ele><time>2026-04-22T09:53:53.664Z</time></trkpt><trkpt lat="46.3047671" lon="13.1224935"><ele>216.66666666666669</ele><time>2026-04-22T09:53:54.664Z</time></trkpt><trkpt lat="46.304935" lon="13.1227024"><ele>218.33333333333331</ele><time>2026-04-22T09:53:55.663Z</time></trkpt><trkpt lat="46.3050929" lon="13.1229203"><ele>220.0</ele><time>2026-04-22T09:53:56.663Z</time></trkpt><trkpt lat="46.3052447" lon="13.1231514"><ele>219.33333333333331</ele><time>2026-04-22T09:53:57.663Z</time></trkpt><trkpt lat="46.3053872" lon="13.1233909"><ele>218.66666666666669</ele><time>2026-04-22T09:53:58.664Z</time></trkpt><trkpt lat="46.3055222" lon="13.1236397"><ele>218.0</ele><time>2026-04-22T09:53:59.663Z</time></trkpt><trkpt lat="46.305653" lon="13.1238938"><ele>221.66666666666669</ele><time>2026-04-22T09:54:00.664Z</time></trkpt><trkpt lat="46.3057811" lon="13.1241501"><ele>225.33333333333331</ele><time>2026-04-22T09:54:01.663Z</time></trkpt><trkpt lat="46.3059169" lon="13.1244181"><ele>229.0</ele><time>2026-04-22T09:54:02.664Z</time></trkpt><trkpt lat="46.3060617" lon="13.1247043"><ele>238.0</ele><time>2026-04-22T09:54:03.663Z</time></trkpt><trkpt lat="46.3062023" lon="13.124979"><ele>247.0</ele><time>2026-04-22T09:54:04.663Z</time></trkpt><trkpt lat="46.3063429" lon="13.1252471"><ele>243.33333333333331</ele><time>2026-04-22T09:54:05.663Z</time></trkpt><trkpt lat="46.3064774" lon="13.1255041"><ele>239.66666666666669</ele><time>2026-04-22T09:54:06.663Z</time></trkpt><trkpt lat="46.3066061" lon="13.1257473"><ele>236.0</ele><time>2026-04-22T09:54:07.664Z</time></trkpt><trkpt lat="46.3067289" lon="13.1259772"><ele>236.0</ele><time>2026-04-22T09:54:08.663Z</time></trkpt><trkpt lat="46.3068414" lon="13.1261952"><ele>236.0</ele><time>2026-04-22T09:54:09.663Z</time></trkpt><trkpt lat="46.3069496" lon="13.1264025"><ele>236.0</ele><time>2026-04-22T09:54:10.663Z</time></trkpt><trkpt lat="46.3070563" lon="13.126595"><ele>232.66666666666669</ele><time>2026-04-22T09:54:11.664Z</time></trkpt><trkpt lat="46.3071575" lon="13.1267837"><ele>229.33333333333331</ele><time>2026-04-22T09:54:12.663Z</time></trkpt><trkpt lat="46.3072652" lon="13.1269777"><ele>226.0</ele><time>2026-04-22T09:54:13.664Z</time></trkpt><trkpt lat="46.3073795" lon="13.1271697"><ele>226.0</ele><time>2026-04-22T09:54:14.663Z</time></trkpt><trkpt lat="46.307502" lon="13.1273605"><ele>226.0</ele><time>2026-04-22T09:54:15.665Z</time></trkpt><trkpt lat="46.307645" lon="13.127554"><ele>226.0</ele><time>2026-04-22T09:54:16.663Z</time></trkpt><trkpt lat="46.3078034" lon="13.1277327"><ele>225.0</ele><time>2026-04-22T09:54:17.663Z</time></trkpt><trkpt lat="46.3079722" lon="13.1278959"><ele>224.0</ele><time>2026-04-22T09:54:18.664Z</time></trkpt><trkpt lat="46.3081528" lon="13.1280446"><ele>223.0</ele><time>2026-04-22T09:54:19.663Z</time></trkpt><trkpt lat="46.3083534" lon="13.1281837"><ele>224.0</ele><time>2026-04-22T09:54:20.664Z</time></trkpt><trkpt lat="46.3085502" lon="13.1282995"><ele>225.0</ele><time>2026-04-22T09:54:21.663Z</time></trkpt><trkpt lat="46.3087544" lon="13.1283894"><ele>226.0</ele><time>2026-04-22T09:54:22.664Z</time></trkpt><trkpt lat="46.3089622" lon="13.1284549"><ele>226.0</ele><time>2026-04-22T09:54:23.663Z</time></trkpt><trkpt lat="46.3091754" lon="13.1284937"><ele>226.0</ele><time>2026-04-22T09:54:24.663Z</time></trkpt><trkpt lat="46.3093852" lon="13.1285203"><ele>226.0</ele><time>2026-04-22T09:54:25.664Z</time></trkpt><trkpt lat="46.3095902" lon="13.1285302"><ele>224.0</ele><time>2026-04-22T09:54:26.664Z</time></trkpt><trkpt lat="46.3097883" lon="13.1285329"><ele>222.0</ele><time>2026-04-22T09:54:27.663Z</time></trkpt><trkpt lat="46.3099797" lon="13.128537"><ele>220.0</ele><time>2026-04-22T09:54:28.664Z</time></trkpt><trkpt lat="46.3101653" lon="13.1285449"><ele>220.0</ele><time>2026-04-22T09:54:29.663Z</time></trkpt><trkpt lat="46.3103387" lon="13.1285546"><ele>220.0</ele><time>2026-04-22T09:54:30.663Z</time></trkpt><trkpt lat="46.3104931" lon="13.1285627"><ele>220.0</ele><time>2026-04-22T09:54:31.663Z</time></trkpt><trkpt lat="46.3106336" lon="13.1285714"><ele>220.4</ele><time>2026-04-22T09:54:32.663Z</time></trkpt><trkpt lat="46.3107645" lon="13.1285778"><ele>220.8</ele><time>2026-04-22T09:54:33.663Z</time></trkpt><trkpt lat="46.3108835" lon="13.1285827"><ele>221.2</ele><time>2026-04-22T09:54:34.663Z</time></trkpt><trkpt lat="46.310986" lon="13.1285835"><ele>221.6</ele><time>2026-04-22T09:54:35.664Z</time></trkpt><trkpt lat="46.3110661" lon="13.1285849"><ele>222.0</ele><time>2026-04-22T09:54:36.663Z</time></trkpt><trkpt lat="46.3111673" lon="13.1286643"><ele>222.0</ele><time>2026-04-22T09:54:38.663Z</time></trkpt><trkpt lat="46.3111938" lon="13.1288315"><ele>222.0</ele><time>2026-04-22T09:54:40.663Z</time></trkpt><trkpt lat="46.3111703" lon="13.1289214"><ele>222.0</ele><time>2026-04-22T09:54:41.663Z</time></trkpt><trkpt lat="46.3110818" lon="13.129028"><ele>222.0</ele><time>2026-04-22T09:54:43.664Z</time></trkpt><trkpt lat="46.3110156" lon="13.1290736"><ele>222.0</ele><time>2026-04-22T09:54:44.663Z</time></trkpt><trkpt lat="46.3109571" lon="13.1291274"><ele>222.0</ele><time>2026-04-22T09:54:45.663Z</time></trkpt><trkpt lat="46.3108659" lon="13.1292593"><ele>222.83333333333334</ele><time>2026-04-22T09:54:47.663Z</time></trkpt><trkpt lat="46.3108166" lon="13.1293341"><ele>223.66666666666669</ele><time>2026-04-22T09:54:48.663Z</time></trkpt><trkpt lat="46.3107737" lon="13.1294025"><ele>224.5</ele><time>2026-04-22T09:54:49.663Z</time></trkpt><trkpt lat="46.3107128" lon="13.1295724"><ele>225.33333333333334</ele><time>2026-04-22T09:54:51.664Z</time></trkpt><trkpt lat="46.310688" lon="13.1296584"><ele>226.16666666666669</ele><time>2026-04-22T09:54:52.663Z</time></trkpt><trkpt lat="46.3106797" lon="13.1297547"><ele>227.0</ele><time>2026-04-22T09:54:53.664Z</time></trkpt><trkpt lat="46.3106655" lon="13.1298667"><ele>227.8</ele><time>2026-04-22T09:54:54.663Z</time></trkpt><trkpt lat="46.3106698" lon="13.1300366"><ele>228.6</ele><time>2026-04-22T09:54:56.664Z</time></trkpt><trkpt lat="46.3106814" lon="13.1301721"><ele>229.40000000000003</ele><time>2026-04-22T09:54:58.663Z</time></trkpt><trkpt lat="46.3106899" lon="13.1302625"><ele>230.20000000000002</ele><time>2026-04-22T09:55:01.663Z</time></trkpt><trkpt lat="46.310719" lon="13.130383"><ele>231.0</ele><time>2026-04-22T09:55:13.663Z</time></trkpt><trkpt lat="46.3107533" lon="13.1305465"><ele>231.0</ele><time>2026-04-22T09:55:15.663Z</time></trkpt><trkpt lat="46.3108042" lon="13.1307114"><ele>231.00000000000003</ele><time>2026-04-22T09:55:17.664Z</time></trkpt><trkpt lat="46.3108324" lon="13.1307935"><ele>231.00000000000003</ele><time>2026-04-22T09:55:18.663Z</time></trkpt><trkpt lat="46.3109116" lon="13.1309274"><ele>231.0</ele><time>2026-04-22T09:55:20.664Z</time></trkpt><trkpt lat="46.3109771" lon="13.1309962"><ele>231.0</ele><time>2026-04-22T09:55:21.663Z</time></trkpt><trkpt lat="46.3110508" lon="13.1310534"><ele>232.33333333333334</ele><time>2026-04-22T09:55:22.663Z</time></trkpt><trkpt lat="46.3111204" lon="13.1310992"><ele>233.66666666666669</ele><time>2026-04-22T09:55:23.663Z</time></trkpt><trkpt lat="46.3111944" lon="13.1311592"><ele>235.0</ele><time>2026-04-22T09:55:24.664Z</time></trkpt><trkpt lat="46.3112687" lon="13.1312261"><ele>236.33333333333334</ele><time>2026-04-22T09:55:25.664Z</time></trkpt><trkpt lat="46.3113517" lon="13.1312979"><ele>237.66666666666669</ele><time>2026-04-22T09:55:26.664Z</time></trkpt><trkpt lat="46.3114272" lon="13.1313619"><ele>239.0</ele><time>2026-04-22T09:55:27.663Z</time></trkpt><trkpt lat="46.3115125" lon="13.1314291"><ele>239.00000000000003</ele><time>2026-04-22T09:55:28.663Z</time></trkpt><trkpt lat="46.311593" lon="13.1314971"><ele>239.0</ele><time>2026-04-22T09:55:29.664Z</time></trkpt><trkpt lat="46.3116658" lon="13.1315515"><ele>239.0</ele><time>2026-04-22T09:55:30.663Z</time></trkpt><trkpt lat="46.311741" lon="13.131618"><ele>239.0</ele><time>2026-04-22T09:55:31.663Z</time></trkpt><trkpt lat="46.3118189" lon="13.1316895"><ele>239.00000000000003</ele><time>2026-04-22T09:55:32.663Z</time></trkpt><trkpt lat="46.311894" lon="13.1317547"><ele>239.0</ele><time>2026-04-22T09:55:33.665Z</time></trkpt><trkpt lat="46.3119675" lon="13.1318228"><ele>240.83333333333334</ele><time>2026-04-22T09:55:34.663Z</time></trkpt><trkpt lat="46.312037" lon="13.1319003"><ele>242.66666666666669</ele><time>2026-04-22T09:55:35.663Z</time></trkpt><trkpt lat="46.3121059" lon="13.1319806"><ele>244.5</ele><time>2026-04-22T09:55:36.664Z</time></trkpt><trkpt lat="46.3121801" lon="13.1320489"><ele>246.33333333333331</ele><time>2026-04-22T09:55:37.664Z</time></trkpt><trkpt lat="46.3122601" lon="13.1321178"><ele>248.16666666666666</ele><time>2026-04-22T09:55:38.664Z</time></trkpt><trkpt lat="46.3123303" lon="13.1321758"><ele>250.0</ele><time>2026-04-22T09:55:39.663Z</time></trkpt><trkpt lat="46.312396" lon="13.1322391"><ele>250.99999999999997</ele><time>2026-04-22T09:55:40.663Z</time></trkpt><trkpt lat="46.3124491" lon="13.1323068"><ele>252.0</ele><time>2026-04-22T09:55:41.663Z</time></trkpt><trkpt lat="46.3124863" lon="13.1323891"><ele>253.0</ele><time>2026-04-22T09:55:42.663Z</time></trkpt><trkpt lat="46.3125056" lon="13.1324951"><ele>254.0</ele><time>2026-04-22T09:55:43.663Z</time></trkpt><trkpt lat="46.3124982" lon="13.1326021"><ele>254.99999999999997</ele><time>2026-04-22T09:55:44.663Z</time></trkpt><trkpt lat="46.3124785" lon="13.1327228"><ele>256.0</ele><time>2026-04-22T09:55:45.663Z</time></trkpt><trkpt lat="46.3124595" lon="13.1328479"><ele>256.66666666666663</ele><time>2026-04-22T09:55:46.664Z</time></trkpt><trkpt lat="46.3124638" lon="13.1329632"><ele>257.3333333333333</ele><time>2026-04-22T09:55:47.663Z</time></trkpt><trkpt lat="46.3124826" lon="13.1330805"><ele>258.0</ele><time>2026-04-22T09:55:48.663Z</time></trkpt><trkpt lat="46.3125205" lon="13.1331988"><ele>258.6666666666667</ele><time>2026-04-22T09:55:49.663Z</time></trkpt><trkpt lat="46.3125686" lon="13.1333108"><ele>259.33333333333337</ele><time>2026-04-22T09:55:50.663Z</time></trkpt><trkpt lat="46.3126268" lon="13.1333948"><ele>260.0</ele><time>2026-04-22T09:55:51.664Z</time></trkpt><trkpt lat="46.3126962" lon="13.1334682"><ele>260.5</ele><time>2026-04-22T09:55:52.663Z</time></trkpt><trkpt lat="46.3127687" lon="13.1335289"><ele>261.0</ele><time>2026-04-22T09:55:53.663Z</time></trkpt><trkpt lat="46.3128281" lon="13.1336004"><ele>261.5</ele><time>2026-04-22T09:55:54.664Z</time></trkpt><trkpt lat="46.3128785" lon="13.1336863"><ele>262.0</ele><time>2026-04-22T09:55:55.664Z</time></trkpt><trkpt lat="46.3129205" lon="13.1337901"><ele>262.5</ele><time>2026-04-22T09:55:56.664Z</time></trkpt><trkpt lat="46.3129559" lon="13.1339105"><ele>263.0</ele><time>2026-04-22T09:55:57.664Z</time></trkpt><trkpt lat="46.3129852" lon="13.1340323"><ele>264.4</ele><time>2026-04-22T09:55:58.663Z</time></trkpt><trkpt lat="46.3130204" lon="13.1341613"><ele>265.8</ele><time>2026-04-22T09:55:59.663Z</time></trkpt><trkpt lat="46.3130691" lon="13.1342912"><ele>267.2</ele><time>2026-04-22T09:56:00.664Z</time></trkpt><trkpt lat="46.313127" lon="13.134413"><ele>268.6</ele><time>2026-04-22T09:56:01.663Z</time></trkpt><trkpt lat="46.3131783" lon="13.1345161"><ele>270.0</ele><time>2026-04-22T09:56:02.664Z</time></trkpt><trkpt lat="46.3132362" lon="13.1346115"><ele>270.1428571428571</ele><time>2026-04-22T09:56:03.663Z</time></trkpt><trkpt lat="46.3132933" lon="13.1346798"><ele>270.2857142857143</ele><time>2026-04-22T09:56:04.663Z</time></trkpt><trkpt lat="46.3133488" lon="13.1347318"><ele>270.42857142857144</ele><time>2026-04-22T09:56:05.663Z</time></trkpt><trkpt lat="46.3134015" lon="13.1347867"><ele>270.57142857142856</ele><time>2026-04-22T09:56:06.663Z</time></trkpt><trkpt lat="46.3134666" lon="13.1348506"><ele>270.7142857142857</ele><time>2026-04-22T09:56:08.665Z</time></trkpt><trkpt lat="46.3135092" lon="13.1349335"><ele>270.85714285714283</ele><time>2026-04-22T09:56:11.663Z</time></trkpt><trkpt lat="46.313509" lon="13.1350647"><ele>271.0</ele><time>2026-04-22T09:56:18.662Z</time></trkpt><trkpt lat="46.3134984" lon="13.1352363"><ele>272.0</ele><time>2026-04-22T09:56:20.664Z</time></trkpt><trkpt lat="46.3134849" lon="13.1353441"><ele>273.0</ele><time>2026-04-22T09:56:21.663Z</time></trkpt><trkpt lat="46.3134754" lon="13.1354593"><ele>274.0</ele><time>2026-04-22T09:56:22.662Z</time></trkpt><trkpt lat="46.3134738" lon="13.1355863"><ele>275.0</ele><time>2026-04-22T09:56:23.662Z</time></trkpt><trkpt lat="46.3134818" lon="13.1357135"><ele>276.0</ele><time>2026-04-22T09:56:24.663Z</time></trkpt><trkpt lat="46.3134857" lon="13.1358568"><ele>277.0</ele><time>2026-04-22T09:56:25.662Z</time></trkpt><trkpt lat="46.3134801" lon="13.1359897"><ele>278.0</ele><time>2026-04-22T09:56:26.662Z</time></trkpt><trkpt lat="46.3134722" lon="13.1361266"><ele>279.0</ele><time>2026-04-22T09:56:27.662Z</time></trkpt><trkpt lat="46.313458" lon="13.1362718"><ele>280.0</ele><time>2026-04-22T09:56:28.662Z</time></trkpt><trkpt lat="46.3134368" lon="13.1364194"><ele>281.0</ele><time>2026-04-22T09:56:29.662Z</time></trkpt><trkpt lat="46.3134098" lon="13.1365668"><ele>282.0</ele><time>2026-04-22T09:56:30.662Z</time></trkpt><trkpt lat="46.3133858" lon="13.1367088"><ele>282.8</ele><time>2026-04-22T09:56:31.662Z</time></trkpt><trkpt lat="46.3133734" lon="13.1368495"><ele>283.6</ele><time>2026-04-22T09:56:32.662Z</time></trkpt><trkpt lat="46.3133712" lon="13.1370093"><ele>284.40000000000003</ele><time>2026-04-22T09:56:33.662Z</time></trkpt><trkpt lat="46.3133816" lon="13.1371784"><ele>285.2</ele><time>2026-04-22T09:56:34.662Z</time></trkpt><trkpt lat="46.3133888" lon="13.1373228"><ele>286.0</ele><time>2026-04-22T09:56:35.662Z</time></trkpt><trkpt lat="46.3133867" lon="13.1374735"><ele>287.25</ele><time>2026-04-22T09:56:36.662Z</time></trkpt><trkpt lat="46.3133807" lon="13.1376291"><ele>288.5</ele><time>2026-04-22T09:56:37.663Z</time></trkpt><trkpt lat="46.3133708" lon="13.137797"><ele>289.75</ele><time>2026-04-22T09:56:38.662Z</time></trkpt><trkpt lat="46.3133654" lon="13.137971"><ele>291.0</ele><time>2026-04-22T09:56:39.662Z</time></trkpt><trkpt lat="46.3133601" lon="13.1381395"><ele>292.2</ele><time>2026-04-22T09:56:40.662Z</time></trkpt><trkpt lat="46.3133512" lon="13.1382835"><ele>293.40000000000003</ele><time>2026-04-22T09:56:41.663Z</time></trkpt><trkpt lat="46.3133405" lon="13.1384262"><ele>294.6</ele><time>2026-04-22T09:56:42.662Z</time></trkpt><trkpt lat="46.3133298" lon="13.1385694"><ele>295.8</ele><time>2026-04-22T09:56:43.662Z</time></trkpt><trkpt lat="46.3133208" lon="13.1387237"><ele>297.0</ele><time>2026-04-22T09:56:44.662Z</time></trkpt><trkpt lat="46.3133212" lon="13.1388739"><ele>297.0</ele><time>2026-04-22T09:56:45.662Z</time></trkpt><trkpt lat="46.3133264" lon="13.1390066"><ele>297.0</ele><time>2026-04-22T09:56:46.662Z</time></trkpt><trkpt lat="46.3133269" lon="13.1391369"><ele>297.0</ele><time>2026-04-22T09:56:47.662Z</time></trkpt><trkpt lat="46.3133189" lon="13.1392716"><ele>297.0</ele><time>2026-04-22T09:56:48.662Z</time></trkpt><trkpt lat="46.313302" lon="13.1394085"><ele>297.0</ele><time>2026-04-22T09:56:49.662Z</time></trkpt><trkpt lat="46.3132749" lon="13.1395488"><ele>298.2</ele><time>2026-04-22T09:56:50.662Z</time></trkpt><trkpt lat="46.3132361" lon="13.1396956"><ele>299.4</ele><time>2026-04-22T09:56:51.663Z</time></trkpt><trkpt lat="46.3131952" lon="13.139836"><ele>300.6</ele><time>2026-04-22T09:56:52.662Z</time></trkpt><trkpt lat="46.3131634" lon="13.139971"><ele>301.8</ele><time>2026-04-22T09:56:53.663Z</time></trkpt><trkpt lat="46.3131392" lon="13.1400733"><ele>303.0</ele><time>2026-04-22T09:56:54.663Z</time></trkpt><trkpt lat="46.3131226" lon="13.14023"><ele>303.8</ele><time>2026-04-22T09:56:56.662Z</time></trkpt><trkpt lat="46.3131386" lon="13.1403253"><ele>304.6</ele><time>2026-04-22T09:56:58.662Z</time></trkpt><trkpt lat="46.3131606" lon="13.1404168"><ele>305.4</ele><time>2026-04-22T09:57:01.663Z</time></trkpt><trkpt lat="46.3132173" lon="13.1405724"><ele>306.2</ele><time>2026-04-22T09:57:28.662Z</time></trkpt><trkpt lat="46.3132629" lon="13.1406881"><ele>307.0</ele><time>2026-04-22T09:57:29.662Z</time></trkpt><trkpt lat="46.3133157" lon="13.1408198"><ele>308.0</ele><time>2026-04-22T09:57:30.663Z</time></trkpt><trkpt lat="46.3133707" lon="13.1409857"><ele>309.0</ele><time>2026-04-22T09:57:31.662Z</time></trkpt><trkpt lat="46.3134097" lon="13.1411524"><ele>310.0</ele><time>2026-04-22T09:57:32.662Z</time></trkpt><trkpt lat="46.3134402" lon="13.1413239"><ele>311.0</ele><time>2026-04-22T09:57:33.662Z</time></trkpt><trkpt lat="46.3134761" lon="13.1415214"><ele>312.0</ele><time>2026-04-22T09:57:34.663Z</time></trkpt><trkpt lat="46.3135106" lon="13.141711"><ele>313.0</ele><time>2026-04-22T09:57:35.662Z</time></trkpt><trkpt lat="46.3135457" lon="13.1419059"><ele>314.0</ele><time>2026-04-22T09:57:36.662Z</time></trkpt><trkpt lat="46.3135737" lon="13.1421085"><ele>315.0</ele><time>2026-04-22T09:57:37.662Z</time></trkpt><trkpt lat="46.3136097" lon="13.1423212"><ele>316.25</ele><time>2026-04-22T09:57:38.662Z</time></trkpt><trkpt lat="46.3136473" lon="13.1424988"><ele>317.5</ele><time>2026-04-22T09:57:39.662Z</time></trkpt><trkpt lat="46.313677" lon="13.1426671"><ele>318.75</ele><time>2026-04-22T09:57:40.662Z</time></trkpt><trkpt lat="46.3137042" lon="13.1428283"><ele>320.0</ele><time>2026-04-22T09:57:41.662Z</time></trkpt><trkpt lat="46.3137356" lon="13.1429537"><ele>320.0</ele><time>2026-04-22T09:57:42.663Z</time></trkpt><trkpt lat="46.313765" lon="13.1430675"><ele>320.0</ele><time>2026-04-22T09:57:43.662Z</time></trkpt><trkpt lat="46.3137955" lon="13.1431784"><ele>320.0</ele><time>2026-04-22T09:57:44.663Z</time></trkpt><trkpt lat="46.3138272" lon="13.1432966"><ele>320.0</ele><time>2026-04-22T09:57:45.663Z</time></trkpt><trkpt lat="46.3138663" lon="13.1434326"><ele>320.0</ele><time>2026-04-22T09:57:46.663Z</time></trkpt><trkpt lat="46.3139029" lon="13.1435753"><ele>321.6</ele><time>2026-04-22T09:57:47.662Z</time></trkpt><trkpt lat="46.3139379" lon="13.1437225"><ele>323.2</ele><time>2026-04-22T09:57:48.662Z</time></trkpt><trkpt lat="46.313976" lon="13.1438554"><ele>324.79999999999995</ele><time>2026-04-22T09:57:49.662Z</time></trkpt><trkpt lat="46.3140234" lon="13.1439772"><ele>326.4</ele><time>2026-04-22T09:57:50.662Z</time></trkpt><trkpt lat="46.3140722" lon="13.1440787"><ele>328.0</ele><time>2026-04-22T09:57:51.663Z</time></trkpt><trkpt lat="46.3141127" lon="13.1441544"><ele>328.66666666666663</ele><time>2026-04-22T09:57:52.663Z</time></trkpt><trkpt lat="46.3141448" lon="13.1442373"><ele>329.3333333333333</ele><time>2026-04-22T09:57:53.662Z</time></trkpt><trkpt lat="46.3141767" lon="13.1443243"><ele>330.0</ele><time>2026-04-22T09:57:54.662Z</time></trkpt><trkpt lat="46.3142083" lon="13.1444787"><ele>330.6666666666667</ele><time>2026-04-22T09:57:56.663Z</time></trkpt><trkpt lat="46.3142233" lon="13.144591"><ele>331.33333333333337</ele><time>2026-04-22T09:57:58.662Z</time></trkpt><trkpt lat="46.3142038" lon="13.1447242"><ele>332.0</ele><time>2026-04-22T09:58:00.663Z</time></trkpt><trkpt lat="46.3141762" lon="13.1448152"><ele>333.0</ele><time>2026-04-22T09:58:01.662Z</time></trkpt><trkpt lat="46.3141504" lon="13.1449074"><ele>334.0</ele><time>2026-04-22T09:58:02.663Z</time></trkpt><trkpt lat="46.3141252" lon="13.1449988"><ele>335.0</ele><time>2026-04-22T09:58:03.664Z</time></trkpt><trkpt lat="46.3141032" lon="13.1451512"><ele>336.0</ele><time>2026-04-22T09:58:05.662Z</time></trkpt><trkpt lat="46.3140863" lon="13.145327"><ele>337.0</ele><time>2026-04-22T09:58:07.662Z</time></trkpt><trkpt lat="46.3140847" lon="13.1454789"><ele>337.0</ele><time>2026-04-22T09:58:09.662Z</time></trkpt><trkpt lat="46.314088" lon="13.1456226"><ele>337.0</ele><time>2026-04-22T09:58:11.662Z</time></trkpt><trkpt lat="46.3141059" lon="13.1457551"><ele>337.0</ele><time>2026-04-22T09:58:13.662Z</time></trkpt><trkpt lat="46.3141449" lon="13.1458539"><ele>337.0</ele><time>2026-04-22T09:58:15.664Z</time></trkpt><trkpt lat="46.3141764" lon="13.1459423"><ele>337.0</ele><time>2026-04-22T09:58:17.662Z</time></trkpt><trkpt lat="46.3141726" lon="13.1460353"><ele>337.0</ele><time>2026-04-22T09:58:19.662Z</time></trkpt><trkpt lat="46.3141437" lon="13.1461249"><ele>337.5714285714286</ele><time>2026-04-22T09:59:45.662Z</time></trkpt><trkpt lat="46.3140991" lon="13.1461903"><ele>338.14285714285717</ele><time>2026-04-22T09:59:51.663Z</time></trkpt><trkpt lat="46.3140478" lon="13.1462498"><ele>338.7142857142857</ele><time>2026-04-22T09:59:58.662Z</time></trkpt><trkpt lat="46.3140238" lon="13.14634"><ele>339.28571428571433</ele><time>2026-04-22T10:00:07.574Z</time></trkpt><trkpt lat="46.3140692" lon="13.1462623"><ele>339.8571428571429</ele><time>2026-04-22T10:00:44.663Z</time></trkpt><trkpt lat="46.3141054" lon="13.1461717"><ele>340.42857142857144</ele><time>2026-04-22T10:00:50.662Z</time></trkpt><trkpt lat="46.3141625" lon="13.1461113"><ele>341.0</ele><time>2026-04-22T10:00:57.662Z</time></trkpt><trkpt lat="46.3140957" lon="13.1460538"><ele>341.0</ele><time>2026-04-22T10:06:11.661Z</time></trkpt><trkpt lat="46.3140869" lon="13.1459371"><ele>341.0</ele><time>2026-04-22T10:06:14.661Z</time></trkpt><trkpt lat="46.3140873" lon="13.1458266"><ele>341.0</ele><time>2026-04-22T10:06:16.662Z</time></trkpt><trkpt lat="46.3140833" lon="13.1456528"><ele>341.0</ele><time>2026-04-22T10:06:18.661Z</time></trkpt><trkpt lat="46.314083" lon="13.1454838"><ele>341.0</ele><time>2026-04-22T10:06:20.661Z</time></trkpt><trkpt lat="46.3140954" lon="13.1453253"><ele>340.33333333333337</ele><time>2026-04-22T10:06:22.661Z</time></trkpt><trkpt lat="46.3141042" lon="13.1452127"><ele>339.6666666666667</ele><time>2026-04-22T10:06:24.661Z</time></trkpt><trkpt lat="46.3141197" lon="13.1450938"><ele>339.0</ele><time>2026-04-22T10:06:26.663Z</time></trkpt><trkpt lat="46.3141339" lon="13.1449862"><ele>338.3333333333333</ele><time>2026-04-22T10:06:28.661Z</time></trkpt><trkpt lat="46.3141633" lon="13.1448759"><ele>337.66666666666663</ele><time>2026-04-22T10:06:30.661Z</time></trkpt><trkpt lat="46.3141997" lon="13.1447615"><ele>337.0</ele><time>2026-04-22T10:06:33.661Z</time></trkpt><trkpt lat="46.3142203" lon="13.1446586"><ele>336.16666666666663</ele><time>2026-04-22T10:06:35.662Z</time></trkpt><trkpt lat="46.314216" lon="13.144559"><ele>335.3333333333333</ele><time>2026-04-22T10:06:37.661Z</time></trkpt><trkpt lat="46.3141929" lon="13.1444431"><ele>334.5</ele><time>2026-04-22T10:06:39.662Z</time></trkpt><trkpt lat="46.314173" lon="13.144329"><ele>333.6666666666667</ele><time>2026-04-22T10:06:41.661Z</time></trkpt><trkpt lat="46.3141452" lon="13.1442384"><ele>332.83333333333337</ele><time>2026-04-22T10:06:43.661Z</time></trkpt><trkpt lat="46.3140961" lon="13.1441496"><ele>332.0</ele><time>2026-04-22T10:06:46.661Z</time></trkpt><trkpt lat="46.3140412" lon="13.1440512"><ele>331.20000000000005</ele><time>2026-04-22T10:06:48.661Z</time></trkpt><trkpt lat="46.3139919" lon="13.143928"><ele>330.4</ele><time>2026-04-22T10:06:50.661Z</time></trkpt><trkpt lat="46.3139495" lon="13.1437902"><ele>329.6</ele><time>2026-04-22T10:06:52.661Z</time></trkpt><trkpt lat="46.3139098" lon="13.1436315"><ele>328.79999999999995</ele><time>2026-04-22T10:06:54.662Z</time></trkpt><trkpt lat="46.3138687" lon="13.1434582"><ele>328.0</ele><time>2026-04-22T10:06:56.661Z</time></trkpt><trkpt lat="46.3138465" lon="13.1433694"><ele>327.5</ele><time>2026-04-22T10:06:57.661Z</time></trkpt><trkpt lat="46.3138171" lon="13.1432855"><ele>327.0</ele><time>2026-04-22T10:06:58.662Z</time></trkpt><trkpt lat="46.3137916" lon="13.1431971"><ele>326.5</ele><time>2026-04-22T10:06:59.661Z</time></trkpt><trkpt lat="46.3137643" lon="13.143076"><ele>326.0</ele><time>2026-04-22T10:07:00.662Z</time></trkpt><trkpt lat="46.3137382" lon="13.1429739"><ele>325.5</ele><time>2026-04-22T10:07:01.661Z</time></trkpt><trkpt lat="46.3137149" lon="13.1428824"><ele>325.0</ele><time>2026-04-22T10:07:02.662Z</time></trkpt><trkpt lat="46.3136897" lon="13.142721"><ele>324.16666666666663</ele><time>2026-04-22T10:07:04.66Z</time></trkpt><trkpt lat="46.3136812" lon="13.1426082"><ele>323.3333333333333</ele><time>2026-04-22T10:07:06.661Z</time></trkpt><trkpt lat="46.3136702" lon="13.1424909"><ele>322.5</ele><time>2026-04-22T10:07:43.661Z</time></trkpt><trkpt lat="46.3136302" lon="13.1423186"><ele>321.6666666666667</ele><time>2026-04-22T10:07:45.66Z</time></trkpt><trkpt lat="46.313612" lon="13.1422312"><ele>320.83333333333337</ele><time>2026-04-22T10:07:46.662Z</time></trkpt><trkpt lat="46.3135887" lon="13.1421363"><ele>320.0</ele><time>2026-04-22T10:07:47.66Z</time></trkpt><trkpt lat="46.313569" lon="13.142043"><ele>319.2857142857143</ele><time>2026-04-22T10:07:48.66Z</time></trkpt><trkpt lat="46.313561" lon="13.1419414"><ele>318.57142857142856</ele><time>2026-04-22T10:07:49.661Z</time></trkpt><trkpt lat="46.3135461" lon="13.1418283"><ele>317.8571428571429</ele><time>2026-04-22T10:07:50.66Z</time></trkpt><trkpt lat="46.313527" lon="13.1417166"><ele>317.1428571428571</ele><time>2026-04-22T10:07:51.661Z</time></trkpt><trkpt lat="46.3135081" lon="13.1416154"><ele>316.42857142857144</ele><time>2026-04-22T10:07:52.661Z</time></trkpt><trkpt lat="46.3134895" lon="13.1415107"><ele>315.7142857142857</ele><time>2026-04-22T10:07:53.66Z</time></trkpt><trkpt lat="46.3134747" lon="13.1414096"><ele>315.0</ele><time>2026-04-22T10:07:54.66Z</time></trkpt><trkpt lat="46.3134532" lon="13.1412889"><ele>314.3333333333333</ele><time>2026-04-22T10:07:55.661Z</time></trkpt><trkpt lat="46.3134285" lon="13.1411808"><ele>313.6666666666667</ele><time>2026-04-22T10:07:56.66Z</time></trkpt><trkpt lat="46.3134062" lon="13.141067"><ele>313.0</ele><time>2026-04-22T10:07:57.661Z</time></trkpt><trkpt lat="46.3133794" lon="13.1409546"><ele>312.33333333333337</ele><time>2026-04-22T10:07:58.66Z</time></trkpt><trkpt lat="46.3133313" lon="13.1408404"><ele>311.6666666666667</ele><time>2026-04-22T10:07:59.66Z</time></trkpt><trkpt lat="46.3132832" lon="13.1407381"><ele>311.0</ele><time>2026-04-22T10:08:00.661Z</time></trkpt><trkpt lat="46.3132525" lon="13.1406483"><ele>310.2</ele><time>2026-04-22T10:08:01.66Z</time></trkpt><trkpt lat="46.3132249" lon="13.1405628"><ele>309.40000000000003</ele><time>2026-04-22T10:08:02.662Z</time></trkpt><trkpt lat="46.3131794" lon="13.1404273"><ele>308.6</ele><time>2026-04-22T10:08:04.66Z</time></trkpt><trkpt lat="46.3131467" lon="13.1402999"><ele>307.8</ele><time>2026-04-22T10:08:06.66Z</time></trkpt><trkpt lat="46.313153" lon="13.1400935"><ele>307.0</ele><time>2026-04-22T10:08:08.66Z</time></trkpt><trkpt lat="46.3131782" lon="13.1399709"><ele>306.3333333333333</ele><time>2026-04-22T10:08:09.66Z</time></trkpt><trkpt lat="46.3132042" lon="13.1398599"><ele>305.66666666666663</ele><time>2026-04-22T10:08:10.661Z</time></trkpt><trkpt lat="46.3132306" lon="13.1397508"><ele>305.0</ele><time>2026-04-22T10:08:11.66Z</time></trkpt><trkpt lat="46.3132528" lon="13.1396463"><ele>304.3333333333333</ele><time>2026-04-22T10:08:12.661Z</time></trkpt><trkpt lat="46.3132751" lon="13.1395447"><ele>303.6666666666667</ele><time>2026-04-22T10:08:13.66Z</time></trkpt><trkpt lat="46.3132998" lon="13.1394327"><ele>303.0</ele><time>2026-04-22T10:08:14.661Z</time></trkpt><trkpt lat="46.313314" lon="13.1393102"><ele>303.0</ele><time>2026-04-22T10:08:15.66Z</time></trkpt><trkpt lat="46.3133199" lon="13.1391639"><ele>303.0</ele><time>2026-04-22T10:08:16.66Z</time></trkpt><trkpt lat="46.3133224" lon="13.1390305"><ele>303.0</ele><time>2026-04-22T10:08:17.66Z</time></trkpt><trkpt lat="46.3133271" lon="13.1388775"><ele>303.0</ele><time>2026-04-22T10:08:18.66Z</time></trkpt><trkpt lat="46.3133357" lon="13.1387378"><ele>303.0</ele><time>2026-04-22T10:08:19.66Z</time></trkpt><trkpt lat="46.3133425" lon="13.1386015"><ele>301.8</ele><time>2026-04-22T10:08:20.661Z</time></trkpt><trkpt lat="46.3133545" lon="13.1384709"><ele>300.6</ele><time>2026-04-22T10:08:21.66Z</time></trkpt><trkpt lat="46.3133633" lon="13.1383398"><ele>299.4</ele><time>2026-04-22T10:08:22.661Z</time></trkpt><trkpt lat="46.3133665" lon="13.1382014"><ele>298.2</ele><time>2026-04-22T10:08:23.66Z</time></trkpt><trkpt lat="46.3133678" lon="13.1380734"><ele>297.0</ele><time>2026-04-22T10:08:24.66Z</time></trkpt><trkpt lat="46.3133701" lon="13.137939"><ele>295.8</ele><time>2026-04-22T10:08:25.66Z</time></trkpt><trkpt lat="46.3133825" lon="13.1377938"><ele>294.6</ele><time>2026-04-22T10:08:26.66Z</time></trkpt><trkpt lat="46.3133933" lon="13.1376657"><ele>293.40000000000003</ele><time>2026-04-22T10:08:27.661Z</time></trkpt><trkpt lat="46.3133996" lon="13.1375396"><ele>292.2</ele><time>2026-04-22T10:08:28.66Z</time></trkpt><trkpt lat="46.3134074" lon="13.1374135"><ele>291.0</ele><time>2026-04-22T10:08:29.66Z</time></trkpt><trkpt lat="46.3134071" lon="13.1372902"><ele>290.1666666666667</ele><time>2026-04-22T10:08:30.661Z</time></trkpt><trkpt lat="46.3134042" lon="13.1371768"><ele>289.3333333333333</ele><time>2026-04-22T10:08:31.661Z</time></trkpt><trkpt lat="46.3134061" lon="13.1370555"><ele>288.5</ele><time>2026-04-22T10:08:32.66Z</time></trkpt><trkpt lat="46.3134066" lon="13.1369378"><ele>287.66666666666663</ele><time>2026-04-22T10:08:33.66Z</time></trkpt><trkpt lat="46.3134096" lon="13.1368261"><ele>286.8333333333333</ele><time>2026-04-22T10:08:34.66Z</time></trkpt><trkpt lat="46.3134262" lon="13.1366946"><ele>286.0</ele><time>2026-04-22T10:08:35.66Z</time></trkpt><trkpt lat="46.3134424" lon="13.1365689"><ele>285.3333333333333</ele><time>2026-04-22T10:08:36.661Z</time></trkpt><trkpt lat="46.3134494" lon="13.1364537"><ele>284.66666666666663</ele><time>2026-04-22T10:08:37.66Z</time></trkpt><trkpt lat="46.3134569" lon="13.1363417"><ele>284.0</ele><time>2026-04-22T10:08:38.66Z</time></trkpt><trkpt lat="46.3134696" lon="13.1362209"><ele>283.3333333333333</ele><time>2026-04-22T10:08:39.66Z</time></trkpt><trkpt lat="46.3134803" lon="13.1361079"><ele>282.6666666666667</ele><time>2026-04-22T10:08:40.66Z</time></trkpt><trkpt lat="46.3134831" lon="13.135996"><ele>282.0</ele><time>2026-04-22T10:08:41.66Z</time></trkpt><trkpt lat="46.3134872" lon="13.1358897"><ele>282.0</ele><time>2026-04-22T10:08:42.661Z</time></trkpt><trkpt lat="46.3134932" lon="13.1357876"><ele>282.0</ele><time>2026-04-22T10:08:43.66Z</time></trkpt><trkpt lat="46.3134903" lon="13.1356905"><ele>282.0</ele><time>2026-04-22T10:08:44.661Z</time></trkpt><trkpt lat="46.3134813" lon="13.1355862"><ele>282.0</ele><time>2026-04-22T10:08:45.662Z</time></trkpt><trkpt lat="46.313473" lon="13.1354797"><ele>282.0</ele><time>2026-04-22T10:08:46.66Z</time></trkpt><trkpt lat="46.3134695" lon="13.1353763"><ele>282.0</ele><time>2026-04-22T10:08:47.661Z</time></trkpt><trkpt lat="46.3134785" lon="13.1352317"><ele>281.0</ele><time>2026-04-22T10:08:49.66Z</time></trkpt><trkpt lat="46.3134838" lon="13.1351005"><ele>280.0</ele><time>2026-04-22T10:08:51.66Z</time></trkpt><trkpt lat="46.3134744" lon="13.1349729"><ele>279.0</ele><time>2026-04-22T10:08:53.66Z</time></trkpt><trkpt lat="46.3134023" lon="13.1348458"><ele>278.0</ele><time>2026-04-22T10:08:55.661Z</time></trkpt><trkpt lat="46.3133409" lon="13.1347589"><ele>277.0</ele><time>2026-04-22T10:08:56.66Z</time></trkpt><trkpt lat="46.3132704" lon="13.1346726"><ele>275.8</ele><time>2026-04-22T10:08:57.66Z</time></trkpt><trkpt lat="46.31321" lon="13.1345766"><ele>274.6</ele><time>2026-04-22T10:08:58.66Z</time></trkpt><trkpt lat="46.3131571" lon="13.1344676"><ele>273.40000000000003</ele><time>2026-04-22T10:08:59.661Z</time></trkpt><trkpt lat="46.3131014" lon="13.1343484"><ele>272.2</ele><time>2026-04-22T10:09:00.661Z</time></trkpt><trkpt lat="46.313055" lon="13.1342303"><ele>271.0</ele><time>2026-04-22T10:09:01.66Z</time></trkpt><trkpt lat="46.3130228" lon="13.1341142"><ele>269.66666666666663</ele><time>2026-04-22T10:09:02.66Z</time></trkpt><trkpt lat="46.3129909" lon="13.1339802"><ele>268.3333333333333</ele><time>2026-04-22T10:09:03.66Z</time></trkpt><trkpt lat="46.3129482" lon="13.1338581"><ele>267.0</ele><time>2026-04-22T10:09:04.66Z</time></trkpt><trkpt lat="46.3128998" lon="13.1337521"><ele>265.6666666666667</ele><time>2026-04-22T10:09:05.662Z</time></trkpt><trkpt lat="46.3128502" lon="13.1336547"><ele>264.33333333333337</ele><time>2026-04-22T10:09:06.66Z</time></trkpt><trkpt lat="46.3127969" lon="13.1335714"><ele>263.0</ele><time>2026-04-22T10:09:07.66Z</time></trkpt><trkpt lat="46.3127225" lon="13.1334914"><ele>263.0</ele><time>2026-04-22T10:09:08.661Z</time></trkpt><trkpt lat="46.3126436" lon="13.1334172"><ele>263.0</ele><time>2026-04-22T10:09:09.66Z</time></trkpt><trkpt lat="46.3125897" lon="13.1333505"><ele>263.0</ele><time>2026-04-22T10:09:10.66Z</time></trkpt><trkpt lat="46.3125433" lon="13.1332653"><ele>263.0</ele><time>2026-04-22T10:09:11.661Z</time></trkpt><trkpt lat="46.3125078" lon="13.1331703"><ele>263.0</ele><time>2026-04-22T10:09:12.661Z</time></trkpt><trkpt lat="46.3124651" lon="13.1330157"><ele>263.0</ele><time>2026-04-22T10:09:14.662Z</time></trkpt><trkpt lat="46.3124578" lon="13.132857"><ele>262.5</ele><time>2026-04-22T10:09:16.66Z</time></trkpt><trkpt lat="46.3124728" lon="13.1327519"><ele>262.0</ele><time>2026-04-22T10:09:17.662Z</time></trkpt><trkpt lat="46.3125054" lon="13.1325852"><ele>261.5</ele><time>2026-04-22T10:09:19.66Z</time></trkpt><trkpt lat="46.3125103" lon="13.1324905"><ele>261.0</ele><time>2026-04-22T10:09:20.661Z</time></trkpt><trkpt lat="46.3124783" lon="13.1323452"><ele>260.5</ele><time>2026-04-22T10:09:22.661Z</time></trkpt><trkpt lat="46.3124337" lon="13.1322667"><ele>260.0</ele><time>2026-04-22T10:09:23.662Z</time></trkpt><trkpt lat="46.3123718" lon="13.1322079"><ele>259.2</ele><time>2026-04-22T10:09:24.66Z</time></trkpt><trkpt lat="46.3122783" lon="13.1321338"><ele>258.4</ele><time>2026-04-22T10:09:25.66Z</time></trkpt><trkpt lat="46.312197" lon="13.1320628"><ele>257.6</ele><time>2026-04-22T10:09:26.66Z</time></trkpt><trkpt lat="46.3121257" lon="13.1319983"><ele>256.8</ele><time>2026-04-22T10:09:27.66Z</time></trkpt><trkpt lat="46.312058" lon="13.1319242"><ele>256.0</ele><time>2026-04-22T10:09:28.661Z</time></trkpt><trkpt lat="46.3119937" lon="13.1318489"><ele>254.99999999999997</ele><time>2026-04-22T10:09:29.661Z</time></trkpt><trkpt lat="46.3119163" lon="13.1317671"><ele>254.0</ele><time>2026-04-22T10:09:30.661Z</time></trkpt><trkpt lat="46.311846" lon="13.1317019"><ele>253.0</ele><time>2026-04-22T10:09:31.661Z</time></trkpt><trkpt lat="46.3117809" lon="13.1316467"><ele>252.0</ele><time>2026-04-22T10:09:32.66Z</time></trkpt><trkpt lat="46.3117153" lon="13.1315945"><ele>250.99999999999997</ele><time>2026-04-22T10:09:33.66Z</time></trkpt><trkpt lat="46.3116415" lon="13.1315353"><ele>250.0</ele><time>2026-04-22T10:09:34.66Z</time></trkpt><trkpt lat="46.3115726" lon="13.131485"><ele>248.16666666666666</ele><time>2026-04-22T10:09:35.66Z</time></trkpt><trkpt lat="46.3114973" lon="13.1314165"><ele>246.33333333333331</ele><time>2026-04-22T10:09:36.662Z</time></trkpt><trkpt lat="46.3114209" lon="13.1313505"><ele>244.5</ele><time>2026-04-22T10:09:37.66Z</time></trkpt><trkpt lat="46.3113515" lon="13.1312917"><ele>242.66666666666669</ele><time>2026-04-22T10:09:38.66Z</time></trkpt><trkpt lat="46.3112917" lon="13.1312405"><ele>240.83333333333334</ele><time>2026-04-22T10:09:39.66Z</time></trkpt><trkpt lat="46.3112381" lon="13.131189"><ele>239.0</ele><time>2026-04-22T10:09:40.661Z</time></trkpt><trkpt lat="46.3111621" lon="13.1311085"><ele>239.0</ele><time>2026-04-22T10:09:42.66Z</time></trkpt><trkpt lat="46.3110659" lon="13.1310431"><ele>238.99999999999997</ele><time>2026-04-22T10:09:45.661Z</time></trkpt><trkpt lat="46.310965" lon="13.1309758"><ele>238.99999999999997</ele><time>2026-04-22T10:09:47.661Z</time></trkpt><trkpt lat="46.3108767" lon="13.1308679"><ele>239.0</ele><time>2026-04-22T10:09:49.66Z</time></trkpt><trkpt lat="46.3108156" lon="13.1307262"><ele>239.0</ele><time>2026-04-22T10:09:51.66Z</time></trkpt><trkpt lat="46.3107663" lon="13.1305836"><ele>237.39999999999998</ele><time>2026-04-22T10:09:53.66Z</time></trkpt><trkpt lat="46.3107303" lon="13.1304257"><ele>235.79999999999998</ele><time>2026-04-22T10:09:55.661Z</time></trkpt><trkpt lat="46.3106937" lon="13.1302371"><ele>234.20000000000002</ele><time>2026-04-22T10:09:57.66Z</time></trkpt><trkpt lat="46.3106718" lon="13.1300606"><ele>232.60000000000002</ele><time>2026-04-22T10:09:59.66Z</time></trkpt><trkpt lat="46.3106645" lon="13.1299679"><ele>231.0</ele><time>2026-04-22T10:10:00.661Z</time></trkpt><trkpt lat="46.3106635" lon="13.1298121"><ele>230.20000000000002</ele><time>2026-04-22T10:10:02.661Z</time></trkpt><trkpt lat="46.3106794" lon="13.1296918"><ele>229.40000000000003</ele><time>2026-04-22T10:10:04.661Z</time></trkpt><trkpt lat="46.3107002" lon="13.1295639"><ele>228.6</ele><time>2026-04-22T10:10:06.66Z</time></trkpt><trkpt lat="46.3107533" lon="13.1294524"><ele>227.8</ele><time>2026-04-22T10:10:08.66Z</time></trkpt><trkpt lat="46.3108107" lon="13.129362"><ele>227.0</ele><time>2026-04-22T10:10:10.66Z</time></trkpt><trkpt lat="46.3108805" lon="13.1292463"><ele>227.0</ele><time>2026-04-22T10:10:12.661Z</time></trkpt><trkpt lat="46.3109807" lon="13.1291473"><ele>227.0</ele><time>2026-04-22T10:10:14.66Z</time></trkpt><trkpt lat="46.3110842" lon="13.129065"><ele>227.0</ele><time>2026-04-22T10:10:16.66Z</time></trkpt><trkpt lat="46.3111611" lon="13.1289686"><ele>227.0</ele><time>2026-04-22T10:10:18.66Z</time></trkpt><trkpt lat="46.3112085" lon="13.1288561"><ele>227.0</ele><time>2026-04-22T10:10:20.66Z</time></trkpt><trkpt lat="46.311227" lon="13.1287612"><ele>226.50000000000003</ele><time>2026-04-22T10:10:27.66Z</time></trkpt><trkpt lat="46.3112926" lon="13.1287675"><ele>226.0</ele><time>2026-04-22T10:10:42.661Z</time></trkpt><trkpt lat="46.311387" lon="13.1287974"><ele>225.5</ele><time>2026-04-22T10:10:45.661Z</time></trkpt><trkpt lat="46.3114605" lon="13.1287949"><ele>225.0</ele><time>2026-04-22T10:10:46.661Z</time></trkpt><trkpt lat="46.3115487" lon="13.1288011"><ele>224.50000000000003</ele><time>2026-04-22T10:10:47.66Z</time></trkpt><trkpt lat="46.311642" lon="13.1288141"><ele>224.0</ele><time>2026-04-22T10:10:48.661Z</time></trkpt><trkpt lat="46.3117497" lon="13.1288055"><ele>224.0</ele><time>2026-04-22T10:10:49.66Z</time></trkpt><trkpt lat="46.3118302" lon="13.1287894"><ele>223.99999999999997</ele><time>2026-04-22T10:10:50.66Z</time></trkpt><trkpt lat="46.3119123" lon="13.128785"><ele>223.99999999999997</ele><time>2026-04-22T10:10:51.66Z</time></trkpt><trkpt lat="46.3120262" lon="13.1287816"><ele>224.0</ele><time>2026-04-22T10:10:52.66Z</time></trkpt><trkpt lat="46.3121231" lon="13.1287854"><ele>224.0</ele><time>2026-04-22T10:10:53.66Z</time></trkpt><trkpt lat="46.3122213" lon="13.1287831"><ele>224.0</ele><time>2026-04-22T10:10:54.661Z</time></trkpt><trkpt lat="46.3123265" lon="13.1287873"><ele>223.99999999999997</ele><time>2026-04-22T10:10:55.66Z</time></trkpt><trkpt lat="46.3124342" lon="13.1287913"><ele>223.99999999999997</ele><time>2026-04-22T10:10:56.66Z</time></trkpt><trkpt lat="46.3125383" lon="13.128791"><ele>224.0</ele><time>2026-04-22T10:10:57.661Z</time></trkpt><trkpt lat="46.312638" lon="13.1287843"><ele>224.0</ele><time>2026-04-22T10:10:58.66Z</time></trkpt><trkpt lat="46.3127405" lon="13.1287827"><ele>224.0</ele><time>2026-04-22T10:10:59.66Z</time></trkpt><trkpt lat="46.312833" lon="13.1287791"><ele>223.99999999999997</ele><time>2026-04-22T10:11:00.662Z</time></trkpt><trkpt lat="46.3129295" lon="13.1287775"><ele>223.99999999999997</ele><time>2026-04-22T10:11:01.66Z</time></trkpt><trkpt lat="46.3130232" lon="13.1287821"><ele>224.0</ele><time>2026-04-22T10:11:02.66Z</time></trkpt><trkpt lat="46.313121" lon="13.1287877"><ele>224.0</ele><time>2026-04-22T10:11:03.661Z</time></trkpt><trkpt lat="46.3132111" lon="13.1287928"><ele>224.00000000000003</ele><time>2026-04-22T10:11:04.66Z</time></trkpt><trkpt lat="46.3132927" lon="13.1287929"><ele>224.0</ele><time>2026-04-22T10:11:05.66Z</time></trkpt><trkpt lat="46.313371" lon="13.128791"><ele>224.0</ele><time>2026-04-22T10:11:06.66Z</time></trkpt><trkpt lat="46.3134492" lon="13.1287988"><ele>224.0</ele><time>2026-04-22T10:11:07.66Z</time></trkpt><trkpt lat="46.3135263" lon="13.1288073"><ele>224.00000000000003</ele><time>2026-04-22T10:11:08.66Z</time></trkpt><trkpt lat="46.3136176" lon="13.1288129"><ele>224.0</ele><time>2026-04-22T10:11:09.66Z</time></trkpt><trkpt lat="46.3137244" lon="13.1288259"><ele>224.0</ele><time>2026-04-22T10:11:10.66Z</time></trkpt><trkpt lat="46.3138263" lon="13.1288406"><ele>223.99999999999997</ele><time>2026-04-22T10:11:11.66Z</time></trkpt><trkpt lat="46.3139268" lon="13.1288562"><ele>223.99999999999997</ele><time>2026-04-22T10:11:12.66Z</time></trkpt><trkpt lat="46.3140299" lon="13.1288765"><ele>224.0</ele><time>2026-04-22T10:11:13.66Z</time></trkpt><trkpt lat="46.3141307" lon="13.1289034"><ele>224.0</ele><time>2026-04-22T10:11:14.661Z</time></trkpt><trkpt lat="46.3142163" lon="13.1289355"><ele>224.66666666666669</ele><time>2026-04-22T10:11:15.66Z</time></trkpt><trkpt lat="46.3142935" lon="13.1289649"><ele>225.33333333333334</ele><time>2026-04-22T10:11:16.66Z</time></trkpt><trkpt lat="46.3143656" lon="13.1289928"><ele>226.0</ele><time>2026-04-22T10:11:17.661Z</time></trkpt><trkpt lat="46.314463" lon="13.1290213"><ele>226.66666666666669</ele><time>2026-04-22T10:11:19.66Z</time></trkpt><trkpt lat="46.3145295" lon="13.1290492"><ele>227.33333333333334</ele><time>2026-04-22T10:11:21.66Z</time></trkpt><trkpt lat="46.3146017" lon="13.1290633"><ele>228.0</ele><time>2026-04-22T10:11:24.66Z</time></trkpt><trkpt lat="46.3146579" lon="13.1291296"><ele>227.60000000000002</ele><time>2026-04-22T10:11:27.66Z</time></trkpt><trkpt lat="46.31472" lon="13.1291528"><ele>227.20000000000002</ele><time>2026-04-22T10:11:29.66Z</time></trkpt><trkpt lat="46.3147856" lon="13.1290186"><ele>226.8</ele><time>2026-04-22T10:11:31.66Z</time></trkpt><trkpt lat="46.314801" lon="13.1288861"><ele>226.4</ele><time>2026-04-22T10:11:33.66Z</time></trkpt><trkpt lat="46.3148558" lon="13.1287728"><ele>226.0</ele><time>2026-04-22T10:11:36.66Z</time></trkpt><trkpt lat="46.3149855" lon="13.1287753"><ele>226.0</ele><time>2026-04-22T10:11:38.661Z</time></trkpt><trkpt lat="46.3150735" lon="13.1288"><ele>226.00000000000003</ele><time>2026-04-22T10:11:39.66Z</time></trkpt><trkpt lat="46.3151711" lon="13.1288215"><ele>226.00000000000003</ele><time>2026-04-22T10:11:40.661Z</time></trkpt><trkpt lat="46.3152736" lon="13.1288479"><ele>226.0</ele><time>2026-04-22T10:11:41.66Z</time></trkpt><trkpt lat="46.3153925" lon="13.1288829"><ele>226.0</ele><time>2026-04-22T10:11:42.66Z</time></trkpt><trkpt lat="46.3155196" lon="13.128924"><ele>225.33333333333331</ele><time>2026-04-22T10:11:43.661Z</time></trkpt><trkpt lat="46.3156579" lon="13.1289695"><ele>224.66666666666669</ele><time>2026-04-22T10:11:44.66Z</time></trkpt><trkpt lat="46.3158048" lon="13.129023"><ele>224.0</ele><time>2026-04-22T10:11:45.662Z</time></trkpt><trkpt lat="46.3159602" lon="13.1290885"><ele>224.66666666666669</ele><time>2026-04-22T10:11:46.66Z</time></trkpt><trkpt lat="46.316114" lon="13.1291646"><ele>225.33333333333331</ele><time>2026-04-22T10:11:47.66Z</time></trkpt><trkpt lat="46.3162756" lon="13.1292511"><ele>226.0</ele><time>2026-04-22T10:11:48.661Z</time></trkpt><trkpt lat="46.3164494" lon="13.1293446"><ele>226.0</ele><time>2026-04-22T10:11:49.66Z</time></trkpt><trkpt lat="46.3166214" lon="13.1294373"><ele>226.0</ele><time>2026-04-22T10:11:50.66Z</time></trkpt><trkpt lat="46.3167963" lon="13.1295436"><ele>226.0</ele><time>2026-04-22T10:11:51.661Z</time></trkpt><trkpt lat="46.316959" lon="13.1296499"><ele>226.0</ele><time>2026-04-22T10:11:52.66Z</time></trkpt><trkpt lat="46.3171185" lon="13.1297538"><ele>226.0</ele><time>2026-04-22T10:11:53.66Z</time></trkpt><trkpt lat="46.3172738" lon="13.1298547"><ele>226.0</ele><time>2026-04-22T10:11:54.66Z</time></trkpt><trkpt lat="46.3174281" lon="13.1299555"><ele>226.33333333333331</ele><time>2026-04-22T10:11:55.66Z</time></trkpt><trkpt lat="46.3175904" lon="13.1300633"><ele>226.66666666666669</ele><time>2026-04-22T10:11:56.66Z</time></trkpt><trkpt lat="46.317766" lon="13.1301719"><ele>227.0</ele><time>2026-04-22T10:11:57.661Z</time></trkpt><trkpt lat="46.3179528" lon="13.1302721"><ele>225.33333333333334</ele><time>2026-04-22T10:11:58.66Z</time></trkpt><trkpt lat="46.3181357" lon="13.1303543"><ele>223.66666666666669</ele><time>2026-04-22T10:11:59.66Z</time></trkpt><trkpt lat="46.3183231" lon="13.1304179"><ele>222.0</ele><time>2026-04-22T10:12:00.662Z</time></trkpt><trkpt lat="46.3185102" lon="13.1304687"><ele>222.0</ele><time>2026-04-22T10:12:01.661Z</time></trkpt><trkpt lat="46.3186969" lon="13.1305002"><ele>222.0</ele><time>2026-04-22T10:12:02.66Z</time></trkpt><trkpt lat="46.3188839" lon="13.1305209"><ele>222.0</ele><time>2026-04-22T10:12:03.659Z</time></trkpt><trkpt lat="46.3190703" lon="13.1305263"><ele>222.0</ele><time>2026-04-22T10:12:04.66Z</time></trkpt><trkpt lat="46.3192564" lon="13.1305289"><ele>222.0</ele><time>2026-04-22T10:12:05.659Z</time></trkpt><trkpt lat="46.3194472" lon="13.1305303"><ele>222.0</ele><time>2026-04-22T10:12:06.66Z</time></trkpt><trkpt lat="46.3196399" lon="13.1305286"><ele>221.33333333333331</ele><time>2026-04-22T10:12:07.66Z</time></trkpt><trkpt lat="46.3198332" lon="13.1305281"><ele>220.66666666666666</ele><time>2026-04-22T10:12:08.661Z</time></trkpt><trkpt lat="46.3200289" lon="13.1305288"><ele>220.0</ele><time>2026-04-22T10:12:09.659Z</time></trkpt><trkpt lat="46.3202231" lon="13.1305313"><ele>220.0</ele><time>2026-04-22T10:12:10.659Z</time></trkpt><trkpt lat="46.3204155" lon="13.1305428"><ele>220.0</ele><time>2026-04-22T10:12:11.659Z</time></trkpt><trkpt lat="46.3206059" lon="13.1305642"><ele>220.0</ele><time>2026-04-22T10:12:12.659Z</time></trkpt><trkpt lat="46.320792" lon="13.1305898"><ele>220.0</ele><time>2026-04-22T10:12:13.66Z</time></trkpt><trkpt lat="46.3209733" lon="13.1306208"><ele>220.0</ele><time>2026-04-22T10:12:14.66Z</time></trkpt><trkpt lat="46.3211481" lon="13.1306595"><ele>220.0</ele><time>2026-04-22T10:12:15.659Z</time></trkpt><trkpt lat="46.3213165" lon="13.1307009"><ele>220.66666666666666</ele><time>2026-04-22T10:12:16.66Z</time></trkpt><trkpt lat="46.3214864" lon="13.1307445"><ele>221.33333333333331</ele><time>2026-04-22T10:12:17.659Z</time></trkpt><trkpt lat="46.3216569" lon="13.1307906"><ele>222.0</ele><time>2026-04-22T10:12:18.659Z</time></trkpt><trkpt lat="46.3218288" lon="13.1308392"><ele>222.0</ele><time>2026-04-22T10:12:19.659Z</time></trkpt><trkpt lat="46.3220014" lon="13.1308861"><ele>222.0</ele><time>2026-04-22T10:12:20.659Z</time></trkpt><trkpt lat="46.3221719" lon="13.1309341"><ele>222.0</ele><time>2026-04-22T10:12:21.659Z</time></trkpt><trkpt lat="46.3223402" lon="13.1309826"><ele>221.66666666666669</ele><time>2026-04-22T10:12:22.659Z</time></trkpt><trkpt lat="46.3225053" lon="13.13103"><ele>221.33333333333334</ele><time>2026-04-22T10:12:23.659Z</time></trkpt><trkpt lat="46.3226678" lon="13.1310779"><ele>221.0</ele><time>2026-04-22T10:12:24.659Z</time></trkpt><trkpt lat="46.3228294" lon="13.1311229"><ele>221.0</ele><time>2026-04-22T10:12:25.659Z</time></trkpt><trkpt lat="46.3229885" lon="13.1311635"><ele>221.0</ele><time>2026-04-22T10:12:26.659Z</time></trkpt><trkpt lat="46.3231486" lon="13.1312058"><ele>221.0</ele><time>2026-04-22T10:12:27.659Z</time></trkpt><trkpt lat="46.3233068" lon="13.1312531"><ele>221.33333333333334</ele><time>2026-04-22T10:12:28.659Z</time></trkpt><trkpt lat="46.3234627" lon="13.1313001"><ele>221.66666666666669</ele><time>2026-04-22T10:12:29.659Z</time></trkpt><trkpt lat="46.3236189" lon="13.131352"><ele>222.0</ele><time>2026-04-22T10:12:30.659Z</time></trkpt><trkpt lat="46.3237735" lon="13.1314123"><ele>222.0</ele><time>2026-04-22T10:12:31.659Z</time></trkpt><trkpt lat="46.3239251" lon="13.1314779"><ele>222.0</ele><time>2026-04-22T10:12:32.659Z</time></trkpt><trkpt lat="46.3240735" lon="13.13155"><ele>222.0</ele><time>2026-04-22T10:12:33.659Z</time></trkpt><trkpt lat="46.3242164" lon="13.1316348"><ele>222.33333333333331</ele><time>2026-04-22T10:12:34.659Z</time></trkpt><trkpt lat="46.3243548" lon="13.1317288"><ele>222.66666666666666</ele><time>2026-04-22T10:12:35.66Z</time></trkpt><trkpt lat="46.3244884" lon="13.1318314"><ele>223.0</ele><time>2026-04-22T10:12:36.659Z</time></trkpt><trkpt lat="46.3246191" lon="13.1319377"><ele>223.0</ele><time>2026-04-22T10:12:37.659Z</time></trkpt><trkpt lat="46.3247486" lon="13.1320457"><ele>223.0</ele><time>2026-04-22T10:12:38.659Z</time></trkpt><trkpt lat="46.3248761" lon="13.1321566"><ele>223.0</ele><time>2026-04-22T10:12:39.66Z</time></trkpt><trkpt lat="46.3250017" lon="13.1322699"><ele>223.0</ele><time>2026-04-22T10:12:40.66Z</time></trkpt><trkpt lat="46.3251254" lon="13.1323866"><ele>222.75</ele><time>2026-04-22T10:12:41.66Z</time></trkpt><trkpt lat="46.325249" lon="13.1325047"><ele>222.5</ele><time>2026-04-22T10:12:42.659Z</time></trkpt><trkpt lat="46.3253747" lon="13.1326238"><ele>222.25</ele><time>2026-04-22T10:12:43.659Z</time></trkpt><trkpt lat="46.3254998" lon="13.1327416"><ele>222.0</ele><time>2026-04-22T10:12:44.659Z</time></trkpt><trkpt lat="46.3256256" lon="13.1328597"><ele>223.0</ele><time>2026-04-22T10:12:45.659Z</time></trkpt><trkpt lat="46.3257528" lon="13.1329774"><ele>224.0</ele><time>2026-04-22T10:12:46.66Z</time></trkpt><trkpt lat="46.3258805" lon="13.1330958"><ele>225.0</ele><time>2026-04-22T10:12:47.659Z</time></trkpt><trkpt lat="46.3260087" lon="13.133215"><ele>225.0</ele><time>2026-04-22T10:12:48.659Z</time></trkpt><trkpt lat="46.3261372" lon="13.1333333"><ele>225.0</ele><time>2026-04-22T10:12:49.66Z</time></trkpt><trkpt lat="46.3262682" lon="13.1334527"><ele>225.0</ele><time>2026-04-22T10:12:50.66Z</time></trkpt><trkpt lat="46.3264006" lon="13.1335742"><ele>224.66666666666669</ele><time>2026-04-22T10:12:51.659Z</time></trkpt><trkpt lat="46.3265348" lon="13.1336991"><ele>224.33333333333334</ele><time>2026-04-22T10:12:52.661Z</time></trkpt><trkpt lat="46.3266705" lon="13.1338284"><ele>224.0</ele><time>2026-04-22T10:12:53.659Z</time></trkpt><trkpt lat="46.3268056" lon="13.1339568"><ele>224.33333333333334</ele><time>2026-04-22T10:12:54.659Z</time></trkpt><trkpt lat="46.3269419" lon="13.1340853"><ele>224.66666666666669</ele><time>2026-04-22T10:12:55.659Z</time></trkpt><trkpt lat="46.3270793" lon="13.1342151"><ele>225.0</ele><time>2026-04-22T10:12:56.66Z</time></trkpt><trkpt lat="46.3272164" lon="13.1343451"><ele>224.66666666666669</ele><time>2026-04-22T10:12:57.661Z</time></trkpt><trkpt lat="46.3273496" lon="13.1344704"><ele>224.33333333333334</ele><time>2026-04-22T10:12:58.659Z</time></trkpt><trkpt lat="46.3274784" lon="13.1345902"><ele>224.0</ele><time>2026-04-22T10:12:59.659Z</time></trkpt><trkpt lat="46.3276123" lon="13.1347149"><ele>224.0</ele><time>2026-04-22T10:13:00.659Z</time></trkpt><trkpt lat="46.3277469" lon="13.1348398"><ele>224.0</ele><time>2026-04-22T10:13:01.66Z</time></trkpt><trkpt lat="46.3278871" lon="13.134969"><ele>224.0</ele><time>2026-04-22T10:13:02.66Z</time></trkpt><trkpt lat="46.3280324" lon="13.1351035"><ele>224.33333333333334</ele><time>2026-04-22T10:13:03.659Z</time></trkpt><trkpt lat="46.3281798" lon="13.1352344"><ele>224.66666666666669</ele><time>2026-04-22T10:13:04.659Z</time></trkpt><trkpt lat="46.3283252" lon="13.1353687"><ele>225.0</ele><time>2026-04-22T10:13:05.659Z</time></trkpt><trkpt lat="46.3284614" lon="13.1354973"><ele>225.0</ele><time>2026-04-22T10:13:06.661Z</time></trkpt><trkpt lat="46.3285937" lon="13.1356211"><ele>225.0</ele><time>2026-04-22T10:13:07.659Z</time></trkpt><trkpt lat="46.3287222" lon="13.1357405"><ele>225.0</ele><time>2026-04-22T10:13:08.659Z</time></trkpt><trkpt lat="46.3288482" lon="13.1358612"><ele>225.33333333333331</ele><time>2026-04-22T10:13:09.659Z</time></trkpt><trkpt lat="46.3289735" lon="13.1359822"><ele>225.66666666666666</ele><time>2026-04-22T10:13:10.66Z</time></trkpt><trkpt lat="46.3291018" lon="13.1361006"><ele>226.0</ele><time>2026-04-22T10:13:11.659Z</time></trkpt><trkpt lat="46.329232" lon="13.1362176"><ele>226.0</ele><time>2026-04-22T10:13:12.66Z</time></trkpt><trkpt lat="46.3293687" lon="13.1363332"><ele>226.0</ele><time>2026-04-22T10:13:13.659Z</time></trkpt><trkpt lat="46.3295075" lon="13.1364451"><ele>226.0</ele><time>2026-04-22T10:13:14.661Z</time></trkpt><trkpt lat="46.3296484" lon="13.1365564"><ele>226.0</ele><time>2026-04-22T10:13:15.659Z</time></trkpt><trkpt lat="46.3297897" lon="13.1366641"><ele>226.0</ele><time>2026-04-22T10:13:16.66Z</time></trkpt><trkpt lat="46.3299311" lon="13.1367703"><ele>226.0</ele><time>2026-04-22T10:13:17.66Z</time></trkpt><trkpt lat="46.3300715" lon="13.1368754"><ele>226.0</ele><time>2026-04-22T10:13:18.659Z</time></trkpt><trkpt lat="46.3302239" lon="13.1369899"><ele>226.0</ele><time>2026-04-22T10:13:19.659Z</time></trkpt><trkpt lat="46.3303719" lon="13.1371006"><ele>226.0</ele><time>2026-04-22T10:13:20.66Z</time></trkpt><trkpt lat="46.330518" lon="13.1372097"><ele>226.66666666666666</ele><time>2026-04-22T10:13:21.66Z</time></trkpt><trkpt lat="46.3306562" lon="13.1373102"><ele>227.33333333333331</ele><time>2026-04-22T10:13:22.659Z</time></trkpt><trkpt lat="46.3307904" lon="13.1374038"><ele>228.0</ele><time>2026-04-22T10:13:23.659Z</time></trkpt><trkpt lat="46.3309253" lon="13.1375018"><ele>228.0</ele><time>2026-04-22T10:13:24.66Z</time></trkpt><trkpt lat="46.3310607" lon="13.1376042"><ele>228.0</ele><time>2026-04-22T10:13:25.659Z</time></trkpt><trkpt lat="46.3312005" lon="13.1377122"><ele>228.0</ele><time>2026-04-22T10:13:26.659Z</time></trkpt><trkpt lat="46.331357" lon="13.137833"><ele>228.33333333333331</ele><time>2026-04-22T10:13:27.659Z</time></trkpt><trkpt lat="46.3315005" lon="13.1379424"><ele>228.66666666666666</ele><time>2026-04-22T10:13:28.659Z</time></trkpt><trkpt lat="46.3316489" lon="13.1380465"><ele>229.0</ele><time>2026-04-22T10:13:29.659Z</time></trkpt><trkpt lat="46.3318036" lon="13.1381345"><ele>229.0</ele><time>2026-04-22T10:13:30.659Z</time></trkpt><trkpt lat="46.3319607" lon="13.1381938"><ele>229.0</ele><time>2026-04-22T10:13:31.659Z</time></trkpt><trkpt lat="46.332122" lon="13.1382164"><ele>229.0</ele><time>2026-04-22T10:13:32.659Z</time></trkpt><trkpt lat="46.3322847" lon="13.1382018"><ele>229.33333333333331</ele><time>2026-04-22T10:13:33.66Z</time></trkpt><trkpt lat="46.332446" lon="13.1381574"><ele>229.66666666666669</ele><time>2026-04-22T10:13:34.659Z</time></trkpt><trkpt lat="46.3326043" lon="13.1380881"><ele>230.0</ele><time>2026-04-22T10:13:35.659Z</time></trkpt><trkpt lat="46.3327602" lon="13.1380018"><ele>230.0</ele><time>2026-04-22T10:13:36.659Z</time></trkpt><trkpt lat="46.332914" lon="13.1379055"><ele>230.0</ele><time>2026-04-22T10:13:37.659Z</time></trkpt><trkpt lat="46.3330645" lon="13.1378084"><ele>230.0</ele><time>2026-04-22T10:13:38.66Z</time></trkpt><trkpt lat="46.3332125" lon="13.1377132"><ele>229.66666666666669</ele><time>2026-04-22T10:13:39.66Z</time></trkpt><trkpt lat="46.3333575" lon="13.1376134"><ele>229.33333333333331</ele><time>2026-04-22T10:13:40.659Z</time></trkpt><trkpt lat="46.333502" lon="13.1375049"><ele>229.0</ele><time>2026-04-22T10:13:41.659Z</time></trkpt><trkpt lat="46.3336519" lon="13.1374092"><ele>228.66666666666666</ele><time>2026-04-22T10:13:42.659Z</time></trkpt><trkpt lat="46.3338094" lon="13.1373523"><ele>228.33333333333331</ele><time>2026-04-22T10:13:43.66Z</time></trkpt><trkpt lat="46.3339677" lon="13.1373206"><ele>228.0</ele><time>2026-04-22T10:13:44.659Z</time></trkpt><trkpt lat="46.3341276" lon="13.1373334"><ele>229.66666666666669</ele><time>2026-04-22T10:13:45.66Z</time></trkpt><trkpt lat="46.3342916" lon="13.1373987"><ele>231.33333333333334</ele><time>2026-04-22T10:13:46.659Z</time></trkpt><trkpt lat="46.3344665" lon="13.1374924"><ele>233.0</ele><time>2026-04-22T10:13:47.66Z</time></trkpt><trkpt lat="46.3346443" lon="13.1375924"><ele>233.0</ele><time>2026-04-22T10:13:48.659Z</time></trkpt><trkpt lat="46.3348238" lon="13.1376956"><ele>233.0</ele><time>2026-04-22T10:13:49.659Z</time></trkpt><trkpt lat="46.3350021" lon="13.1378019"><ele>233.0</ele><time>2026-04-22T10:13:50.659Z</time></trkpt><trkpt lat="46.3351866" lon="13.1379121"><ele>233.0</ele><time>2026-04-22T10:13:51.659Z</time></trkpt><trkpt lat="46.3353904" lon="13.1380319"><ele>233.0</ele><time>2026-04-22T10:13:52.66Z</time></trkpt><trkpt lat="46.335581" lon="13.1381469"><ele>233.0</ele><time>2026-04-22T10:13:53.66Z</time></trkpt><trkpt lat="46.3357708" lon="13.1382593"><ele>232.33333333333334</ele><time>2026-04-22T10:13:54.659Z</time></trkpt><trkpt lat="46.3359674" lon="13.1383744"><ele>231.66666666666669</ele><time>2026-04-22T10:13:55.66Z</time></trkpt><trkpt lat="46.3361718" lon="13.1384957"><ele>231.0</ele><time>2026-04-22T10:13:56.66Z</time></trkpt><trkpt lat="46.3363616" lon="13.1386125"><ele>231.33333333333331</ele><time>2026-04-22T10:13:57.659Z</time></trkpt><trkpt lat="46.3365469" lon="13.1387237"><ele>231.66666666666666</ele><time>2026-04-22T10:13:58.66Z</time></trkpt><trkpt lat="46.3367333" lon="13.1388359"><ele>232.0</ele><time>2026-04-22T10:13:59.659Z</time></trkpt><trkpt lat="46.3369174" lon="13.1389489"><ele>231.66666666666666</ele><time>2026-04-22T10:14:00.66Z</time></trkpt><trkpt lat="46.3371008" lon="13.1390563"><ele>231.33333333333331</ele><time>2026-04-22T10:14:01.659Z</time></trkpt><trkpt lat="46.3372796" lon="13.1391626"><ele>231.0</ele><time>2026-04-22T10:14:02.659Z</time></trkpt><trkpt lat="46.3374564" lon="13.1392655"><ele>231.0</ele><time>2026-04-22T10:14:03.66Z</time></trkpt><trkpt lat="46.3376293" lon="13.1393661"><ele>231.0</ele><time>2026-04-22T10:14:04.659Z</time></trkpt><trkpt lat="46.3378" lon="13.1394688"><ele>231.0</ele><time>2026-04-22T10:14:05.659Z</time></trkpt><trkpt lat="46.3379698" lon="13.1395601"><ele>231.66666666666669</ele><time>2026-04-22T10:14:06.659Z</time></trkpt><trkpt lat="46.3381494" lon="13.1396375"><ele>232.33333333333334</ele><time>2026-04-22T10:14:07.659Z</time></trkpt><trkpt lat="46.3383439" lon="13.1397096"><ele>233.0</ele><time>2026-04-22T10:14:08.659Z</time></trkpt><trkpt lat="46.3385397" lon="13.1397676"><ele>233.0</ele><time>2026-04-22T10:14:09.659Z</time></trkpt><trkpt lat="46.3387377" lon="13.1398127"><ele>233.0</ele><time>2026-04-22T10:14:10.659Z</time></trkpt><trkpt lat="46.3389379" lon="13.1398375"><ele>233.0</ele><time>2026-04-22T10:14:11.659Z</time></trkpt><trkpt lat="46.3391401" lon="13.1398489"><ele>233.0</ele><time>2026-04-22T10:14:12.66Z</time></trkpt><trkpt lat="46.3393433" lon="13.1398503"><ele>233.0</ele><time>2026-04-22T10:14:13.659Z</time></trkpt><trkpt lat="46.3395434" lon="13.1398448"><ele>233.0</ele><time>2026-04-22T10:14:14.659Z</time></trkpt><trkpt lat="46.3397476" lon="13.1398374"><ele>232.66666666666669</ele><time>2026-04-22T10:14:15.659Z</time></trkpt><trkpt lat="46.3399504" lon="13.1398316"><ele>232.33333333333331</ele><time>2026-04-22T10:14:16.659Z</time></trkpt><trkpt lat="46.3401558" lon="13.1398226"><ele>232.0</ele><time>2026-04-22T10:14:17.66Z</time></trkpt><trkpt lat="46.3403609" lon="13.1398115"><ele>232.0</ele><time>2026-04-22T10:14:18.659Z</time></trkpt><trkpt lat="46.3405651" lon="13.1397988"><ele>233.0</ele><time>2026-04-22T10:14:19.659Z</time></trkpt><trkpt lat="46.340768" lon="13.1397923"><ele>233.0</ele><time>2026-04-22T10:14:20.659Z</time></trkpt></trkseg></trk></gpx>